<?xml version='1.0' encoding='UTF-8'?><gpx version="1.1" creator="JPX - https://github.com/jenetics/jpx" xmlns="http://www.topografix.com/GPX/1/1"><trk><trkseg><trkpt lat="42.149396" lon="14.5860096"><ele>193.0</ele><time>2026-05-01T08:33:20.435Z</time></trkpt><trkpt lat="42.1496559" lon="14.5856662"><ele>193.0</ele><time>2026-05-01T08:33:21.936Z</time></trkpt><trkpt lat="42.1497058" lon="14.5855955"><ele>193.0</ele><time>2026-05-01T08:33:22.936Z</time></trkpt><trkpt lat="42.1499854" lon="14.5854072"><ele>193.33333333333331</ele><time>2026-05-01T08:33:25.635Z</time></trkpt><trkpt lat="42.1499009" lon="14.5855451"><ele>193.66666666666666</ele><time>2026-05-01T08:33:26.636Z</time></trkpt><trkpt lat="42.1499683" lon="14.5855239"><ele>194.0</ele><time>2026-05-01T08:33:29.636Z</time></trkpt><trkpt lat="42.1500165" lon="14.5854409"><ele>194.33333333333331</ele><time>2026-05-01T08:33:32.636Z</time></trkpt><trkpt lat="42.1500317" lon="14.5853467"><ele>194.66666666666666</ele><time>2026-05-01T08:33:39.897Z</time></trkpt><trkpt lat="42.1500417" lon="14.585245"><ele>195.0</ele><time>2026-05-01T08:34:25.896Z</time></trkpt><trkpt lat="42.1501081" lon="14.5852052"><ele>196.66666666666666</ele><time>2026-05-01T08:36:17.897Z</time></trkpt><trkpt lat="42.1501968" lon="14.585174"><ele>198.33333333333331</ele><time>2026-05-01T08:36:22.897Z</time></trkpt><trkpt lat="42.1502733" lon="14.5851226"><ele>200.0</ele><time>2026-05-01T08:36:27.897Z</time></trkpt><trkpt lat="42.1503558" lon="14.5851043"><ele>201.66666666666666</ele><time>2026-05-01T08:36:29.896Z</time></trkpt><trkpt lat="42.1504297" lon="14.5850891"><ele>203.33333333333331</ele><time>2026-05-01T08:36:31.897Z</time></trkpt><trkpt lat="42.1504959" lon="14.5850696"><ele>205.0</ele><time>2026-05-01T08:36:33.896Z</time></trkpt><trkpt lat="42.1505766" lon="14.5850368"><ele>204.99999999999997</ele><time>2026-05-01T08:36:36.896Z</time></trkpt><trkpt lat="42.1506732" lon="14.5850263"><ele>205.0</ele><time>2026-05-01T08:36:39.896Z</time></trkpt><trkpt lat="42.1507396" lon="14.5850268"><ele>205.0</ele><time>2026-05-01T08:36:41.897Z</time></trkpt><trkpt lat="42.1508283" lon="14.5850183"><ele>205.0</ele><time>2026-05-01T08:36:44.897Z</time></trkpt><trkpt lat="42.1508967" lon="14.5850167"><ele>204.99999999999997</ele><time>2026-05-01T08:36:47.897Z</time></trkpt><trkpt lat="42.1509833" lon="14.5850133"><ele>205.0</ele><time>2026-05-01T08:36:50.897Z</time></trkpt><trkpt lat="42.1510417" lon="14.5850567"><ele>205.16666666666666</ele><time>2026-05-01T08:36:51.897Z</time></trkpt><trkpt lat="42.1511467" lon="14.5850667"><ele>205.33333333333331</ele><time>2026-05-01T08:36:53.897Z</time></trkpt><trkpt lat="42.15125" lon="14.585055"><ele>205.5</ele><time>2026-05-01T08:36:55.896Z</time></trkpt><trkpt lat="42.1513367" lon="14.585005"><ele>205.66666666666669</ele><time>2026-05-01T08:36:56.896Z</time></trkpt><trkpt lat="42.1514067" lon="14.5849833"><ele>205.83333333333334</ele><time>2026-05-01T08:36:57.897Z</time></trkpt><trkpt lat="42.151475" lon="14.5849633"><ele>206.0</ele><time>2026-05-01T08:36:58.897Z</time></trkpt><trkpt lat="42.1515483" lon="14.58493"><ele>205.00000000000003</ele><time>2026-05-01T08:36:59.897Z</time></trkpt><trkpt lat="42.1516033" lon="14.5848717"><ele>204.0</ele><time>2026-05-01T08:37:00.897Z</time></trkpt><trkpt lat="42.15165" lon="14.58481"><ele>203.0</ele><time>2026-05-01T08:37:01.897Z</time></trkpt><trkpt lat="42.1516833" lon="14.584735"><ele>202.0</ele><time>2026-05-01T08:37:02.896Z</time></trkpt><trkpt lat="42.1517083" lon="14.584655"><ele>201.00000000000003</ele><time>2026-05-01T08:37:03.896Z</time></trkpt><trkpt lat="42.151745" lon="14.5844883"><ele>200.0</ele><time>2026-05-01T08:37:05.897Z</time></trkpt><trkpt lat="42.1517617" lon="14.5843033"><ele>199.71428571428572</ele><time>2026-05-01T08:37:07.896Z</time></trkpt><trkpt lat="42.1517733" lon="14.584205"><ele>199.42857142857144</ele><time>2026-05-01T08:37:08.896Z</time></trkpt><trkpt lat="42.1517883" lon="14.5841117"><ele>199.14285714285717</ele><time>2026-05-01T08:37:09.897Z</time></trkpt><trkpt lat="42.151805" lon="14.5840167"><ele>198.85714285714286</ele><time>2026-05-01T08:37:10.897Z</time></trkpt><trkpt lat="42.151825" lon="14.5839183"><ele>198.57142857142856</ele><time>2026-05-01T08:37:11.897Z</time></trkpt><trkpt lat="42.151845" lon="14.58382"><ele>198.2857142857143</ele><time>2026-05-01T08:37:12.897Z</time></trkpt><trkpt lat="42.1518583" lon="14.5837333"><ele>198.0</ele><time>2026-05-01T08:37:13.897Z</time></trkpt><trkpt lat="42.151865" lon="14.5835633"><ele>196.8</ele><time>2026-05-01T08:37:15.897Z</time></trkpt><trkpt lat="42.1518533" lon="14.5834233"><ele>195.60000000000002</ele><time>2026-05-01T08:37:17.896Z</time></trkpt><trkpt lat="42.151885" lon="14.5832783"><ele>194.39999999999998</ele><time>2026-05-01T08:37:19.897Z</time></trkpt><trkpt lat="42.151935" lon="14.583145"><ele>193.2</ele><time>2026-05-01T08:37:21.897Z</time></trkpt><trkpt lat="42.1519867" lon="14.583055"><ele>192.0</ele><time>2026-05-01T08:37:23.897Z</time></trkpt><trkpt lat="42.152065" lon="14.5830383"><ele>192.0</ele><time>2026-05-01T08:37:25.897Z</time></trkpt><trkpt lat="42.15214" lon="14.5831033"><ele>192.0</ele><time>2026-05-01T08:37:27.897Z</time></trkpt><trkpt lat="42.1522217" lon="14.5832017"><ele>192.0</ele><time>2026-05-01T08:37:29.897Z</time></trkpt><trkpt lat="42.1523" lon="14.5833183"><ele>192.0</ele><time>2026-05-01T08:37:31.897Z</time></trkpt><trkpt lat="42.1523467" lon="14.5833767"><ele>192.0</ele><time>2026-05-01T08:37:32.897Z</time></trkpt><trkpt lat="42.1523983" lon="14.5834367"><ele>192.0</ele><time>2026-05-01T08:37:33.897Z</time></trkpt><trkpt lat="42.1524483" lon="14.5835017"><ele>190.66666666666666</ele><time>2026-05-01T08:37:34.896Z</time></trkpt><trkpt lat="42.1525033" lon="14.5835783"><ele>189.33333333333334</ele><time>2026-05-01T08:37:35.896Z</time></trkpt><trkpt lat="42.1525583" lon="14.5836567"><ele>188.0</ele><time>2026-05-01T08:37:36.896Z</time></trkpt><trkpt lat="42.152615" lon="14.58373"><ele>186.66666666666669</ele><time>2026-05-01T08:37:37.897Z</time></trkpt><trkpt lat="42.1526733" lon="14.5838017"><ele>185.33333333333334</ele><time>2026-05-01T08:37:38.897Z</time></trkpt><trkpt lat="42.1527333" lon="14.5838733"><ele>184.0</ele><time>2026-05-01T08:37:39.897Z</time></trkpt><trkpt lat="42.1527917" lon="14.5839517"><ele>184.0</ele><time>2026-05-01T08:37:40.897Z</time></trkpt><trkpt lat="42.152845" lon="14.5840267"><ele>184.0</ele><time>2026-05-01T08:37:41.897Z</time></trkpt><trkpt lat="42.1529017" lon="14.584115"><ele>184.0</ele><time>2026-05-01T08:37:42.897Z</time></trkpt><trkpt lat="42.1529617" lon="14.584195"><ele>184.0</ele><time>2026-05-01T08:37:43.897Z</time></trkpt><trkpt lat="42.153015" lon="14.5842733"><ele>184.0</ele><time>2026-05-01T08:37:44.897Z</time></trkpt><trkpt lat="42.153075" lon="14.5843533"><ele>184.0</ele><time>2026-05-01T08:37:45.897Z</time></trkpt><trkpt lat="42.1531333" lon="14.584445"><ele>184.83333333333334</ele><time>2026-05-01T08:37:46.897Z</time></trkpt><trkpt lat="42.1531783" lon="14.5845367"><ele>185.66666666666669</ele><time>2026-05-01T08:37:47.897Z</time></trkpt><trkpt lat="42.1532133" lon="14.5846333"><ele>186.5</ele><time>2026-05-01T08:37:48.896Z</time></trkpt><trkpt lat="42.153245" lon="14.5847333"><ele>187.33333333333334</ele><time>2026-05-01T08:37:49.896Z</time></trkpt><trkpt lat="42.1532717" lon="14.5848267"><ele>188.16666666666666</ele><time>2026-05-01T08:37:50.897Z</time></trkpt><trkpt lat="42.1532933" lon="14.5849167"><ele>189.0</ele><time>2026-05-01T08:37:51.897Z</time></trkpt><trkpt lat="42.153315" lon="14.58508"><ele>187.0</ele><time>2026-05-01T08:37:53.897Z</time></trkpt><trkpt lat="42.15333" lon="14.58521"><ele>185.0</ele><time>2026-05-01T08:37:55.897Z</time></trkpt><trkpt lat="42.1533917" lon="14.5852733"><ele>183.0</ele><time>2026-05-01T08:37:58.897Z</time></trkpt><trkpt lat="42.153465" lon="14.5852717"><ele>181.0</ele><time>2026-05-01T08:38:00.897Z</time></trkpt><trkpt lat="42.1535467" lon="14.5852483"><ele>179.0</ele><time>2026-05-01T08:38:02.897Z</time></trkpt><trkpt lat="42.1536333" lon="14.5852433"><ele>177.0</ele><time>2026-05-01T08:38:04.896Z</time></trkpt><trkpt lat="42.1537467" lon="14.5852417"><ele>177.0</ele><time>2026-05-01T08:38:06.896Z</time></trkpt><trkpt lat="42.15384" lon="14.5852333"><ele>177.0</ele><time>2026-05-01T08:38:08.897Z</time></trkpt><trkpt lat="42.1539267" lon="14.58523"><ele>177.0</ele><time>2026-05-01T08:38:11.897Z</time></trkpt><trkpt lat="42.1540267" lon="14.5852417"><ele>177.0</ele><time>2026-05-01T08:38:14.897Z</time></trkpt><trkpt lat="42.1541117" lon="14.5852483"><ele>177.0</ele><time>2026-05-01T08:38:16.897Z</time></trkpt><trkpt lat="42.15422" lon="14.58525"><ele>175.75</ele><time>2026-05-01T08:38:18.897Z</time></trkpt><trkpt lat="42.1543317" lon="14.5852767"><ele>174.5</ele><time>2026-05-01T08:38:20.897Z</time></trkpt><trkpt lat="42.1544383" lon="14.5853483"><ele>173.25</ele><time>2026-05-01T08:38:22.897Z</time></trkpt><trkpt lat="42.15452" lon="14.58546"><ele>172.0</ele><time>2026-05-01T08:38:24.896Z</time></trkpt><trkpt lat="42.1545917" lon="14.58557"><ele>171.5</ele><time>2026-05-01T08:38:26.896Z</time></trkpt><trkpt lat="42.1546583" lon="14.58569"><ele>171.0</ele><time>2026-05-01T08:38:28.896Z</time></trkpt><trkpt lat="42.1547133" lon="14.58582"><ele>170.5</ele><time>2026-05-01T08:38:30.897Z</time></trkpt><trkpt lat="42.154765" lon="14.5859633"><ele>170.0</ele><time>2026-05-01T08:38:32.896Z</time></trkpt><trkpt lat="42.15482" lon="14.5861083"><ele>169.0</ele><time>2026-05-01T08:38:34.897Z</time></trkpt><trkpt lat="42.1548817" lon="14.586255"><ele>168.0</ele><time>2026-05-01T08:38:36.897Z</time></trkpt><trkpt lat="42.1549183" lon="14.5863283"><ele>167.0</ele><time>2026-05-01T08:38:37.896Z</time></trkpt><trkpt lat="42.1549533" lon="14.5864017"><ele>166.0</ele><time>2026-05-01T08:38:38.897Z</time></trkpt><trkpt lat="42.1549883" lon="14.5864767"><ele>165.0</ele><time>2026-05-01T08:38:39.896Z</time></trkpt><trkpt lat="42.1550267" lon="14.5865533"><ele>164.0</ele><time>2026-05-01T08:38:40.896Z</time></trkpt><trkpt lat="42.1550633" lon="14.5866267"><ele>164.0</ele><time>2026-05-01T08:38:41.897Z</time></trkpt><trkpt lat="42.1551017" lon="14.5866967"><ele>164.0</ele><time>2026-05-01T08:38:42.896Z</time></trkpt><trkpt lat="42.1551433" lon="14.5867667"><ele>164.0</ele><time>2026-05-01T08:38:43.897Z</time></trkpt><trkpt lat="42.1551867" lon="14.5868317"><ele>164.0</ele><time>2026-05-01T08:38:44.897Z</time></trkpt><trkpt lat="42.1552767" lon="14.5869583"><ele>164.0</ele><time>2026-05-01T08:38:46.896Z</time></trkpt><trkpt lat="42.1553233" lon="14.5870183"><ele>164.0</ele><time>2026-05-01T08:38:47.897Z</time></trkpt><trkpt lat="42.15537" lon="14.5870783"><ele>163.66666666666666</ele><time>2026-05-01T08:38:48.897Z</time></trkpt><trkpt lat="42.1554167" lon="14.58714"><ele>163.33333333333331</ele><time>2026-05-01T08:38:49.897Z</time></trkpt><trkpt lat="42.1554667" lon="14.5872067"><ele>163.0</ele><time>2026-05-01T08:38:50.896Z</time></trkpt><trkpt lat="42.1555117" lon="14.58727"><ele>162.66666666666666</ele><time>2026-05-01T08:38:51.897Z</time></trkpt><trkpt lat="42.1555567" lon="14.5873333"><ele>162.33333333333334</ele><time>2026-05-01T08:38:52.897Z</time></trkpt><trkpt lat="42.1556067" lon="14.5873917"><ele>162.0</ele><time>2026-05-01T08:38:53.897Z</time></trkpt><trkpt lat="42.1556967" lon="14.5875117"><ele>161.66666666666666</ele><time>2026-05-01T08:38:55.896Z</time></trkpt><trkpt lat="42.1557417" lon="14.5875733"><ele>161.33333333333334</ele><time>2026-05-01T08:38:56.897Z</time></trkpt><trkpt lat="42.1557867" lon="14.587635"><ele>161.0</ele><time>2026-05-01T08:38:57.897Z</time></trkpt><trkpt lat="42.1558317" lon="14.5877017"><ele>160.66666666666669</ele><time>2026-05-01T08:38:58.897Z</time></trkpt><trkpt lat="42.1558983" lon="14.5878317"><ele>160.33333333333334</ele><time>2026-05-01T08:39:00.897Z</time></trkpt><trkpt lat="42.1559783" lon="14.5879683"><ele>160.0</ele><time>2026-05-01T08:39:02.897Z</time></trkpt><trkpt lat="42.15606" lon="14.588095"><ele>160.0</ele><time>2026-05-01T08:39:04.897Z</time></trkpt><trkpt lat="42.15613" lon="14.58821"><ele>160.0</ele><time>2026-05-01T08:39:06.897Z</time></trkpt><trkpt lat="42.1561967" lon="14.5883133"><ele>160.0</ele><time>2026-05-01T08:39:08.897Z</time></trkpt><trkpt lat="42.15627" lon="14.588425"><ele>160.0</ele><time>2026-05-01T08:39:10.897Z</time></trkpt><trkpt lat="42.1563333" lon="14.5885367"><ele>160.0</ele><time>2026-05-01T08:39:12.897Z</time></trkpt><trkpt lat="42.1564033" lon="14.5886517"><ele>160.0</ele><time>2026-05-01T08:39:14.897Z</time></trkpt><trkpt lat="42.1564717" lon="14.588765"><ele>160.0</ele><time>2026-05-01T08:39:16.897Z</time></trkpt><trkpt lat="42.156535" lon="14.5888733"><ele>160.0</ele><time>2026-05-01T08:39:18.897Z</time></trkpt><trkpt lat="42.1566033" lon="14.5889783"><ele>160.0</ele><time>2026-05-01T08:39:20.897Z</time></trkpt><trkpt lat="42.1566767" lon="14.5890967"><ele>160.0</ele><time>2026-05-01T08:39:22.896Z</time></trkpt><trkpt lat="42.15675" lon="14.5892033"><ele>159.8</ele><time>2026-05-01T08:39:24.897Z</time></trkpt><trkpt lat="42.156825" lon="14.5893117"><ele>159.6</ele><time>2026-05-01T08:39:26.897Z</time></trkpt><trkpt lat="42.1569" lon="14.5894167"><ele>159.4</ele><time>2026-05-01T08:39:28.896Z</time></trkpt><trkpt lat="42.1569817" lon="14.5895133"><ele>159.2</ele><time>2026-05-01T08:39:30.897Z</time></trkpt><trkpt lat="42.1570567" lon="14.589605"><ele>159.0</ele><time>2026-05-01T08:39:32.897Z</time></trkpt><trkpt lat="42.1571433" lon="14.5896833"><ele>158.8</ele><time>2026-05-01T08:39:34.897Z</time></trkpt><trkpt lat="42.1572183" lon="14.5897483"><ele>158.60000000000002</ele><time>2026-05-01T08:39:36.896Z</time></trkpt><trkpt lat="42.157305" lon="14.5898133"><ele>158.4</ele><time>2026-05-01T08:39:38.897Z</time></trkpt><trkpt lat="42.1573933" lon="14.5898883"><ele>158.20000000000002</ele><time>2026-05-01T08:39:40.897Z</time></trkpt><trkpt lat="42.1574817" lon="14.5899583"><ele>158.0</ele><time>2026-05-01T08:39:42.897Z</time></trkpt><trkpt lat="42.1575833" lon="14.5900367"><ele>158.0</ele><time>2026-05-01T08:39:44.896Z</time></trkpt><trkpt lat="42.1576433" lon="14.5900867"><ele>158.0</ele><time>2026-05-01T08:39:45.897Z</time></trkpt><trkpt lat="42.1577367" lon="14.5901667"><ele>158.0</ele><time>2026-05-01T08:39:47.896Z</time></trkpt><trkpt lat="42.157825" lon="14.5902283"><ele>158.0</ele><time>2026-05-01T08:39:49.897Z</time></trkpt><trkpt lat="42.15791" lon="14.5902883"><ele>158.0</ele><time>2026-05-01T08:39:51.897Z</time></trkpt><trkpt lat="42.1580033" lon="14.5903667"><ele>157.8</ele><time>2026-05-01T08:39:53.897Z</time></trkpt><trkpt lat="42.1580983" lon="14.5904517"><ele>157.60000000000002</ele><time>2026-05-01T08:39:55.896Z</time></trkpt><trkpt lat="42.1581867" lon="14.5905383"><ele>157.39999999999998</ele><time>2026-05-01T08:39:57.897Z</time></trkpt><trkpt lat="42.1582733" lon="14.590625"><ele>157.2</ele><time>2026-05-01T08:39:59.896Z</time></trkpt><trkpt lat="42.158355" lon="14.5907217"><ele>157.0</ele><time>2026-05-01T08:40:01.896Z</time></trkpt><trkpt lat="42.1584367" lon="14.5908217"><ele>157.0</ele><time>2026-05-01T08:40:03.897Z</time></trkpt><trkpt lat="42.1584817" lon="14.5908833"><ele>157.0</ele><time>2026-05-01T08:40:04.896Z</time></trkpt><trkpt lat="42.158575" lon="14.5909933"><ele>157.0</ele><time>2026-05-01T08:40:06.897Z</time></trkpt><trkpt lat="42.15867" lon="14.59111"><ele>157.0</ele><time>2026-05-01T08:40:08.896Z</time></trkpt><trkpt lat="42.15876" lon="14.591225"><ele>157.0</ele><time>2026-05-01T08:40:10.897Z</time></trkpt><trkpt lat="42.1588517" lon="14.591325"><ele>156.5</ele><time>2026-05-01T08:40:12.897Z</time></trkpt><trkpt lat="42.1589367" lon="14.5914283"><ele>156.0</ele><time>2026-05-01T08:40:14.896Z</time></trkpt><trkpt lat="42.1590283" lon="14.5915333"><ele>155.5</ele><time>2026-05-01T08:40:16.896Z</time></trkpt><trkpt lat="42.15912" lon="14.5916317"><ele>155.0</ele><time>2026-05-01T08:40:18.897Z</time></trkpt><trkpt lat="42.1592167" lon="14.5917417"><ele>154.75</ele><time>2026-05-01T08:40:20.896Z</time></trkpt><trkpt lat="42.1593067" lon="14.5918417"><ele>154.5</ele><time>2026-05-01T08:40:22.897Z</time></trkpt><trkpt lat="42.1594" lon="14.5919367"><ele>154.25</ele><time>2026-05-01T08:40:24.897Z</time></trkpt><trkpt lat="42.1594883" lon="14.5920217"><ele>154.0</ele><time>2026-05-01T08:40:26.897Z</time></trkpt><trkpt lat="42.15958" lon="14.5921183"><ele>153.8</ele><time>2026-05-01T08:40:28.896Z</time></trkpt><trkpt lat="42.1596617" lon="14.5922067"><ele>153.60000000000002</ele><time>2026-05-01T08:40:30.897Z</time></trkpt><trkpt lat="42.1597567" lon="14.5922983"><ele>153.4</ele><time>2026-05-01T08:40:32.896Z</time></trkpt><trkpt lat="42.159845" lon="14.5923917"><ele>153.20000000000002</ele><time>2026-05-01T08:40:34.897Z</time></trkpt><trkpt lat="42.1599333" lon="14.5924867"><ele>153.0</ele><time>2026-05-01T08:40:36.897Z</time></trkpt><trkpt lat="42.1600183" lon="14.5925833"><ele>152.75</ele><time>2026-05-01T08:40:38.896Z</time></trkpt><trkpt lat="42.160115" lon="14.5926867"><ele>152.5</ele><time>2026-05-01T08:40:40.896Z</time></trkpt><trkpt lat="42.1602" lon="14.592785"><ele>152.25</ele><time>2026-05-01T08:40:42.896Z</time></trkpt><trkpt lat="42.16029" lon="14.5928883"><ele>152.0</ele><time>2026-05-01T08:40:44.897Z</time></trkpt><trkpt lat="42.1603733" lon="14.5929967"><ele>151.66666666666666</ele><time>2026-05-01T08:40:46.897Z</time></trkpt><trkpt lat="42.1604233" lon="14.593055"><ele>151.33333333333331</ele><time>2026-05-01T08:40:47.897Z</time></trkpt><trkpt lat="42.1604717" lon="14.593115"><ele>151.0</ele><time>2026-05-01T08:40:48.896Z</time></trkpt><trkpt lat="42.1605217" lon="14.5931733"><ele>150.66666666666666</ele><time>2026-05-01T08:40:49.896Z</time></trkpt><trkpt lat="42.1606133" lon="14.5932867"><ele>150.33333333333334</ele><time>2026-05-01T08:40:51.896Z</time></trkpt><trkpt lat="42.1607" lon="14.5934067"><ele>150.0</ele><time>2026-05-01T08:40:53.897Z</time></trkpt><trkpt lat="42.16079" lon="14.5935133"><ele>149.5</ele><time>2026-05-01T08:40:55.897Z</time></trkpt><trkpt lat="42.1608767" lon="14.5936233"><ele>149.0</ele><time>2026-05-01T08:40:57.897Z</time></trkpt><trkpt lat="42.16096" lon="14.5937417"><ele>148.5</ele><time>2026-05-01T08:40:59.897Z</time></trkpt><trkpt lat="42.1610417" lon="14.59384"><ele>148.0</ele><time>2026-05-01T08:41:01.896Z</time></trkpt><trkpt lat="42.16113" lon="14.59396"><ele>147.75</ele><time>2026-05-01T08:41:03.897Z</time></trkpt><trkpt lat="42.1612083" lon="14.5940667"><ele>147.5</ele><time>2026-05-01T08:41:05.897Z</time></trkpt><trkpt lat="42.161295" lon="14.5941817"><ele>147.25</ele><time>2026-05-01T08:41:07.896Z</time></trkpt><trkpt lat="42.1613917" lon="14.5943017"><ele>147.0</ele><time>2026-05-01T08:41:09.897Z</time></trkpt><trkpt lat="42.161475" lon="14.5944233"><ele>145.75</ele><time>2026-05-01T08:41:11.897Z</time></trkpt><trkpt lat="42.1615633" lon="14.594535"><ele>144.5</ele><time>2026-05-01T08:41:13.896Z</time></trkpt><trkpt lat="42.1616517" lon="14.59464"><ele>143.25</ele><time>2026-05-01T08:41:15.896Z</time></trkpt><trkpt lat="42.161735" lon="14.5947483"><ele>142.0</ele><time>2026-05-01T08:41:17.897Z</time></trkpt><trkpt lat="42.16182" lon="14.5948567"><ele>142.0</ele><time>2026-05-01T08:41:19.897Z</time></trkpt><trkpt lat="42.1619083" lon="14.5949633"><ele>142.0</ele><time>2026-05-01T08:41:21.897Z</time></trkpt><trkpt lat="42.1619917" lon="14.5950867"><ele>142.0</ele><time>2026-05-01T08:41:23.896Z</time></trkpt><trkpt lat="42.1620733" lon="14.5952"><ele>142.0</ele><time>2026-05-01T08:41:25.897Z</time></trkpt><trkpt lat="42.1621483" lon="14.5953267"><ele>142.0</ele><time>2026-05-01T08:41:27.897Z</time></trkpt><trkpt lat="42.1621867" lon="14.595395"><ele>142.0</ele><time>2026-05-01T08:41:28.897Z</time></trkpt><trkpt lat="42.162225" lon="14.595465"><ele>142.0</ele><time>2026-05-01T08:41:29.897Z</time></trkpt><trkpt lat="42.1623" lon="14.595595"><ele>142.0</ele><time>2026-05-01T08:41:31.897Z</time></trkpt><trkpt lat="42.1623767" lon="14.5957283"><ele>142.0</ele><time>2026-05-01T08:41:33.897Z</time></trkpt><trkpt lat="42.1624183" lon="14.5958"><ele>142.0</ele><time>2026-05-01T08:41:34.897Z</time></trkpt><trkpt lat="42.16246" lon="14.5958667"><ele>141.79999999999998</ele><time>2026-05-01T08:41:35.897Z</time></trkpt><trkpt lat="42.1625017" lon="14.5959333"><ele>141.6</ele><time>2026-05-01T08:41:36.897Z</time></trkpt><trkpt lat="42.1625433" lon="14.5959983"><ele>141.39999999999998</ele><time>2026-05-01T08:41:37.897Z</time></trkpt><trkpt lat="42.1626217" lon="14.5961283"><ele>141.2</ele><time>2026-05-01T08:41:39.897Z</time></trkpt><trkpt lat="42.1627" lon="14.5962567"><ele>141.0</ele><time>2026-05-01T08:41:41.897Z</time></trkpt><trkpt lat="42.1627817" lon="14.5963783"><ele>141.0</ele><time>2026-05-01T08:41:43.896Z</time></trkpt><trkpt lat="42.1628533" lon="14.5965083"><ele>141.0</ele><time>2026-05-01T08:41:45.897Z</time></trkpt><trkpt lat="42.1629283" lon="14.596635"><ele>141.0</ele><time>2026-05-01T08:41:47.897Z</time></trkpt><trkpt lat="42.1629983" lon="14.5967667"><ele>141.0</ele><time>2026-05-01T08:41:49.897Z</time></trkpt><trkpt lat="42.1630383" lon="14.5968333"><ele>141.0</ele><time>2026-05-01T08:41:50.896Z</time></trkpt><trkpt lat="42.1631083" lon="14.596955"><ele>140.4</ele><time>2026-05-01T08:41:52.896Z</time></trkpt><trkpt lat="42.1631883" lon="14.5970767"><ele>139.8</ele><time>2026-05-01T08:41:54.897Z</time></trkpt><trkpt lat="42.1632333" lon="14.59714"><ele>139.20000000000002</ele><time>2026-05-01T08:41:55.897Z</time></trkpt><trkpt lat="42.163305" lon="14.5972717"><ele>138.6</ele><time>2026-05-01T08:41:57.897Z</time></trkpt><trkpt lat="42.16338" lon="14.5974017"><ele>138.0</ele><time>2026-05-01T08:41:59.896Z</time></trkpt><trkpt lat="42.1634533" lon="14.59752"><ele>137.8</ele><time>2026-05-01T08:42:01.897Z</time></trkpt><trkpt lat="42.1635217" lon="14.5976267"><ele>137.60000000000002</ele><time>2026-05-01T08:42:03.896Z</time></trkpt><trkpt lat="42.1635983" lon="14.5977217"><ele>137.39999999999998</ele><time>2026-05-01T08:42:05.896Z</time></trkpt><trkpt lat="42.1636867" lon="14.5977983"><ele>137.2</ele><time>2026-05-01T08:42:07.897Z</time></trkpt><trkpt lat="42.16378" lon="14.597855"><ele>137.0</ele><time>2026-05-01T08:42:09.897Z</time></trkpt><trkpt lat="42.1638783" lon="14.59789"><ele>136.75</ele><time>2026-05-01T08:42:11.897Z</time></trkpt><trkpt lat="42.1639967" lon="14.597935"><ele>136.5</ele><time>2026-05-01T08:42:13.897Z</time></trkpt><trkpt lat="42.1641033" lon="14.5980067"><ele>136.25</ele><time>2026-05-01T08:42:15.897Z</time></trkpt><trkpt lat="42.1642133" lon="14.5980783"><ele>136.0</ele><time>2026-05-01T08:42:17.897Z</time></trkpt><trkpt lat="42.1643133" lon="14.5981617"><ele>135.5</ele><time>2026-05-01T08:42:19.896Z</time></trkpt><trkpt lat="42.1644133" lon="14.59825"><ele>135.0</ele><time>2026-05-01T08:42:21.897Z</time></trkpt><trkpt lat="42.1645017" lon="14.59834"><ele>134.5</ele><time>2026-05-01T08:42:23.896Z</time></trkpt><trkpt lat="42.1645867" lon="14.5984317"><ele>134.0</ele><time>2026-05-01T08:42:25.896Z</time></trkpt><trkpt lat="42.16467" lon="14.5985317"><ele>134.0</ele><time>2026-05-01T08:42:27.896Z</time></trkpt><trkpt lat="42.164755" lon="14.5986383"><ele>134.0</ele><time>2026-05-01T08:42:29.896Z</time></trkpt><trkpt lat="42.1648317" lon="14.59875"><ele>134.0</ele><time>2026-05-01T08:42:31.897Z</time></trkpt><trkpt lat="42.1649117" lon="14.5988717"><ele>134.0</ele><time>2026-05-01T08:42:33.897Z</time></trkpt><trkpt lat="42.1649867" lon="14.5989933"><ele>133.66666666666666</ele><time>2026-05-01T08:42:35.896Z</time></trkpt><trkpt lat="42.1650517" lon="14.5990883"><ele>133.33333333333331</ele><time>2026-05-01T08:42:37.897Z</time></trkpt><trkpt lat="42.1650967" lon="14.5991617"><ele>133.0</ele><time>2026-05-01T08:42:39.897Z</time></trkpt><trkpt lat="42.1651517" lon="14.5992567"><ele>132.66666666666666</ele><time>2026-05-01T08:42:42.897Z</time></trkpt><trkpt lat="42.165185" lon="14.5993467"><ele>132.33333333333334</ele><time>2026-05-01T08:42:44.897Z</time></trkpt><trkpt lat="42.1652167" lon="14.5994567"><ele>132.0</ele><time>2026-05-01T08:42:46.897Z</time></trkpt><trkpt lat="42.1652417" lon="14.5995733"><ele>132.0</ele><time>2026-05-01T08:42:48.896Z</time></trkpt><trkpt lat="42.1652683" lon="14.5996933"><ele>132.0</ele><time>2026-05-01T08:42:50.897Z</time></trkpt><trkpt lat="42.165305" lon="14.5998133"><ele>132.0</ele><time>2026-05-01T08:42:52.897Z</time></trkpt><trkpt lat="42.1653517" lon="14.5999283"><ele>132.0</ele><time>2026-05-01T08:42:54.897Z</time></trkpt><trkpt lat="42.1654183" lon="14.6000267"><ele>132.0</ele><time>2026-05-01T08:42:56.897Z</time></trkpt><trkpt lat="42.16551" lon="14.60011"><ele>132.0</ele><time>2026-05-01T08:42:58.897Z</time></trkpt><trkpt lat="42.1655917" lon="14.6001983"><ele>132.0</ele><time>2026-05-01T08:43:00.896Z</time></trkpt><trkpt lat="42.1656667" lon="14.6002867"><ele>132.0</ele><time>2026-05-01T08:43:02.897Z</time></trkpt><trkpt lat="42.1657467" lon="14.60037"><ele>132.0</ele><time>2026-05-01T08:43:04.896Z</time></trkpt><trkpt lat="42.1658333" lon="14.6004567"><ele>132.0</ele><time>2026-05-01T08:43:06.897Z</time></trkpt><trkpt lat="42.16591" lon="14.600555"><ele>131.6</ele><time>2026-05-01T08:43:08.897Z</time></trkpt><trkpt lat="42.165995" lon="14.6006533"><ele>131.2</ele><time>2026-05-01T08:43:10.897Z</time></trkpt><trkpt lat="42.1660767" lon="14.60075"><ele>130.8</ele><time>2026-05-01T08:43:12.897Z</time></trkpt><trkpt lat="42.166145" lon="14.600845"><ele>130.4</ele><time>2026-05-01T08:43:14.897Z</time></trkpt><trkpt lat="42.1662117" lon="14.6009367"><ele>130.0</ele><time>2026-05-01T08:43:16.897Z</time></trkpt><trkpt lat="42.1662817" lon="14.6010317"><ele>130.0</ele><time>2026-05-01T08:43:18.897Z</time></trkpt><trkpt lat="42.1663533" lon="14.60112"><ele>130.0</ele><time>2026-05-01T08:43:20.896Z</time></trkpt><trkpt lat="42.1664317" lon="14.60119"><ele>130.0</ele><time>2026-05-01T08:43:22.896Z</time></trkpt><trkpt lat="42.16651" lon="14.60127"><ele>130.0</ele><time>2026-05-01T08:43:24.896Z</time></trkpt><trkpt lat="42.1666" lon="14.6013717"><ele>130.0</ele><time>2026-05-01T08:43:26.897Z</time></trkpt><trkpt lat="42.166675" lon="14.6014833"><ele>129.25</ele><time>2026-05-01T08:43:28.897Z</time></trkpt><trkpt lat="42.16676" lon="14.6015867"><ele>128.5</ele><time>2026-05-01T08:43:30.896Z</time></trkpt><trkpt lat="42.1668367" lon="14.601685"><ele>127.75</ele><time>2026-05-01T08:43:32.897Z</time></trkpt><trkpt lat="42.1669267" lon="14.6017783"><ele>127.0</ele><time>2026-05-01T08:43:34.897Z</time></trkpt><trkpt lat="42.1670217" lon="14.601885"><ele>127.0</ele><time>2026-05-01T08:43:36.896Z</time></trkpt><trkpt lat="42.1670683" lon="14.6019433"><ele>126.99999999999999</ele><time>2026-05-01T08:43:37.897Z</time></trkpt><trkpt lat="42.1671567" lon="14.6020617"><ele>126.99999999999999</ele><time>2026-05-01T08:43:39.897Z</time></trkpt><trkpt lat="42.1672" lon="14.6021283"><ele>127.0</ele><time>2026-05-01T08:43:40.897Z</time></trkpt><trkpt lat="42.167285" lon="14.6022433"><ele>127.0</ele><time>2026-05-01T08:43:42.897Z</time></trkpt><trkpt lat="42.1673683" lon="14.6023483"><ele>126.6</ele><time>2026-05-01T08:43:44.897Z</time></trkpt><trkpt lat="42.1674433" lon="14.6024383"><ele>126.19999999999999</ele><time>2026-05-01T08:43:46.897Z</time></trkpt><trkpt lat="42.167535" lon="14.6025367"><ele>125.8</ele><time>2026-05-01T08:43:48.897Z</time></trkpt><trkpt lat="42.1676167" lon="14.6026317"><ele>125.4</ele><time>2026-05-01T08:43:50.897Z</time></trkpt><trkpt lat="42.1676967" lon="14.602735"><ele>125.0</ele><time>2026-05-01T08:43:52.897Z</time></trkpt><trkpt lat="42.1677833" lon="14.6028317"><ele>125.0</ele><time>2026-05-01T08:43:54.897Z</time></trkpt><trkpt lat="42.1678717" lon="14.60293"><ele>125.0</ele><time>2026-05-01T08:43:56.897Z</time></trkpt><trkpt lat="42.1679533" lon="14.60304"><ele>125.0</ele><time>2026-05-01T08:43:58.897Z</time></trkpt><trkpt lat="42.1680367" lon="14.60315"><ele>125.0</ele><time>2026-05-01T08:44:00.897Z</time></trkpt><trkpt lat="42.1681117" lon="14.6032583"><ele>125.0</ele><time>2026-05-01T08:44:02.896Z</time></trkpt><trkpt lat="42.1681767" lon="14.6033717"><ele>125.0</ele><time>2026-05-01T08:44:04.897Z</time></trkpt><trkpt lat="42.1682433" lon="14.6034867"><ele>125.0</ele><time>2026-05-01T08:44:06.897Z</time></trkpt><trkpt lat="42.1683117" lon="14.6036133"><ele>125.0</ele><time>2026-05-01T08:44:08.896Z</time></trkpt><trkpt lat="42.168375" lon="14.6037333"><ele>125.0</ele><time>2026-05-01T08:44:10.897Z</time></trkpt><trkpt lat="42.1684533" lon="14.6038567"><ele>124.4</ele><time>2026-05-01T08:44:12.897Z</time></trkpt><trkpt lat="42.1685283" lon="14.6039733"><ele>123.8</ele><time>2026-05-01T08:44:14.897Z</time></trkpt><trkpt lat="42.1686" lon="14.6040717"><ele>123.19999999999999</ele><time>2026-05-01T08:44:16.896Z</time></trkpt><trkpt lat="42.1686733" lon="14.6041717"><ele>122.6</ele><time>2026-05-01T08:44:18.897Z</time></trkpt><trkpt lat="42.1687433" lon="14.6042733"><ele>122.0</ele><time>2026-05-01T08:44:20.896Z</time></trkpt><trkpt lat="42.1688183" lon="14.60438"><ele>122.0</ele><time>2026-05-01T08:44:22.897Z</time></trkpt><trkpt lat="42.1688917" lon="14.604485"><ele>121.99999999999999</ele><time>2026-05-01T08:44:24.896Z</time></trkpt><trkpt lat="42.16896" lon="14.6045867"><ele>121.99999999999999</ele><time>2026-05-01T08:44:26.896Z</time></trkpt><trkpt lat="42.169035" lon="14.6046817"><ele>122.0</ele><time>2026-05-01T08:44:28.896Z</time></trkpt><trkpt lat="42.169105" lon="14.604775"><ele>122.0</ele><time>2026-05-01T08:44:30.897Z</time></trkpt><trkpt lat="42.1691683" lon="14.6048567"><ele>121.49999999999999</ele><time>2026-05-01T08:44:32.897Z</time></trkpt><trkpt lat="42.169235" lon="14.6049367"><ele>121.0</ele><time>2026-05-01T08:44:34.896Z</time></trkpt><trkpt lat="42.1692783" lon="14.605005"><ele>120.5</ele><time>2026-05-01T08:44:36.897Z</time></trkpt><trkpt lat="42.1693417" lon="14.60506"><ele>120.0</ele><time>2026-05-01T08:44:41.897Z</time></trkpt><trkpt lat="42.1694" lon="14.6049883"><ele>119.49999999999999</ele><time>2026-05-01T08:44:45.897Z</time></trkpt><trkpt lat="42.1694517" lon="14.60489"><ele>119.0</ele><time>2026-05-01T08:44:48.897Z</time></trkpt><trkpt lat="42.1695033" lon="14.604805"><ele>119.0</ele><time>2026-05-01T08:44:50.897Z</time></trkpt><trkpt lat="42.1695633" lon="14.6047183"><ele>119.0</ele><time>2026-05-01T08:44:52.896Z</time></trkpt><trkpt lat="42.169625" lon="14.6046317"><ele>119.0</ele><time>2026-05-01T08:44:54.896Z</time></trkpt><trkpt lat="42.1696883" lon="14.604535"><ele>119.0</ele><time>2026-05-01T08:44:56.897Z</time></trkpt><trkpt lat="42.1697533" lon="14.604435"><ele>119.0</ele><time>2026-05-01T08:44:58.896Z</time></trkpt><trkpt lat="42.169815" lon="14.6043383"><ele>116.49999999999999</ele><time>2026-05-01T08:45:00.897Z</time></trkpt><trkpt lat="42.1698783" lon="14.6042417"><ele>114.0</ele><time>2026-05-01T08:45:02.897Z</time></trkpt><trkpt lat="42.16993" lon="14.60416"><ele>111.5</ele><time>2026-05-01T08:45:04.897Z</time></trkpt><trkpt lat="42.16999" lon="14.6040733"><ele>109.0</ele><time>2026-05-01T08:45:07.897Z</time></trkpt><trkpt lat="42.1700467" lon="14.603985"><ele>106.49999999999999</ele><time>2026-05-01T08:45:10.896Z</time></trkpt><trkpt lat="42.1701067" lon="14.6039017"><ele>104.0</ele><time>2026-05-01T08:45:13.897Z</time></trkpt><trkpt lat="42.170165" lon="14.60382"><ele>104.0</ele><time>2026-05-01T08:45:16.897Z</time></trkpt><trkpt lat="42.170205" lon="14.6037517"><ele>104.0</ele><time>2026-05-01T08:45:18.897Z</time></trkpt><trkpt lat="42.170255" lon="14.6036817"><ele>104.0</ele><time>2026-05-01T08:45:20.896Z</time></trkpt><trkpt lat="42.1703133" lon="14.6036217"><ele>104.0</ele><time>2026-05-01T08:45:23.897Z</time></trkpt><trkpt lat="42.1703833" lon="14.6035717"><ele>104.0</ele><time>2026-05-01T08:45:27.897Z</time></trkpt><trkpt lat="42.170465" lon="14.6035667"><ele>104.0</ele><time>2026-05-01T08:45:31.897Z</time></trkpt><trkpt lat="42.170535" lon="14.6035933"><ele>104.0</ele><time>2026-05-01T08:45:34.896Z</time></trkpt><trkpt lat="42.1705983" lon="14.6036283"><ele>103.99999999999999</ele><time>2026-05-01T08:45:36.896Z</time></trkpt><trkpt lat="42.170665" lon="14.603665"><ele>104.0</ele><time>2026-05-01T08:45:38.896Z</time></trkpt><trkpt lat="42.1707283" lon="14.6037083"><ele>104.0</ele><time>2026-05-01T08:45:40.896Z</time></trkpt><trkpt lat="42.1708" lon="14.60375"><ele>104.0</ele><time>2026-05-01T08:45:43.896Z</time></trkpt><trkpt lat="42.1708833" lon="14.6037933"><ele>103.99999999999999</ele><time>2026-05-01T08:45:46.897Z</time></trkpt><trkpt lat="42.1709583" lon="14.6038467"><ele>104.0</ele><time>2026-05-01T08:45:49.897Z</time></trkpt><trkpt lat="42.1710333" lon="14.603905"><ele>103.0</ele><time>2026-05-01T08:45:52.897Z</time></trkpt><trkpt lat="42.171105" lon="14.6039567"><ele>102.0</ele><time>2026-05-01T08:45:55.897Z</time></trkpt><trkpt lat="42.1711533" lon="14.6040117"><ele>101.0</ele><time>2026-05-01T08:45:59.897Z</time></trkpt><trkpt lat="42.17111" lon="14.6040917"><ele>100.0</ele><time>2026-05-01T08:46:06.897Z</time></trkpt><trkpt lat="42.1710633" lon="14.60416"><ele>99.0</ele><time>2026-05-01T08:46:10.897Z</time></trkpt><trkpt lat="42.1710167" lon="14.6042467"><ele>98.0</ele><time>2026-05-01T08:46:14.897Z</time></trkpt><trkpt lat="42.1709767" lon="14.60432"><ele>97.0</ele><time>2026-05-01T08:46:17.897Z</time></trkpt><trkpt lat="42.170935" lon="14.6044033"><ele>97.0</ele><time>2026-05-01T08:46:20.897Z</time></trkpt><trkpt lat="42.170895" lon="14.60447"><ele>97.0</ele><time>2026-05-01T08:46:23.897Z</time></trkpt><trkpt lat="42.1708367" lon="14.604555"><ele>97.0</ele><time>2026-05-01T08:46:27.896Z</time></trkpt><trkpt lat="42.1707933" lon="14.6046267"><ele>97.0</ele><time>2026-05-01T08:46:30.896Z</time></trkpt><trkpt lat="42.1707617" lon="14.6047033"><ele>97.0</ele><time>2026-05-01T08:46:33.897Z</time></trkpt><trkpt lat="42.1707167" lon="14.6047833"><ele>97.0</ele><time>2026-05-01T08:46:36.897Z</time></trkpt><trkpt lat="42.1706683" lon="14.604855"><ele>97.0</ele><time>2026-05-01T08:46:39.896Z</time></trkpt><trkpt lat="42.1706217" lon="14.6049167"><ele>98.85714285714285</ele><time>2026-05-01T08:46:42.897Z</time></trkpt><trkpt lat="42.1705767" lon="14.6049883"><ele>100.71428571428572</ele><time>2026-05-01T08:46:45.897Z</time></trkpt><trkpt lat="42.1705367" lon="14.6050567"><ele>102.57142857142857</ele><time>2026-05-01T08:46:48.897Z</time></trkpt><trkpt lat="42.1704983" lon="14.605135"><ele>104.42857142857142</ele><time>2026-05-01T08:46:51.897Z</time></trkpt><trkpt lat="42.1704583" lon="14.6052133"><ele>106.28571428571428</ele><time>2026-05-01T08:46:54.896Z</time></trkpt><trkpt lat="42.1704217" lon="14.6052883"><ele>108.14285714285714</ele><time>2026-05-01T08:46:57.896Z</time></trkpt><trkpt lat="42.1703733" lon="14.60537"><ele>110.0</ele><time>2026-05-01T08:47:01.897Z</time></trkpt><trkpt lat="42.1703317" lon="14.6054367"><ele>111.16666666666666</ele><time>2026-05-01T08:47:04.897Z</time></trkpt><trkpt lat="42.1702717" lon="14.6055033"><ele>112.33333333333333</ele><time>2026-05-01T08:47:08.897Z</time></trkpt><trkpt lat="42.1702267" lon="14.60559"><ele>113.5</ele><time>2026-05-01T08:47:12.896Z</time></trkpt><trkpt lat="42.17018" lon="14.6056817"><ele>114.66666666666666</ele><time>2026-05-01T08:47:16.897Z</time></trkpt><trkpt lat="42.1701417" lon="14.6057517"><ele>115.83333333333333</ele><time>2026-05-01T08:47:19.897Z</time></trkpt><trkpt lat="42.1700967" lon="14.6058333"><ele>117.0</ele><time>2026-05-01T08:47:23.897Z</time></trkpt><trkpt lat="42.170055" lon="14.60593"><ele>117.0</ele><time>2026-05-01T08:47:27.897Z</time></trkpt><trkpt lat="42.1700633" lon="14.6060267"><ele>117.00000000000001</ele><time>2026-05-01T08:47:31.896Z</time></trkpt><trkpt lat="42.17012" lon="14.606095"><ele>117.0</ele><time>2026-05-01T08:47:35.897Z</time></trkpt><trkpt lat="42.1701667" lon="14.6061533"><ele>117.0</ele><time>2026-05-01T08:47:38.897Z</time></trkpt><trkpt lat="42.1702233" lon="14.6062183"><ele>117.00000000000001</ele><time>2026-05-01T08:47:41.897Z</time></trkpt><trkpt lat="42.1702833" lon="14.6062983"><ele>117.0</ele><time>2026-05-01T08:47:44.896Z</time></trkpt><trkpt lat="42.1703367" lon="14.6063667"><ele>117.0</ele><time>2026-05-01T08:47:46.897Z</time></trkpt><trkpt lat="42.1703967" lon="14.6064467"><ele>117.0</ele><time>2026-05-01T08:47:48.896Z</time></trkpt><trkpt lat="42.170455" lon="14.6065333"><ele>117.0</ele><time>2026-05-01T08:47:50.897Z</time></trkpt><trkpt lat="42.1704967" lon="14.6066133"><ele>117.0</ele><time>2026-05-01T08:47:52.896Z</time></trkpt><trkpt lat="42.1705533" lon="14.6066883"><ele>117.0</ele><time>2026-05-01T08:47:54.896Z</time></trkpt><trkpt lat="42.1706083" lon="14.6067617"><ele>117.0</ele><time>2026-05-01T08:47:56.896Z</time></trkpt><trkpt lat="42.1706633" lon="14.6068233"><ele>117.0</ele><time>2026-05-01T08:47:58.896Z</time></trkpt><trkpt lat="42.170725" lon="14.606895"><ele>116.83333333333333</ele><time>2026-05-01T08:48:00.897Z</time></trkpt><trkpt lat="42.1707783" lon="14.60697"><ele>116.66666666666666</ele><time>2026-05-01T08:48:02.896Z</time></trkpt><trkpt lat="42.170835" lon="14.60703"><ele>116.5</ele><time>2026-05-01T08:48:04.897Z</time></trkpt><trkpt lat="42.1708933" lon="14.6070883"><ele>116.33333333333333</ele><time>2026-05-01T08:48:06.897Z</time></trkpt><trkpt lat="42.1709433" lon="14.6071583"><ele>116.16666666666666</ele><time>2026-05-01T08:48:08.897Z</time></trkpt><trkpt lat="42.1709917" lon="14.6072283"><ele>116.0</ele><time>2026-05-01T08:48:10.897Z</time></trkpt><trkpt lat="42.17105" lon="14.607315"><ele>115.83333333333333</ele><time>2026-05-01T08:48:13.897Z</time></trkpt><trkpt lat="42.1710967" lon="14.6073833"><ele>115.66666666666666</ele><time>2026-05-01T08:48:16.897Z</time></trkpt><trkpt lat="42.1711667" lon="14.6073683"><ele>115.5</ele><time>2026-05-01T08:48:21.897Z</time></trkpt><trkpt lat="42.1712167" lon="14.6072883"><ele>115.33333333333334</ele><time>2026-05-01T08:48:24.897Z</time></trkpt><trkpt lat="42.1712783" lon="14.607195"><ele>115.16666666666667</ele><time>2026-05-01T08:48:27.897Z</time></trkpt><trkpt lat="42.17134" lon="14.607095"><ele>115.0</ele><time>2026-05-01T08:48:30.897Z</time></trkpt><trkpt lat="42.171385" lon="14.6070233"><ele>115.14285714285712</ele><time>2026-05-01T08:48:32.897Z</time></trkpt><trkpt lat="42.1714333" lon="14.6069433"><ele>115.28571428571428</ele><time>2026-05-01T08:48:34.897Z</time></trkpt><trkpt lat="42.1714733" lon="14.606875"><ele>115.42857142857143</ele><time>2026-05-01T08:48:36.896Z</time></trkpt><trkpt lat="42.1715217" lon="14.606805"><ele>115.57142857142857</ele><time>2026-05-01T08:48:38.897Z</time></trkpt><trkpt lat="42.171565" lon="14.606725"><ele>115.71428571428572</ele><time>2026-05-01T08:48:40.896Z</time></trkpt><trkpt lat="42.1715983" lon="14.6066267"><ele>115.85714285714288</ele><time>2026-05-01T08:48:43.897Z</time></trkpt><trkpt lat="42.1716333" lon="14.6065317"><ele>116.00000000000001</ele><time>2026-05-01T08:48:46.896Z</time></trkpt><trkpt lat="42.17168" lon="14.60645"><ele>115.49999999999999</ele><time>2026-05-01T08:48:49.897Z</time></trkpt><trkpt lat="42.1717317" lon="14.6063517"><ele>115.0</ele><time>2026-05-01T08:48:52.897Z</time></trkpt><trkpt lat="42.171765" lon="14.6062633"><ele>114.5</ele><time>2026-05-01T08:48:55.897Z</time></trkpt><trkpt lat="42.1717917" lon="14.606155"><ele>114.0</ele><time>2026-05-01T08:48:58.897Z</time></trkpt><trkpt lat="42.1718033" lon="14.606035"><ele>113.49999999999999</ele><time>2026-05-01T08:49:01.897Z</time></trkpt><trkpt lat="42.1718517" lon="14.6059333"><ele>113.0</ele><time>2026-05-01T08:49:04.896Z</time></trkpt><trkpt lat="42.1718983" lon="14.6058617"><ele>111.57142857142857</ele><time>2026-05-01T08:49:06.896Z</time></trkpt><trkpt lat="42.1719417" lon="14.605785"><ele>110.14285714285714</ele><time>2026-05-01T08:49:08.897Z</time></trkpt><trkpt lat="42.1719867" lon="14.6057233"><ele>108.71428571428571</ele><time>2026-05-01T08:49:10.897Z</time></trkpt><trkpt lat="42.1720333" lon="14.6056633"><ele>107.28571428571428</ele><time>2026-05-01T08:49:12.897Z</time></trkpt><trkpt lat="42.172095" lon="14.6055817"><ele>105.85714285714286</ele><time>2026-05-01T08:49:15.897Z</time></trkpt><trkpt lat="42.17214" lon="14.6054917"><ele>104.42857142857142</ele><time>2026-05-01T08:49:18.896Z</time></trkpt><trkpt lat="42.1722117" lon="14.6054883"><ele>103.0</ele><time>2026-05-01T08:50:03.897Z</time></trkpt><trkpt lat="42.172265" lon="14.6055533"><ele>102.99999999999999</ele><time>2026-05-01T08:50:07.897Z</time></trkpt><trkpt lat="42.1723" lon="14.605625"><ele>103.0</ele><time>2026-05-01T08:50:11.896Z</time></trkpt><trkpt lat="42.1723467" lon="14.6056883"><ele>103.0</ele><time>2026-05-01T08:50:14.897Z</time></trkpt><trkpt lat="42.1723967" lon="14.605765"><ele>103.0</ele><time>2026-05-01T08:50:18.897Z</time></trkpt><trkpt lat="42.1724483" lon="14.605845"><ele>103.0</ele><time>2026-05-01T08:50:22.897Z</time></trkpt><trkpt lat="42.17251" lon="14.6059167"><ele>102.99999999999999</ele><time>2026-05-01T08:50:26.897Z</time></trkpt><trkpt lat="42.17256" lon="14.6059733"><ele>103.0</ele><time>2026-05-01T08:50:29.897Z</time></trkpt><trkpt lat="42.17261" lon="14.6060283"><ele>103.57142857142857</ele><time>2026-05-01T08:50:32.896Z</time></trkpt><trkpt lat="42.17266" lon="14.60608"><ele>104.14285714285714</ele><time>2026-05-01T08:50:35.897Z</time></trkpt><trkpt lat="42.17271" lon="14.6061433"><ele>104.71428571428572</ele><time>2026-05-01T08:50:39.896Z</time></trkpt><trkpt lat="42.1727583" lon="14.606205"><ele>105.28571428571428</ele><time>2026-05-01T08:50:43.897Z</time></trkpt><trkpt lat="42.1727683" lon="14.60612"><ele>105.85714285714286</ele><time>2026-05-01T08:51:21.897Z</time></trkpt><trkpt lat="42.1727217" lon="14.6060467"><ele>106.42857142857143</ele><time>2026-05-01T08:51:24.897Z</time></trkpt><trkpt lat="42.1726567" lon="14.6059733"><ele>107.0</ele><time>2026-05-01T08:51:27.898Z</time></trkpt><trkpt lat="42.1725867" lon="14.605885"><ele>106.42857142857143</ele><time>2026-05-01T08:51:30.898Z</time></trkpt><trkpt lat="42.1725333" lon="14.60582"><ele>105.85714285714286</ele><time>2026-05-01T08:51:32.898Z</time></trkpt><trkpt lat="42.1724617" lon="14.605745"><ele>105.28571428571428</ele><time>2026-05-01T08:51:35.898Z</time></trkpt><trkpt lat="42.172415" lon="14.6056817"><ele>104.71428571428572</ele><time>2026-05-01T08:51:37.897Z</time></trkpt><trkpt lat="42.17236" lon="14.6056067"><ele>104.14285714285714</ele><time>2026-05-01T08:51:40.897Z</time></trkpt><trkpt lat="42.172325" lon="14.6055333"><ele>103.57142857142857</ele><time>2026-05-01T08:51:43.898Z</time></trkpt><trkpt lat="42.1722917" lon="14.6054567"><ele>103.0</ele><time>2026-05-01T08:51:46.898Z</time></trkpt><trkpt lat="42.1722383" lon="14.6053867"><ele>102.99999999999999</ele><time>2026-05-01T08:51:50.898Z</time></trkpt><trkpt lat="42.17217" lon="14.6053367"><ele>103.0</ele><time>2026-05-01T08:51:55.898Z</time></trkpt><trkpt lat="42.1721133" lon="14.6052983"><ele>103.0</ele><time>2026-05-01T08:51:59.897Z</time></trkpt><trkpt lat="42.17206" lon="14.6052517"><ele>103.0</ele><time>2026-05-01T08:52:02.898Z</time></trkpt><trkpt lat="42.1720017" lon="14.605185"><ele>103.0</ele><time>2026-05-01T08:52:06.898Z</time></trkpt><trkpt lat="42.1719483" lon="14.605115"><ele>102.99999999999999</ele><time>2026-05-01T08:52:10.898Z</time></trkpt><trkpt lat="42.1718933" lon="14.605015"><ele>103.0</ele><time>2026-05-01T08:52:26.897Z</time></trkpt><trkpt lat="42.1719383" lon="14.6049083"><ele>101.50000000000001</ele><time>2026-05-01T08:52:30.898Z</time></trkpt><trkpt lat="42.1719733" lon="14.604825"><ele>100.0</ele><time>2026-05-01T08:52:32.898Z</time></trkpt><trkpt lat="42.1720167" lon="14.6047233"><ele>98.5</ele><time>2026-05-01T08:52:34.898Z</time></trkpt><trkpt lat="42.1720717" lon="14.60462"><ele>97.0</ele><time>2026-05-01T08:52:36.897Z</time></trkpt><trkpt lat="42.1721283" lon="14.60452"><ele>95.5</ele><time>2026-05-01T08:52:38.898Z</time></trkpt><trkpt lat="42.17218" lon="14.604425"><ele>94.0</ele><time>2026-05-01T08:52:40.897Z</time></trkpt><trkpt lat="42.172225" lon="14.60434"><ele>93.16666666666666</ele><time>2026-05-01T08:52:42.897Z</time></trkpt><trkpt lat="42.1722767" lon="14.6042517"><ele>92.33333333333333</ele><time>2026-05-01T08:52:45.898Z</time></trkpt><trkpt lat="42.17235" lon="14.60422"><ele>91.5</ele><time>2026-05-01T08:52:48.898Z</time></trkpt><trkpt lat="42.1724383" lon="14.6042417"><ele>90.66666666666667</ele><time>2026-05-01T08:52:51.897Z</time></trkpt><trkpt lat="42.1725033" lon="14.6042583"><ele>89.83333333333334</ele><time>2026-05-01T08:52:53.898Z</time></trkpt><trkpt lat="42.1725967" lon="14.6042867"><ele>89.0</ele><time>2026-05-01T08:52:56.898Z</time></trkpt><trkpt lat="42.1726683" lon="14.6043017"><ele>87.83333333333334</ele><time>2026-05-01T08:52:58.898Z</time></trkpt><trkpt lat="42.1727417" lon="14.6043233"><ele>86.66666666666667</ele><time>2026-05-01T08:53:00.898Z</time></trkpt><trkpt lat="42.1728133" lon="14.6043467"><ele>85.5</ele><time>2026-05-01T08:53:02.898Z</time></trkpt><trkpt lat="42.1728817" lon="14.6043717"><ele>84.33333333333333</ele><time>2026-05-01T08:53:04.898Z</time></trkpt><trkpt lat="42.1729483" lon="14.6043833"><ele>83.16666666666666</ele><time>2026-05-01T08:53:06.897Z</time></trkpt><trkpt lat="42.173035" lon="14.6044083"><ele>82.0</ele><time>2026-05-01T08:53:09.897Z</time></trkpt><trkpt lat="42.1731217" lon="14.6044333"><ele>81.42857142857142</ele><time>2026-05-01T08:53:12.897Z</time></trkpt><trkpt lat="42.1731983" lon="14.6044567"><ele>80.85714285714286</ele><time>2026-05-01T08:53:15.898Z</time></trkpt><trkpt lat="42.1732383" lon="14.6045317"><ele>80.28571428571428</ele><time>2026-05-01T08:53:20.898Z</time></trkpt><trkpt lat="42.173255" lon="14.6046267"><ele>79.71428571428571</ele><time>2026-05-01T08:53:26.898Z</time></trkpt><trkpt lat="42.1732967" lon="14.6047033"><ele>79.14285714285714</ele><time>2026-05-01T08:53:29.898Z</time></trkpt><trkpt lat="42.1733583" lon="14.6047433"><ele>78.57142857142857</ele><time>2026-05-01T08:54:05.898Z</time></trkpt><trkpt lat="42.1733483" lon="14.6046567"><ele>78.0</ele><time>2026-05-01T08:54:10.897Z</time></trkpt><trkpt lat="42.1733383" lon="14.6045683"><ele>77.71428571428572</ele><time>2026-05-01T08:54:14.898Z</time></trkpt><trkpt lat="42.1733017" lon="14.6044817"><ele>77.42857142857142</ele><time>2026-05-01T08:54:19.897Z</time></trkpt><trkpt lat="42.1732483" lon="14.6044267"><ele>77.14285714285714</ele><time>2026-05-01T08:54:22.897Z</time></trkpt><trkpt lat="42.173185" lon="14.6044017"><ele>76.85714285714286</ele><time>2026-05-01T08:54:25.898Z</time></trkpt><trkpt lat="42.17311" lon="14.60439"><ele>76.57142857142858</ele><time>2026-05-01T08:54:29.898Z</time></trkpt><trkpt lat="42.1730283" lon="14.6043683"><ele>76.28571428571428</ele><time>2026-05-01T08:54:32.898Z</time></trkpt><trkpt lat="42.17296" lon="14.60435"><ele>76.0</ele><time>2026-05-01T08:54:35.898Z</time></trkpt><trkpt lat="42.1728967" lon="14.6043283"><ele>77.0</ele><time>2026-05-01T08:54:38.897Z</time></trkpt><trkpt lat="42.172825" lon="14.6043017"><ele>78.0</ele><time>2026-05-01T08:54:41.898Z</time></trkpt><trkpt lat="42.17275" lon="14.604285"><ele>79.0</ele><time>2026-05-01T08:54:44.898Z</time></trkpt><trkpt lat="42.172675" lon="14.6042617"><ele>80.0</ele><time>2026-05-01T08:54:47.898Z</time></trkpt><trkpt lat="42.1726083" lon="14.6042283"><ele>81.0</ele><time>2026-05-01T08:54:50.898Z</time></trkpt><trkpt lat="42.1725417" lon="14.6042117"><ele>82.0</ele><time>2026-05-01T08:54:53.897Z</time></trkpt><trkpt lat="42.1724583" lon="14.6041967"><ele>82.0</ele><time>2026-05-01T08:54:57.898Z</time></trkpt><trkpt lat="42.172375" lon="14.604185"><ele>82.0</ele><time>2026-05-01T08:55:01.898Z</time></trkpt><trkpt lat="42.1723" lon="14.6042417"><ele>82.0</ele><time>2026-05-01T08:55:04.898Z</time></trkpt><trkpt lat="42.172235" lon="14.6043167"><ele>82.0</ele><time>2026-05-01T08:55:08.898Z</time></trkpt><trkpt lat="42.1721833" lon="14.6043783"><ele>82.0</ele><time>2026-05-01T08:55:11.898Z</time></trkpt><trkpt lat="42.17214" lon="14.60444"><ele>82.0</ele><time>2026-05-01T08:55:14.898Z</time></trkpt><trkpt lat="42.1720967" lon="14.6045067"><ele>83.71428571428571</ele><time>2026-05-01T08:55:17.898Z</time></trkpt><trkpt lat="42.172055" lon="14.6045817"><ele>85.42857142857143</ele><time>2026-05-01T08:55:20.898Z</time></trkpt><trkpt lat="42.172005" lon="14.60467"><ele>87.14285714285714</ele><time>2026-05-01T08:55:24.898Z</time></trkpt><trkpt lat="42.1719667" lon="14.60474"><ele>88.85714285714286</ele><time>2026-05-01T08:55:27.897Z</time></trkpt><trkpt lat="42.1719233" lon="14.6048033"><ele>90.57142857142857</ele><time>2026-05-01T08:55:30.898Z</time></trkpt><trkpt lat="42.1718833" lon="14.6048883"><ele>92.28571428571428</ele><time>2026-05-01T08:55:34.897Z</time></trkpt><trkpt lat="42.1718317" lon="14.6049683"><ele>94.0</ele><time>2026-05-01T08:55:38.898Z</time></trkpt><trkpt lat="42.1717867" lon="14.6050467"><ele>94.0</ele><time>2026-05-01T08:55:42.897Z</time></trkpt><trkpt lat="42.1717417" lon="14.6051317"><ele>94.0</ele><time>2026-05-01T08:55:46.898Z</time></trkpt><trkpt lat="42.1716833" lon="14.605205"><ele>94.0</ele><time>2026-05-01T08:55:50.898Z</time></trkpt><trkpt lat="42.171645" lon="14.6052783"><ele>94.0</ele><time>2026-05-01T08:55:53.898Z</time></trkpt><trkpt lat="42.1716083" lon="14.6053533"><ele>94.0</ele><time>2026-05-01T08:55:56.897Z</time></trkpt><trkpt lat="42.1715583" lon="14.6054467"><ele>94.0</ele><time>2026-05-01T08:56:00.897Z</time></trkpt><trkpt lat="42.1715183" lon="14.6055217"><ele>94.0</ele><time>2026-05-01T08:56:03.897Z</time></trkpt><trkpt lat="42.17147" lon="14.6056"><ele>96.28571428571428</ele><time>2026-05-01T08:56:07.897Z</time></trkpt><trkpt lat="42.1714217" lon="14.6056883"><ele>98.57142857142857</ele><time>2026-05-01T08:56:11.897Z</time></trkpt><trkpt lat="42.171385" lon="14.605765"><ele>100.85714285714286</ele><time>2026-05-01T08:56:14.897Z</time></trkpt><trkpt lat="42.171345" lon="14.6058333"><ele>103.14285714285714</ele><time>2026-05-01T08:56:17.898Z</time></trkpt><trkpt lat="42.1713033" lon="14.6059067"><ele>105.42857142857143</ele><time>2026-05-01T08:56:20.897Z</time></trkpt><trkpt lat="42.1712633" lon="14.6059783"><ele>107.71428571428571</ele><time>2026-05-01T08:56:23.897Z</time></trkpt><trkpt lat="42.1712233" lon="14.6060667"><ele>110.0</ele><time>2026-05-01T08:56:26.897Z</time></trkpt><trkpt lat="42.1711817" lon="14.606135"><ele>110.99999999999999</ele><time>2026-05-01T08:56:29.898Z</time></trkpt><trkpt lat="42.1711333" lon="14.6062083"><ele>112.0</ele><time>2026-05-01T08:56:33.898Z</time></trkpt><trkpt lat="42.17109" lon="14.6063033"><ele>113.0</ele><time>2026-05-01T08:56:37.898Z</time></trkpt><trkpt lat="42.1710417" lon="14.6063783"><ele>114.0</ele><time>2026-05-01T08:56:40.898Z</time></trkpt><trkpt lat="42.1709967" lon="14.6064567"><ele>114.99999999999999</ele><time>2026-05-01T08:56:43.897Z</time></trkpt><trkpt lat="42.170945" lon="14.6065367"><ele>116.0</ele><time>2026-05-01T08:56:47.898Z</time></trkpt><trkpt lat="42.1709033" lon="14.606615"><ele>115.99999999999999</ele><time>2026-05-01T08:56:50.897Z</time></trkpt><trkpt lat="42.170865" lon="14.6066833"><ele>116.0</ele><time>2026-05-01T08:56:53.897Z</time></trkpt><trkpt lat="42.1708183" lon="14.6067633"><ele>116.0</ele><time>2026-05-01T08:56:57.897Z</time></trkpt><trkpt lat="42.1708017" lon="14.6068583"><ele>116.0</ele><time>2026-05-01T08:57:00.897Z</time></trkpt><trkpt lat="42.1708517" lon="14.6069717"><ele>115.99999999999999</ele><time>2026-05-01T08:57:03.898Z</time></trkpt><trkpt lat="42.1708967" lon="14.6070417"><ele>116.0</ele><time>2026-05-01T08:57:05.897Z</time></trkpt><trkpt lat="42.1709617" lon="14.6071317"><ele>115.83333333333333</ele><time>2026-05-01T08:57:08.898Z</time></trkpt><trkpt lat="42.171015" lon="14.6071917"><ele>115.66666666666666</ele><time>2026-05-01T08:57:10.897Z</time></trkpt><trkpt lat="42.1710683" lon="14.607275"><ele>115.5</ele><time>2026-05-01T08:57:12.898Z</time></trkpt><trkpt lat="42.1711217" lon="14.6073417"><ele>115.33333333333334</ele><time>2026-05-01T08:57:14.897Z</time></trkpt><trkpt lat="42.1711667" lon="14.6074283"><ele>115.16666666666667</ele><time>2026-05-01T08:57:16.897Z</time></trkpt><trkpt lat="42.171215" lon="14.60751"><ele>115.0</ele><time>2026-05-01T08:57:18.898Z</time></trkpt><trkpt lat="42.171265" lon="14.6075867"><ele>115.00000000000001</ele><time>2026-05-01T08:57:20.898Z</time></trkpt><trkpt lat="42.171325" lon="14.60767"><ele>115.0</ele><time>2026-05-01T08:57:22.897Z</time></trkpt><trkpt lat="42.1713867" lon="14.60775"><ele>115.0</ele><time>2026-05-01T08:57:24.897Z</time></trkpt><trkpt lat="42.1714567" lon="14.6078317"><ele>115.0</ele><time>2026-05-01T08:57:26.897Z</time></trkpt><trkpt lat="42.171525" lon="14.6079167"><ele>115.00000000000001</ele><time>2026-05-01T08:57:28.898Z</time></trkpt><trkpt lat="42.1715833" lon="14.608005"><ele>115.0</ele><time>2026-05-01T08:57:30.898Z</time></trkpt><trkpt lat="42.1716433" lon="14.6081083"><ele>114.50000000000001</ele><time>2026-05-01T08:57:32.897Z</time></trkpt><trkpt lat="42.171695" lon="14.6082033"><ele>114.0</ele><time>2026-05-01T08:57:34.897Z</time></trkpt><trkpt lat="42.1717583" lon="14.6082867"><ele>113.5</ele><time>2026-05-01T08:57:36.898Z</time></trkpt><trkpt lat="42.1718233" lon="14.608355"><ele>113.0</ele><time>2026-05-01T08:57:38.897Z</time></trkpt><trkpt lat="42.1718783" lon="14.608435"><ele>112.50000000000001</ele><time>2026-05-01T08:57:40.897Z</time></trkpt><trkpt lat="42.1719433" lon="14.60852"><ele>112.0</ele><time>2026-05-01T08:57:42.897Z</time></trkpt><trkpt lat="42.1720267" lon="14.6085933"><ele>111.19999999999999</ele><time>2026-05-01T08:57:44.898Z</time></trkpt><trkpt lat="42.1721117" lon="14.60867"><ele>110.39999999999999</ele><time>2026-05-01T08:57:46.898Z</time></trkpt><trkpt lat="42.1721833" lon="14.608755"><ele>109.60000000000001</ele><time>2026-05-01T08:57:48.898Z</time></trkpt><trkpt lat="42.1722517" lon="14.60884"><ele>108.80000000000001</ele><time>2026-05-01T08:57:50.897Z</time></trkpt><trkpt lat="42.172325" lon="14.60894"><ele>108.0</ele><time>2026-05-01T08:57:52.898Z</time></trkpt><trkpt lat="42.1724033" lon="14.6090433"><ele>108.0</ele><time>2026-05-01T08:57:54.898Z</time></trkpt><trkpt lat="42.17248" lon="14.6091533"><ele>108.00000000000001</ele><time>2026-05-01T08:57:56.898Z</time></trkpt><trkpt lat="42.1725533" lon="14.609255"><ele>108.00000000000001</ele><time>2026-05-01T08:57:58.897Z</time></trkpt><trkpt lat="42.1726267" lon="14.609355"><ele>108.0</ele><time>2026-05-01T08:58:00.898Z</time></trkpt><trkpt lat="42.172695" lon="14.6094517"><ele>108.0</ele><time>2026-05-01T08:58:02.898Z</time></trkpt><trkpt lat="42.172785" lon="14.6095383"><ele>106.0</ele><time>2026-05-01T08:58:04.898Z</time></trkpt><trkpt lat="42.17289" lon="14.609605"><ele>104.0</ele><time>2026-05-01T08:58:06.898Z</time></trkpt><trkpt lat="42.1730017" lon="14.609665"><ele>102.0</ele><time>2026-05-01T08:58:08.898Z</time></trkpt><trkpt lat="42.1731083" lon="14.6097417"><ele>100.0</ele><time>2026-05-01T08:58:10.898Z</time></trkpt><trkpt lat="42.173195" lon="14.6098283"><ele>99.83333333333334</ele><time>2026-05-01T08:58:12.898Z</time></trkpt><trkpt lat="42.173275" lon="14.609915"><ele>99.66666666666667</ele><time>2026-05-01T08:58:14.897Z</time></trkpt><trkpt lat="42.1733517" lon="14.6099883"><ele>99.5</ele><time>2026-05-01T08:58:16.898Z</time></trkpt><trkpt lat="42.1734083" lon="14.61004"><ele>99.33333333333334</ele><time>2026-05-01T08:58:18.897Z</time></trkpt><trkpt lat="42.1734767" lon="14.61009"><ele>99.16666666666667</ele><time>2026-05-01T08:58:20.897Z</time></trkpt><trkpt lat="42.1735683" lon="14.6100817"><ele>99.0</ele><time>2026-05-01T08:58:22.898Z</time></trkpt><trkpt lat="42.1736567" lon="14.6100517"><ele>99.0</ele><time>2026-05-01T08:58:24.897Z</time></trkpt><trkpt lat="42.1737533" lon="14.6100367"><ele>99.0</ele><time>2026-05-01T08:58:26.898Z</time></trkpt><trkpt lat="42.1738467" lon="14.610035"><ele>99.0</ele><time>2026-05-01T08:58:28.897Z</time></trkpt><trkpt lat="42.17393" lon="14.610035"><ele>99.0</ele><time>2026-05-01T08:58:30.897Z</time></trkpt><trkpt lat="42.1740033" lon="14.610055"><ele>99.0</ele><time>2026-05-01T08:58:32.897Z</time></trkpt><trkpt lat="42.1740833" lon="14.6100733"><ele>99.0</ele><time>2026-05-01T08:58:34.898Z</time></trkpt><trkpt lat="42.1741717" lon="14.6100933"><ele>97.80000000000001</ele><time>2026-05-01T08:58:36.898Z</time></trkpt><trkpt lat="42.1742767" lon="14.6101167"><ele>96.60000000000001</ele><time>2026-05-01T08:58:38.898Z</time></trkpt><trkpt lat="42.174365" lon="14.6101533"><ele>95.4</ele><time>2026-05-01T08:58:40.898Z</time></trkpt><trkpt lat="42.17446" lon="14.610195"><ele>94.2</ele><time>2026-05-01T08:58:42.897Z</time></trkpt><trkpt lat="42.174565" lon="14.6102167"><ele>93.0</ele><time>2026-05-01T08:58:44.898Z</time></trkpt><trkpt lat="42.1746717" lon="14.61026"><ele>93.0</ele><time>2026-05-01T08:58:46.898Z</time></trkpt><trkpt lat="42.1747767" lon="14.61029"><ele>93.0</ele><time>2026-05-01T08:58:48.898Z</time></trkpt><trkpt lat="42.174885" lon="14.6103167"><ele>93.0</ele><time>2026-05-01T08:58:50.897Z</time></trkpt><trkpt lat="42.1749817" lon="14.6103433"><ele>93.0</ele><time>2026-05-01T08:58:52.897Z</time></trkpt><trkpt lat="42.1750783" lon="14.61037"><ele>93.0</ele><time>2026-05-01T08:58:54.898Z</time></trkpt><trkpt lat="42.1751733" lon="14.610395"><ele>89.4</ele><time>2026-05-01T08:58:56.898Z</time></trkpt><trkpt lat="42.1752783" lon="14.6104217"><ele>85.80000000000001</ele><time>2026-05-01T08:58:58.897Z</time></trkpt><trkpt lat="42.1753883" lon="14.610435"><ele>82.2</ele><time>2026-05-01T08:59:00.898Z</time></trkpt><trkpt lat="42.1754917" lon="14.6104517"><ele>78.6</ele><time>2026-05-01T08:59:02.898Z</time></trkpt><trkpt lat="42.1755867" lon="14.6104567"><ele>75.0</ele><time>2026-05-01T08:59:04.898Z</time></trkpt><trkpt lat="42.1756767" lon="14.6104667"><ele>73.5</ele><time>2026-05-01T08:59:06.898Z</time></trkpt><trkpt lat="42.1757633" lon="14.6104767"><ele>72.0</ele><time>2026-05-01T08:59:08.897Z</time></trkpt><trkpt lat="42.1758417" lon="14.610525"><ele>70.5</ele><time>2026-05-01T08:59:10.897Z</time></trkpt><trkpt lat="42.1759067" lon="14.6105917"><ele>69.0</ele><time>2026-05-01T08:59:12.898Z</time></trkpt><trkpt lat="42.17597" lon="14.6106633"><ele>67.5</ele><time>2026-05-01T08:59:14.898Z</time></trkpt><trkpt lat="42.1760317" lon="14.61074"><ele>66.0</ele><time>2026-05-01T08:59:16.897Z</time></trkpt><trkpt lat="42.1760867" lon="14.6108067"><ele>66.0</ele><time>2026-05-01T08:59:18.897Z</time></trkpt><trkpt lat="42.1761317" lon="14.61088"><ele>66.0</ele><time>2026-05-01T08:59:20.897Z</time></trkpt><trkpt lat="42.1761833" lon="14.6109467"><ele>66.0</ele><time>2026-05-01T08:59:22.898Z</time></trkpt><trkpt lat="42.1762433" lon="14.6110267"><ele>66.0</ele><time>2026-05-01T08:59:24.898Z</time></trkpt><trkpt lat="42.176305" lon="14.6111"><ele>66.0</ele><time>2026-05-01T08:59:26.898Z</time></trkpt><trkpt lat="42.1763633" lon="14.611165"><ele>66.0</ele><time>2026-05-01T08:59:28.898Z</time></trkpt><trkpt lat="42.17642" lon="14.6112317"><ele>65.5</ele><time>2026-05-01T08:59:30.898Z</time></trkpt><trkpt lat="42.1764717" lon="14.611305"><ele>65.0</ele><time>2026-05-01T08:59:32.897Z</time></trkpt><trkpt lat="42.1765233" lon="14.611365"><ele>64.5</ele><time>2026-05-01T08:59:34.898Z</time></trkpt><trkpt lat="42.176585" lon="14.6114217"><ele>64.0</ele><time>2026-05-01T08:59:36.897Z</time></trkpt><trkpt lat="42.1766567" lon="14.6114683"><ele>63.5</ele><time>2026-05-01T08:59:38.897Z</time></trkpt><trkpt lat="42.1767333" lon="14.611485"><ele>63.0</ele><time>2026-05-01T08:59:40.898Z</time></trkpt><trkpt lat="42.1768217" lon="14.6114733"><ele>62.333333333333336</ele><time>2026-05-01T08:59:42.897Z</time></trkpt><trkpt lat="42.1769017" lon="14.61143"><ele>61.66666666666667</ele><time>2026-05-01T08:59:44.898Z</time></trkpt><trkpt lat="42.1769867" lon="14.6113883"><ele>61.0</ele><time>2026-05-01T08:59:46.897Z</time></trkpt><trkpt lat="42.17705" lon="14.6113733"><ele>60.333333333333336</ele><time>2026-05-01T08:59:48.898Z</time></trkpt><trkpt lat="42.1771183" lon="14.6113717"><ele>59.66666666666667</ele><time>2026-05-01T08:59:53.897Z</time></trkpt><trkpt lat="42.1772" lon="14.611395"><ele>59.0</ele><time>2026-05-01T09:00:21.898Z</time></trkpt><trkpt lat="42.1772683" lon="14.6113883"><ele>59.0</ele><time>2026-05-01T09:00:24.898Z</time></trkpt><trkpt lat="42.1773467" lon="14.6113717"><ele>59.0</ele><time>2026-05-01T09:00:28.898Z</time></trkpt><trkpt lat="42.1774367" lon="14.6113417"><ele>59.0</ele><time>2026-05-01T09:00:32.897Z</time></trkpt><trkpt lat="42.1775033" lon="14.6113267"><ele>59.0</ele><time>2026-05-01T09:00:34.897Z</time></trkpt><trkpt lat="42.177575" lon="14.6113167"><ele>59.0</ele><time>2026-05-01T09:00:36.898Z</time></trkpt><trkpt lat="42.1776417" lon="14.6113067"><ele>59.0</ele><time>2026-05-01T09:00:38.898Z</time></trkpt><trkpt lat="42.17771" lon="14.611295"><ele>59.0</ele><time>2026-05-01T09:00:40.898Z</time></trkpt><trkpt lat="42.1777783" lon="14.61128"><ele>58.57142857142857</ele><time>2026-05-01T09:00:42.898Z</time></trkpt><trkpt lat="42.1778483" lon="14.6112783"><ele>58.142857142857146</ele><time>2026-05-01T09:00:44.898Z</time></trkpt><trkpt lat="42.1779217" lon="14.6112717"><ele>57.714285714285715</ele><time>2026-05-01T09:00:46.897Z</time></trkpt><trkpt lat="42.177985" lon="14.6112767"><ele>57.285714285714285</ele><time>2026-05-01T09:00:48.897Z</time></trkpt><trkpt lat="42.1780567" lon="14.611305"><ele>56.85714285714286</ele><time>2026-05-01T09:00:50.898Z</time></trkpt><trkpt lat="42.1781267" lon="14.611355"><ele>56.42857142857143</ele><time>2026-05-01T09:00:52.898Z</time></trkpt><trkpt lat="42.1781967" lon="14.61141"><ele>56.0</ele><time>2026-05-01T09:00:54.898Z</time></trkpt><trkpt lat="42.1782733" lon="14.6114583"><ele>55.857142857142854</ele><time>2026-05-01T09:00:56.898Z</time></trkpt><trkpt lat="42.1783483" lon="14.61149"><ele>55.714285714285715</ele><time>2026-05-01T09:00:58.897Z</time></trkpt><trkpt lat="42.1784183" lon="14.611525"><ele>55.57142857142857</ele><time>2026-05-01T09:01:00.898Z</time></trkpt><trkpt lat="42.1784767" lon="14.6115617"><ele>55.42857142857143</ele><time>2026-05-01T09:01:02.898Z</time></trkpt><trkpt lat="42.1785383" lon="14.6115817"><ele>55.285714285714285</ele><time>2026-05-01T09:01:04.898Z</time></trkpt><trkpt lat="42.178605" lon="14.61159"><ele>55.14285714285714</ele><time>2026-05-01T09:01:06.898Z</time></trkpt><trkpt lat="42.1786833" lon="14.611605"><ele>55.0</ele><time>2026-05-01T09:01:08.898Z</time></trkpt><trkpt lat="42.178775" lon="14.6116167"><ele>54.99999999999999</ele><time>2026-05-01T09:01:10.898Z</time></trkpt><trkpt lat="42.1788533" lon="14.6116217"><ele>55.0</ele><time>2026-05-01T09:01:12.898Z</time></trkpt><trkpt lat="42.17893" lon="14.6116283"><ele>55.0</ele><time>2026-05-01T09:01:14.898Z</time></trkpt><trkpt lat="42.1790017" lon="14.611645"><ele>55.0</ele><time>2026-05-01T09:01:16.897Z</time></trkpt><trkpt lat="42.1790833" lon="14.6116583"><ele>54.99999999999999</ele><time>2026-05-01T09:01:18.898Z</time></trkpt><trkpt lat="42.1791583" lon="14.6116617"><ele>55.0</ele><time>2026-05-01T09:01:20.897Z</time></trkpt><trkpt lat="42.1792267" lon="14.6116567"><ele>54.83333333333333</ele><time>2026-05-01T09:01:22.898Z</time></trkpt><trkpt lat="42.1792917" lon="14.611645"><ele>54.666666666666664</ele><time>2026-05-01T09:01:24.898Z</time></trkpt><trkpt lat="42.1793833" lon="14.611645"><ele>54.5</ele><time>2026-05-01T09:01:27.898Z</time></trkpt><trkpt lat="42.1794517" lon="14.6116333"><ele>54.33333333333333</ele><time>2026-05-01T09:01:29.897Z</time></trkpt><trkpt lat="42.179535" lon="14.6116367"><ele>54.166666666666664</ele><time>2026-05-01T09:01:32.898Z</time></trkpt><trkpt lat="42.17963" lon="14.6116417"><ele>54.0</ele><time>2026-05-01T09:01:35.898Z</time></trkpt><trkpt lat="42.1797" lon="14.6116383"><ele>54.0</ele><time>2026-05-01T09:01:37.898Z</time></trkpt><trkpt lat="42.1797683" lon="14.61165"><ele>54.0</ele><time>2026-05-01T09:01:39.898Z</time></trkpt><trkpt lat="42.1798333" lon="14.6116667"><ele>54.0</ele><time>2026-05-01T09:01:41.897Z</time></trkpt><trkpt lat="42.179905" lon="14.6116833"><ele>54.0</ele><time>2026-05-01T09:01:43.897Z</time></trkpt><trkpt lat="42.17998" lon="14.6116783"><ele>54.0</ele><time>2026-05-01T09:01:45.897Z</time></trkpt><trkpt lat="42.18006" lon="14.611665"><ele>54.0</ele><time>2026-05-01T09:01:47.897Z</time></trkpt><trkpt lat="42.1801333" lon="14.6116433"><ele>54.0</ele><time>2026-05-01T09:01:49.898Z</time></trkpt><trkpt lat="42.1801983" lon="14.6116083"><ele>53.57142857142857</ele><time>2026-05-01T09:01:51.897Z</time></trkpt><trkpt lat="42.180265" lon="14.6115817"><ele>53.14285714285714</ele><time>2026-05-01T09:01:53.898Z</time></trkpt><trkpt lat="42.1803317" lon="14.611545"><ele>52.714285714285715</ele><time>2026-05-01T09:01:55.898Z</time></trkpt><trkpt lat="42.1803933" lon="14.6115083"><ele>52.285714285714285</ele><time>2026-05-01T09:01:57.898Z</time></trkpt><trkpt lat="42.1804617" lon="14.6114483"><ele>51.85714285714286</ele><time>2026-05-01T09:02:00.898Z</time></trkpt><trkpt lat="42.1804883" lon="14.611365"><ele>51.42857142857143</ele><time>2026-05-01T09:02:02.898Z</time></trkpt><trkpt lat="42.18048" lon="14.6112683"><ele>51.0</ele><time>2026-05-01T09:02:05.898Z</time></trkpt><trkpt lat="42.1804467" lon="14.6111617"><ele>52.333333333333336</ele><time>2026-05-01T09:02:08.898Z</time></trkpt><trkpt lat="42.1804183" lon="14.6110533"><ele>53.66666666666667</ele><time>2026-05-01T09:02:11.898Z</time></trkpt><trkpt lat="42.1803917" lon="14.6109583"><ele>55.0</ele><time>2026-05-01T09:02:14.898Z</time></trkpt><trkpt lat="42.1803633" lon="14.6108717"><ele>56.333333333333336</ele><time>2026-05-01T09:02:17.898Z</time></trkpt><trkpt lat="42.18034" lon="14.61077"><ele>57.66666666666667</ele><time>2026-05-01T09:02:21.898Z</time></trkpt><trkpt lat="42.1803217" lon="14.6106717"><ele>59.0</ele><time>2026-05-01T09:02:25.897Z</time></trkpt><trkpt lat="42.1802917" lon="14.610575"><ele>59.0</ele><time>2026-05-01T09:02:29.897Z</time></trkpt><trkpt lat="42.1802717" lon="14.610485"><ele>59.0</ele><time>2026-05-01T09:02:33.898Z</time></trkpt><trkpt lat="42.180255" lon="14.6103817"><ele>59.0</ele><time>2026-05-01T09:02:37.898Z</time></trkpt><trkpt lat="42.1802417" lon="14.610275"><ele>59.0</ele><time>2026-05-01T09:02:41.898Z</time></trkpt><trkpt lat="42.1802383" lon="14.6101833"><ele>59.0</ele><time>2026-05-01T09:02:44.898Z</time></trkpt><trkpt lat="42.1802217" lon="14.6100733"><ele>59.0</ele><time>2026-05-01T09:02:48.898Z</time></trkpt><trkpt lat="42.1802067" lon="14.609985"><ele>59.0</ele><time>2026-05-01T09:02:51.898Z</time></trkpt><trkpt lat="42.1801867" lon="14.6098967"><ele>61.333333333333336</ele><time>2026-05-01T09:02:55.898Z</time></trkpt><trkpt lat="42.18012" lon="14.609885"><ele>63.66666666666667</ele><time>2026-05-01T09:03:00.897Z</time></trkpt><trkpt lat="42.180045" lon="14.6099183"><ele>66.0</ele><time>2026-05-01T09:03:04.897Z</time></trkpt><trkpt lat="42.1799583" lon="14.609955"><ele>68.33333333333333</ele><time>2026-05-01T09:03:07.897Z</time></trkpt><trkpt lat="42.1798917" lon="14.609985"><ele>70.66666666666666</ele><time>2026-05-01T09:03:09.897Z</time></trkpt><trkpt lat="42.179815" lon="14.6100217"><ele>73.0</ele><time>2026-05-01T09:03:11.897Z</time></trkpt><trkpt lat="42.1797417" lon="14.610065"><ele>73.28571428571428</ele><time>2026-05-01T09:03:13.898Z</time></trkpt><trkpt lat="42.1796783" lon="14.6101017"><ele>73.57142857142857</ele><time>2026-05-01T09:03:15.898Z</time></trkpt><trkpt lat="42.179615" lon="14.6101217"><ele>73.85714285714286</ele><time>2026-05-01T09:03:17.898Z</time></trkpt><trkpt lat="42.1795317" lon="14.610125"><ele>74.14285714285714</ele><time>2026-05-01T09:03:20.898Z</time></trkpt><trkpt lat="42.1794583" lon="14.6101367"><ele>74.42857142857143</ele><time>2026-05-01T09:03:23.898Z</time></trkpt><trkpt lat="42.1793883" lon="14.6101533"><ele>74.71428571428571</ele><time>2026-05-01T09:03:26.898Z</time></trkpt><trkpt lat="42.1793033" lon="14.6101717"><ele>75.0</ele><time>2026-05-01T09:03:30.898Z</time></trkpt><trkpt lat="42.1792133" lon="14.6101983"><ele>75.0</ele><time>2026-05-01T09:03:33.898Z</time></trkpt><trkpt lat="42.1791467" lon="14.6101917"><ele>75.0</ele><time>2026-05-01T09:03:36.898Z</time></trkpt><trkpt lat="42.1790833" lon="14.61017"><ele>75.0</ele><time>2026-05-01T09:03:39.898Z</time></trkpt><trkpt lat="42.1790017" lon="14.6101417"><ele>75.0</ele><time>2026-05-01T09:03:42.898Z</time></trkpt><trkpt lat="42.1789217" lon="14.6101233"><ele>75.0</ele><time>2026-05-01T09:03:45.898Z</time></trkpt><trkpt lat="42.1788333" lon="14.6101133"><ele>75.0</ele><time>2026-05-01T09:03:48.898Z</time></trkpt><trkpt lat="42.178755" lon="14.6100933"><ele>74.71428571428571</ele><time>2026-05-01T09:03:51.898Z</time></trkpt><trkpt lat="42.1786817" lon="14.6100567"><ele>74.42857142857143</ele><time>2026-05-01T09:03:54.898Z</time></trkpt><trkpt lat="42.17862" lon="14.61"><ele>74.14285714285714</ele><time>2026-05-01T09:03:57.898Z</time></trkpt><trkpt lat="42.1785667" lon="14.6099183"><ele>73.85714285714286</ele><time>2026-05-01T09:04:01.898Z</time></trkpt><trkpt lat="42.1785367" lon="14.6098433"><ele>73.57142857142857</ele><time>2026-05-01T09:04:04.898Z</time></trkpt><trkpt lat="42.1785" lon="14.6097683"><ele>73.28571428571428</ele><time>2026-05-01T09:04:07.898Z</time></trkpt><trkpt lat="42.1784567" lon="14.609705"><ele>73.0</ele><time>2026-05-01T09:04:10.897Z</time></trkpt><trkpt lat="42.178405" lon="14.6096433"><ele>73.0</ele><time>2026-05-01T09:04:13.898Z</time></trkpt><trkpt lat="42.1783383" lon="14.609585"><ele>73.0</ele><time>2026-05-01T09:04:17.898Z</time></trkpt><trkpt lat="42.17828" lon="14.6095267"><ele>73.0</ele><time>2026-05-01T09:04:20.898Z</time></trkpt><trkpt lat="42.178225" lon="14.6094817"><ele>73.0</ele><time>2026-05-01T09:04:23.897Z</time></trkpt><trkpt lat="42.1781633" lon="14.6094367"><ele>73.0</ele><time>2026-05-01T09:04:26.898Z</time></trkpt><trkpt lat="42.1780867" lon="14.6093833"><ele>73.0</ele><time>2026-05-01T09:04:30.898Z</time></trkpt><trkpt lat="42.1780267" lon="14.609345"><ele>73.0</ele><time>2026-05-01T09:04:33.897Z</time></trkpt><trkpt lat="42.17797" lon="14.6092983"><ele>73.57142857142857</ele><time>2026-05-01T09:04:36.898Z</time></trkpt><trkpt lat="42.177925" lon="14.6092333"><ele>74.14285714285714</ele><time>2026-05-01T09:04:39.897Z</time></trkpt><trkpt lat="42.17796" lon="14.6091567"><ele>74.71428571428572</ele><time>2026-05-01T09:04:44.898Z</time></trkpt><trkpt lat="42.178035" lon="14.6091867"><ele>75.28571428571428</ele><time>2026-05-01T09:04:48.897Z</time></trkpt><trkpt lat="42.1780983" lon="14.60919"><ele>75.85714285714286</ele><time>2026-05-01T09:04:51.898Z</time></trkpt><trkpt lat="42.1781667" lon="14.6091483"><ele>76.42857142857143</ele><time>2026-05-01T09:04:55.898Z</time></trkpt><trkpt lat="42.1782017" lon="14.609065"><ele>77.0</ele><time>2026-05-01T09:04:58.898Z</time></trkpt><trkpt lat="42.1782" lon="14.608965"><ele>79.16666666666667</ele><time>2026-05-01T09:05:01.898Z</time></trkpt><trkpt lat="42.1782" lon="14.6088533"><ele>81.33333333333334</ele><time>2026-05-01T09:05:05.897Z</time></trkpt><trkpt lat="42.178215" lon="14.608765"><ele>83.5</ele><time>2026-05-01T09:05:08.898Z</time></trkpt><trkpt lat="42.1782417" lon="14.6086583"><ele>85.66666666666667</ele><time>2026-05-01T09:05:11.898Z</time></trkpt><trkpt lat="42.1782717" lon="14.6085483"><ele>87.83333333333333</ele><time>2026-05-01T09:05:14.898Z</time></trkpt><trkpt lat="42.1782867" lon="14.60844"><ele>90.0</ele><time>2026-05-01T09:05:17.898Z</time></trkpt><trkpt lat="42.1782933" lon="14.608325"><ele>91.28571428571428</ele><time>2026-05-01T09:05:20.898Z</time></trkpt><trkpt lat="42.178295" lon="14.608215"><ele>92.57142857142858</ele><time>2026-05-01T09:05:23.898Z</time></trkpt><trkpt lat="42.1783017" lon="14.6081167"><ele>93.85714285714286</ele><time>2026-05-01T09:05:26.897Z</time></trkpt><trkpt lat="42.1783033" lon="14.6080183"><ele>95.14285714285714</ele><time>2026-05-01T09:05:29.898Z</time></trkpt><trkpt lat="42.17831" lon="14.6079233"><ele>96.42857142857142</ele><time>2026-05-01T09:05:32.898Z</time></trkpt><trkpt lat="42.1783183" lon="14.6078333"><ele>97.71428571428572</ele><time>2026-05-01T09:05:35.898Z</time></trkpt><trkpt lat="42.1783333" lon="14.6077383"><ele>99.0</ele><time>2026-05-01T09:05:38.898Z</time></trkpt><trkpt lat="42.17835" lon="14.6076317"><ele>99.5</ele><time>2026-05-01T09:05:42.898Z</time></trkpt><trkpt lat="42.17837" lon="14.6075367"><ele>100.0</ele><time>2026-05-01T09:05:46.897Z</time></trkpt><trkpt lat="42.1784317" lon="14.60748"><ele>100.5</ele><time>2026-05-01T09:05:49.898Z</time></trkpt><trkpt lat="42.1784883" lon="14.607425"><ele>101.0</ele><time>2026-05-01T09:05:51.898Z</time></trkpt><trkpt lat="42.1785567" lon="14.6073817"><ele>101.5</ele><time>2026-05-01T09:05:53.898Z</time></trkpt><trkpt lat="42.17863" lon="14.6073383"><ele>102.0</ele><time>2026-05-01T09:05:55.897Z</time></trkpt><trkpt lat="42.1787083" lon="14.607285"><ele>102.0</ele><time>2026-05-01T09:05:57.898Z</time></trkpt><trkpt lat="42.1787867" lon="14.6072467"><ele>102.0</ele><time>2026-05-01T09:05:59.898Z</time></trkpt><trkpt lat="42.1788567" lon="14.6072233"><ele>102.0</ele><time>2026-05-01T09:06:01.898Z</time></trkpt><trkpt lat="42.1789417" lon="14.6071967"><ele>102.0</ele><time>2026-05-01T09:06:03.898Z</time></trkpt><trkpt lat="42.1790267" lon="14.607165"><ele>102.0</ele><time>2026-05-01T09:06:05.898Z</time></trkpt><trkpt lat="42.1791133" lon="14.607135"><ele>102.0</ele><time>2026-05-01T09:06:07.898Z</time></trkpt><trkpt lat="42.1792" lon="14.6071"><ele>101.83333333333333</ele><time>2026-05-01T09:06:09.898Z</time></trkpt><trkpt lat="42.1792883" lon="14.6070683"><ele>101.66666666666666</ele><time>2026-05-01T09:06:11.898Z</time></trkpt><trkpt lat="42.1793767" lon="14.6070417"><ele>101.5</ele><time>2026-05-01T09:06:13.898Z</time></trkpt><trkpt lat="42.17946" lon="14.6070167"><ele>101.33333333333333</ele><time>2026-05-01T09:06:15.898Z</time></trkpt><trkpt lat="42.1795417" lon="14.6069933"><ele>101.16666666666666</ele><time>2026-05-01T09:06:17.898Z</time></trkpt><trkpt lat="42.1796283" lon="14.606965"><ele>101.0</ele><time>2026-05-01T09:06:19.898Z</time></trkpt><trkpt lat="42.1797167" lon="14.6069417"><ele>101.0</ele><time>2026-05-01T09:06:21.898Z</time></trkpt><trkpt lat="42.1798067" lon="14.6069083"><ele>101.0</ele><time>2026-05-01T09:06:23.898Z</time></trkpt><trkpt lat="42.179895" lon="14.6068717"><ele>101.0</ele><time>2026-05-01T09:06:25.898Z</time></trkpt><trkpt lat="42.1799817" lon="14.606845"><ele>101.0</ele><time>2026-05-01T09:06:27.898Z</time></trkpt><trkpt lat="42.1800717" lon="14.606815"><ele>101.0</ele><time>2026-05-01T09:06:29.898Z</time></trkpt><trkpt lat="42.1801583" lon="14.606785"><ele>100.83333333333333</ele><time>2026-05-01T09:06:31.898Z</time></trkpt><trkpt lat="42.18025" lon="14.6067567"><ele>100.66666666666666</ele><time>2026-05-01T09:06:33.898Z</time></trkpt><trkpt lat="42.1803383" lon="14.60673"><ele>100.5</ele><time>2026-05-01T09:06:35.898Z</time></trkpt><trkpt lat="42.1804283" lon="14.6067133"><ele>100.33333333333334</ele><time>2026-05-01T09:06:37.897Z</time></trkpt><trkpt lat="42.1805133" lon="14.60668"><ele>100.16666666666667</ele><time>2026-05-01T09:06:39.897Z</time></trkpt><trkpt lat="42.1805933" lon="14.6066483"><ele>100.0</ele><time>2026-05-01T09:06:41.898Z</time></trkpt><trkpt lat="42.180685" lon="14.6066167"><ele>99.2</ele><time>2026-05-01T09:06:43.897Z</time></trkpt><trkpt lat="42.180775" lon="14.6065833"><ele>98.4</ele><time>2026-05-01T09:06:45.897Z</time></trkpt><trkpt lat="42.1808667" lon="14.6065533"><ele>97.6</ele><time>2026-05-01T09:06:47.897Z</time></trkpt><trkpt lat="42.1809617" lon="14.6065233"><ele>96.8</ele><time>2026-05-01T09:06:49.898Z</time></trkpt><trkpt lat="42.181055" lon="14.6064883"><ele>96.0</ele><time>2026-05-01T09:06:51.898Z</time></trkpt><trkpt lat="42.1811467" lon="14.6064567"><ele>96.0</ele><time>2026-05-01T09:06:53.897Z</time></trkpt><trkpt lat="42.1812383" lon="14.6064283"><ele>96.0</ele><time>2026-05-01T09:06:55.898Z</time></trkpt><trkpt lat="42.1813183" lon="14.6064133"><ele>96.0</ele><time>2026-05-01T09:06:57.897Z</time></trkpt><trkpt lat="42.1814067" lon="14.6063883"><ele>96.0</ele><time>2026-05-01T09:06:59.898Z</time></trkpt><trkpt lat="42.181495" lon="14.6063517"><ele>96.0</ele><time>2026-05-01T09:07:01.897Z</time></trkpt><trkpt lat="42.1815883" lon="14.606335"><ele>95.6</ele><time>2026-05-01T09:07:03.898Z</time></trkpt><trkpt lat="42.18168" lon="14.6063083"><ele>95.19999999999999</ele><time>2026-05-01T09:07:05.898Z</time></trkpt><trkpt lat="42.1817733" lon="14.606285"><ele>94.80000000000001</ele><time>2026-05-01T09:07:07.898Z</time></trkpt><trkpt lat="42.181865" lon="14.6062517"><ele>94.4</ele><time>2026-05-01T09:07:09.898Z</time></trkpt><trkpt lat="42.1819517" lon="14.6062167"><ele>94.0</ele><time>2026-05-01T09:07:11.897Z</time></trkpt><trkpt lat="42.182035" lon="14.6061867"><ele>93.6</ele><time>2026-05-01T09:07:13.898Z</time></trkpt><trkpt lat="42.1821233" lon="14.6061583"><ele>93.2</ele><time>2026-05-01T09:07:15.897Z</time></trkpt><trkpt lat="42.18222" lon="14.606125"><ele>92.8</ele><time>2026-05-01T09:07:17.898Z</time></trkpt><trkpt lat="42.1823183" lon="14.6060783"><ele>92.39999999999999</ele><time>2026-05-01T09:07:19.898Z</time></trkpt><trkpt lat="42.1824167" lon="14.606045"><ele>92.0</ele><time>2026-05-01T09:07:21.897Z</time></trkpt><trkpt lat="42.1825133" lon="14.6060233"><ele>92.0</ele><time>2026-05-01T09:07:23.898Z</time></trkpt><trkpt lat="42.1826067" lon="14.605985"><ele>92.0</ele><time>2026-05-01T09:07:25.897Z</time></trkpt><trkpt lat="42.1827067" lon="14.6059583"><ele>92.0</ele><time>2026-05-01T09:07:27.898Z</time></trkpt><trkpt lat="42.1827983" lon="14.6059383"><ele>92.0</ele><time>2026-05-01T09:07:29.898Z</time></trkpt><trkpt lat="42.182895" lon="14.6059067"><ele>92.0</ele><time>2026-05-01T09:07:31.898Z</time></trkpt><trkpt lat="42.1829767" lon="14.6058917"><ele>92.0</ele><time>2026-05-01T09:07:33.897Z</time></trkpt><trkpt lat="42.1830717" lon="14.60588"><ele>92.0</ele><time>2026-05-01T09:07:35.898Z</time></trkpt><trkpt lat="42.1831733" lon="14.6058667"><ele>92.0</ele><time>2026-05-01T09:07:37.897Z</time></trkpt><trkpt lat="42.183275" lon="14.60584"><ele>92.0</ele><time>2026-05-01T09:07:39.898Z</time></trkpt><trkpt lat="42.183365" lon="14.6058183"><ele>92.0</ele><time>2026-05-01T09:07:41.897Z</time></trkpt><trkpt lat="42.1834517" lon="14.6058033"><ele>91.19999999999999</ele><time>2026-05-01T09:07:43.898Z</time></trkpt><trkpt lat="42.18353" lon="14.6057917"><ele>90.4</ele><time>2026-05-01T09:07:45.898Z</time></trkpt><trkpt lat="42.18361" lon="14.6057933"><ele>89.6</ele><time>2026-05-01T09:07:47.898Z</time></trkpt><trkpt lat="42.1836833" lon="14.60587"><ele>88.80000000000001</ele><time>2026-05-01T09:07:49.897Z</time></trkpt><trkpt lat="42.1837467" lon="14.6059867"><ele>88.0</ele><time>2026-05-01T09:07:51.898Z</time></trkpt><trkpt lat="42.1838317" lon="14.6061033"><ele>87.83333333333333</ele><time>2026-05-01T09:07:53.897Z</time></trkpt><trkpt lat="42.1839167" lon="14.6062317"><ele>87.66666666666666</ele><time>2026-05-01T09:07:55.897Z</time></trkpt><trkpt lat="42.183965" lon="14.6063"><ele>87.5</ele><time>2026-05-01T09:07:56.898Z</time></trkpt><trkpt lat="42.18401" lon="14.60637"><ele>87.33333333333333</ele><time>2026-05-01T09:07:57.898Z</time></trkpt><trkpt lat="42.184055" lon="14.6064367"><ele>87.16666666666667</ele><time>2026-05-01T09:07:58.898Z</time></trkpt><trkpt lat="42.1841017" lon="14.6065083"><ele>87.0</ele><time>2026-05-01T09:07:59.897Z</time></trkpt><trkpt lat="42.1841383" lon="14.6065817"><ele>87.0</ele><time>2026-05-01T09:08:00.897Z</time></trkpt><trkpt lat="42.18418" lon="14.6066483"><ele>87.0</ele><time>2026-05-01T09:08:01.898Z</time></trkpt><trkpt lat="42.184265" lon="14.606775"><ele>87.0</ele><time>2026-05-01T09:08:03.897Z</time></trkpt><trkpt lat="42.1843517" lon="14.6068983"><ele>87.0</ele><time>2026-05-01T09:08:05.898Z</time></trkpt><trkpt lat="42.1844233" lon="14.6070083"><ele>87.0</ele><time>2026-05-01T09:08:07.898Z</time></trkpt><trkpt lat="42.1844967" lon="14.607115"><ele>85.5</ele><time>2026-05-01T09:08:09.898Z</time></trkpt><trkpt lat="42.1845667" lon="14.6072317"><ele>84.0</ele><time>2026-05-01T09:08:11.898Z</time></trkpt><trkpt lat="42.1846417" lon="14.6073583"><ele>82.5</ele><time>2026-05-01T09:08:13.898Z</time></trkpt><trkpt lat="42.1846917" lon="14.6074983"><ele>81.0</ele><time>2026-05-01T09:08:15.898Z</time></trkpt><trkpt lat="42.1846967" lon="14.6076733"><ele>81.0</ele><time>2026-05-01T09:08:17.898Z</time></trkpt><trkpt lat="42.18469" lon="14.6077683"><ele>81.0</ele><time>2026-05-01T09:08:18.897Z</time></trkpt><trkpt lat="42.1846933" lon="14.6078633"><ele>81.0</ele><time>2026-05-01T09:08:19.897Z</time></trkpt><trkpt lat="42.184705" lon="14.6079583"><ele>81.0</ele><time>2026-05-01T09:08:20.898Z</time></trkpt><trkpt lat="42.1847233" lon="14.608055"><ele>81.0</ele><time>2026-05-01T09:08:21.898Z</time></trkpt><trkpt lat="42.1847467" lon="14.6081483"><ele>81.0</ele><time>2026-05-01T09:08:22.898Z</time></trkpt><trkpt lat="42.1847817" lon="14.608235"><ele>81.0</ele><time>2026-05-01T09:08:23.897Z</time></trkpt><trkpt lat="42.1848267" lon="14.6083183"><ele>81.33333333333333</ele><time>2026-05-01T09:08:24.898Z</time></trkpt><trkpt lat="42.1848767" lon="14.60838"><ele>81.66666666666667</ele><time>2026-05-01T09:08:25.898Z</time></trkpt><trkpt lat="42.1849317" lon="14.6084383"><ele>82.0</ele><time>2026-05-01T09:08:26.898Z</time></trkpt><trkpt lat="42.18499" lon="14.608485"><ele>82.33333333333334</ele><time>2026-05-01T09:08:27.897Z</time></trkpt><trkpt lat="42.185045" lon="14.608535"><ele>82.66666666666667</ele><time>2026-05-01T09:08:28.897Z</time></trkpt><trkpt lat="42.185145" lon="14.6086383"><ele>83.0</ele><time>2026-05-01T09:08:30.898Z</time></trkpt><trkpt lat="42.1852367" lon="14.6087267"><ele>80.60000000000001</ele><time>2026-05-01T09:08:32.898Z</time></trkpt><trkpt lat="42.18533" lon="14.6088233"><ele>78.2</ele><time>2026-05-01T09:08:34.897Z</time></trkpt><trkpt lat="42.185425" lon="14.6089267"><ele>75.8</ele><time>2026-05-01T09:08:36.897Z</time></trkpt><trkpt lat="42.1855333" lon="14.6090083"><ele>73.4</ele><time>2026-05-01T09:08:38.898Z</time></trkpt><trkpt lat="42.1855883" lon="14.6090583"><ele>71.0</ele><time>2026-05-01T09:08:39.898Z</time></trkpt><trkpt lat="42.18564" lon="14.60911"><ele>72.14285714285714</ele><time>2026-05-01T09:08:40.898Z</time></trkpt><trkpt lat="42.1856917" lon="14.6091667"><ele>73.28571428571428</ele><time>2026-05-01T09:08:41.897Z</time></trkpt><trkpt lat="42.1857433" lon="14.6092233"><ele>74.42857142857143</ele><time>2026-05-01T09:08:42.897Z</time></trkpt><trkpt lat="42.1857967" lon="14.6092817"><ele>75.57142857142857</ele><time>2026-05-01T09:08:43.897Z</time></trkpt><trkpt lat="42.1858517" lon="14.6093383"><ele>76.71428571428572</ele><time>2026-05-01T09:08:44.898Z</time></trkpt><trkpt lat="42.18591" lon="14.6093817"><ele>77.85714285714286</ele><time>2026-05-01T09:08:45.897Z</time></trkpt><trkpt lat="42.18597" lon="14.60942"><ele>79.0</ele><time>2026-05-01T09:08:46.898Z</time></trkpt><trkpt lat="42.1860317" lon="14.6094533"><ele>75.25</ele><time>2026-05-01T09:08:47.897Z</time></trkpt><trkpt lat="42.1861467" lon="14.60951"><ele>71.5</ele><time>2026-05-01T09:08:49.898Z</time></trkpt><trkpt lat="42.18626" lon="14.6095633"><ele>67.75</ele><time>2026-05-01T09:08:51.898Z</time></trkpt><trkpt lat="42.1863583" lon="14.60963"><ele>64.0</ele><time>2026-05-01T09:08:53.898Z</time></trkpt><trkpt lat="42.18645" lon="14.6097033"><ele>65.60000000000001</ele><time>2026-05-01T09:08:55.898Z</time></trkpt><trkpt lat="42.186545" lon="14.6097433"><ele>67.2</ele><time>2026-05-01T09:08:57.898Z</time></trkpt><trkpt lat="42.186645" lon="14.6097783"><ele>68.80000000000001</ele><time>2026-05-01T09:08:59.898Z</time></trkpt><trkpt lat="42.1867417" lon="14.6098317"><ele>70.4</ele><time>2026-05-01T09:09:01.898Z</time></trkpt><trkpt lat="42.18683" lon="14.6098883"><ele>72.0</ele><time>2026-05-01T09:09:03.897Z</time></trkpt><trkpt lat="42.18692" lon="14.6099467"><ele>72.0</ele><time>2026-05-01T09:09:05.898Z</time></trkpt><trkpt lat="42.187" lon="14.6100033"><ele>72.0</ele><time>2026-05-01T09:09:07.898Z</time></trkpt><trkpt lat="42.187075" lon="14.6100483"><ele>72.0</ele><time>2026-05-01T09:09:09.898Z</time></trkpt><trkpt lat="42.18715" lon="14.6101117"><ele>72.0</ele><time>2026-05-01T09:09:12.898Z</time></trkpt><trkpt lat="42.1872433" lon="14.6101633"><ele>72.0</ele><time>2026-05-01T09:09:15.898Z</time></trkpt><trkpt lat="42.1873067" lon="14.6102183"><ele>72.0</ele><time>2026-05-01T09:09:17.898Z</time></trkpt><trkpt lat="42.18737" lon="14.6102833"><ele>71.83333333333333</ele><time>2026-05-01T09:09:19.897Z</time></trkpt><trkpt lat="42.1874367" lon="14.610335"><ele>71.66666666666667</ele><time>2026-05-01T09:09:21.897Z</time></trkpt><trkpt lat="42.18751" lon="14.61039"><ele>71.5</ele><time>2026-05-01T09:09:23.898Z</time></trkpt><trkpt lat="42.1875817" lon="14.6104583"><ele>71.33333333333334</ele><time>2026-05-01T09:09:25.897Z</time></trkpt><trkpt lat="42.1876433" lon="14.6105383"><ele>71.16666666666667</ele><time>2026-05-01T09:09:27.898Z</time></trkpt><trkpt lat="42.1877067" lon="14.6106217"><ele>71.0</ele><time>2026-05-01T09:09:29.898Z</time></trkpt><trkpt lat="42.1877817" lon="14.6107083"><ele>71.0</ele><time>2026-05-01T09:09:31.897Z</time></trkpt><trkpt lat="42.187855" lon="14.6107917"><ele>71.0</ele><time>2026-05-01T09:09:33.898Z</time></trkpt><trkpt lat="42.1879333" lon="14.610875"><ele>71.0</ele><time>2026-05-01T09:09:35.898Z</time></trkpt><trkpt lat="42.1880083" lon="14.6109633"><ele>71.0</ele><time>2026-05-01T09:09:37.898Z</time></trkpt><trkpt lat="42.18808" lon="14.6110517"><ele>71.0</ele><time>2026-05-01T09:09:39.898Z</time></trkpt><trkpt lat="42.188155" lon="14.6111267"><ele>70.83333333333334</ele><time>2026-05-01T09:09:41.898Z</time></trkpt><trkpt lat="42.18821" lon="14.6111833"><ele>70.66666666666667</ele><time>2026-05-01T09:09:43.898Z</time></trkpt><trkpt lat="42.1882717" lon="14.611155"><ele>70.5</ele><time>2026-05-01T09:09:48.898Z</time></trkpt><trkpt lat="42.1883067" lon="14.61107"><ele>70.33333333333333</ele><time>2026-05-01T09:09:51.898Z</time></trkpt><trkpt lat="42.1883517" lon="14.610975"><ele>70.16666666666666</ele><time>2026-05-01T09:09:54.897Z</time></trkpt><trkpt lat="42.1883983" lon="14.6108667"><ele>70.0</ele><time>2026-05-01T09:09:57.898Z</time></trkpt><trkpt lat="42.1884417" lon="14.61076"><ele>70.83333333333333</ele><time>2026-05-01T09:10:00.898Z</time></trkpt><trkpt lat="42.1884767" lon="14.61066"><ele>71.66666666666666</ele><time>2026-05-01T09:10:03.898Z</time></trkpt><trkpt lat="42.1885167" lon="14.6105667"><ele>72.5</ele><time>2026-05-01T09:10:06.897Z</time></trkpt><trkpt lat="42.1885483" lon="14.6104867"><ele>73.33333333333333</ele><time>2026-05-01T09:10:08.898Z</time></trkpt><trkpt lat="42.1885917" lon="14.6103717"><ele>74.16666666666667</ele><time>2026-05-01T09:10:11.898Z</time></trkpt><trkpt lat="42.1886217" lon="14.6102933"><ele>75.0</ele><time>2026-05-01T09:10:13.898Z</time></trkpt><trkpt lat="42.1886517" lon="14.61021"><ele>75.42857142857142</ele><time>2026-05-01T09:10:15.898Z</time></trkpt><trkpt lat="42.18868" lon="14.6101267"><ele>75.85714285714286</ele><time>2026-05-01T09:10:17.897Z</time></trkpt><trkpt lat="42.1887133" lon="14.6100417"><ele>76.28571428571428</ele><time>2026-05-01T09:10:19.898Z</time></trkpt><trkpt lat="42.1887467" lon="14.60996"><ele>76.71428571428571</ele><time>2026-05-01T09:10:21.897Z</time></trkpt><trkpt lat="42.1887783" lon="14.6098767"><ele>77.14285714285714</ele><time>2026-05-01T09:10:23.898Z</time></trkpt><trkpt lat="42.188805" lon="14.6097933"><ele>77.57142857142857</ele><time>2026-05-01T09:10:25.897Z</time></trkpt><trkpt lat="42.1888333" lon="14.60971"><ele>78.0</ele><time>2026-05-01T09:10:27.897Z</time></trkpt><trkpt lat="42.1888633" lon="14.6096317"><ele>78.0</ele><time>2026-05-01T09:10:29.897Z</time></trkpt><trkpt lat="42.1888967" lon="14.6095483"><ele>78.0</ele><time>2026-05-01T09:10:31.898Z</time></trkpt><trkpt lat="42.1889283" lon="14.6094683"><ele>78.0</ele><time>2026-05-01T09:10:33.898Z</time></trkpt><trkpt lat="42.18896" lon="14.6093833"><ele>78.0</ele><time>2026-05-01T09:10:35.898Z</time></trkpt><trkpt lat="42.1889983" lon="14.6092733"><ele>78.0</ele><time>2026-05-01T09:10:38.898Z</time></trkpt><trkpt lat="42.1890283" lon="14.6091883"><ele>78.0</ele><time>2026-05-01T09:10:40.897Z</time></trkpt><trkpt lat="42.189065" lon="14.609105"><ele>78.0</ele><time>2026-05-01T09:10:42.898Z</time></trkpt><trkpt lat="42.1890967" lon="14.60898"><ele>77.85714285714286</ele><time>2026-05-01T09:10:45.897Z</time></trkpt><trkpt lat="42.1890817" lon="14.60887"><ele>77.71428571428571</ele><time>2026-05-01T09:10:47.897Z</time></trkpt><trkpt lat="42.189045" lon="14.608785"><ele>77.57142857142857</ele><time>2026-05-01T09:10:49.898Z</time></trkpt><trkpt lat="42.1889883" lon="14.6087333"><ele>77.42857142857143</ele><time>2026-05-01T09:10:51.898Z</time></trkpt><trkpt lat="42.1889283" lon="14.60869"><ele>77.28571428571428</ele><time>2026-05-01T09:10:53.898Z</time></trkpt><trkpt lat="42.18887" lon="14.6086533"><ele>77.14285714285714</ele><time>2026-05-01T09:10:55.897Z</time></trkpt><trkpt lat="42.188815" lon="14.60861"><ele>77.0</ele><time>2026-05-01T09:10:57.898Z</time></trkpt><trkpt lat="42.1887333" lon="14.60857"><ele>77.5</ele><time>2026-05-01T09:11:00.897Z</time></trkpt><trkpt lat="42.1886467" lon="14.6085717"><ele>78.0</ele><time>2026-05-01T09:11:03.898Z</time></trkpt><trkpt lat="42.1885617" lon="14.6085467"><ele>78.5</ele><time>2026-05-01T09:11:06.898Z</time></trkpt><trkpt lat="42.188475" lon="14.608505"><ele>79.0</ele><time>2026-05-01T09:11:09.898Z</time></trkpt><trkpt lat="42.1884183" lon="14.6084283"><ele>79.5</ele><time>2026-05-01T09:11:12.898Z</time></trkpt><trkpt lat="42.18845" lon="14.6083283"><ele>80.0</ele><time>2026-05-01T09:11:15.897Z</time></trkpt><trkpt lat="42.1884867" lon="14.608235"><ele>80.0</ele><time>2026-05-01T09:11:18.898Z</time></trkpt><trkpt lat="42.1885433" lon="14.6081483"><ele>80.0</ele><time>2026-05-01T09:11:21.898Z</time></trkpt><trkpt lat="42.1886" lon="14.6080883"><ele>80.0</ele><time>2026-05-01T09:11:24.898Z</time></trkpt><trkpt lat="42.1886733" lon="14.6080333"><ele>80.0</ele><time>2026-05-01T09:11:27.898Z</time></trkpt><trkpt lat="42.18875" lon="14.6079667"><ele>80.0</ele><time>2026-05-01T09:11:30.898Z</time></trkpt><trkpt lat="42.188805" lon="14.6079217"><ele>80.0</ele><time>2026-05-01T09:11:32.898Z</time></trkpt><trkpt lat="42.1888683" lon="14.6078767"><ele>80.5</ele><time>2026-05-01T09:11:34.898Z</time></trkpt><trkpt lat="42.18892" lon="14.6078217"><ele>81.0</ele><time>2026-05-01T09:11:36.898Z</time></trkpt><trkpt lat="42.1889733" lon="14.6077667"><ele>81.5</ele><time>2026-05-01T09:11:38.898Z</time></trkpt><trkpt lat="42.1890433" lon="14.6076983"><ele>82.0</ele><time>2026-05-01T09:11:41.898Z</time></trkpt><trkpt lat="42.18911" lon="14.6076083"><ele>82.5</ele><time>2026-05-01T09:11:44.898Z</time></trkpt><trkpt lat="42.1891567" lon="14.6075417"><ele>83.0</ele><time>2026-05-01T09:11:46.898Z</time></trkpt><trkpt lat="42.1892" lon="14.60747"><ele>82.66666666666667</ele><time>2026-05-01T09:11:48.898Z</time></trkpt><trkpt lat="42.189225" lon="14.6073917"><ele>82.33333333333334</ele><time>2026-05-01T09:11:50.898Z</time></trkpt><trkpt lat="42.1892417" lon="14.6072667"><ele>82.0</ele><time>2026-05-01T09:11:53.898Z</time></trkpt><trkpt lat="42.18927" lon="14.6071817"><ele>81.66666666666667</ele><time>2026-05-01T09:11:55.897Z</time></trkpt><trkpt lat="42.1893083" lon="14.6071017"><ele>81.33333333333333</ele><time>2026-05-01T09:11:57.897Z</time></trkpt><trkpt lat="42.189375" lon="14.6070367"><ele>81.0</ele><time>2026-05-01T09:12:00.898Z</time></trkpt><trkpt lat="42.18943" lon="14.606975"><ele>81.0</ele><time>2026-05-01T09:12:03.898Z</time></trkpt><trkpt lat="42.189475" lon="14.60691"><ele>81.0</ele><time>2026-05-01T09:12:06.898Z</time></trkpt><trkpt lat="42.1895233" lon="14.6068317"><ele>81.0</ele><time>2026-05-01T09:12:09.897Z</time></trkpt><trkpt lat="42.1895883" lon="14.6067517"><ele>81.0</ele><time>2026-05-01T09:12:12.898Z</time></trkpt><trkpt lat="42.1896567" lon="14.6066817"><ele>81.0</ele><time>2026-05-01T09:12:15.898Z</time></trkpt><trkpt lat="42.1896983" lon="14.606585"><ele>81.0</ele><time>2026-05-01T09:12:19.898Z</time></trkpt><trkpt lat="42.189695" lon="14.6064717"><ele>81.0</ele><time>2026-05-01T09:12:21.898Z</time></trkpt><trkpt lat="42.1896717" lon="14.606385"><ele>81.0</ele><time>2026-05-01T09:12:23.897Z</time></trkpt><trkpt lat="42.1896267" lon="14.6062867"><ele>81.0</ele><time>2026-05-01T09:12:26.898Z</time></trkpt><trkpt lat="42.1895683" lon="14.60621"><ele>81.0</ele><time>2026-05-01T09:12:29.897Z</time></trkpt><trkpt lat="42.1894967" lon="14.6061417"><ele>81.0</ele><time>2026-05-01T09:12:32.898Z</time></trkpt><trkpt lat="42.1894233" lon="14.606075"><ele>81.0</ele><time>2026-05-01T09:12:35.898Z</time></trkpt><trkpt lat="42.1893533" lon="14.6060117"><ele>81.0</ele><time>2026-05-01T09:12:38.898Z</time></trkpt><trkpt lat="42.1892767" lon="14.6059417"><ele>81.0</ele><time>2026-05-01T09:12:41.898Z</time></trkpt><trkpt lat="42.1891983" lon="14.6058667"><ele>81.0</ele><time>2026-05-01T09:12:44.897Z</time></trkpt><trkpt lat="42.189125" lon="14.6057883"><ele>81.0</ele><time>2026-05-01T09:12:47.898Z</time></trkpt><trkpt lat="42.1890633" lon="14.6057317"><ele>81.0</ele><time>2026-05-01T09:12:49.898Z</time></trkpt><trkpt lat="42.1890083" lon="14.6056717"><ele>81.0</ele><time>2026-05-01T09:12:51.897Z</time></trkpt><trkpt lat="42.188945" lon="14.605615"><ele>81.33333333333333</ele><time>2026-05-01T09:12:53.898Z</time></trkpt><trkpt lat="42.1888817" lon="14.605555"><ele>81.66666666666667</ele><time>2026-05-01T09:12:55.897Z</time></trkpt><trkpt lat="42.1888183" lon="14.6054933"><ele>82.0</ele><time>2026-05-01T09:12:57.898Z</time></trkpt><trkpt lat="42.18875" lon="14.6054333"><ele>82.33333333333334</ele><time>2026-05-01T09:12:59.898Z</time></trkpt><trkpt lat="42.188675" lon="14.6053783"><ele>82.66666666666667</ele><time>2026-05-01T09:13:01.898Z</time></trkpt><trkpt lat="42.1885933" lon="14.6053233"><ele>83.0</ele><time>2026-05-01T09:13:03.898Z</time></trkpt><trkpt lat="42.188515" lon="14.6052783"><ele>81.5</ele><time>2026-05-01T09:13:05.898Z</time></trkpt><trkpt lat="42.18845" lon="14.605215"><ele>80.0</ele><time>2026-05-01T09:13:08.897Z</time></trkpt><trkpt lat="42.188505" lon="14.6051683"><ele>78.5</ele><time>2026-05-01T09:13:12.898Z</time></trkpt><trkpt lat="42.1885867" lon="14.6051583"><ele>77.0</ele><time>2026-05-01T09:13:14.898Z</time></trkpt><trkpt lat="42.188675" lon="14.60513"><ele>75.5</ele><time>2026-05-01T09:13:16.898Z</time></trkpt><trkpt lat="42.1887817" lon="14.60511"><ele>74.0</ele><time>2026-05-01T09:13:18.898Z</time></trkpt><trkpt lat="42.1888783" lon="14.6050967"><ele>74.0</ele><time>2026-05-01T09:13:20.898Z</time></trkpt><trkpt lat="42.1889567" lon="14.6050733"><ele>74.0</ele><time>2026-05-01T09:13:22.898Z</time></trkpt><trkpt lat="42.189025" lon="14.6050317"><ele>74.0</ele><time>2026-05-01T09:13:24.897Z</time></trkpt><trkpt lat="42.1890917" lon="14.6049667"><ele>74.0</ele><time>2026-05-01T09:13:27.897Z</time></trkpt><trkpt lat="42.18915" lon="14.60491"><ele>74.0</ele><time>2026-05-01T09:13:31.898Z</time></trkpt><trkpt lat="42.1892033" lon="14.6048433"><ele>74.0</ele><time>2026-05-01T09:13:34.898Z</time></trkpt><trkpt lat="42.1892" lon="14.6047067"><ele>74.0</ele><time>2026-05-01T09:13:41.898Z</time></trkpt><trkpt lat="42.18916" lon="14.6046217"><ele>74.0</ele><time>2026-05-01T09:13:45.898Z</time></trkpt><trkpt lat="42.1891017" lon="14.60457"><ele>74.0</ele><time>2026-05-01T09:13:49.897Z</time></trkpt><trkpt lat="42.189025" lon="14.60456"><ele>74.0</ele><time>2026-05-01T09:13:52.898Z</time></trkpt><trkpt lat="42.1889517" lon="14.6045217"><ele>74.0</ele><time>2026-05-01T09:13:55.898Z</time></trkpt><trkpt lat="42.1888933" lon="14.6044817"><ele>74.0</ele><time>2026-05-01T09:13:58.898Z</time></trkpt><trkpt lat="42.18883" lon="14.6044283"><ele>74.0</ele><time>2026-05-01T09:14:02.898Z</time></trkpt><trkpt lat="42.18875" lon="14.6043917"><ele>72.8</ele><time>2026-05-01T09:14:05.898Z</time></trkpt><trkpt lat="42.1886733" lon="14.6043833"><ele>71.60000000000001</ele><time>2026-05-01T09:14:07.898Z</time></trkpt><trkpt lat="42.1886017" lon="14.6043667"><ele>70.4</ele><time>2026-05-01T09:14:09.898Z</time></trkpt><trkpt lat="42.1884567" lon="14.6043483"><ele>69.2</ele><time>2026-05-01T09:14:12.898Z</time></trkpt><trkpt lat="42.1883533" lon="14.6043417"><ele>68.0</ele><time>2026-05-01T09:14:14.897Z</time></trkpt><trkpt lat="42.1882683" lon="14.6043433"><ele>68.0</ele><time>2026-05-01T09:14:17.898Z</time></trkpt><trkpt lat="42.1881917" lon="14.604305"><ele>68.0</ele><time>2026-05-01T09:14:20.898Z</time></trkpt><trkpt lat="42.18813" lon="14.60425"><ele>68.0</ele><time>2026-05-01T09:14:23.898Z</time></trkpt><trkpt lat="42.1880433" lon="14.60422"><ele>68.0</ele><time>2026-05-01T09:14:27.897Z</time></trkpt><trkpt lat="42.187975" lon="14.6041967"><ele>68.0</ele><time>2026-05-01T09:14:31.898Z</time></trkpt><trkpt lat="42.187895" lon="14.6041783"><ele>68.0</ele><time>2026-05-01T09:14:35.897Z</time></trkpt><trkpt lat="42.1878267" lon="14.6041633"><ele>68.8</ele><time>2026-05-01T09:14:38.898Z</time></trkpt><trkpt lat="42.1877533" lon="14.60413"><ele>69.6</ele><time>2026-05-01T09:14:42.898Z</time></trkpt><trkpt lat="42.1876717" lon="14.6041283"><ele>70.4</ele><time>2026-05-01T09:14:46.897Z</time></trkpt><trkpt lat="42.18753" lon="14.6040783"><ele>71.2</ele><time>2026-05-01T09:14:57.898Z</time></trkpt><trkpt lat="42.18739" lon="14.6040783"><ele>72.0</ele><time>2026-05-01T09:15:03.897Z</time></trkpt><trkpt lat="42.187265" lon="14.6041"><ele>73.16666666666667</ele><time>2026-05-01T09:15:05.898Z</time></trkpt><trkpt lat="42.1872017" lon="14.60412"><ele>74.33333333333333</ele><time>2026-05-01T09:15:06.898Z</time></trkpt><trkpt lat="42.18711" lon="14.6041433"><ele>75.5</ele><time>2026-05-01T09:15:08.898Z</time></trkpt><trkpt lat="42.1870017" lon="14.6041667"><ele>76.66666666666666</ele><time>2026-05-01T09:15:10.897Z</time></trkpt><trkpt lat="42.18691" lon="14.6041617"><ele>77.83333333333333</ele><time>2026-05-01T09:15:12.898Z</time></trkpt><trkpt lat="42.1868383" lon="14.60411"><ele>79.0</ele><time>2026-05-01T09:15:15.897Z</time></trkpt><trkpt lat="42.186795" lon="14.60404"><ele>79.0</ele><time>2026-05-01T09:15:18.898Z</time></trkpt><trkpt lat="42.18676" lon="14.6039567"><ele>79.0</ele><time>2026-05-01T09:15:22.898Z</time></trkpt><trkpt lat="42.1867033" lon="14.6039017"><ele>79.0</ele><time>2026-05-01T09:15:25.898Z</time></trkpt><trkpt lat="42.1866283" lon="14.6038533"><ele>79.0</ele><time>2026-05-01T09:15:28.898Z</time></trkpt><trkpt lat="42.186545" lon="14.6038083"><ele>79.0</ele><time>2026-05-01T09:15:31.898Z</time></trkpt><trkpt lat="42.18648" lon="14.6037617"><ele>79.0</ele><time>2026-05-01T09:15:34.898Z</time></trkpt><trkpt lat="42.1864183" lon="14.6037167"><ele>79.57142857142858</ele><time>2026-05-01T09:15:37.898Z</time></trkpt><trkpt lat="42.1863383" lon="14.6036717"><ele>80.14285714285714</ele><time>2026-05-01T09:15:40.897Z</time></trkpt><trkpt lat="42.1862683" lon="14.6036317"><ele>80.71428571428572</ele><time>2026-05-01T09:15:43.898Z</time></trkpt><trkpt lat="42.18622" lon="14.6035767"><ele>81.28571428571429</ele><time>2026-05-01T09:15:46.898Z</time></trkpt><trkpt lat="42.1861733" lon="14.6034833"><ele>81.85714285714286</ele><time>2026-05-01T09:15:50.897Z</time></trkpt><trkpt lat="42.18612" lon="14.6034367"><ele>82.42857142857143</ele><time>2026-05-01T09:15:53.898Z</time></trkpt><trkpt lat="42.1860667" lon="14.6033683"><ele>83.0</ele><time>2026-05-01T09:15:56.897Z</time></trkpt><trkpt lat="42.1860083" lon="14.603285"><ele>83.0</ele><time>2026-05-01T09:15:59.898Z</time></trkpt><trkpt lat="42.1859717" lon="14.6031817"><ele>83.0</ele><time>2026-05-01T09:16:02.898Z</time></trkpt><trkpt lat="42.185915" lon="14.6031183"><ele>83.0</ele><time>2026-05-01T09:16:05.898Z</time></trkpt><trkpt lat="42.1858567" lon="14.6030733"><ele>83.0</ele><time>2026-05-01T09:16:07.898Z</time></trkpt><trkpt lat="42.1857933" lon="14.60304"><ele>83.0</ele><time>2026-05-01T09:16:09.898Z</time></trkpt><trkpt lat="42.1857167" lon="14.6030033"><ele>83.0</ele><time>2026-05-01T09:16:12.898Z</time></trkpt><trkpt lat="42.1856667" lon="14.602905"><ele>83.4</ele><time>2026-05-01T09:16:19.897Z</time></trkpt><trkpt lat="42.1856117" lon="14.6028333"><ele>83.80000000000001</ele><time>2026-05-01T09:16:23.898Z</time></trkpt><trkpt lat="42.185545" lon="14.6027733"><ele>84.2</ele><time>2026-05-01T09:16:27.898Z</time></trkpt><trkpt lat="42.1855367" lon="14.6026833"><ele>84.6</ele><time>2026-05-01T09:16:33.898Z</time></trkpt><trkpt lat="42.1854817" lon="14.6026267"><ele>85.0</ele><time>2026-05-01T09:16:38.897Z</time></trkpt><trkpt lat="42.1853567" lon="14.6024717"><ele>85.0</ele><time>2026-05-01T09:17:00.897Z</time></trkpt><trkpt lat="42.1853633" lon="14.60237"><ele>85.0</ele><time>2026-05-01T09:17:03.898Z</time></trkpt><trkpt lat="42.185385" lon="14.60226"><ele>85.0</ele><time>2026-05-01T09:17:06.898Z</time></trkpt><trkpt lat="42.1854133" lon="14.6020867"><ele>85.0</ele><time>2026-05-01T09:17:11.898Z</time></trkpt><trkpt lat="42.18541" lon="14.6019867"><ele>85.0</ele><time>2026-05-01T09:17:13.898Z</time></trkpt><trkpt lat="42.1854033" lon="14.6018467"><ele>85.5</ele><time>2026-05-01T09:17:19.898Z</time></trkpt><trkpt lat="42.1853817" lon="14.6017567"><ele>86.0</ele><time>2026-05-01T09:17:22.898Z</time></trkpt><trkpt lat="42.1853483" lon="14.601665"><ele>86.5</ele><time>2026-05-01T09:17:25.898Z</time></trkpt><trkpt lat="42.1852917" lon="14.6015733"><ele>87.0</ele><time>2026-05-01T09:17:28.898Z</time></trkpt><trkpt lat="42.185255" lon="14.601495"><ele>87.5</ele><time>2026-05-01T09:17:30.898Z</time></trkpt><trkpt lat="42.1852183" lon="14.6014067"><ele>88.0</ele><time>2026-05-01T09:17:33.898Z</time></trkpt><trkpt lat="42.1851833" lon="14.6013217"><ele>88.0</ele><time>2026-05-01T09:17:36.898Z</time></trkpt><trkpt lat="42.185165" lon="14.6012383"><ele>88.0</ele><time>2026-05-01T09:17:39.898Z</time></trkpt><trkpt lat="42.1851483" lon="14.6011317"><ele>88.0</ele><time>2026-05-01T09:17:43.897Z</time></trkpt><trkpt lat="42.1851233" lon="14.60103"><ele>88.0</ele><time>2026-05-01T09:17:47.898Z</time></trkpt><trkpt lat="42.1850817" lon="14.60093"><ele>88.0</ele><time>2026-05-01T09:17:51.897Z</time></trkpt><trkpt lat="42.1850433" lon="14.60085"><ele>88.0</ele><time>2026-05-01T09:17:54.897Z</time></trkpt><trkpt lat="42.1850033" lon="14.60075"><ele>88.5</ele><time>2026-05-01T09:17:59.898Z</time></trkpt><trkpt lat="42.18497" lon="14.6006583"><ele>89.0</ele><time>2026-05-01T09:18:04.898Z</time></trkpt><trkpt lat="42.1849367" lon="14.6004733"><ele>89.5</ele><time>2026-05-01T09:18:19.897Z</time></trkpt><trkpt lat="42.18492" lon="14.6003833"><ele>90.0</ele><time>2026-05-01T09:18:23.898Z</time></trkpt><trkpt lat="42.1849" lon="14.600275"><ele>90.5</ele><time>2026-05-01T09:18:28.898Z</time></trkpt><trkpt lat="42.18485" lon="14.6001983"><ele>91.0</ele><time>2026-05-01T09:18:34.898Z</time></trkpt><trkpt lat="42.1847833" lon="14.6000817"><ele>92.0</ele><time>2026-05-01T09:19:03.898Z</time></trkpt><trkpt lat="42.184685" lon="14.60009"><ele>93.0</ele><time>2026-05-01T09:19:20.897Z</time></trkpt><trkpt lat="42.1847433" lon="14.6002083"><ele>94.0</ele><time>2026-05-01T09:19:29.897Z</time></trkpt><trkpt lat="42.184785" lon="14.6003467"><ele>95.0</ele><time>2026-05-01T09:19:35.898Z</time></trkpt><trkpt lat="42.1848167" lon="14.60045"><ele>96.0</ele><time>2026-05-01T09:19:38.898Z</time></trkpt><trkpt lat="42.18484" lon="14.600535"><ele>95.16666666666667</ele><time>2026-05-01T09:19:40.898Z</time></trkpt><trkpt lat="42.1849083" lon="14.6006117"><ele>94.33333333333333</ele><time>2026-05-01T09:19:44.897Z</time></trkpt><trkpt lat="42.1849767" lon="14.6006967"><ele>93.5</ele><time>2026-05-01T09:19:47.898Z</time></trkpt><trkpt lat="42.1850533" lon="14.60073"><ele>92.66666666666666</ele><time>2026-05-01T09:19:50.897Z</time></trkpt><trkpt lat="42.1851217" lon="14.6007717"><ele>91.83333333333333</ele><time>2026-05-01T09:19:53.897Z</time></trkpt><trkpt lat="42.185185" lon="14.6008233"><ele>91.0</ele><time>2026-05-01T09:19:55.898Z</time></trkpt><trkpt lat="42.185275" lon="14.6008867"><ele>91.0</ele><time>2026-05-01T09:19:57.898Z</time></trkpt><trkpt lat="42.1853467" lon="14.600925"><ele>91.0</ele><time>2026-05-01T09:19:59.898Z</time></trkpt><trkpt lat="42.185415" lon="14.6009483"><ele>91.0</ele><time>2026-05-01T09:20:01.898Z</time></trkpt><trkpt lat="42.1854867" lon="14.600915"><ele>91.0</ele><time>2026-05-01T09:20:04.897Z</time></trkpt><trkpt lat="42.1855067" lon="14.600825"><ele>91.0</ele><time>2026-05-01T09:20:08.898Z</time></trkpt><trkpt lat="42.1855067" lon="14.6007233"><ele>91.0</ele><time>2026-05-01T09:20:11.898Z</time></trkpt><trkpt lat="42.1854967" lon="14.60063"><ele>91.0</ele><time>2026-05-01T09:20:14.898Z</time></trkpt><trkpt lat="42.1854783" lon="14.6005467"><ele>91.0</ele><time>2026-05-01T09:20:16.898Z</time></trkpt><trkpt lat="42.1854517" lon="14.6004633"><ele>91.0</ele><time>2026-05-01T09:20:18.897Z</time></trkpt><trkpt lat="42.1854117" lon="14.600395"><ele>91.0</ele><time>2026-05-01T09:20:20.897Z</time></trkpt><trkpt lat="42.1853667" lon="14.60033"><ele>91.0</ele><time>2026-05-01T09:20:22.898Z</time></trkpt><trkpt lat="42.1853067" lon="14.6002267"><ele>91.0</ele><time>2026-05-01T09:20:25.898Z</time></trkpt><trkpt lat="42.1852517" lon="14.600145"><ele>91.0</ele><time>2026-05-01T09:20:28.898Z</time></trkpt><trkpt lat="42.1852067" lon="14.6000683"><ele>91.0</ele><time>2026-05-01T09:20:31.898Z</time></trkpt><trkpt lat="42.18515" lon="14.599985"><ele>92.0</ele><time>2026-05-01T09:20:34.898Z</time></trkpt><trkpt lat="42.1850483" lon="14.5999183"><ele>93.0</ele><time>2026-05-01T09:21:00.898Z</time></trkpt><trkpt lat="42.184985" lon="14.6000333"><ele>94.0</ele><time>2026-05-01T09:21:05.898Z</time></trkpt><trkpt lat="42.1849683" lon="14.5998417"><ele>95.0</ele><time>2026-05-01T09:21:08.898Z</time></trkpt><trkpt lat="42.1849867" lon="14.5999867"><ele>95.0</ele><time>2026-05-01T09:21:15.898Z</time></trkpt><trkpt lat="42.1850367" lon="14.59985"><ele>95.0</ele><time>2026-05-01T09:22:35.898Z</time></trkpt><trkpt lat="42.18502" lon="14.5997517"><ele>95.0</ele><time>2026-05-01T09:22:48.898Z</time></trkpt><trkpt lat="42.1849717" lon="14.5996833"><ele>95.0</ele><time>2026-05-01T09:22:53.898Z</time></trkpt><trkpt lat="42.1849183" lon="14.59962"><ele>95.0</ele><time>2026-05-01T09:22:58.898Z</time></trkpt><trkpt lat="42.1848733" lon="14.5995383"><ele>95.0</ele><time>2026-05-01T09:23:02.897Z</time></trkpt><trkpt lat="42.1848183" lon="14.5994633"><ele>95.28571428571429</ele><time>2026-05-01T09:23:06.897Z</time></trkpt><trkpt lat="42.1847483" lon="14.5994017"><ele>95.57142857142858</ele><time>2026-05-01T09:23:10.898Z</time></trkpt><trkpt lat="42.1846767" lon="14.59938"><ele>95.85714285714286</ele><time>2026-05-01T09:23:13.898Z</time></trkpt><trkpt lat="42.1845967" lon="14.5993633"><ele>96.14285714285714</ele><time>2026-05-01T09:23:25.897Z</time></trkpt><trkpt lat="42.1845367" lon="14.599315"><ele>96.42857142857143</ele><time>2026-05-01T09:23:28.898Z</time></trkpt><trkpt lat="42.1844783" lon="14.5992717"><ele>96.71428571428571</ele><time>2026-05-01T09:23:31.897Z</time></trkpt><trkpt lat="42.18441" lon="14.59927"><ele>97.0</ele><time>2026-05-01T09:23:34.897Z</time></trkpt><trkpt lat="42.1843367" lon="14.5992367"><ele>97.00000000000001</ele><time>2026-05-01T09:23:38.898Z</time></trkpt><trkpt lat="42.1842667" lon="14.5992667"><ele>97.0</ele><time>2026-05-01T09:23:42.897Z</time></trkpt><trkpt lat="42.1842133" lon="14.599345"><ele>97.0</ele><time>2026-05-01T09:23:45.898Z</time></trkpt><trkpt lat="42.1841517" lon="14.59943"><ele>97.0</ele><time>2026-05-01T09:23:48.897Z</time></trkpt><trkpt lat="42.1840833" lon="14.5994833"><ele>97.00000000000001</ele><time>2026-05-01T09:23:52.897Z</time></trkpt><trkpt lat="42.184035" lon="14.5994067"><ele>97.0</ele><time>2026-05-01T09:23:58.898Z</time></trkpt><trkpt lat="42.1839883" lon="14.5993417"><ele>97.28571428571428</ele><time>2026-05-01T09:24:02.897Z</time></trkpt><trkpt lat="42.1839283" lon="14.599295"><ele>97.57142857142858</ele><time>2026-05-01T09:24:06.898Z</time></trkpt><trkpt lat="42.1838517" lon="14.59925"><ele>97.85714285714286</ele><time>2026-05-01T09:24:10.898Z</time></trkpt><trkpt lat="42.183785" lon="14.59921"><ele>98.14285714285714</ele><time>2026-05-01T09:24:13.897Z</time></trkpt><trkpt lat="42.18372" lon="14.5991733"><ele>98.42857142857142</ele><time>2026-05-01T09:24:16.897Z</time></trkpt><trkpt lat="42.1836583" lon="14.599135"><ele>98.71428571428572</ele><time>2026-05-01T09:24:19.898Z</time></trkpt><trkpt lat="42.1836033" lon="14.5990783"><ele>99.0</ele><time>2026-05-01T09:24:23.897Z</time></trkpt><trkpt lat="42.1835433" lon="14.5990367"><ele>99.0</ele><time>2026-05-01T09:24:26.898Z</time></trkpt><trkpt lat="42.1834783" lon="14.5989783"><ele>99.0</ele><time>2026-05-01T09:24:30.898Z</time></trkpt><trkpt lat="42.18344" lon="14.5989017"><ele>99.0</ele><time>2026-05-01T09:24:34.898Z</time></trkpt><trkpt lat="42.18338" lon="14.59883"><ele>99.0</ele><time>2026-05-01T09:24:38.898Z</time></trkpt><trkpt lat="42.1833067" lon="14.5987867"><ele>99.0</ele><time>2026-05-01T09:24:42.898Z</time></trkpt><trkpt lat="42.1832333" lon="14.5987333"><ele>99.0</ele><time>2026-05-01T09:24:46.898Z</time></trkpt><trkpt lat="42.1831667" lon="14.5986717"><ele>99.42857142857143</ele><time>2026-05-01T09:24:50.898Z</time></trkpt><trkpt lat="42.1831183" lon="14.598595"><ele>99.85714285714285</ele><time>2026-05-01T09:24:54.897Z</time></trkpt><trkpt lat="42.1830767" lon="14.5985083"><ele>100.28571428571428</ele><time>2026-05-01T09:24:58.898Z</time></trkpt><trkpt lat="42.1830483" lon="14.5984283"><ele>100.71428571428572</ele><time>2026-05-01T09:25:02.898Z</time></trkpt><trkpt lat="42.1830233" lon="14.5983467"><ele>101.14285714285714</ele><time>2026-05-01T09:25:06.898Z</time></trkpt><trkpt lat="42.18299" lon="14.5982667"><ele>101.57142857142857</ele><time>2026-05-01T09:25:10.898Z</time></trkpt><trkpt lat="42.18293" lon="14.5982017"><ele>102.0</ele><time>2026-05-01T09:25:14.897Z</time></trkpt><trkpt lat="42.1828617" lon="14.59814"><ele>102.0</ele><time>2026-05-01T09:25:18.897Z</time></trkpt><trkpt lat="42.1828033" lon="14.5980883"><ele>102.0</ele><time>2026-05-01T09:25:22.897Z</time></trkpt><trkpt lat="42.1827467" lon="14.59803"><ele>102.0</ele><time>2026-05-01T09:25:26.898Z</time></trkpt><trkpt lat="42.18268" lon="14.5979933"><ele>102.0</ele><time>2026-05-01T09:25:30.898Z</time></trkpt><trkpt lat="42.1826133" lon="14.5980033"><ele>102.0</ele><time>2026-05-01T09:25:34.898Z</time></trkpt><trkpt lat="42.18255" lon="14.5979983"><ele>102.0</ele><time>2026-05-01T09:25:37.898Z</time></trkpt><trkpt lat="42.1825083" lon="14.5979217"><ele>102.0</ele><time>2026-05-01T09:25:42.897Z</time></trkpt><trkpt lat="42.1825333" lon="14.5978433"><ele>102.28571428571429</ele><time>2026-05-01T09:25:46.898Z</time></trkpt><trkpt lat="42.1825583" lon="14.59775"><ele>102.57142857142858</ele><time>2026-05-01T09:25:50.897Z</time></trkpt><trkpt lat="42.1825883" lon="14.5976567"><ele>102.85714285714286</ele><time>2026-05-01T09:25:54.898Z</time></trkpt><trkpt lat="42.18262" lon="14.5975683"><ele>103.14285714285714</ele><time>2026-05-01T09:25:58.898Z</time></trkpt><trkpt lat="42.1826567" lon="14.59749"><ele>103.42857142857143</ele><time>2026-05-01T09:26:02.898Z</time></trkpt><trkpt lat="42.1826867" lon="14.5973983"><ele>103.71428571428571</ele><time>2026-05-01T09:26:06.897Z</time></trkpt><trkpt lat="42.1827233" lon="14.5973"><ele>104.0</ele><time>2026-05-01T09:26:10.898Z</time></trkpt><trkpt lat="42.182745" lon="14.5972017"><ele>104.0</ele><time>2026-05-01T09:26:13.898Z</time></trkpt><trkpt lat="42.1827433" lon="14.5971017"><ele>104.0</ele><time>2026-05-01T09:26:16.898Z</time></trkpt><trkpt lat="42.1827567" lon="14.597"><ele>104.0</ele><time>2026-05-01T09:26:19.898Z</time></trkpt><trkpt lat="42.1827733" lon="14.596905"><ele>104.0</ele><time>2026-05-01T09:26:22.897Z</time></trkpt><trkpt lat="42.1828067" lon="14.596815"><ele>104.0</ele><time>2026-05-01T09:26:25.898Z</time></trkpt><trkpt lat="42.1828567" lon="14.596735"><ele>104.0</ele><time>2026-05-01T09:26:28.898Z</time></trkpt><trkpt lat="42.1828983" lon="14.596665"><ele>104.0</ele><time>2026-05-01T09:26:30.898Z</time></trkpt><trkpt lat="42.182945" lon="14.5966017"><ele>104.33333333333333</ele><time>2026-05-01T09:26:32.897Z</time></trkpt><trkpt lat="42.182995" lon="14.596525"><ele>104.66666666666666</ele><time>2026-05-01T09:26:34.897Z</time></trkpt><trkpt lat="42.1830617" lon="14.5964517"><ele>105.0</ele><time>2026-05-01T09:26:36.897Z</time></trkpt><trkpt lat="42.1831317" lon="14.5964033"><ele>105.33333333333334</ele><time>2026-05-01T09:26:38.898Z</time></trkpt><trkpt lat="42.1832" lon="14.5963717"><ele>105.66666666666667</ele><time>2026-05-01T09:26:40.898Z</time></trkpt><trkpt lat="42.1832683" lon="14.5963317"><ele>106.0</ele><time>2026-05-01T09:26:42.898Z</time></trkpt><trkpt lat="42.1833433" lon="14.5962983"><ele>106.00000000000001</ele><time>2026-05-01T09:26:44.898Z</time></trkpt><trkpt lat="42.1834167" lon="14.5962467"><ele>106.0</ele><time>2026-05-01T09:26:46.898Z</time></trkpt><trkpt lat="42.183495" lon="14.59622"><ele>106.0</ele><time>2026-05-01T09:26:48.898Z</time></trkpt><trkpt lat="42.1835733" lon="14.5961867"><ele>106.0</ele><time>2026-05-01T09:26:50.898Z</time></trkpt><trkpt lat="42.18365" lon="14.5961483"><ele>106.00000000000001</ele><time>2026-05-01T09:26:52.898Z</time></trkpt><trkpt lat="42.18373" lon="14.5961083"><ele>106.0</ele><time>2026-05-01T09:26:54.897Z</time></trkpt><trkpt lat="42.18381" lon="14.5960533"><ele>105.33333333333334</ele><time>2026-05-01T09:26:56.897Z</time></trkpt><trkpt lat="42.1838933" lon="14.5960317"><ele>104.66666666666667</ele><time>2026-05-01T09:26:58.897Z</time></trkpt><trkpt lat="42.183965" lon="14.5960517"><ele>104.0</ele><time>2026-05-01T09:27:00.898Z</time></trkpt><trkpt lat="42.184055" lon="14.59608"><ele>103.33333333333334</ele><time>2026-05-01T09:27:02.898Z</time></trkpt><trkpt lat="42.1841283" lon="14.5961083"><ele>102.66666666666667</ele><time>2026-05-01T09:27:04.897Z</time></trkpt><trkpt lat="42.1842033" lon="14.5961183"><ele>102.0</ele><time>2026-05-01T09:27:06.898Z</time></trkpt><trkpt lat="42.1842833" lon="14.596135"><ele>101.66666666666667</ele><time>2026-05-01T09:27:08.897Z</time></trkpt><trkpt lat="42.1843733" lon="14.5961283"><ele>101.33333333333334</ele><time>2026-05-01T09:27:10.898Z</time></trkpt><trkpt lat="42.1844517" lon="14.5961333"><ele>101.0</ele><time>2026-05-01T09:27:12.897Z</time></trkpt><trkpt lat="42.1845467" lon="14.5961317"><ele>100.66666666666667</ele><time>2026-05-01T09:27:14.898Z</time></trkpt><trkpt lat="42.1846333" lon="14.59614"><ele>100.33333333333334</ele><time>2026-05-01T09:27:16.898Z</time></trkpt><trkpt lat="42.18471" lon="14.5961533"><ele>100.0</ele><time>2026-05-01T09:27:18.898Z</time></trkpt><trkpt lat="42.1847917" lon="14.59616"><ele>100.0</ele><time>2026-05-01T09:27:20.897Z</time></trkpt><trkpt lat="42.18487" lon="14.5961683"><ele>100.0</ele><time>2026-05-01T09:27:22.898Z</time></trkpt><trkpt lat="42.184955" lon="14.5961717"><ele>100.0</ele><time>2026-05-01T09:27:24.898Z</time></trkpt><trkpt lat="42.1850517" lon="14.5961883"><ele>100.0</ele><time>2026-05-01T09:27:26.898Z</time></trkpt><trkpt lat="42.1851533" lon="14.5962067"><ele>100.0</ele><time>2026-05-01T09:27:28.897Z</time></trkpt><trkpt lat="42.18525" lon="14.5962267"><ele>100.00000000000001</ele><time>2026-05-01T09:27:30.898Z</time></trkpt><trkpt lat="42.18534" lon="14.59623"><ele>100.0</ele><time>2026-05-01T09:27:32.898Z</time></trkpt><trkpt lat="42.185425" lon="14.5962133"><ele>100.0</ele><time>2026-05-01T09:27:34.897Z</time></trkpt><trkpt lat="42.1854933" lon="14.5962"><ele>100.0</ele><time>2026-05-01T09:27:36.898Z</time></trkpt><trkpt lat="42.1855717" lon="14.5961717"><ele>100.00000000000001</ele><time>2026-05-01T09:27:38.898Z</time></trkpt><trkpt lat="42.185645" lon="14.5961517"><ele>100.0</ele><time>2026-05-01T09:27:40.897Z</time></trkpt><trkpt lat="42.1857167" lon="14.596125"><ele>99.33333333333334</ele><time>2026-05-01T09:27:42.897Z</time></trkpt><trkpt lat="42.1857933" lon="14.5961"><ele>98.66666666666667</ele><time>2026-05-01T09:27:44.898Z</time></trkpt><trkpt lat="42.1858717" lon="14.5960717"><ele>98.0</ele><time>2026-05-01T09:27:46.898Z</time></trkpt><trkpt lat="42.1859533" lon="14.5960383"><ele>97.33333333333334</ele><time>2026-05-01T09:27:48.898Z</time></trkpt><trkpt lat="42.1860333" lon="14.596015"><ele>96.66666666666667</ele><time>2026-05-01T09:27:50.898Z</time></trkpt><trkpt lat="42.18611" lon="14.5959917"><ele>96.0</ele><time>2026-05-01T09:27:52.898Z</time></trkpt><trkpt lat="42.186185" lon="14.5959617"><ele>96.0</ele><time>2026-05-01T09:27:54.898Z</time></trkpt><trkpt lat="42.1862617" lon="14.5959267"><ele>96.0</ele><time>2026-05-01T09:27:56.898Z</time></trkpt><trkpt lat="42.1863417" lon="14.5958733"><ele>96.0</ele><time>2026-05-01T09:27:58.898Z</time></trkpt><trkpt lat="42.1864217" lon="14.5958333"><ele>96.0</ele><time>2026-05-01T09:28:00.898Z</time></trkpt><trkpt lat="42.1864933" lon="14.595795"><ele>96.0</ele><time>2026-05-01T09:28:02.898Z</time></trkpt><trkpt lat="42.1865667" lon="14.5957417"><ele>96.0</ele><time>2026-05-01T09:28:04.898Z</time></trkpt><trkpt lat="42.1866383" lon="14.5956833"><ele>96.0</ele><time>2026-05-01T09:28:06.897Z</time></trkpt><trkpt lat="42.18671" lon="14.5956217"><ele>96.0</ele><time>2026-05-01T09:28:08.898Z</time></trkpt><trkpt lat="42.1867767" lon="14.59558"><ele>96.0</ele><time>2026-05-01T09:28:10.898Z</time></trkpt><trkpt lat="42.1868533" lon="14.5955517"><ele>96.0</ele><time>2026-05-01T09:28:12.898Z</time></trkpt><trkpt lat="42.1869267" lon="14.5955267"><ele>96.0</ele><time>2026-05-01T09:28:14.898Z</time></trkpt><trkpt lat="42.1869967" lon="14.5955033"><ele>96.0</ele><time>2026-05-01T09:28:16.897Z</time></trkpt><trkpt lat="42.1870617" lon="14.5954817"><ele>95.99999999999999</ele><time>2026-05-01T09:28:18.898Z</time></trkpt><trkpt lat="42.1871317" lon="14.5954533"><ele>96.0</ele><time>2026-05-01T09:28:20.897Z</time></trkpt><trkpt lat="42.1871967" lon="14.595425"><ele>96.0</ele><time>2026-05-01T09:28:22.898Z</time></trkpt><trkpt lat="42.187265" lon="14.59541"><ele>96.0</ele><time>2026-05-01T09:28:24.897Z</time></trkpt><trkpt lat="42.18735" lon="14.595395"><ele>96.0</ele><time>2026-05-01T09:28:27.897Z</time></trkpt><trkpt lat="42.1874217" lon="14.5953933"><ele>95.99999999999999</ele><time>2026-05-01T09:28:30.898Z</time></trkpt><trkpt lat="42.1874933" lon="14.5953683"><ele>96.0</ele><time>2026-05-01T09:28:33.898Z</time></trkpt><trkpt lat="42.18755" lon="14.5952817"><ele>95.28571428571428</ele><time>2026-05-01T09:28:37.897Z</time></trkpt><trkpt lat="42.187595" lon="14.5952183"><ele>94.57142857142857</ele><time>2026-05-01T09:28:40.897Z</time></trkpt><trkpt lat="42.1876383" lon="14.5951517"><ele>93.85714285714286</ele><time>2026-05-01T09:28:43.897Z</time></trkpt><trkpt lat="42.1876817" lon="14.5950867"><ele>93.14285714285714</ele><time>2026-05-01T09:28:46.898Z</time></trkpt><trkpt lat="42.1877317" lon="14.595015"><ele>92.42857142857143</ele><time>2026-05-01T09:28:49.898Z</time></trkpt><trkpt lat="42.18779" lon="14.5949467"><ele>91.71428571428571</ele><time>2026-05-01T09:28:54.897Z</time></trkpt><trkpt lat="42.1878517" lon="14.5948833"><ele>91.0</ele><time>2026-05-01T09:28:58.898Z</time></trkpt><trkpt lat="42.1879167" lon="14.5948083"><ele>91.0</ele><time>2026-05-01T09:29:02.897Z</time></trkpt><trkpt lat="42.1879667" lon="14.59475"><ele>91.0</ele><time>2026-05-01T09:29:05.898Z</time></trkpt><trkpt lat="42.18801" lon="14.5946817"><ele>91.0</ele><time>2026-05-01T09:29:09.898Z</time></trkpt><trkpt lat="42.188065" lon="14.5946233"><ele>91.0</ele><time>2026-05-01T09:29:13.898Z</time></trkpt><trkpt lat="42.1881267" lon="14.5945767"><ele>91.0</ele><time>2026-05-01T09:29:17.898Z</time></trkpt><trkpt lat="42.188215" lon="14.5944883"><ele>91.0</ele><time>2026-05-01T09:29:22.898Z</time></trkpt><trkpt lat="42.1882783" lon="14.5944283"><ele>89.57142857142857</ele><time>2026-05-01T09:29:25.898Z</time></trkpt><trkpt lat="42.18834" lon="14.594355"><ele>88.14285714285714</ele><time>2026-05-01T09:29:28.898Z</time></trkpt><trkpt lat="42.188395" lon="14.594305"><ele>86.71428571428572</ele><time>2026-05-01T09:29:31.898Z</time></trkpt><trkpt lat="42.1884633" lon="14.594245"><ele>85.28571428571428</ele><time>2026-05-01T09:29:34.898Z</time></trkpt><trkpt lat="42.1885267" lon="14.5942017"><ele>83.85714285714286</ele><time>2026-05-01T09:29:36.897Z</time></trkpt><trkpt lat="42.1886017" lon="14.5941867"><ele>82.42857142857143</ele><time>2026-05-01T09:29:38.897Z</time></trkpt><trkpt lat="42.1886667" lon="14.59416"><ele>81.0</ele><time>2026-05-01T09:29:40.898Z</time></trkpt><trkpt lat="42.18874" lon="14.59416"><ele>81.0</ele><time>2026-05-01T09:29:42.897Z</time></trkpt><trkpt lat="42.18881" lon="14.594155"><ele>81.0</ele><time>2026-05-01T09:29:44.898Z</time></trkpt><trkpt lat="42.1888883" lon="14.5941567"><ele>81.0</ele><time>2026-05-01T09:29:46.898Z</time></trkpt><trkpt lat="42.1889733" lon="14.5941517"><ele>81.0</ele><time>2026-05-01T09:29:48.898Z</time></trkpt><trkpt lat="42.1890483" lon="14.59419"><ele>81.0</ele><time>2026-05-01T09:29:50.898Z</time></trkpt><trkpt lat="42.1891167" lon="14.5941967"><ele>81.0</ele><time>2026-05-01T09:29:52.898Z</time></trkpt><trkpt lat="42.1891933" lon="14.5941683"><ele>80.42857142857143</ele><time>2026-05-01T09:29:54.898Z</time></trkpt><trkpt lat="42.1892583" lon="14.5941317"><ele>79.85714285714286</ele><time>2026-05-01T09:29:56.898Z</time></trkpt><trkpt lat="42.1893233" lon="14.5941133"><ele>79.28571428571428</ele><time>2026-05-01T09:29:58.898Z</time></trkpt><trkpt lat="42.1894017" lon="14.594115"><ele>78.71428571428572</ele><time>2026-05-01T09:30:01.898Z</time></trkpt><trkpt lat="42.18947" lon="14.594115"><ele>78.14285714285714</ele><time>2026-05-01T09:30:03.898Z</time></trkpt><trkpt lat="42.1895333" lon="14.594125"><ele>77.57142857142857</ele><time>2026-05-01T09:30:05.898Z</time></trkpt><trkpt lat="42.1896283" lon="14.59414"><ele>77.0</ele><time>2026-05-01T09:30:08.898Z</time></trkpt><trkpt lat="42.1896933" lon="14.5941767"><ele>77.0</ele><time>2026-05-01T09:30:09.898Z</time></trkpt><trkpt lat="42.1897633" lon="14.59425"><ele>77.0</ele><time>2026-05-01T09:30:11.897Z</time></trkpt><trkpt lat="42.1898917" lon="14.5944017"><ele>77.0</ele><time>2026-05-01T09:30:15.898Z</time></trkpt><trkpt lat="42.1899967" lon="14.5944233"><ele>77.0</ele><time>2026-05-01T09:30:18.897Z</time></trkpt><trkpt lat="42.1900683" lon="14.5944183"><ele>77.0</ele><time>2026-05-01T09:30:20.898Z</time></trkpt><trkpt lat="42.1901467" lon="14.5944033"><ele>74.33333333333334</ele><time>2026-05-01T09:30:23.897Z</time></trkpt><trkpt lat="42.19022" lon="14.5943583"><ele>71.66666666666667</ele><time>2026-05-01T09:30:27.898Z</time></trkpt><trkpt lat="42.1902833" lon="14.5942767"><ele>69.0</ele><time>2026-05-01T09:30:30.897Z</time></trkpt><trkpt lat="42.190315" lon="14.5941983"><ele>66.33333333333333</ele><time>2026-05-01T09:30:32.898Z</time></trkpt><trkpt lat="42.1903167" lon="14.59408"><ele>63.666666666666664</ele><time>2026-05-01T09:30:35.897Z</time></trkpt><trkpt lat="42.190295" lon="14.5939917"><ele>61.0</ele><time>2026-05-01T09:30:38.898Z</time></trkpt><trkpt lat="42.1902517" lon="14.5939183"><ele>60.99999999999999</ele><time>2026-05-01T09:30:41.898Z</time></trkpt><trkpt lat="42.190205" lon="14.5938533"><ele>61.0</ele><time>2026-05-01T09:30:45.898Z</time></trkpt><trkpt lat="42.1901517" lon="14.5937933"><ele>60.99999999999999</ele><time>2026-05-01T09:30:49.897Z</time></trkpt><trkpt lat="42.1901067" lon="14.59372"><ele>60.99999999999999</ele><time>2026-05-01T09:30:53.898Z</time></trkpt><trkpt lat="42.1900833" lon="14.5936367"><ele>61.0</ele><time>2026-05-01T09:30:58.898Z</time></trkpt><trkpt lat="42.1900683" lon="14.5935517"><ele>60.99999999999999</ele><time>2026-05-01T09:31:02.898Z</time></trkpt><trkpt lat="42.1900767" lon="14.5934667"><ele>60.99999999999999</ele><time>2026-05-01T09:31:06.898Z</time></trkpt><trkpt lat="42.1900783" lon="14.593365"><ele>61.71428571428571</ele><time>2026-05-01T09:31:10.898Z</time></trkpt><trkpt lat="42.1900933" lon="14.5932783"><ele>62.42857142857143</ele><time>2026-05-01T09:31:14.898Z</time></trkpt><trkpt lat="42.19012" lon="14.5931917"><ele>63.14285714285714</ele><time>2026-05-01T09:31:18.898Z</time></trkpt><trkpt lat="42.190145" lon="14.59311"><ele>63.857142857142854</ele><time>2026-05-01T09:31:21.898Z</time></trkpt><trkpt lat="42.19016" lon="14.5930267"><ele>64.57142857142857</ele><time>2026-05-01T09:31:24.898Z</time></trkpt><trkpt lat="42.1901633" lon="14.592935"><ele>65.28571428571428</ele><time>2026-05-01T09:31:27.897Z</time></trkpt><trkpt lat="42.19017" lon="14.59283"><ele>66.0</ele><time>2026-05-01T09:31:31.898Z</time></trkpt><trkpt lat="42.1901617" lon="14.5927383"><ele>67.0</ele><time>2026-05-01T09:31:34.897Z</time></trkpt><trkpt lat="42.1901333" lon="14.5926617"><ele>68.0</ele><time>2026-05-01T09:31:37.897Z</time></trkpt><trkpt lat="42.19011" lon="14.5925783"><ele>69.0</ele><time>2026-05-01T09:31:40.898Z</time></trkpt><trkpt lat="42.190095" lon="14.592485"><ele>70.0</ele><time>2026-05-01T09:31:43.898Z</time></trkpt><trkpt lat="42.1900917" lon="14.5924"><ele>71.0</ele><time>2026-05-01T09:31:46.898Z</time></trkpt><trkpt lat="42.190065" lon="14.5922983"><ele>72.0</ele><time>2026-05-01T09:31:50.898Z</time></trkpt><trkpt lat="42.190065" lon="14.5922117"><ele>73.0</ele><time>2026-05-01T09:31:54.898Z</time></trkpt><trkpt lat="42.1901033" lon="14.5920567"><ele>74.57142857142857</ele><time>2026-05-01T09:32:27.898Z</time></trkpt><trkpt lat="42.1901217" lon="14.5919733"><ele>76.14285714285714</ele><time>2026-05-01T09:32:32.897Z</time></trkpt><trkpt lat="42.1901867" lon="14.5919383"><ele>77.71428571428572</ele><time>2026-05-01T09:32:45.898Z</time></trkpt><trkpt lat="42.1902517" lon="14.5919"><ele>79.28571428571428</ele><time>2026-05-01T09:32:57.898Z</time></trkpt><trkpt lat="42.1903167" lon="14.5918833"><ele>80.85714285714286</ele><time>2026-05-01T09:33:00.898Z</time></trkpt><trkpt lat="42.1903917" lon="14.591855"><ele>82.42857142857143</ele><time>2026-05-01T09:33:03.897Z</time></trkpt><trkpt lat="42.1904567" lon="14.5918033"><ele>84.0</ele><time>2026-05-01T09:33:06.897Z</time></trkpt><trkpt lat="42.1904967" lon="14.5917117"><ele>84.0</ele><time>2026-05-01T09:33:09.898Z</time></trkpt><trkpt lat="42.1905133" lon="14.5915983"><ele>84.0</ele><time>2026-05-01T09:33:11.898Z</time></trkpt><trkpt lat="42.1905233" lon="14.59148"><ele>84.0</ele><time>2026-05-01T09:33:13.898Z</time></trkpt><trkpt lat="42.1905383" lon="14.5913817"><ele>84.0</ele><time>2026-05-01T09:33:15.898Z</time></trkpt><trkpt lat="42.1905533" lon="14.5912833"><ele>84.0</ele><time>2026-05-01T09:33:17.898Z</time></trkpt><trkpt lat="42.1905517" lon="14.5911783"><ele>84.0</ele><time>2026-05-01T09:33:20.898Z</time></trkpt><trkpt lat="42.1905517" lon="14.59109"><ele>84.66666666666667</ele><time>2026-05-01T09:33:23.898Z</time></trkpt><trkpt lat="42.1905183" lon="14.591015"><ele>85.33333333333333</ele><time>2026-05-01T09:33:26.897Z</time></trkpt><trkpt lat="42.190455" lon="14.590975"><ele>86.0</ele><time>2026-05-01T09:33:29.898Z</time></trkpt><trkpt lat="42.1903783" lon="14.590925"><ele>86.66666666666666</ele><time>2026-05-01T09:33:33.898Z</time></trkpt><trkpt lat="42.1903" lon="14.59087"><ele>87.33333333333333</ele><time>2026-05-01T09:33:37.897Z</time></trkpt><trkpt lat="42.19024" lon="14.59081"><ele>88.0</ele><time>2026-05-01T09:33:40.897Z</time></trkpt><trkpt lat="42.1902433" lon="14.5907"><ele>88.0</ele><time>2026-05-01T09:33:44.897Z</time></trkpt><trkpt lat="42.1902783" lon="14.5906083"><ele>88.0</ele><time>2026-05-01T09:33:47.897Z</time></trkpt><trkpt lat="42.1903183" lon="14.590535"><ele>88.0</ele><time>2026-05-01T09:33:51.898Z</time></trkpt><trkpt lat="42.1903317" lon="14.5904283"><ele>88.0</ele><time>2026-05-01T09:34:29.898Z</time></trkpt><trkpt lat="42.1904217" lon="14.5903917"><ele>88.0</ele><time>2026-05-01T09:34:37.898Z</time></trkpt><trkpt lat="42.19047" lon="14.5903033"><ele>88.0</ele><time>2026-05-01T09:34:41.898Z</time></trkpt><trkpt lat="42.1904767" lon="14.5901933"><ele>87.66666666666666</ele><time>2026-05-01T09:34:44.898Z</time></trkpt><trkpt lat="42.190475" lon="14.5900483"><ele>87.33333333333333</ele><time>2026-05-01T09:34:49.897Z</time></trkpt><trkpt lat="42.19047" lon="14.58996"><ele>87.0</ele><time>2026-05-01T09:34:52.898Z</time></trkpt><trkpt lat="42.190465" lon="14.5898633"><ele>86.66666666666667</ele><time>2026-05-01T09:35:02.898Z</time></trkpt><trkpt lat="42.1904633" lon="14.589765"><ele>86.33333333333334</ele><time>2026-05-01T09:35:04.897Z</time></trkpt><trkpt lat="42.1904433" lon="14.5896433"><ele>86.0</ele><time>2026-05-01T09:35:07.897Z</time></trkpt><trkpt lat="42.19043" lon="14.5895467"><ele>85.14285714285715</ele><time>2026-05-01T09:35:10.897Z</time></trkpt><trkpt lat="42.1904233" lon="14.5894383"><ele>84.28571428571429</ele><time>2026-05-01T09:35:13.898Z</time></trkpt><trkpt lat="42.1904417" lon="14.5893417"><ele>83.42857142857143</ele><time>2026-05-01T09:35:16.898Z</time></trkpt><trkpt lat="42.1904583" lon="14.589245"><ele>82.57142857142858</ele><time>2026-05-01T09:35:19.898Z</time></trkpt><trkpt lat="42.1904717" lon="14.5891467"><ele>81.71428571428572</ele><time>2026-05-01T09:35:23.898Z</time></trkpt><trkpt lat="42.1904733" lon="14.5890567"><ele>80.85714285714286</ele><time>2026-05-01T09:35:26.898Z</time></trkpt><trkpt lat="42.19047" lon="14.5889683"><ele>80.0</ele><time>2026-05-01T09:35:29.897Z</time></trkpt><trkpt lat="42.1904683" lon="14.5888733"><ele>80.0</ele><time>2026-05-01T09:35:33.898Z</time></trkpt><trkpt lat="42.1904733" lon="14.5887767"><ele>80.0</ele><time>2026-05-01T09:35:36.898Z</time></trkpt><trkpt lat="42.190495" lon="14.5886733"><ele>80.0</ele><time>2026-05-01T09:35:39.897Z</time></trkpt><trkpt lat="42.19051" lon="14.5885567"><ele>80.0</ele><time>2026-05-01T09:35:42.898Z</time></trkpt><trkpt lat="42.19051" lon="14.58845"><ele>80.0</ele><time>2026-05-01T09:35:45.898Z</time></trkpt><trkpt lat="42.1905133" lon="14.5883467"><ele>80.0</ele><time>2026-05-01T09:35:49.898Z</time></trkpt><trkpt lat="42.1905483" lon="14.5882667"><ele>79.83333333333334</ele><time>2026-05-01T09:35:53.898Z</time></trkpt><trkpt lat="42.1906183" lon="14.5882683"><ele>79.66666666666667</ele><time>2026-05-01T09:35:58.898Z</time></trkpt><trkpt lat="42.1906933" lon="14.5883017"><ele>79.5</ele><time>2026-05-01T09:36:02.897Z</time></trkpt><trkpt lat="42.190775" lon="14.5882733"><ele>79.33333333333333</ele><time>2026-05-01T09:36:06.898Z</time></trkpt><trkpt lat="42.1908467" lon="14.5882667"><ele>79.16666666666666</ele><time>2026-05-01T09:36:09.898Z</time></trkpt><trkpt lat="42.1909183" lon="14.5882683"><ele>79.0</ele><time>2026-05-01T09:36:12.898Z</time></trkpt><trkpt lat="42.1909883" lon="14.5883067"><ele>77.5</ele><time>2026-05-01T09:36:16.898Z</time></trkpt><trkpt lat="42.1910183" lon="14.5883883"><ele>76.0</ele><time>2026-05-01T09:36:19.898Z</time></trkpt><trkpt lat="42.1910467" lon="14.58848"><ele>74.5</ele><time>2026-05-01T09:36:22.898Z</time></trkpt><trkpt lat="42.1910883" lon="14.5885833"><ele>73.0</ele><time>2026-05-01T09:36:25.897Z</time></trkpt><trkpt lat="42.1911217" lon="14.5886933"><ele>71.5</ele><time>2026-05-01T09:36:28.898Z</time></trkpt><trkpt lat="42.1911567" lon="14.588805"><ele>70.0</ele><time>2026-05-01T09:36:31.898Z</time></trkpt><trkpt lat="42.1911967" lon="14.5889133"><ele>69.33333333333333</ele><time>2026-05-01T09:36:34.898Z</time></trkpt><trkpt lat="42.191235" lon="14.58903"><ele>68.66666666666666</ele><time>2026-05-01T09:36:37.898Z</time></trkpt><trkpt lat="42.1912667" lon="14.5891133"><ele>68.0</ele><time>2026-05-01T09:36:39.898Z</time></trkpt><trkpt lat="42.1913117" lon="14.589225"><ele>67.33333333333333</ele><time>2026-05-01T09:36:42.898Z</time></trkpt><trkpt lat="42.19136" lon="14.5893133"><ele>66.66666666666667</ele><time>2026-05-01T09:36:45.897Z</time></trkpt><trkpt lat="42.1913933" lon="14.5893867"><ele>66.0</ele><time>2026-05-01T09:36:47.898Z</time></trkpt><trkpt lat="42.1914383" lon="14.5894983"><ele>66.0</ele><time>2026-05-01T09:36:50.898Z</time></trkpt><trkpt lat="42.1914717" lon="14.5895983"><ele>66.0</ele><time>2026-05-01T09:36:53.897Z</time></trkpt><trkpt lat="42.191505" lon="14.589695"><ele>66.0</ele><time>2026-05-01T09:36:56.897Z</time></trkpt><trkpt lat="42.1915467" lon="14.5897883"><ele>66.0</ele><time>2026-05-01T09:36:59.897Z</time></trkpt><trkpt lat="42.1915817" lon="14.58988"><ele>66.0</ele><time>2026-05-01T09:37:02.898Z</time></trkpt><trkpt lat="42.1915933" lon="14.5899867"><ele>66.0</ele><time>2026-05-01T09:37:05.898Z</time></trkpt><trkpt lat="42.1915683" lon="14.5900883"><ele>66.0</ele><time>2026-05-01T09:37:08.897Z</time></trkpt><trkpt lat="42.1915267" lon="14.590165"><ele>66.0</ele><time>2026-05-01T09:37:11.897Z</time></trkpt><trkpt lat="42.1914767" lon="14.590235"><ele>66.0</ele><time>2026-05-01T09:37:14.898Z</time></trkpt><trkpt lat="42.191415" lon="14.59033"><ele>66.0</ele><time>2026-05-01T09:37:17.898Z</time></trkpt><trkpt lat="42.1913783" lon="14.5904067"><ele>66.0</ele><time>2026-05-01T09:37:19.897Z</time></trkpt><trkpt lat="42.19135" lon="14.5904967"><ele>66.0</ele><time>2026-05-01T09:37:21.898Z</time></trkpt><trkpt lat="42.1913333" lon="14.590585"><ele>66.0</ele><time>2026-05-01T09:37:23.897Z</time></trkpt><trkpt lat="42.191315" lon="14.5906683"><ele>65.66666666666667</ele><time>2026-05-01T09:37:25.897Z</time></trkpt><trkpt lat="42.19127" lon="14.5907583"><ele>65.33333333333333</ele><time>2026-05-01T09:37:28.898Z</time></trkpt><trkpt lat="42.19123" lon="14.5908383"><ele>65.0</ele><time>2026-05-01T09:37:31.898Z</time></trkpt><trkpt lat="42.1911817" lon="14.5909367"><ele>64.66666666666666</ele><time>2026-05-01T09:37:34.898Z</time></trkpt><trkpt lat="42.19115" lon="14.5910433"><ele>64.33333333333333</ele><time>2026-05-01T09:37:37.898Z</time></trkpt><trkpt lat="42.1911333" lon="14.59116"><ele>64.0</ele><time>2026-05-01T09:37:40.897Z</time></trkpt><trkpt lat="42.1911417" lon="14.59125"><ele>63.666666666666664</ele><time>2026-05-01T09:37:42.898Z</time></trkpt><trkpt lat="42.1911767" lon="14.5913517"><ele>63.33333333333333</ele><time>2026-05-01T09:37:44.898Z</time></trkpt><trkpt lat="42.1912367" lon="14.5914767"><ele>63.0</ele><time>2026-05-01T09:37:47.898Z</time></trkpt><trkpt lat="42.1912783" lon="14.5915633"><ele>62.66666666666667</ele><time>2026-05-01T09:37:49.898Z</time></trkpt><trkpt lat="42.191315" lon="14.59165"><ele>62.333333333333336</ele><time>2026-05-01T09:37:51.898Z</time></trkpt><trkpt lat="42.19135" lon="14.5917417"><ele>62.0</ele><time>2026-05-01T09:37:53.897Z</time></trkpt><trkpt lat="42.1913717" lon="14.59185"><ele>62.0</ele><time>2026-05-01T09:37:55.898Z</time></trkpt><trkpt lat="42.1913583" lon="14.5919683"><ele>62.0</ele><time>2026-05-01T09:37:57.898Z</time></trkpt><trkpt lat="42.191325" lon="14.59207"><ele>62.0</ele><time>2026-05-01T09:37:59.897Z</time></trkpt><trkpt lat="42.1912817" lon="14.5921733"><ele>62.0</ele><time>2026-05-01T09:38:01.897Z</time></trkpt><trkpt lat="42.1912267" lon="14.5922783"><ele>62.0</ele><time>2026-05-01T09:38:03.897Z</time></trkpt><trkpt lat="42.1911767" lon="14.5924"><ele>61.6</ele><time>2026-05-01T09:38:05.897Z</time></trkpt><trkpt lat="42.1911283" lon="14.59252"><ele>61.2</ele><time>2026-05-01T09:38:07.898Z</time></trkpt><trkpt lat="42.1910883" lon="14.592655"><ele>60.8</ele><time>2026-05-01T09:38:09.898Z</time></trkpt><trkpt lat="42.191045" lon="14.592775"><ele>60.4</ele><time>2026-05-01T09:38:11.898Z</time></trkpt><trkpt lat="42.1910133" lon="14.592905"><ele>60.0</ele><time>2026-05-01T09:38:13.898Z</time></trkpt><trkpt lat="42.19098" lon="14.593035"><ele>59.5</ele><time>2026-05-01T09:38:15.897Z</time></trkpt><trkpt lat="42.1909583" lon="14.59316"><ele>59.0</ele><time>2026-05-01T09:38:17.898Z</time></trkpt><trkpt lat="42.19094" lon="14.5932683"><ele>58.5</ele><time>2026-05-01T09:38:19.898Z</time></trkpt><trkpt lat="42.190915" lon="14.5933817"><ele>58.0</ele><time>2026-05-01T09:38:21.898Z</time></trkpt><trkpt lat="42.19088" lon="14.5934767"><ele>57.5</ele><time>2026-05-01T09:38:23.898Z</time></trkpt><trkpt lat="42.190835" lon="14.59356"><ele>57.0</ele><time>2026-05-01T09:38:25.898Z</time></trkpt><trkpt lat="42.1907867" lon="14.59363"><ele>57.14285714285714</ele><time>2026-05-01T09:38:27.897Z</time></trkpt><trkpt lat="42.1907433" lon="14.59371"><ele>57.28571428571428</ele><time>2026-05-01T09:38:29.898Z</time></trkpt><trkpt lat="42.1907033" lon="14.5937933"><ele>57.42857142857143</ele><time>2026-05-01T09:38:31.897Z</time></trkpt><trkpt lat="42.1906617" lon="14.59387"><ele>57.57142857142857</ele><time>2026-05-01T09:38:33.897Z</time></trkpt><trkpt lat="42.190635" lon="14.59395"><ele>57.714285714285715</ele><time>2026-05-01T09:38:35.897Z</time></trkpt><trkpt lat="42.19062" lon="14.5940333"><ele>57.85714285714286</ele><time>2026-05-01T09:38:37.898Z</time></trkpt><trkpt lat="42.1905983" lon="14.5941167"><ele>58.00000000000001</ele><time>2026-05-01T09:38:40.897Z</time></trkpt><trkpt lat="42.1905667" lon="14.5942017"><ele>57.83333333333333</ele><time>2026-05-01T09:38:43.897Z</time></trkpt><trkpt lat="42.1905767" lon="14.5942867"><ele>57.666666666666664</ele><time>2026-05-01T09:38:45.898Z</time></trkpt><trkpt lat="42.1906233" lon="14.5943983"><ele>57.5</ele><time>2026-05-01T09:38:47.898Z</time></trkpt><trkpt lat="42.1906567" lon="14.5945067"><ele>57.33333333333333</ele><time>2026-05-01T09:38:49.898Z</time></trkpt><trkpt lat="42.1907017" lon="14.5946017"><ele>57.166666666666664</ele><time>2026-05-01T09:38:51.897Z</time></trkpt><trkpt lat="42.1907433" lon="14.594685"><ele>57.0</ele><time>2026-05-01T09:38:53.898Z</time></trkpt><trkpt lat="42.190775" lon="14.5947667"><ele>57.0</ele><time>2026-05-01T09:38:55.897Z</time></trkpt><trkpt lat="42.19081" lon="14.59486"><ele>56.99999999999999</ele><time>2026-05-01T09:38:57.898Z</time></trkpt><trkpt lat="42.190845" lon="14.594955"><ele>57.0</ele><time>2026-05-01T09:38:59.898Z</time></trkpt><trkpt lat="42.1908783" lon="14.59504"><ele>57.0</ele><time>2026-05-01T09:39:01.897Z</time></trkpt><trkpt lat="42.1909133" lon="14.5951133"><ele>56.99999999999999</ele><time>2026-05-01T09:39:03.898Z</time></trkpt><trkpt lat="42.1909583" lon="14.595185"><ele>57.0</ele><time>2026-05-01T09:39:05.898Z</time></trkpt><trkpt lat="42.1910067" lon="14.595245"><ele>57.0</ele><time>2026-05-01T09:39:07.898Z</time></trkpt><trkpt lat="42.1910517" lon="14.595315"><ele>57.166666666666664</ele><time>2026-05-01T09:39:09.897Z</time></trkpt><trkpt lat="42.1911083" lon="14.5953967"><ele>57.33333333333333</ele><time>2026-05-01T09:39:12.898Z</time></trkpt><trkpt lat="42.1911683" lon="14.5954733"><ele>57.5</ele><time>2026-05-01T09:39:15.897Z</time></trkpt><trkpt lat="42.19122" lon="14.5955333"><ele>57.666666666666664</ele><time>2026-05-01T09:39:18.897Z</time></trkpt><trkpt lat="42.1912733" lon="14.5956067"><ele>57.83333333333333</ele><time>2026-05-01T09:39:21.898Z</time></trkpt><trkpt lat="42.1913317" lon="14.5956767"><ele>58.0</ele><time>2026-05-01T09:39:24.897Z</time></trkpt><trkpt lat="42.191395" lon="14.5957333"><ele>57.99999999999999</ele><time>2026-05-01T09:39:27.897Z</time></trkpt><trkpt lat="42.1914583" lon="14.5957933"><ele>58.0</ele><time>2026-05-01T09:39:30.897Z</time></trkpt><trkpt lat="42.1915217" lon="14.59585"><ele>58.0</ele><time>2026-05-01T09:39:33.898Z</time></trkpt><trkpt lat="42.1915833" lon="14.5959"><ele>58.0</ele><time>2026-05-01T09:39:36.898Z</time></trkpt><trkpt lat="42.191655" lon="14.5959333"><ele>57.99999999999999</ele><time>2026-05-01T09:39:39.898Z</time></trkpt><trkpt lat="42.1917217" lon="14.5959883"><ele>58.0</ele><time>2026-05-01T09:39:43.897Z</time></trkpt><trkpt lat="42.1917733" lon="14.5960533"><ele>60.166666666666664</ele><time>2026-05-01T09:39:47.898Z</time></trkpt><trkpt lat="42.19183" lon="14.596125"><ele>62.33333333333333</ele><time>2026-05-01T09:39:50.897Z</time></trkpt><trkpt lat="42.191885" lon="14.5962017"><ele>64.5</ele><time>2026-05-01T09:39:52.898Z</time></trkpt><trkpt lat="42.19194" lon="14.5962667"><ele>66.66666666666667</ele><time>2026-05-01T09:39:54.898Z</time></trkpt><trkpt lat="42.1919933" lon="14.5963333"><ele>68.83333333333334</ele><time>2026-05-01T09:39:56.898Z</time></trkpt><trkpt lat="42.1920583" lon="14.59637"><ele>71.0</ele><time>2026-05-01T09:39:59.897Z</time></trkpt><trkpt lat="42.19213" lon="14.59642"><ele>71.0</ele><time>2026-05-01T09:40:02.898Z</time></trkpt><trkpt lat="42.1921867" lon="14.59649"><ele>71.0</ele><time>2026-05-01T09:40:05.897Z</time></trkpt><trkpt lat="42.1922433" lon="14.5965433"><ele>71.0</ele><time>2026-05-01T09:40:08.898Z</time></trkpt><trkpt lat="42.192305" lon="14.59661"><ele>71.0</ele><time>2026-05-01T09:40:11.898Z</time></trkpt><trkpt lat="42.1923583" lon="14.596695"><ele>71.0</ele><time>2026-05-01T09:40:14.898Z</time></trkpt><trkpt lat="42.1924117" lon="14.5967567"><ele>71.0</ele><time>2026-05-01T09:40:17.898Z</time></trkpt><trkpt lat="42.1924683" lon="14.59671"><ele>71.0</ele><time>2026-05-01T09:40:20.897Z</time></trkpt><trkpt lat="42.19249" lon="14.5966233"><ele>72.14285714285714</ele><time>2026-05-01T09:40:22.897Z</time></trkpt><trkpt lat="42.19251" lon="14.596535"><ele>73.28571428571428</ele><time>2026-05-01T09:40:24.898Z</time></trkpt><trkpt lat="42.19254" lon="14.5964583"><ele>74.42857142857143</ele><time>2026-05-01T09:40:26.898Z</time></trkpt><trkpt lat="42.1925767" lon="14.59635"><ele>75.57142857142857</ele><time>2026-05-01T09:40:29.898Z</time></trkpt><trkpt lat="42.192555" lon="14.5962483"><ele>76.71428571428572</ele><time>2026-05-01T09:40:32.898Z</time></trkpt><trkpt lat="42.1924867" lon="14.596205"><ele>77.85714285714286</ele><time>2026-05-01T09:40:35.898Z</time></trkpt><trkpt lat="42.1924217" lon="14.5961783"><ele>79.0</ele><time>2026-05-01T09:40:37.898Z</time></trkpt><trkpt lat="42.1923567" lon="14.5961183"><ele>79.5</ele><time>2026-05-01T09:40:40.897Z</time></trkpt><trkpt lat="42.1923817" lon="14.5960133"><ele>80.0</ele><time>2026-05-01T09:40:44.898Z</time></trkpt><trkpt lat="42.19244" lon="14.5959233"><ele>80.5</ele><time>2026-05-01T09:40:48.898Z</time></trkpt><trkpt lat="42.1925033" lon="14.59584"><ele>81.0</ele><time>2026-05-01T09:40:51.897Z</time></trkpt><trkpt lat="42.1925733" lon="14.5957583"><ele>81.5</ele><time>2026-05-01T09:40:54.898Z</time></trkpt><trkpt lat="42.1926233" lon="14.5957017"><ele>82.0</ele><time>2026-05-01T09:40:56.898Z</time></trkpt><trkpt lat="42.19268" lon="14.5956467"><ele>81.99999999999999</ele><time>2026-05-01T09:40:58.898Z</time></trkpt><trkpt lat="42.1927283" lon="14.59559"><ele>82.0</ele><time>2026-05-01T09:41:00.897Z</time></trkpt><trkpt lat="42.1927767" lon="14.5955283"><ele>82.0</ele><time>2026-05-01T09:41:02.898Z</time></trkpt><trkpt lat="42.192825" lon="14.5954717"><ele>82.0</ele><time>2026-05-01T09:41:04.898Z</time></trkpt><trkpt lat="42.192875" lon="14.5954183"><ele>82.0</ele><time>2026-05-01T09:41:06.898Z</time></trkpt><trkpt lat="42.1929433" lon="14.5953317"><ele>81.99999999999999</ele><time>2026-05-01T09:41:09.898Z</time></trkpt><trkpt lat="42.1929917" lon="14.5952717"><ele>82.0</ele><time>2026-05-01T09:41:11.898Z</time></trkpt><trkpt lat="42.19304" lon="14.5952083"><ele>82.14285714285714</ele><time>2026-05-01T09:41:13.897Z</time></trkpt><trkpt lat="42.1930933" lon="14.5951517"><ele>82.28571428571428</ele><time>2026-05-01T09:41:15.898Z</time></trkpt><trkpt lat="42.1931433" lon="14.595095"><ele>82.42857142857142</ele><time>2026-05-01T09:41:17.897Z</time></trkpt><trkpt lat="42.193195" lon="14.5950367"><ele>82.57142857142857</ele><time>2026-05-01T09:41:19.898Z</time></trkpt><trkpt lat="42.1932483" lon="14.5949717"><ele>82.71428571428572</ele><time>2026-05-01T09:41:21.898Z</time></trkpt><trkpt lat="42.1933" lon="14.5949033"><ele>82.85714285714285</ele><time>2026-05-01T09:41:23.898Z</time></trkpt><trkpt lat="42.1933533" lon="14.59484"><ele>83.0</ele><time>2026-05-01T09:41:25.898Z</time></trkpt><trkpt lat="42.193405" lon="14.5947817"><ele>83.33333333333334</ele><time>2026-05-01T09:41:27.897Z</time></trkpt><trkpt lat="42.193455" lon="14.594725"><ele>83.66666666666667</ele><time>2026-05-01T09:41:29.898Z</time></trkpt><trkpt lat="42.1935" lon="14.594635"><ele>84.0</ele><time>2026-05-01T09:41:32.897Z</time></trkpt><trkpt lat="42.1934933" lon="14.5945433"><ele>84.33333333333333</ele><time>2026-05-01T09:41:35.897Z</time></trkpt><trkpt lat="42.19346" lon="14.5944383"><ele>84.66666666666666</ele><time>2026-05-01T09:41:38.897Z</time></trkpt><trkpt lat="42.1933967" lon="14.5943467"><ele>85.0</ele><time>2026-05-01T09:41:41.898Z</time></trkpt><trkpt lat="42.1933367" lon="14.594255"><ele>85.0</ele><time>2026-05-01T09:41:44.898Z</time></trkpt><trkpt lat="42.1932933" lon="14.5941583"><ele>85.0</ele><time>2026-05-01T09:41:47.897Z</time></trkpt><trkpt lat="42.19334" lon="14.5940883"><ele>85.0</ele><time>2026-05-01T09:41:50.898Z</time></trkpt><trkpt lat="42.1934183" lon="14.5940167"><ele>85.0</ele><time>2026-05-01T09:41:53.897Z</time></trkpt><trkpt lat="42.1934633" lon="14.5939483"><ele>85.0</ele><time>2026-05-01T09:41:55.898Z</time></trkpt><trkpt lat="42.19352" lon="14.5938567"><ele>85.0</ele><time>2026-05-01T09:41:58.898Z</time></trkpt><trkpt lat="42.1935917" lon="14.5937783"><ele>85.0</ele><time>2026-05-01T09:42:01.898Z</time></trkpt><trkpt lat="42.193645" lon="14.5937183"><ele>85.0</ele><time>2026-05-01T09:42:03.898Z</time></trkpt><trkpt lat="42.1937017" lon="14.5936367"><ele>85.0</ele><time>2026-05-01T09:42:05.898Z</time></trkpt><trkpt lat="42.1937467" lon="14.59357"><ele>85.0</ele><time>2026-05-01T09:42:07.898Z</time></trkpt><trkpt lat="42.1937983" lon="14.5935083"><ele>85.0</ele><time>2026-05-01T09:42:09.898Z</time></trkpt><trkpt lat="42.1938517" lon="14.5934383"><ele>85.0</ele><time>2026-05-01T09:42:11.898Z</time></trkpt><trkpt lat="42.1938967" lon="14.59337"><ele>85.0</ele><time>2026-05-01T09:42:13.898Z</time></trkpt><trkpt lat="42.193945" lon="14.5933033"><ele>85.0</ele><time>2026-05-01T09:42:15.898Z</time></trkpt><trkpt lat="42.1939917" lon="14.593225"><ele>85.0</ele><time>2026-05-01T09:42:17.897Z</time></trkpt><trkpt lat="42.1940367" lon="14.5931483"><ele>85.0</ele><time>2026-05-01T09:42:19.898Z</time></trkpt><trkpt lat="42.1940817" lon="14.59307"><ele>85.0</ele><time>2026-05-01T09:42:21.898Z</time></trkpt><trkpt lat="42.1941267" lon="14.5929917"><ele>85.0</ele><time>2026-05-01T09:42:23.898Z</time></trkpt><trkpt lat="42.1941683" lon="14.5929083"><ele>85.0</ele><time>2026-05-01T09:42:25.898Z</time></trkpt><trkpt lat="42.1942133" lon="14.5928333"><ele>85.0</ele><time>2026-05-01T09:42:27.897Z</time></trkpt><trkpt lat="42.1942567" lon="14.592755"><ele>85.66666666666666</ele><time>2026-05-01T09:42:29.898Z</time></trkpt><trkpt lat="42.1943" lon="14.5926733"><ele>86.33333333333333</ele><time>2026-05-01T09:42:31.897Z</time></trkpt><trkpt lat="42.194345" lon="14.5925833"><ele>87.0</ele><time>2026-05-01T09:42:33.897Z</time></trkpt><trkpt lat="42.1943867" lon="14.5924883"><ele>87.66666666666667</ele><time>2026-05-01T09:42:35.898Z</time></trkpt><trkpt lat="42.1944217" lon="14.5924067"><ele>88.33333333333334</ele><time>2026-05-01T09:42:37.898Z</time></trkpt><trkpt lat="42.1944633" lon="14.5923217"><ele>89.0</ele><time>2026-05-01T09:42:39.898Z</time></trkpt><trkpt lat="42.1945" lon="14.592235"><ele>88.99999999999999</ele><time>2026-05-01T09:42:41.898Z</time></trkpt><trkpt lat="42.1945333" lon="14.59215"><ele>89.0</ele><time>2026-05-01T09:42:43.898Z</time></trkpt><trkpt lat="42.1945683" lon="14.59206"><ele>89.0</ele><time>2026-05-01T09:42:45.897Z</time></trkpt><trkpt lat="42.1945983" lon="14.59198"><ele>89.0</ele><time>2026-05-01T09:42:47.898Z</time></trkpt><trkpt lat="42.1946317" lon="14.5919017"><ele>89.0</ele><time>2026-05-01T09:42:49.897Z</time></trkpt><trkpt lat="42.1946617" lon="14.591825"><ele>88.99999999999999</ele><time>2026-05-01T09:42:51.897Z</time></trkpt><trkpt lat="42.1946867" lon="14.591735"><ele>89.0</ele><time>2026-05-01T09:42:53.897Z</time></trkpt><trkpt lat="42.1947183" lon="14.5916517"><ele>89.14285714285714</ele><time>2026-05-01T09:42:55.897Z</time></trkpt><trkpt lat="42.19475" lon="14.5915633"><ele>89.28571428571428</ele><time>2026-05-01T09:42:57.898Z</time></trkpt><trkpt lat="42.1947733" lon="14.591475"><ele>89.42857142857142</ele><time>2026-05-01T09:42:59.898Z</time></trkpt><trkpt lat="42.1947967" lon="14.5913917"><ele>89.57142857142857</ele><time>2026-05-01T09:43:01.898Z</time></trkpt><trkpt lat="42.1948233" lon="14.59131"><ele>89.71428571428572</ele><time>2026-05-01T09:43:03.897Z</time></trkpt><trkpt lat="42.1948433" lon="14.5912167"><ele>89.85714285714285</ele><time>2026-05-01T09:43:05.897Z</time></trkpt><trkpt lat="42.1948667" lon="14.5911267"><ele>90.0</ele><time>2026-05-01T09:43:07.897Z</time></trkpt><trkpt lat="42.1948883" lon="14.5910333"><ele>89.71428571428571</ele><time>2026-05-01T09:43:09.897Z</time></trkpt><trkpt lat="42.19491" lon="14.590935"><ele>89.42857142857143</ele><time>2026-05-01T09:43:11.897Z</time></trkpt><trkpt lat="42.1949317" lon="14.5908383"><ele>89.14285714285714</ele><time>2026-05-01T09:43:13.898Z</time></trkpt><trkpt lat="42.19495" lon="14.5907417"><ele>88.85714285714286</ele><time>2026-05-01T09:43:15.898Z</time></trkpt><trkpt lat="42.194965" lon="14.5906517"><ele>88.57142857142857</ele><time>2026-05-01T09:43:17.897Z</time></trkpt><trkpt lat="42.1949767" lon="14.590565"><ele>88.28571428571429</ele><time>2026-05-01T09:43:19.898Z</time></trkpt><trkpt lat="42.19499" lon="14.5904717"><ele>88.0</ele><time>2026-05-01T09:43:21.897Z</time></trkpt><trkpt lat="42.1950017" lon="14.59038"><ele>87.83333333333333</ele><time>2026-05-01T09:43:23.897Z</time></trkpt><trkpt lat="42.1950183" lon="14.590265"><ele>87.66666666666666</ele><time>2026-05-01T09:43:26.897Z</time></trkpt><trkpt lat="42.1950383" lon="14.5901483"><ele>87.5</ele><time>2026-05-01T09:43:29.897Z</time></trkpt><trkpt lat="42.195045" lon="14.5900517"><ele>87.33333333333333</ele><time>2026-05-01T09:43:31.898Z</time></trkpt><trkpt lat="42.1950533" lon="14.5899467"><ele>87.16666666666667</ele><time>2026-05-01T09:43:33.898Z</time></trkpt><trkpt lat="42.1950683" lon="14.5898417"><ele>87.0</ele><time>2026-05-01T09:43:35.898Z</time></trkpt><trkpt lat="42.195075" lon="14.5897383"><ele>87.0</ele><time>2026-05-01T09:43:37.898Z</time></trkpt><trkpt lat="42.195085" lon="14.5896283"><ele>87.0</ele><time>2026-05-01T09:43:39.898Z</time></trkpt><trkpt lat="42.1951" lon="14.5895183"><ele>87.0</ele><time>2026-05-01T09:43:41.897Z</time></trkpt><trkpt lat="42.1951133" lon="14.58942"><ele>87.0</ele><time>2026-05-01T09:43:43.898Z</time></trkpt><trkpt lat="42.1951117" lon="14.5893217"><ele>87.0</ele><time>2026-05-01T09:43:45.897Z</time></trkpt><trkpt lat="42.1951133" lon="14.589235"><ele>87.0</ele><time>2026-05-01T09:43:47.897Z</time></trkpt><trkpt lat="42.195105" lon="14.5891183"><ele>86.83333333333333</ele><time>2026-05-01T09:43:50.897Z</time></trkpt><trkpt lat="42.1950783" lon="14.5890167"><ele>86.66666666666667</ele><time>2026-05-01T09:43:54.898Z</time></trkpt><trkpt lat="42.1950783" lon="14.5889183"><ele>86.5</ele><time>2026-05-01T09:43:58.897Z</time></trkpt><trkpt lat="42.1951217" lon="14.5888"><ele>86.33333333333334</ele><time>2026-05-01T09:44:01.898Z</time></trkpt><trkpt lat="42.1951367" lon="14.588675"><ele>86.16666666666667</ele><time>2026-05-01T09:44:03.897Z</time></trkpt><trkpt lat="42.1951533" lon="14.5885567"><ele>86.0</ele><time>2026-05-01T09:44:05.897Z</time></trkpt><trkpt lat="42.195155" lon="14.5884217"><ele>85.66666666666667</ele><time>2026-05-01T09:44:07.898Z</time></trkpt><trkpt lat="42.19515" lon="14.5882967"><ele>85.33333333333334</ele><time>2026-05-01T09:44:09.898Z</time></trkpt><trkpt lat="42.1951367" lon="14.5881833"><ele>85.0</ele><time>2026-05-01T09:44:11.898Z</time></trkpt><trkpt lat="42.1951317" lon="14.58807"><ele>84.66666666666667</ele><time>2026-05-01T09:44:13.897Z</time></trkpt><trkpt lat="42.195125" lon="14.5879583"><ele>84.33333333333333</ele><time>2026-05-01T09:44:15.898Z</time></trkpt><trkpt lat="42.195125" lon="14.587855"><ele>84.0</ele><time>2026-05-01T09:44:17.898Z</time></trkpt><trkpt lat="42.19513" lon="14.587735"><ele>83.80000000000001</ele><time>2026-05-01T09:44:19.898Z</time></trkpt><trkpt lat="42.195145" lon="14.58761"><ele>83.60000000000001</ele><time>2026-05-01T09:44:21.898Z</time></trkpt><trkpt lat="42.1951567" lon="14.5874667"><ele>83.4</ele><time>2026-05-01T09:44:23.897Z</time></trkpt><trkpt lat="42.195155" lon="14.587325"><ele>83.2</ele><time>2026-05-01T09:44:25.898Z</time></trkpt><trkpt lat="42.1951583" lon="14.58724"><ele>83.0</ele><time>2026-05-01T09:44:27.897Z</time></trkpt><trkpt lat="42.195175" lon="14.5871317"><ele>83.0</ele><time>2026-05-01T09:44:31.897Z</time></trkpt><trkpt lat="42.1951733" lon="14.5870317"><ele>83.0</ele><time>2026-05-01T09:44:36.898Z</time></trkpt><trkpt lat="42.1951733" lon="14.586925"><ele>83.0</ele><time>2026-05-01T09:44:40.898Z</time></trkpt><trkpt lat="42.1951733" lon="14.5868183"><ele>83.0</ele><time>2026-05-01T09:44:43.897Z</time></trkpt><trkpt lat="42.195175" lon="14.5866967"><ele>83.0</ele><time>2026-05-01T09:44:46.897Z</time></trkpt><trkpt lat="42.1951833" lon="14.58658"><ele>83.0</ele><time>2026-05-01T09:44:49.897Z</time></trkpt><trkpt lat="42.1951933" lon="14.5864817"><ele>83.0</ele><time>2026-05-01T09:44:51.898Z</time></trkpt><trkpt lat="42.19519" lon="14.5863717"><ele>83.0</ele><time>2026-05-01T09:44:53.897Z</time></trkpt><trkpt lat="42.1951883" lon="14.5862717"><ele>83.0</ele><time>2026-05-01T09:44:55.898Z</time></trkpt><trkpt lat="42.1951967" lon="14.586185"><ele>83.0</ele><time>2026-05-01T09:44:57.898Z</time></trkpt><trkpt lat="42.19522" lon="14.58607"><ele>83.0</ele><time>2026-05-01T09:44:59.898Z</time></trkpt><trkpt lat="42.1952233" lon="14.5859533"><ele>83.0</ele><time>2026-05-01T09:45:01.898Z</time></trkpt><trkpt lat="42.195225" lon="14.585855"><ele>83.33333333333334</ele><time>2026-05-01T09:45:03.898Z</time></trkpt><trkpt lat="42.1952117" lon="14.5857633"><ele>83.66666666666667</ele><time>2026-05-01T09:45:05.898Z</time></trkpt><trkpt lat="42.1951967" lon="14.5856683"><ele>84.0</ele><time>2026-05-01T09:45:07.897Z</time></trkpt><trkpt lat="42.1952017" lon="14.5855783"><ele>84.33333333333333</ele><time>2026-05-01T09:45:09.898Z</time></trkpt><trkpt lat="42.195225" lon="14.5854633"><ele>84.66666666666666</ele><time>2026-05-01T09:45:12.898Z</time></trkpt><trkpt lat="42.1952383" lon="14.5853333"><ele>85.0</ele><time>2026-05-01T09:45:15.898Z</time></trkpt><trkpt lat="42.19525" lon="14.5852283"><ele>85.2</ele><time>2026-05-01T09:45:17.898Z</time></trkpt><trkpt lat="42.19526" lon="14.5851317"><ele>85.4</ele><time>2026-05-01T09:45:19.898Z</time></trkpt><trkpt lat="42.1952683" lon="14.585015"><ele>85.6</ele><time>2026-05-01T09:45:22.898Z</time></trkpt><trkpt lat="42.19528" lon="14.5848983"><ele>85.8</ele><time>2026-05-01T09:45:25.898Z</time></trkpt><trkpt lat="42.1952917" lon="14.5847667"><ele>86.0</ele><time>2026-05-01T09:45:28.897Z</time></trkpt><trkpt lat="42.1953167" lon="14.5846017"><ele>85.19999999999999</ele><time>2026-05-01T09:45:30.898Z</time></trkpt><trkpt lat="42.19531" lon="14.5845067"><ele>84.39999999999999</ele><time>2026-05-01T09:45:31.898Z</time></trkpt><trkpt lat="42.1953017" lon="14.58435"><ele>83.6</ele><time>2026-05-01T09:45:33.898Z</time></trkpt><trkpt lat="42.195285" lon="14.584215"><ele>82.8</ele><time>2026-05-01T09:45:35.898Z</time></trkpt><trkpt lat="42.195275" lon="14.5840633"><ele>82.0</ele><time>2026-05-01T09:45:37.897Z</time></trkpt><trkpt lat="42.1952583" lon="14.5839283"><ele>81.99999999999999</ele><time>2026-05-01T09:45:39.897Z</time></trkpt><trkpt lat="42.1952267" lon="14.583815"><ele>82.0</ele><time>2026-05-01T09:45:41.898Z</time></trkpt><trkpt lat="42.1952" lon="14.5837267"><ele>82.0</ele><time>2026-05-01T09:45:43.897Z</time></trkpt><trkpt lat="42.19517" lon="14.5836467"><ele>82.0</ele><time>2026-05-01T09:45:45.897Z</time></trkpt><trkpt lat="42.1951233" lon="14.5835683"><ele>82.0</ele><time>2026-05-01T09:45:47.898Z</time></trkpt><trkpt lat="42.1950683" lon="14.5834983"><ele>81.99999999999999</ele><time>2026-05-01T09:45:49.897Z</time></trkpt><trkpt lat="42.1950133" lon="14.5834383"><ele>82.0</ele><time>2026-05-01T09:45:51.898Z</time></trkpt><trkpt lat="42.19495" lon="14.5833833"><ele>82.71428571428571</ele><time>2026-05-01T09:45:53.898Z</time></trkpt><trkpt lat="42.19489" lon="14.58334"><ele>83.42857142857143</ele><time>2026-05-01T09:45:55.898Z</time></trkpt><trkpt lat="42.19482" lon="14.5832833"><ele>84.14285714285714</ele><time>2026-05-01T09:45:58.898Z</time></trkpt><trkpt lat="42.19488" lon="14.5832417"><ele>84.85714285714286</ele><time>2026-05-01T09:46:05.897Z</time></trkpt><trkpt lat="42.194965" lon="14.5832167"><ele>85.57142857142857</ele><time>2026-05-01T09:46:08.898Z</time></trkpt><trkpt lat="42.195035" lon="14.583195"><ele>86.28571428571428</ele><time>2026-05-01T09:46:10.898Z</time></trkpt><trkpt lat="42.195105" lon="14.5831683"><ele>87.0</ele><time>2026-05-01T09:46:12.898Z</time></trkpt><trkpt lat="42.1951733" lon="14.5831333"><ele>84.66666666666667</ele><time>2026-05-01T09:46:14.897Z</time></trkpt><trkpt lat="42.1952333" lon="14.583095"><ele>82.33333333333333</ele><time>2026-05-01T09:46:16.897Z</time></trkpt><trkpt lat="42.19531" lon="14.5830333"><ele>80.0</ele><time>2026-05-01T09:46:18.897Z</time></trkpt><trkpt lat="42.1953833" lon="14.5830017"><ele>77.66666666666666</ele><time>2026-05-01T09:46:20.897Z</time></trkpt><trkpt lat="42.1954517" lon="14.5829417"><ele>75.33333333333333</ele><time>2026-05-01T09:46:23.897Z</time></trkpt><trkpt lat="42.1955167" lon="14.5828567"><ele>73.0</ele><time>2026-05-01T09:46:31.898Z</time></trkpt><trkpt lat="42.1956217" lon="14.5828867"><ele>71.28571428571428</ele><time>2026-05-01T09:46:34.898Z</time></trkpt><trkpt lat="42.1957" lon="14.58291"><ele>69.57142857142857</ele><time>2026-05-01T09:46:36.898Z</time></trkpt><trkpt lat="42.1957633" lon="14.5829217"><ele>67.85714285714286</ele><time>2026-05-01T09:46:38.898Z</time></trkpt><trkpt lat="42.1958017" lon="14.5830033"><ele>66.14285714285714</ele><time>2026-05-01T09:46:41.898Z</time></trkpt><trkpt lat="42.1958117" lon="14.5830967"><ele>64.42857142857143</ele><time>2026-05-01T09:46:44.898Z</time></trkpt><trkpt lat="42.1958083" lon="14.583195"><ele>62.71428571428571</ele><time>2026-05-01T09:46:47.898Z</time></trkpt><trkpt lat="42.1958067" lon="14.5832883"><ele>60.99999999999999</ele><time>2026-05-01T09:46:50.898Z</time></trkpt><trkpt lat="42.195805" lon="14.5833933"><ele>60.99999999999999</ele><time>2026-05-01T09:46:53.897Z</time></trkpt><trkpt lat="42.1958533" lon="14.5834533"><ele>61.0</ele><time>2026-05-01T09:46:55.898Z</time></trkpt><trkpt lat="42.19594" lon="14.583455"><ele>61.0</ele><time>2026-05-01T09:46:57.897Z</time></trkpt><trkpt lat="42.1960333" lon="14.5834267"><ele>61.0</ele><time>2026-05-01T09:46:59.898Z</time></trkpt><trkpt lat="42.1961283" lon="14.5833883"><ele>60.99999999999999</ele><time>2026-05-01T09:47:01.898Z</time></trkpt><trkpt lat="42.1962183" lon="14.5833517"><ele>61.0</ele><time>2026-05-01T09:47:03.897Z</time></trkpt><trkpt lat="42.1963067" lon="14.5833067"><ele>61.0</ele><time>2026-05-01T09:47:05.898Z</time></trkpt><trkpt lat="42.1963883" lon="14.5832683"><ele>60.99999999999999</ele><time>2026-05-01T09:47:07.898Z</time></trkpt><trkpt lat="42.1964683" lon="14.5832417"><ele>60.99999999999999</ele><time>2026-05-01T09:47:09.897Z</time></trkpt><trkpt lat="42.1965617" lon="14.5832"><ele>61.0</ele><time>2026-05-01T09:47:11.897Z</time></trkpt><trkpt lat="42.19667" lon="14.5831467"><ele>61.0</ele><time>2026-05-01T09:47:13.898Z</time></trkpt><trkpt lat="42.19677" lon="14.5831"><ele>58.199999999999996</ele><time>2026-05-01T09:47:15.897Z</time></trkpt><trkpt lat="42.1968633" lon="14.5830467"><ele>55.39999999999999</ele><time>2026-05-01T09:47:17.898Z</time></trkpt><trkpt lat="42.19695" lon="14.582995"><ele>52.6</ele><time>2026-05-01T09:47:19.898Z</time></trkpt><trkpt lat="42.197035" lon="14.5829467"><ele>49.8</ele><time>2026-05-01T09:47:21.897Z</time></trkpt><trkpt lat="42.19712" lon="14.582905"><ele>47.0</ele><time>2026-05-01T09:47:23.897Z</time></trkpt><trkpt lat="42.1972067" lon="14.582865"><ele>46.166666666666664</ele><time>2026-05-01T09:47:25.898Z</time></trkpt><trkpt lat="42.1972833" lon="14.582825"><ele>45.33333333333333</ele><time>2026-05-01T09:47:27.898Z</time></trkpt><trkpt lat="42.1973583" lon="14.5827933"><ele>44.5</ele><time>2026-05-01T09:47:29.898Z</time></trkpt><trkpt lat="42.1974217" lon="14.5827667"><ele>43.666666666666664</ele><time>2026-05-01T09:47:31.898Z</time></trkpt><trkpt lat="42.1974683" lon="14.58285"><ele>42.833333333333336</ele><time>2026-05-01T09:47:35.898Z</time></trkpt><trkpt lat="42.19748" lon="14.5829417"><ele>42.0</ele><time>2026-05-01T09:47:38.897Z</time></trkpt><trkpt lat="42.1974867" lon="14.5830517"><ele>40.857142857142854</ele><time>2026-05-01T09:47:41.897Z</time></trkpt><trkpt lat="42.1975117" lon="14.5831733"><ele>39.714285714285715</ele><time>2026-05-01T09:47:44.897Z</time></trkpt><trkpt lat="42.19753" lon="14.58328"><ele>38.57142857142857</ele><time>2026-05-01T09:47:47.898Z</time></trkpt><trkpt lat="42.1975583" lon="14.583375"><ele>37.42857142857143</ele><time>2026-05-01T09:47:50.898Z</time></trkpt><trkpt lat="42.197585" lon="14.58346"><ele>36.285714285714285</ele><time>2026-05-01T09:47:53.898Z</time></trkpt><trkpt lat="42.19761" lon="14.58354"><ele>35.14285714285714</ele><time>2026-05-01T09:47:56.898Z</time></trkpt><trkpt lat="42.1975917" lon="14.583625"><ele>34.0</ele><time>2026-05-01T09:48:00.898Z</time></trkpt><trkpt lat="42.197535" lon="14.5836817"><ele>33.99999999999999</ele><time>2026-05-01T09:48:05.898Z</time></trkpt><trkpt lat="42.1974733" lon="14.5837167"><ele>34.0</ele><time>2026-05-01T09:48:08.898Z</time></trkpt><trkpt lat="42.1974117" lon="14.5837567"><ele>34.0</ele><time>2026-05-01T09:48:11.898Z</time></trkpt><trkpt lat="42.197355" lon="14.5838033"><ele>34.0</ele><time>2026-05-01T09:48:14.898Z</time></trkpt><trkpt lat="42.19729" lon="14.5838417"><ele>34.0</ele><time>2026-05-01T09:48:17.897Z</time></trkpt><trkpt lat="42.1972233" lon="14.5838833"><ele>33.99999999999999</ele><time>2026-05-01T09:48:20.897Z</time></trkpt><trkpt lat="42.19716" lon="14.5839183"><ele>34.0</ele><time>2026-05-01T09:48:23.898Z</time></trkpt><trkpt lat="42.1971" lon="14.5839567"><ele>36.333333333333336</ele><time>2026-05-01T09:48:26.898Z</time></trkpt><trkpt lat="42.1970283" lon="14.5840017"><ele>38.66666666666667</ele><time>2026-05-01T09:48:30.898Z</time></trkpt><trkpt lat="42.19697" lon="14.5840483"><ele>41.0</ele><time>2026-05-01T09:48:33.898Z</time></trkpt><trkpt lat="42.1969083" lon="14.5840683"><ele>43.333333333333336</ele><time>2026-05-01T09:48:36.897Z</time></trkpt><trkpt lat="42.19684" lon="14.5841"><ele>45.666666666666664</ele><time>2026-05-01T09:48:39.898Z</time></trkpt><trkpt lat="42.1967633" lon="14.5841267"><ele>48.0</ele><time>2026-05-01T09:48:42.898Z</time></trkpt><trkpt lat="42.196675" lon="14.5841733"><ele>47.99999999999999</ele><time>2026-05-01T09:48:45.898Z</time></trkpt><trkpt lat="42.1965967" lon="14.5842033"><ele>48.0</ele><time>2026-05-01T09:48:48.898Z</time></trkpt><trkpt lat="42.1965333" lon="14.5842233"><ele>48.0</ele><time>2026-05-01T09:48:51.897Z</time></trkpt><trkpt lat="42.1964667" lon="14.584265"><ele>48.0</ele><time>2026-05-01T09:48:55.897Z</time></trkpt><trkpt lat="42.1964" lon="14.5842967"><ele>48.0</ele><time>2026-05-01T09:48:59.897Z</time></trkpt><trkpt lat="42.1963383" lon="14.584325"><ele>47.99999999999999</ele><time>2026-05-01T09:49:02.898Z</time></trkpt><trkpt lat="42.1962683" lon="14.5843517"><ele>48.0</ele><time>2026-05-01T09:49:05.898Z</time></trkpt><trkpt lat="42.196205" lon="14.584385"><ele>50.28571428571428</ele><time>2026-05-01T09:49:08.898Z</time></trkpt><trkpt lat="42.1961417" lon="14.58442"><ele>52.57142857142857</ele><time>2026-05-01T09:49:11.898Z</time></trkpt><trkpt lat="42.19608" lon="14.58445"><ele>54.857142857142854</ele><time>2026-05-01T09:49:14.898Z</time></trkpt><trkpt lat="42.19601" lon="14.5844817"><ele>57.14285714285714</ele><time>2026-05-01T09:49:17.898Z</time></trkpt><trkpt lat="42.1959467" lon="14.5844983"><ele>59.42857142857142</ele><time>2026-05-01T09:49:20.898Z</time></trkpt><trkpt lat="42.1958783" lon="14.5845267"><ele>61.71428571428571</ele><time>2026-05-01T09:49:24.898Z</time></trkpt><trkpt lat="42.1958183" lon="14.584565"><ele>64.0</ele><time>2026-05-01T09:49:28.897Z</time></trkpt><trkpt lat="42.1957483" lon="14.5845983"><ele>63.99999999999999</ele><time>2026-05-01T09:49:32.898Z</time></trkpt><trkpt lat="42.19564" lon="14.58465"><ele>64.0</ele><time>2026-05-01T09:50:39.636Z</time></trkpt><trkpt lat="42.1956717" lon="14.5845667"><ele>64.0</ele><time>2026-05-01T09:51:09.898Z</time></trkpt><trkpt lat="42.1957033" lon="14.584455"><ele>64.0</ele><time>2026-05-01T09:51:12.898Z</time></trkpt><trkpt lat="42.1957233" lon="14.5843517"><ele>63.99999999999999</ele><time>2026-05-01T09:51:15.897Z</time></trkpt><trkpt lat="42.195725" lon="14.5842517"><ele>64.0</ele><time>2026-05-01T09:51:19.898Z</time></trkpt><trkpt lat="42.1957267" lon="14.58415"><ele>64.0</ele><time>2026-05-01T09:51:23.897Z</time></trkpt><trkpt lat="42.1957267" lon="14.5840567"><ele>63.99999999999999</ele><time>2026-05-01T09:51:26.898Z</time></trkpt><trkpt lat="42.1957383" lon="14.583965"><ele>64.0</ele><time>2026-05-01T09:51:30.898Z</time></trkpt><trkpt lat="42.1957067" lon="14.5840467"><ele>64.0</ele><time>2026-05-01T09:51:52.898Z</time></trkpt><trkpt lat="42.195695" lon="14.5841333"><ele>63.99999999999999</ele><time>2026-05-01T09:51:55.897Z</time></trkpt><trkpt lat="42.1957367" lon="14.5842217"><ele>64.0</ele><time>2026-05-01T09:53:13.898Z</time></trkpt><trkpt lat="42.1956867" lon="14.584285"><ele>64.0</ele><time>2026-05-01T09:53:24.899Z</time></trkpt><trkpt lat="42.195675" lon="14.5843783"><ele>67.0</ele><time>2026-05-01T09:53:27.898Z</time></trkpt><trkpt lat="42.195645" lon="14.5844717"><ele>70.0</ele><time>2026-05-01T09:53:30.899Z</time></trkpt><trkpt lat="42.1956317" lon="14.5845783"><ele>73.0</ele><time>2026-05-01T09:53:33.899Z</time></trkpt><trkpt lat="42.195625" lon="14.5846967"><ele>76.0</ele><time>2026-05-01T09:53:36.899Z</time></trkpt><trkpt lat="42.19561" lon="14.5848083"><ele>79.0</ele><time>2026-05-01T09:53:39.898Z</time></trkpt><trkpt lat="42.1956033" lon="14.584935"><ele>82.0</ele><time>2026-05-01T09:53:42.898Z</time></trkpt><trkpt lat="42.1956167" lon="14.5850417"><ele>82.6</ele><time>2026-05-01T09:53:44.899Z</time></trkpt><trkpt lat="42.1956283" lon="14.5851467"><ele>83.19999999999999</ele><time>2026-05-01T09:53:46.899Z</time></trkpt><trkpt lat="42.1956317" lon="14.5852717"><ele>83.8</ele><time>2026-05-01T09:53:48.898Z</time></trkpt><trkpt lat="42.1956317" lon="14.5854133"><ele>84.4</ele><time>2026-05-01T09:53:50.899Z</time></trkpt><trkpt lat="42.195635" lon="14.5855767"><ele>85.0</ele><time>2026-05-01T09:53:52.898Z</time></trkpt><trkpt lat="42.1956367" lon="14.585665"><ele>85.0</ele><time>2026-05-01T09:53:53.899Z</time></trkpt><trkpt lat="42.1956417" lon="14.5857533"><ele>85.0</ele><time>2026-05-01T09:53:54.899Z</time></trkpt><trkpt lat="42.1956483" lon="14.585845"><ele>85.0</ele><time>2026-05-01T09:53:55.898Z</time></trkpt><trkpt lat="42.1956533" lon="14.585935"><ele>85.0</ele><time>2026-05-01T09:53:56.898Z</time></trkpt><trkpt lat="42.1956567" lon="14.586025"><ele>85.0</ele><time>2026-05-01T09:53:57.899Z</time></trkpt><trkpt lat="42.1956617" lon="14.5861167"><ele>85.0</ele><time>2026-05-01T09:53:58.899Z</time></trkpt><trkpt lat="42.1956667" lon="14.5862033"><ele>85.0</ele><time>2026-05-01T09:53:59.899Z</time></trkpt><trkpt lat="42.19567" lon="14.58629"><ele>84.6</ele><time>2026-05-01T09:54:00.899Z</time></trkpt><trkpt lat="42.19567" lon="14.5864517"><ele>84.2</ele><time>2026-05-01T09:54:02.899Z</time></trkpt><trkpt lat="42.1956717" lon="14.586605"><ele>83.80000000000001</ele><time>2026-05-01T09:54:04.899Z</time></trkpt><trkpt lat="42.1956733" lon="14.58675"><ele>83.4</ele><time>2026-05-01T09:54:06.899Z</time></trkpt><trkpt lat="42.195675" lon="14.5868883"><ele>83.0</ele><time>2026-05-01T09:54:08.899Z</time></trkpt><trkpt lat="42.1956667" lon="14.5870067"><ele>83.0</ele><time>2026-05-01T09:54:10.899Z</time></trkpt><trkpt lat="42.1956683" lon="14.5871233"><ele>83.0</ele><time>2026-05-01T09:54:12.898Z</time></trkpt><trkpt lat="42.19568" lon="14.587235"><ele>83.0</ele><time>2026-05-01T09:54:14.899Z</time></trkpt><trkpt lat="42.1956783" lon="14.5873383"><ele>83.0</ele><time>2026-05-01T09:54:16.899Z</time></trkpt><trkpt lat="42.1956717" lon="14.5874367"><ele>83.0</ele><time>2026-05-01T09:54:18.899Z</time></trkpt><trkpt lat="42.1956633" lon="14.5875233"><ele>83.0</ele><time>2026-05-01T09:54:20.898Z</time></trkpt><trkpt lat="42.1956617" lon="14.5876267"><ele>83.0</ele><time>2026-05-01T09:54:23.898Z</time></trkpt><trkpt lat="42.1956633" lon="14.587715"><ele>83.0</ele><time>2026-05-01T09:54:28.899Z</time></trkpt><trkpt lat="42.1957083" lon="14.5877917"><ele>83.0</ele><time>2026-05-01T09:54:31.899Z</time></trkpt><trkpt lat="42.1957683" lon="14.5878967"><ele>83.0</ele><time>2026-05-01T09:54:34.898Z</time></trkpt><trkpt lat="42.195835" lon="14.58797"><ele>83.0</ele><time>2026-05-01T09:54:36.899Z</time></trkpt><trkpt lat="42.1959017" lon="14.588035"><ele>83.0</ele><time>2026-05-01T09:54:38.898Z</time></trkpt><trkpt lat="42.1959683" lon="14.5881017"><ele>80.28571428571428</ele><time>2026-05-01T09:54:40.899Z</time></trkpt><trkpt lat="42.196025" lon="14.5881417"><ele>77.57142857142858</ele><time>2026-05-01T09:54:42.899Z</time></trkpt><trkpt lat="42.19609" lon="14.5881933"><ele>74.85714285714286</ele><time>2026-05-01T09:54:45.898Z</time></trkpt><trkpt lat="42.1961417" lon="14.588245"><ele>72.14285714285714</ele><time>2026-05-01T09:54:48.899Z</time></trkpt><trkpt lat="42.1962217" lon="14.58827"><ele>69.42857142857142</ele><time>2026-05-01T09:54:51.899Z</time></trkpt><trkpt lat="42.19629" lon="14.58823"><ele>66.71428571428571</ele><time>2026-05-01T09:54:54.898Z</time></trkpt><trkpt lat="42.1963333" lon="14.5881533"><ele>64.0</ele><time>2026-05-01T09:54:57.899Z</time></trkpt><trkpt lat="42.19638" lon="14.5880517"><ele>63.99999999999999</ele><time>2026-05-01T09:55:00.899Z</time></trkpt><trkpt lat="42.1964133" lon="14.5879533"><ele>64.0</ele><time>2026-05-01T09:55:03.899Z</time></trkpt><trkpt lat="42.19644" lon="14.5878733"><ele>64.0</ele><time>2026-05-01T09:55:06.899Z</time></trkpt><trkpt lat="42.1964767" lon="14.587755"><ele>64.0</ele><time>2026-05-01T09:55:09.899Z</time></trkpt><trkpt lat="42.1964983" lon="14.58766"><ele>63.99999999999999</ele><time>2026-05-01T09:55:11.899Z</time></trkpt><trkpt lat="42.1965183" lon="14.5875517"><ele>64.0</ele><time>2026-05-01T09:55:13.898Z</time></trkpt><trkpt lat="42.1965417" lon="14.58745"><ele>60.83333333333333</ele><time>2026-05-01T09:55:15.899Z</time></trkpt><trkpt lat="42.1965583" lon="14.587365"><ele>57.666666666666664</ele><time>2026-05-01T09:55:17.898Z</time></trkpt><trkpt lat="42.1965817" lon="14.5872367"><ele>54.5</ele><time>2026-05-01T09:55:20.898Z</time></trkpt><trkpt lat="42.196585" lon="14.58714"><ele>51.33333333333333</ele><time>2026-05-01T09:55:22.898Z</time></trkpt><trkpt lat="42.196615" lon="14.5870417"><ele>48.166666666666664</ele><time>2026-05-01T09:55:25.898Z</time></trkpt><trkpt lat="42.1966483" lon="14.5869383"><ele>45.0</ele><time>2026-05-01T09:55:28.899Z</time></trkpt><trkpt lat="42.1966667" lon="14.5868483"><ele>45.0</ele><time>2026-05-01T09:55:30.899Z</time></trkpt><trkpt lat="42.1966867" lon="14.5867633"><ele>45.0</ele><time>2026-05-01T09:55:32.899Z</time></trkpt><trkpt lat="42.19671" lon="14.5866383"><ele>45.0</ele><time>2026-05-01T09:55:35.898Z</time></trkpt><trkpt lat="42.19674" lon="14.5865317"><ele>45.0</ele><time>2026-05-01T09:55:37.899Z</time></trkpt><trkpt lat="42.19677" lon="14.5864267"><ele>45.0</ele><time>2026-05-01T09:55:39.899Z</time></trkpt><trkpt lat="42.1967967" lon="14.5863317"><ele>45.0</ele><time>2026-05-01T09:55:41.899Z</time></trkpt><trkpt lat="42.196815" lon="14.5862483"><ele>45.0</ele><time>2026-05-01T09:55:43.899Z</time></trkpt><trkpt lat="42.19684" lon="14.5861667"><ele>45.0</ele><time>2026-05-01T09:55:45.899Z</time></trkpt><trkpt lat="42.1968683" lon="14.5860767"><ele>45.0</ele><time>2026-05-01T09:55:48.899Z</time></trkpt><trkpt lat="42.196915" lon="14.5860083"><ele>45.0</ele><time>2026-05-01T09:55:52.899Z</time></trkpt><trkpt lat="42.1969917" lon="14.58599"><ele>45.0</ele><time>2026-05-01T09:56:07.899Z</time></trkpt><trkpt lat="42.1970583" lon="14.58597"><ele>45.0</ele><time>2026-05-01T09:56:09.898Z</time></trkpt><trkpt lat="42.1971317" lon="14.58595"><ele>45.0</ele><time>2026-05-01T09:56:11.899Z</time></trkpt><trkpt lat="42.1972117" lon="14.5859333"><ele>45.0</ele><time>2026-05-01T09:56:13.899Z</time></trkpt><trkpt lat="42.1972917" lon="14.5859217"><ele>45.0</ele><time>2026-05-01T09:56:15.899Z</time></trkpt><trkpt lat="42.1973767" lon="14.58592"><ele>45.0</ele><time>2026-05-01T09:56:17.899Z</time></trkpt><trkpt lat="42.1974733" lon="14.5859067"><ele>45.0</ele><time>2026-05-01T09:56:19.899Z</time></trkpt><trkpt lat="42.1975667" lon="14.5858917"><ele>45.0</ele><time>2026-05-01T09:56:21.899Z</time></trkpt><trkpt lat="42.197665" lon="14.5858817"><ele>43.0</ele><time>2026-05-01T09:56:23.899Z</time></trkpt><trkpt lat="42.1977667" lon="14.5858733"><ele>41.0</ele><time>2026-05-01T09:56:25.899Z</time></trkpt><trkpt lat="42.1978667" lon="14.58587"><ele>39.0</ele><time>2026-05-01T09:56:27.899Z</time></trkpt><trkpt lat="42.1979367" lon="14.5858683"><ele>37.0</ele><time>2026-05-01T09:56:29.899Z</time></trkpt><trkpt lat="42.1979633" lon="14.5857833"><ele>35.0</ele><time>2026-05-01T09:57:10.898Z</time></trkpt><trkpt lat="42.1979567" lon="14.5856683"><ele>33.0</ele><time>2026-05-01T09:57:14.899Z</time></trkpt><trkpt lat="42.197955" lon="14.5855817"><ele>33.0</ele><time>2026-05-01T09:57:17.899Z</time></trkpt><trkpt lat="42.1979433" lon="14.5854783"><ele>33.0</ele><time>2026-05-01T09:57:20.899Z</time></trkpt><trkpt lat="42.19794" lon="14.5853517"><ele>33.0</ele><time>2026-05-01T09:57:23.899Z</time></trkpt><trkpt lat="42.197925" lon="14.5852633"><ele>33.0</ele><time>2026-05-01T09:57:25.898Z</time></trkpt><trkpt lat="42.1979183" lon="14.5851783"><ele>33.0</ele><time>2026-05-01T09:57:27.899Z</time></trkpt><trkpt lat="42.1979167" lon="14.5850917"><ele>33.0</ele><time>2026-05-01T09:57:29.899Z</time></trkpt><trkpt lat="42.1979083" lon="14.5849767"><ele>33.0</ele><time>2026-05-01T09:57:32.899Z</time></trkpt><trkpt lat="42.1979083" lon="14.5848667"><ele>33.0</ele><time>2026-05-01T09:57:35.898Z</time></trkpt><trkpt lat="42.1978967" lon="14.5847483"><ele>33.0</ele><time>2026-05-01T09:57:38.899Z</time></trkpt><trkpt lat="42.1978883" lon="14.5846283"><ele>33.0</ele><time>2026-05-01T09:57:41.899Z</time></trkpt><trkpt lat="42.19788" lon="14.5845183"><ele>33.0</ele><time>2026-05-01T09:57:44.898Z</time></trkpt><trkpt lat="42.197875" lon="14.5843983"><ele>33.0</ele><time>2026-05-01T09:57:47.899Z</time></trkpt><trkpt lat="42.1978617" lon="14.58428"><ele>33.166666666666664</ele><time>2026-05-01T09:57:50.899Z</time></trkpt><trkpt lat="42.1978567" lon="14.5841583"><ele>33.333333333333336</ele><time>2026-05-01T09:57:53.899Z</time></trkpt><trkpt lat="42.197855" lon="14.58404"><ele>33.5</ele><time>2026-05-01T09:57:56.898Z</time></trkpt><trkpt lat="42.1978467" lon="14.5839333"><ele>33.66666666666667</ele><time>2026-05-01T09:57:59.899Z</time></trkpt><trkpt lat="42.1978417" lon="14.5838317"><ele>33.833333333333336</ele><time>2026-05-01T09:58:02.898Z</time></trkpt><trkpt lat="42.1978333" lon="14.5837417"><ele>34.0</ele><time>2026-05-01T09:58:05.899Z</time></trkpt><trkpt lat="42.1978233" lon="14.58365"><ele>33.99999999999999</ele><time>2026-05-01T09:58:09.898Z</time></trkpt><trkpt lat="42.1978117" lon="14.5835533"><ele>34.0</ele><time>2026-05-01T09:58:12.898Z</time></trkpt><trkpt lat="42.1977883" lon="14.58347"><ele>34.0</ele><time>2026-05-01T09:58:14.899Z</time></trkpt><trkpt lat="42.1977583" lon="14.583385"><ele>34.0</ele><time>2026-05-01T09:58:16.898Z</time></trkpt><trkpt lat="42.19772" lon="14.5833033"><ele>34.0</ele><time>2026-05-01T09:58:18.899Z</time></trkpt><trkpt lat="42.197685" lon="14.58322"><ele>33.99999999999999</ele><time>2026-05-01T09:58:20.899Z</time></trkpt><trkpt lat="42.1976483" lon="14.5831333"><ele>34.0</ele><time>2026-05-01T09:58:22.899Z</time></trkpt><trkpt lat="42.1976117" lon="14.5830633"><ele>34.0</ele><time>2026-05-01T09:58:24.899Z</time></trkpt><trkpt lat="42.19756" lon="14.5829617"><ele>34.0</ele><time>2026-05-01T09:58:27.899Z</time></trkpt><trkpt lat="42.1975217" lon="14.582845"><ele>34.0</ele><time>2026-05-01T09:58:30.898Z</time></trkpt><trkpt lat="42.197525" lon="14.58273"><ele>34.0</ele><time>2026-05-01T09:58:33.899Z</time></trkpt><trkpt lat="42.19755" lon="14.5826017"><ele>34.0</ele><time>2026-05-01T09:58:36.899Z</time></trkpt><trkpt lat="42.1975733" lon="14.5825"><ele>34.0</ele><time>2026-05-01T09:58:38.899Z</time></trkpt><trkpt lat="42.1976017" lon="14.5824"><ele>33.66666666666667</ele><time>2026-05-01T09:58:40.899Z</time></trkpt><trkpt lat="42.1976167" lon="14.5823117"><ele>33.333333333333336</ele><time>2026-05-01T09:58:42.898Z</time></trkpt><trkpt lat="42.1976317" lon="14.5822233"><ele>33.0</ele><time>2026-05-01T09:58:44.899Z</time></trkpt><trkpt lat="42.1976517" lon="14.58212"><ele>32.666666666666664</ele><time>2026-05-01T09:58:46.898Z</time></trkpt><trkpt lat="42.197665" lon="14.5820233"><ele>32.33333333333333</ele><time>2026-05-01T09:58:48.899Z</time></trkpt><trkpt lat="42.1977017" lon="14.5819217"><ele>32.0</ele><time>2026-05-01T09:58:51.899Z</time></trkpt><trkpt lat="42.19779" lon="14.5819117"><ele>32.0</ele><time>2026-05-01T09:58:54.899Z</time></trkpt><trkpt lat="42.1978533" lon="14.5819133"><ele>31.999999999999996</ele><time>2026-05-01T09:58:56.899Z</time></trkpt><trkpt lat="42.1979167" lon="14.58193"><ele>32.0</ele><time>2026-05-01T09:58:58.898Z</time></trkpt><trkpt lat="42.19798" lon="14.581935"><ele>32.0</ele><time>2026-05-01T09:59:00.899Z</time></trkpt><trkpt lat="42.1980483" lon="14.58195"><ele>31.999999999999996</ele><time>2026-05-01T09:59:02.898Z</time></trkpt><trkpt lat="42.19812" lon="14.5819733"><ele>32.0</ele><time>2026-05-01T09:59:04.899Z</time></trkpt><trkpt lat="42.198195" lon="14.58199"><ele>32.0</ele><time>2026-05-01T09:59:06.899Z</time></trkpt><trkpt lat="42.1982683" lon="14.58202"><ele>30.666666666666664</ele><time>2026-05-01T09:59:08.899Z</time></trkpt><trkpt lat="42.1983467" lon="14.58204"><ele>29.333333333333332</ele><time>2026-05-01T09:59:10.898Z</time></trkpt><trkpt lat="42.1984333" lon="14.58206"><ele>28.0</ele><time>2026-05-01T09:59:12.898Z</time></trkpt><trkpt lat="42.1985217" lon="14.5820817"><ele>26.666666666666664</ele><time>2026-05-01T09:59:14.899Z</time></trkpt><trkpt lat="42.198615" lon="14.582105"><ele>25.333333333333332</ele><time>2026-05-01T09:59:16.899Z</time></trkpt><trkpt lat="42.1986933" lon="14.5821267"><ele>24.0</ele><time>2026-05-01T09:59:18.898Z</time></trkpt><trkpt lat="42.1987617" lon="14.5821533"><ele>24.0</ele><time>2026-05-01T09:59:20.898Z</time></trkpt><trkpt lat="42.1988333" lon="14.58217"><ele>24.0</ele><time>2026-05-01T09:59:22.899Z</time></trkpt><trkpt lat="42.1989067" lon="14.582175"><ele>24.0</ele><time>2026-05-01T09:59:24.899Z</time></trkpt><trkpt lat="42.1989983" lon="14.5821967"><ele>24.0</ele><time>2026-05-01T09:59:26.898Z</time></trkpt><trkpt lat="42.1990817" lon="14.58222"><ele>24.0</ele><time>2026-05-01T09:59:28.898Z</time></trkpt><trkpt lat="42.1991533" lon="14.582245"><ele>24.0</ele><time>2026-05-01T09:59:30.899Z</time></trkpt><trkpt lat="42.1992167" lon="14.5823017"><ele>23.2</ele><time>2026-05-01T09:59:33.898Z</time></trkpt><trkpt lat="42.1992233" lon="14.58243"><ele>22.4</ele><time>2026-05-01T09:59:37.899Z</time></trkpt><trkpt lat="42.1992167" lon="14.5825333"><ele>21.6</ele><time>2026-05-01T09:59:39.899Z</time></trkpt><trkpt lat="42.199205" lon="14.5826583"><ele>20.8</ele><time>2026-05-01T09:59:41.898Z</time></trkpt><trkpt lat="42.19919" lon="14.5827933"><ele>20.0</ele><time>2026-05-01T09:59:43.899Z</time></trkpt><trkpt lat="42.1991733" lon="14.58292"><ele>19.6</ele><time>2026-05-01T09:59:45.898Z</time></trkpt><trkpt lat="42.19916" lon="14.5830633"><ele>19.2</ele><time>2026-05-01T09:59:47.899Z</time></trkpt><trkpt lat="42.1991533" lon="14.5831967"><ele>18.8</ele><time>2026-05-01T09:59:49.898Z</time></trkpt><trkpt lat="42.1991467" lon="14.58332"><ele>18.4</ele><time>2026-05-01T09:59:51.899Z</time></trkpt><trkpt lat="42.1991383" lon="14.583435"><ele>18.0</ele><time>2026-05-01T09:59:53.898Z</time></trkpt><trkpt lat="42.1991333" lon="14.583555"><ele>18.0</ele><time>2026-05-01T09:59:55.899Z</time></trkpt><trkpt lat="42.1991217" lon="14.5836733"><ele>18.0</ele><time>2026-05-01T09:59:57.898Z</time></trkpt><trkpt lat="42.1991" lon="14.58377"><ele>18.0</ele><time>2026-05-01T09:59:59.899Z</time></trkpt><trkpt lat="42.19908" lon="14.5838517"><ele>18.0</ele><time>2026-05-01T10:00:01.898Z</time></trkpt><trkpt lat="42.1990833" lon="14.58394"><ele>18.0</ele><time>2026-05-01T10:00:03.898Z</time></trkpt><trkpt lat="42.199065" lon="14.5840567"><ele>18.0</ele><time>2026-05-01T10:00:06.899Z</time></trkpt><trkpt lat="42.1990417" lon="14.5841783"><ele>17.833333333333332</ele><time>2026-05-01T10:00:09.898Z</time></trkpt><trkpt lat="42.199035" lon="14.5842983"><ele>17.666666666666668</ele><time>2026-05-01T10:00:12.899Z</time></trkpt><trkpt lat="42.1990083" lon="14.5844133"><ele>17.5</ele><time>2026-05-01T10:00:15.899Z</time></trkpt><trkpt lat="42.1990017" lon="14.584545"><ele>17.333333333333336</ele><time>2026-05-01T10:00:18.899Z</time></trkpt><trkpt lat="42.1989917" lon="14.5846333"><ele>17.166666666666668</ele><time>2026-05-01T10:00:20.899Z</time></trkpt><trkpt lat="42.1989817" lon="14.5847233"><ele>17.0</ele><time>2026-05-01T10:00:22.898Z</time></trkpt><trkpt lat="42.1989733" lon="14.5848183"><ele>17.857142857142854</ele><time>2026-05-01T10:00:24.899Z</time></trkpt><trkpt lat="42.1989683" lon="14.58491"><ele>18.714285714285715</ele><time>2026-05-01T10:00:26.899Z</time></trkpt><trkpt lat="42.1989633" lon="14.585005"><ele>19.57142857142857</ele><time>2026-05-01T10:00:28.899Z</time></trkpt><trkpt lat="42.1989533" lon="14.5850983"><ele>20.428571428571427</ele><time>2026-05-01T10:00:30.899Z</time></trkpt><trkpt lat="42.19894" lon="14.5851967"><ele>21.285714285714285</ele><time>2026-05-01T10:00:32.899Z</time></trkpt><trkpt lat="42.198925" lon="14.5852967"><ele>22.142857142857142</ele><time>2026-05-01T10:00:34.898Z</time></trkpt><trkpt lat="42.1989133" lon="14.5853917"><ele>23.0</ele><time>2026-05-01T10:00:36.898Z</time></trkpt><trkpt lat="42.1989067" lon="14.5854867"><ele>23.333333333333336</ele><time>2026-05-01T10:00:38.899Z</time></trkpt><trkpt lat="42.1988967" lon="14.585575"><ele>23.666666666666668</ele><time>2026-05-01T10:00:40.898Z</time></trkpt><trkpt lat="42.1988783" lon="14.5856917"><ele>24.0</ele><time>2026-05-01T10:00:43.898Z</time></trkpt><trkpt lat="42.198865" lon="14.5858167"><ele>24.333333333333336</ele><time>2026-05-01T10:00:46.899Z</time></trkpt><trkpt lat="42.19887" lon="14.5859217"><ele>24.666666666666668</ele><time>2026-05-01T10:00:48.899Z</time></trkpt><trkpt lat="42.1988633" lon="14.58601"><ele>25.0</ele><time>2026-05-01T10:00:50.899Z</time></trkpt><trkpt lat="42.198855" lon="14.5861"><ele>25.142857142857146</ele><time>2026-05-01T10:00:52.899Z</time></trkpt><trkpt lat="42.198845" lon="14.5861933"><ele>25.285714285714285</ele><time>2026-05-01T10:00:54.899Z</time></trkpt><trkpt lat="42.198835" lon="14.5862833"><ele>25.42857142857143</ele><time>2026-05-01T10:00:56.899Z</time></trkpt><trkpt lat="42.1988217" lon="14.5863667"><ele>25.571428571428573</ele><time>2026-05-01T10:00:58.899Z</time></trkpt><trkpt lat="42.1988033" lon="14.58649"><ele>25.714285714285715</ele><time>2026-05-01T10:01:01.899Z</time></trkpt><trkpt lat="42.1987833" lon="14.586585"><ele>25.857142857142858</ele><time>2026-05-01T10:01:03.898Z</time></trkpt><trkpt lat="42.198765" lon="14.5866917"><ele>26.0</ele><time>2026-05-01T10:01:05.899Z</time></trkpt><trkpt lat="42.1987517" lon="14.586805"><ele>26.0</ele><time>2026-05-01T10:01:07.899Z</time></trkpt><trkpt lat="42.1987467" lon="14.586935"><ele>26.0</ele><time>2026-05-01T10:01:09.898Z</time></trkpt><trkpt lat="42.1987433" lon="14.5870633"><ele>26.0</ele><time>2026-05-01T10:01:11.898Z</time></trkpt><trkpt lat="42.1987467" lon="14.5871883"><ele>26.0</ele><time>2026-05-01T10:01:13.899Z</time></trkpt><trkpt lat="42.1987467" lon="14.5873133"><ele>26.0</ele><time>2026-05-01T10:01:15.899Z</time></trkpt><trkpt lat="42.1987433" lon="14.5874367"><ele>25.999999999999996</ele><time>2026-05-01T10:01:17.899Z</time></trkpt><trkpt lat="42.1987667" lon="14.5875483"><ele>26.0</ele><time>2026-05-01T10:01:19.898Z</time></trkpt><trkpt lat="42.198825" lon="14.5876633"><ele>26.0</ele><time>2026-05-01T10:01:21.898Z</time></trkpt><trkpt lat="42.1988733" lon="14.587745"><ele>26.0</ele><time>2026-05-01T10:01:23.899Z</time></trkpt><trkpt lat="42.1989483" lon="14.5878067"><ele>25.999999999999996</ele><time>2026-05-01T10:01:26.898Z</time></trkpt><trkpt lat="42.1989617" lon="14.5879283"><ele>26.0</ele><time>2026-05-01T10:01:29.899Z</time></trkpt><trkpt lat="42.1989633" lon="14.5880383"><ele>26.0</ele><time>2026-05-01T10:01:31.899Z</time></trkpt><trkpt lat="42.1989617" lon="14.5881683"><ele>26.0</ele><time>2026-05-01T10:01:33.898Z</time></trkpt><trkpt lat="42.1989567" lon="14.5883233"><ele>26.0</ele><time>2026-05-01T10:01:35.899Z</time></trkpt><trkpt lat="42.1989617" lon="14.5884817"><ele>26.0</ele><time>2026-05-01T10:01:37.899Z</time></trkpt><trkpt lat="42.1989667" lon="14.58863"><ele>26.0</ele><time>2026-05-01T10:01:39.898Z</time></trkpt><trkpt lat="42.19897" lon="14.5887683"><ele>25.333333333333332</ele><time>2026-05-01T10:01:41.898Z</time></trkpt><trkpt lat="42.19897" lon="14.5888983"><ele>24.666666666666664</ele><time>2026-05-01T10:01:43.899Z</time></trkpt><trkpt lat="42.19897" lon="14.5890217"><ele>24.0</ele><time>2026-05-01T10:01:45.899Z</time></trkpt><trkpt lat="42.1989733" lon="14.5891267"><ele>23.333333333333332</ele><time>2026-05-01T10:01:47.899Z</time></trkpt><trkpt lat="42.198995" lon="14.5892267"><ele>22.666666666666664</ele><time>2026-05-01T10:01:50.898Z</time></trkpt><trkpt lat="42.1990583" lon="14.5892583"><ele>22.0</ele><time>2026-05-01T10:01:52.899Z</time></trkpt><trkpt lat="42.1991533" lon="14.5892717"><ele>19.75</ele><time>2026-05-01T10:01:54.899Z</time></trkpt><trkpt lat="42.1992583" lon="14.5892733"><ele>17.5</ele><time>2026-05-01T10:01:56.899Z</time></trkpt><trkpt lat="42.1993733" lon="14.58928"><ele>15.25</ele><time>2026-05-01T10:01:58.899Z</time></trkpt><trkpt lat="42.1994883" lon="14.5892767"><ele>13.0</ele><time>2026-05-01T10:02:00.899Z</time></trkpt><trkpt lat="42.199605" lon="14.58928"><ele>13.0</ele><time>2026-05-01T10:02:02.899Z</time></trkpt><trkpt lat="42.199715" lon="14.58928"><ele>13.0</ele><time>2026-05-01T10:02:04.899Z</time></trkpt><trkpt lat="42.1998283" lon="14.5892733"><ele>13.0</ele><time>2026-05-01T10:02:06.899Z</time></trkpt><trkpt lat="42.1999433" lon="14.5892717"><ele>13.0</ele><time>2026-05-01T10:02:08.898Z</time></trkpt><trkpt lat="42.2000567" lon="14.589275"><ele>12.4</ele><time>2026-05-01T10:02:10.899Z</time></trkpt><trkpt lat="42.2001617" lon="14.5892767"><ele>11.8</ele><time>2026-05-01T10:02:12.898Z</time></trkpt><trkpt lat="42.2002567" lon="14.5892483"><ele>11.2</ele><time>2026-05-01T10:02:14.898Z</time></trkpt><trkpt lat="42.2003217" lon="14.5891633"><ele>10.6</ele><time>2026-05-01T10:02:16.899Z</time></trkpt><trkpt lat="42.200355" lon="14.5890533"><ele>10.0</ele><time>2026-05-01T10:02:18.898Z</time></trkpt><trkpt lat="42.2003983" lon="14.5889733"><ele>10.0</ele><time>2026-05-01T10:02:20.899Z</time></trkpt><trkpt lat="42.2004667" lon="14.5888433"><ele>10.0</ele><time>2026-05-01T10:02:22.899Z</time></trkpt><trkpt lat="42.2005433" lon="14.5887333"><ele>10.0</ele><time>2026-05-01T10:02:24.899Z</time></trkpt><trkpt lat="42.2006167" lon="14.5886283"><ele>10.0</ele><time>2026-05-01T10:02:26.899Z</time></trkpt><trkpt lat="42.200705" lon="14.588535"><ele>10.0</ele><time>2026-05-01T10:02:28.899Z</time></trkpt><trkpt lat="42.2007917" lon="14.58845"><ele>9.8</ele><time>2026-05-01T10:02:30.899Z</time></trkpt><trkpt lat="42.2008833" lon="14.588385"><ele>9.6</ele><time>2026-05-01T10:02:32.898Z</time></trkpt><trkpt lat="42.200975" lon="14.588315"><ele>9.4</ele><time>2026-05-01T10:02:34.898Z</time></trkpt><trkpt lat="42.2010667" lon="14.5882317"><ele>9.2</ele><time>2026-05-01T10:02:36.898Z</time></trkpt><trkpt lat="42.2011417" lon="14.5881233"><ele>9.0</ele><time>2026-05-01T10:02:38.899Z</time></trkpt><trkpt lat="42.2012083" lon="14.5880467"><ele>9.0</ele><time>2026-05-01T10:02:40.899Z</time></trkpt><trkpt lat="42.20129" lon="14.5880133"><ele>9.0</ele><time>2026-05-01T10:02:42.899Z</time></trkpt><trkpt lat="42.2013667" lon="14.5879717"><ele>9.0</ele><time>2026-05-01T10:02:44.898Z</time></trkpt><trkpt lat="42.20141" lon="14.5878883"><ele>9.0</ele><time>2026-05-01T10:02:46.899Z</time></trkpt><trkpt lat="42.2014333" lon="14.5877967"><ele>9.0</ele><time>2026-05-01T10:02:48.898Z</time></trkpt><trkpt lat="42.2014567" lon="14.58769"><ele>9.0</ele><time>2026-05-01T10:02:50.899Z</time></trkpt><trkpt lat="42.2014717" lon="14.5875933"><ele>9.333333333333334</ele><time>2026-05-01T10:02:52.898Z</time></trkpt><trkpt lat="42.2014983" lon="14.5874883"><ele>9.666666666666666</ele><time>2026-05-01T10:02:54.899Z</time></trkpt><trkpt lat="42.2015217" lon="14.5873733"><ele>10.0</ele><time>2026-05-01T10:02:56.898Z</time></trkpt><trkpt lat="42.2015483" lon="14.5872717"><ele>10.333333333333332</ele><time>2026-05-01T10:02:58.898Z</time></trkpt><trkpt lat="42.201565" lon="14.5871733"><ele>10.666666666666666</ele><time>2026-05-01T10:03:00.899Z</time></trkpt><trkpt lat="42.201575" lon="14.58707"><ele>11.0</ele><time>2026-05-01T10:03:02.899Z</time></trkpt><trkpt lat="42.2016" lon="14.5869567"><ele>11.4</ele><time>2026-05-01T10:03:04.899Z</time></trkpt><trkpt lat="42.20162" lon="14.5868417"><ele>11.8</ele><time>2026-05-01T10:03:06.899Z</time></trkpt><trkpt lat="42.2016333" lon="14.5867217"><ele>12.200000000000001</ele><time>2026-05-01T10:03:08.899Z</time></trkpt><trkpt lat="42.2016517" lon="14.58661"><ele>12.600000000000001</ele><time>2026-05-01T10:03:10.899Z</time></trkpt><trkpt lat="42.2016683" lon="14.58649"><ele>13.0</ele><time>2026-05-01T10:03:12.899Z</time></trkpt><trkpt lat="42.2016883" lon="14.5863617"><ele>12.999999999999998</ele><time>2026-05-01T10:03:14.899Z</time></trkpt><trkpt lat="42.2017133" lon="14.5862383"><ele>13.0</ele><time>2026-05-01T10:03:16.898Z</time></trkpt><trkpt lat="42.2017383" lon="14.586125"><ele>13.0</ele><time>2026-05-01T10:03:18.899Z</time></trkpt><trkpt lat="42.201765" lon="14.5860267"><ele>13.0</ele><time>2026-05-01T10:03:20.899Z</time></trkpt><trkpt lat="42.201805" lon="14.5859217"><ele>12.999999999999998</ele><time>2026-05-01T10:03:22.899Z</time></trkpt><trkpt lat="42.2018517" lon="14.58581"><ele>13.0</ele><time>2026-05-01T10:03:24.899Z</time></trkpt><trkpt lat="42.201905" lon="14.5857"><ele>12.8</ele><time>2026-05-01T10:03:26.899Z</time></trkpt><trkpt lat="42.20195" lon="14.58559"><ele>12.600000000000001</ele><time>2026-05-01T10:03:28.899Z</time></trkpt><trkpt lat="42.202005" lon="14.5854967"><ele>12.399999999999999</ele><time>2026-05-01T10:03:30.898Z</time></trkpt><trkpt lat="42.202075" lon="14.5853967"><ele>12.2</ele><time>2026-05-01T10:03:32.898Z</time></trkpt><trkpt lat="42.2021483" lon="14.585305"><ele>12.0</ele><time>2026-05-01T10:03:34.899Z</time></trkpt><trkpt lat="42.202225" lon="14.5852017"><ele>12.0</ele><time>2026-05-01T10:03:36.899Z</time></trkpt><trkpt lat="42.20231" lon="14.5851167"><ele>12.0</ele><time>2026-05-01T10:03:38.899Z</time></trkpt><trkpt lat="42.2023983" lon="14.5850433"><ele>12.0</ele><time>2026-05-01T10:03:40.899Z</time></trkpt><trkpt lat="42.2024817" lon="14.5849817"><ele>12.0</ele><time>2026-05-01T10:03:42.898Z</time></trkpt><trkpt lat="42.2025583" lon="14.58493"><ele>12.0</ele><time>2026-05-01T10:03:44.898Z</time></trkpt><trkpt lat="42.2026383" lon="14.584885"><ele>11.833333333333334</ele><time>2026-05-01T10:03:46.898Z</time></trkpt><trkpt lat="42.2027217" lon="14.5848383"><ele>11.666666666666666</ele><time>2026-05-01T10:03:48.899Z</time></trkpt><trkpt lat="42.2027967" lon="14.5848"><ele>11.5</ele><time>2026-05-01T10:03:50.898Z</time></trkpt><trkpt lat="42.20287" lon="14.58476"><ele>11.333333333333332</ele><time>2026-05-01T10:03:52.899Z</time></trkpt><trkpt lat="42.202925" lon="14.5847117"><ele>11.166666666666666</ele><time>2026-05-01T10:03:54.898Z</time></trkpt><trkpt lat="42.2029733" lon="14.5846517"><ele>11.0</ele><time>2026-05-01T10:03:56.898Z</time></trkpt><trkpt lat="42.2030233" lon="14.5845667"><ele>11.142857142857142</ele><time>2026-05-01T10:03:58.899Z</time></trkpt><trkpt lat="42.2030633" lon="14.584495"><ele>11.285714285714285</ele><time>2026-05-01T10:04:00.899Z</time></trkpt><trkpt lat="42.2030967" lon="14.5843967"><ele>11.428571428571427</ele><time>2026-05-01T10:04:03.899Z</time></trkpt><trkpt lat="42.2030817" lon="14.5843017"><ele>11.571428571428571</ele><time>2026-05-01T10:04:07.899Z</time></trkpt><trkpt lat="42.20304" lon="14.584235"><ele>11.714285714285714</ele><time>2026-05-01T10:04:10.899Z</time></trkpt><trkpt lat="42.2031083" lon="14.5842517"><ele>11.857142857142856</ele><time>2026-05-01T10:04:20.899Z</time></trkpt><trkpt lat="42.2031683" lon="14.5842033"><ele>12.0</ele><time>2026-05-01T10:04:23.899Z</time></trkpt><trkpt lat="42.2031917" lon="14.5841033"><ele>12.0</ele><time>2026-05-01T10:04:27.899Z</time></trkpt><trkpt lat="42.2032217" lon="14.5840133"><ele>12.0</ele><time>2026-05-01T10:04:30.899Z</time></trkpt><trkpt lat="42.2032317" lon="14.5839217"><ele>12.0</ele><time>2026-05-01T10:04:33.899Z</time></trkpt><trkpt lat="42.20323" lon="14.5838"><ele>12.0</ele><time>2026-05-01T10:04:36.898Z</time></trkpt><trkpt lat="42.2032083" lon="14.5837033"><ele>12.0</ele><time>2026-05-01T10:04:39.899Z</time></trkpt><trkpt lat="42.20319" lon="14.5836083"><ele>12.0</ele><time>2026-05-01T10:04:42.899Z</time></trkpt><trkpt lat="42.2031617" lon="14.583475"><ele>12.166666666666666</ele><time>2026-05-01T10:04:45.898Z</time></trkpt><trkpt lat="42.2031383" lon="14.5833817"><ele>12.333333333333332</ele><time>2026-05-01T10:04:47.899Z</time></trkpt><trkpt lat="42.203095" lon="14.5832683"><ele>12.5</ele><time>2026-05-01T10:04:50.899Z</time></trkpt><trkpt lat="42.20305" lon="14.5831733"><ele>12.666666666666666</ele><time>2026-05-01T10:04:53.899Z</time></trkpt><trkpt lat="42.2030067" lon="14.5830967"><ele>12.833333333333332</ele><time>2026-05-01T10:04:56.899Z</time></trkpt><trkpt lat="42.20297" lon="14.58302"><ele>13.0</ele><time>2026-05-01T10:04:59.898Z</time></trkpt><trkpt lat="42.202925" lon="14.582955"><ele>12.999999999999998</ele><time>2026-05-01T10:05:04.899Z</time></trkpt><trkpt lat="42.2028717" lon="14.58288"><ele>13.0</ele><time>2026-05-01T10:05:09.898Z</time></trkpt><trkpt lat="42.2027983" lon="14.5828517"><ele>13.0</ele><time>2026-05-01T10:05:13.899Z</time></trkpt><trkpt lat="42.202725" lon="14.5828433"><ele>13.0</ele><time>2026-05-01T10:05:16.899Z</time></trkpt><trkpt lat="42.20265" lon="14.5828367"><ele>12.999999999999998</ele><time>2026-05-01T10:05:19.899Z</time></trkpt><trkpt lat="42.2025733" lon="14.58282"><ele>13.0</ele><time>2026-05-01T10:05:22.899Z</time></trkpt><trkpt lat="42.202495" lon="14.5827983"><ele>12.999999999999998</ele><time>2026-05-01T10:05:25.899Z</time></trkpt><trkpt lat="42.202425" lon="14.5827867"><ele>13.0</ele><time>2026-05-01T10:05:29.899Z</time></trkpt><trkpt lat="42.2023483" lon="14.5827767"><ele>13.0</ele><time>2026-05-01T10:05:32.899Z</time></trkpt><trkpt lat="42.2022733" lon="14.582775"><ele>13.0</ele><time>2026-05-01T10:05:35.899Z</time></trkpt><trkpt lat="42.2021767" lon="14.5827733"><ele>12.999999999999998</ele><time>2026-05-01T10:05:38.899Z</time></trkpt><trkpt lat="42.2021" lon="14.5827617"><ele>13.0</ele><time>2026-05-01T10:05:41.898Z</time></trkpt><trkpt lat="42.20203" lon="14.5827533"><ele>13.0</ele><time>2026-05-01T10:05:44.898Z</time></trkpt><trkpt lat="42.2019533" lon="14.582745"><ele>13.0</ele><time>2026-05-01T10:05:47.899Z</time></trkpt><trkpt lat="42.2018833" lon="14.5827383"><ele>13.0</ele><time>2026-05-01T10:05:51.898Z</time></trkpt><trkpt lat="42.201805" lon="14.582745"><ele>13.0</ele><time>2026-05-01T10:05:55.899Z</time></trkpt><trkpt lat="42.2017367" lon="14.5827633"><ele>13.0</ele><time>2026-05-01T10:05:59.899Z</time></trkpt><trkpt lat="42.2017017" lon="14.5826783"><ele>13.0</ele><time>2026-05-01T10:06:06.899Z</time></trkpt><trkpt lat="42.2017083" lon="14.5825867"><ele>13.0</ele><time>2026-05-01T10:06:10.899Z</time></trkpt><trkpt lat="42.2017183" lon="14.5824817"><ele>13.0</ele><time>2026-05-01T10:06:13.899Z</time></trkpt><trkpt lat="42.2017183" lon="14.5823833"><ele>13.0</ele><time>2026-05-01T10:06:16.898Z</time></trkpt><trkpt lat="42.2017217" lon="14.5822733"><ele>13.0</ele><time>2026-05-01T10:06:19.898Z</time></trkpt><trkpt lat="42.2017183" lon="14.5821883"><ele>13.0</ele><time>2026-05-01T10:06:22.899Z</time></trkpt><trkpt lat="42.2017183" lon="14.5820833"><ele>13.0</ele><time>2026-05-01T10:06:26.898Z</time></trkpt><trkpt lat="42.20174" lon="14.5819867"><ele>13.0</ele><time>2026-05-01T10:06:31.898Z</time></trkpt><trkpt lat="42.201765" lon="14.581885"><ele>13.0</ele><time>2026-05-01T10:06:34.898Z</time></trkpt><trkpt lat="42.201765" lon="14.5817817"><ele>13.285714285714285</ele><time>2026-05-01T10:06:37.898Z</time></trkpt><trkpt lat="42.2017633" lon="14.5816967"><ele>13.571428571428573</ele><time>2026-05-01T10:06:39.899Z</time></trkpt><trkpt lat="42.2017717" lon="14.5815767"><ele>13.857142857142858</ele><time>2026-05-01T10:06:42.898Z</time></trkpt><trkpt lat="42.2017817" lon="14.5814917"><ele>14.142857142857142</ele><time>2026-05-01T10:06:44.899Z</time></trkpt><trkpt lat="42.2017867" lon="14.5814"><ele>14.428571428571427</ele><time>2026-05-01T10:06:46.898Z</time></trkpt><trkpt lat="42.20179" lon="14.5812783"><ele>14.714285714285715</ele><time>2026-05-01T10:06:49.898Z</time></trkpt><trkpt lat="42.2017917" lon="14.5811883"><ele>15.0</ele><time>2026-05-01T10:06:51.899Z</time></trkpt><trkpt lat="42.2017983" lon="14.581095"><ele>15.0</ele><time>2026-05-01T10:06:53.898Z</time></trkpt><trkpt lat="42.2018083" lon="14.581"><ele>15.0</ele><time>2026-05-01T10:06:55.899Z</time></trkpt><trkpt lat="42.201815" lon="14.580905"><ele>15.0</ele><time>2026-05-01T10:06:57.899Z</time></trkpt><trkpt lat="42.2018117" lon="14.5808183"><ele>15.0</ele><time>2026-05-01T10:06:59.898Z</time></trkpt><trkpt lat="42.2018117" lon="14.58073"><ele>15.0</ele><time>2026-05-01T10:07:01.899Z</time></trkpt><trkpt lat="42.2018383" lon="14.5806133"><ele>15.0</ele><time>2026-05-01T10:07:04.899Z</time></trkpt><trkpt lat="42.201845" lon="14.5805283"><ele>15.0</ele><time>2026-05-01T10:07:06.899Z</time></trkpt><trkpt lat="42.2018567" lon="14.58044"><ele>15.142857142857142</ele><time>2026-05-01T10:07:08.899Z</time></trkpt><trkpt lat="42.2018633" lon="14.580345"><ele>15.285714285714285</ele><time>2026-05-01T10:07:10.899Z</time></trkpt><trkpt lat="42.2018733" lon="14.58025"><ele>15.428571428571427</ele><time>2026-05-01T10:07:12.898Z</time></trkpt><trkpt lat="42.2018867" lon="14.5801633"><ele>15.571428571428571</ele><time>2026-05-01T10:07:14.899Z</time></trkpt><trkpt lat="42.2018933" lon="14.5800717"><ele>15.714285714285712</ele><time>2026-05-01T10:07:16.899Z</time></trkpt><trkpt lat="42.201905" lon="14.5799783"><ele>15.857142857142856</ele><time>2026-05-01T10:07:18.899Z</time></trkpt><trkpt lat="42.2019133" lon="14.57989"><ele>16.0</ele><time>2026-05-01T10:07:20.898Z</time></trkpt><trkpt lat="42.2019183" lon="14.5798033"><ele>15.999999999999998</ele><time>2026-05-01T10:07:22.899Z</time></trkpt><trkpt lat="42.201925" lon="14.5797117"><ele>16.0</ele><time>2026-05-01T10:07:24.898Z</time></trkpt><trkpt lat="42.2019367" lon="14.5796267"><ele>16.0</ele><time>2026-05-01T10:07:26.899Z</time></trkpt><trkpt lat="42.2019467" lon="14.5795367"><ele>16.0</ele><time>2026-05-01T10:07:28.899Z</time></trkpt><trkpt lat="42.2019567" lon="14.5794083"><ele>15.999999999999998</ele><time>2026-05-01T10:07:31.899Z</time></trkpt><trkpt lat="42.2019633" lon="14.5793233"><ele>16.0</ele><time>2026-05-01T10:07:33.899Z</time></trkpt><trkpt lat="42.2019733" lon="14.5791967"><ele>16.166666666666664</ele><time>2026-05-01T10:07:36.899Z</time></trkpt><trkpt lat="42.2019867" lon="14.5791033"><ele>16.333333333333332</ele><time>2026-05-01T10:07:38.899Z</time></trkpt><trkpt lat="42.201995" lon="14.5789833"><ele>16.5</ele><time>2026-05-01T10:07:41.899Z</time></trkpt><trkpt lat="42.20201" lon="14.57887"><ele>16.666666666666668</ele><time>2026-05-01T10:07:44.899Z</time></trkpt><trkpt lat="42.2020183" lon="14.5787833"><ele>16.833333333333336</ele><time>2026-05-01T10:07:46.899Z</time></trkpt><trkpt lat="42.2020283" lon="14.5786633"><ele>17.0</ele><time>2026-05-01T10:07:49.899Z</time></trkpt><trkpt lat="42.2020517" lon="14.57856"><ele>17.0</ele><time>2026-05-01T10:07:52.899Z</time></trkpt><trkpt lat="42.202065" lon="14.5784567"><ele>17.0</ele><time>2026-05-01T10:07:55.899Z</time></trkpt><trkpt lat="42.2020617" lon="14.5783567"><ele>17.0</ele><time>2026-05-01T10:07:58.899Z</time></trkpt><trkpt lat="42.20207" lon="14.5782383"><ele>17.0</ele><time>2026-05-01T10:08:01.898Z</time></trkpt><trkpt lat="42.2020767" lon="14.578125"><ele>17.0</ele><time>2026-05-01T10:08:04.898Z</time></trkpt><trkpt lat="42.2020833" lon="14.5780183"><ele>17.0</ele><time>2026-05-01T10:08:07.898Z</time></trkpt><trkpt lat="42.2020883" lon="14.577905"><ele>17.166666666666668</ele><time>2026-05-01T10:08:10.899Z</time></trkpt><trkpt lat="42.2021" lon="14.57779"><ele>17.333333333333336</ele><time>2026-05-01T10:08:13.899Z</time></trkpt><trkpt lat="42.202115" lon="14.5776883"><ele>17.5</ele><time>2026-05-01T10:08:16.899Z</time></trkpt><trkpt lat="42.20212" lon="14.5775867"><ele>17.666666666666668</ele><time>2026-05-01T10:08:19.898Z</time></trkpt><trkpt lat="42.2021333" lon="14.5774717"><ele>17.833333333333332</ele><time>2026-05-01T10:08:22.898Z</time></trkpt><trkpt lat="42.2021483" lon="14.57737"><ele>18.0</ele><time>2026-05-01T10:08:25.899Z</time></trkpt><trkpt lat="42.2021733" lon="14.577275"><ele>18.000000000000004</ele><time>2026-05-01T10:08:29.899Z</time></trkpt><trkpt lat="42.2022033" lon="14.5771733"><ele>18.0</ele><time>2026-05-01T10:08:33.898Z</time></trkpt><trkpt lat="42.2022217" lon="14.57707"><ele>18.0</ele><time>2026-05-01T10:08:37.898Z</time></trkpt><trkpt lat="42.2022217" lon="14.576975"><ele>18.0</ele><time>2026-05-01T10:08:40.898Z</time></trkpt><trkpt lat="42.2022233" lon="14.576885"><ele>18.0</ele><time>2026-05-01T10:08:43.898Z</time></trkpt><trkpt lat="42.2022317" lon="14.576785"><ele>18.000000000000004</ele><time>2026-05-01T10:08:47.899Z</time></trkpt><trkpt lat="42.2021867" lon="14.5768517"><ele>18.0</ele><time>2026-05-01T10:09:31.898Z</time></trkpt><trkpt lat="42.2021683" lon="14.5769633"><ele>18.000000000000004</ele><time>2026-05-01T10:09:35.899Z</time></trkpt><trkpt lat="42.2021567" lon="14.5770617"><ele>18.0</ele><time>2026-05-01T10:09:39.898Z</time></trkpt><trkpt lat="42.2021233" lon="14.577135"><ele>18.0</ele><time>2026-05-01T10:09:44.899Z</time></trkpt><trkpt lat="42.2020433" lon="14.5771283"><ele>18.0</ele><time>2026-05-01T10:10:10.898Z</time></trkpt><trkpt lat="42.2019717" lon="14.577135"><ele>18.0</ele><time>2026-05-01T10:10:14.898Z</time></trkpt><trkpt lat="42.2019017" lon="14.57712"><ele>18.000000000000004</ele><time>2026-05-01T10:10:17.899Z</time></trkpt><trkpt lat="42.2018217" lon="14.5771033"><ele>18.0</ele><time>2026-05-01T10:10:20.899Z</time></trkpt><trkpt lat="42.2017567" lon="14.5770867"><ele>18.0</ele><time>2026-05-01T10:10:23.899Z</time></trkpt><trkpt lat="42.201675" lon="14.57707"><ele>18.0</ele><time>2026-05-01T10:10:26.899Z</time></trkpt><trkpt lat="42.20159" lon="14.5770533"><ele>18.0</ele><time>2026-05-01T10:10:29.899Z</time></trkpt><trkpt lat="42.201525" lon="14.5770483"><ele>18.0</ele><time>2026-05-01T10:10:31.899Z</time></trkpt><trkpt lat="42.2014383" lon="14.5770383"><ele>18.0</ele><time>2026-05-01T10:10:34.898Z</time></trkpt><trkpt lat="42.2013533" lon="14.5770283"><ele>18.0</ele><time>2026-05-01T10:10:37.899Z</time></trkpt><trkpt lat="42.2012583" lon="14.5770083"><ele>17.857142857142858</ele><time>2026-05-01T10:10:51.898Z</time></trkpt><trkpt lat="42.2012733" lon="14.5769067"><ele>17.714285714285715</ele><time>2026-05-01T10:10:55.899Z</time></trkpt><trkpt lat="42.2012767" lon="14.57678"><ele>17.57142857142857</ele><time>2026-05-01T10:10:58.898Z</time></trkpt><trkpt lat="42.201285" lon="14.576685"><ele>17.42857142857143</ele><time>2026-05-01T10:11:00.899Z</time></trkpt><trkpt lat="42.201285" lon="14.5765983"><ele>17.285714285714285</ele><time>2026-05-01T10:11:02.898Z</time></trkpt><trkpt lat="42.2012817" lon="14.5765067"><ele>17.142857142857142</ele><time>2026-05-01T10:11:04.899Z</time></trkpt><trkpt lat="42.2012533" lon="14.5764283"><ele>17.0</ele><time>2026-05-01T10:11:06.899Z</time></trkpt><trkpt lat="42.20118" lon="14.5763533"><ele>16.999999999999996</ele><time>2026-05-01T10:11:09.899Z</time></trkpt><trkpt lat="42.20112" lon="14.5762683"><ele>17.0</ele><time>2026-05-01T10:11:12.899Z</time></trkpt><trkpt lat="42.2010817" lon="14.5761967"><ele>17.0</ele><time>2026-05-01T10:11:14.899Z</time></trkpt><trkpt lat="42.2010483" lon="14.5761217"><ele>17.0</ele><time>2026-05-01T10:11:16.898Z</time></trkpt><trkpt lat="42.2010567" lon="14.576005"><ele>17.0</ele><time>2026-05-01T10:11:19.899Z</time></trkpt><trkpt lat="42.20107" lon="14.57592"><ele>16.999999999999996</ele><time>2026-05-01T10:11:21.899Z</time></trkpt><trkpt lat="42.2010833" lon="14.575835"><ele>17.0</ele><time>2026-05-01T10:11:23.898Z</time></trkpt><trkpt lat="42.2010933" lon="14.5757433"><ele>17.142857142857142</ele><time>2026-05-01T10:11:25.899Z</time></trkpt><trkpt lat="42.2011017" lon="14.5756583"><ele>17.285714285714285</ele><time>2026-05-01T10:11:27.899Z</time></trkpt><trkpt lat="42.20111" lon="14.5755683"><ele>17.42857142857143</ele><time>2026-05-01T10:11:29.899Z</time></trkpt><trkpt lat="42.201125" lon="14.5754817"><ele>17.57142857142857</ele><time>2026-05-01T10:11:31.898Z</time></trkpt><trkpt lat="42.201135" lon="14.5753917"><ele>17.714285714285715</ele><time>2026-05-01T10:11:33.898Z</time></trkpt><trkpt lat="42.2011433" lon="14.5753067"><ele>17.857142857142858</ele><time>2026-05-01T10:11:35.898Z</time></trkpt><trkpt lat="42.20115" lon="14.575215"><ele>18.0</ele><time>2026-05-01T10:11:37.898Z</time></trkpt><trkpt lat="42.2011583" lon="14.5751233"><ele>18.000000000000004</ele><time>2026-05-01T10:11:39.899Z</time></trkpt><trkpt lat="42.20116" lon="14.5750233"><ele>18.0</ele><time>2026-05-01T10:11:41.899Z</time></trkpt><trkpt lat="42.2011567" lon="14.574935"><ele>18.0</ele><time>2026-05-01T10:11:43.898Z</time></trkpt><trkpt lat="42.2011567" lon="14.5748383"><ele>18.0</ele><time>2026-05-01T10:11:45.899Z</time></trkpt><trkpt lat="42.2011633" lon="14.5747417"><ele>18.0</ele><time>2026-05-01T10:11:47.899Z</time></trkpt><trkpt lat="42.20118" lon="14.5746467"><ele>18.000000000000004</ele><time>2026-05-01T10:11:49.899Z</time></trkpt><trkpt lat="42.201195" lon="14.574545"><ele>18.0</ele><time>2026-05-01T10:11:51.898Z</time></trkpt><trkpt lat="42.2012" lon="14.574435"><ele>18.0</ele><time>2026-05-01T10:11:53.899Z</time></trkpt><trkpt lat="42.2012133" lon="14.5743283"><ele>18.0</ele><time>2026-05-01T10:11:55.899Z</time></trkpt><trkpt lat="42.20122" lon="14.5742267"><ele>18.0</ele><time>2026-05-01T10:11:57.899Z</time></trkpt><trkpt lat="42.2012233" lon="14.57412"><ele>18.0</ele><time>2026-05-01T10:11:59.899Z</time></trkpt><trkpt lat="42.20123" lon="14.5740133"><ele>18.0</ele><time>2026-05-01T10:12:01.899Z</time></trkpt><trkpt lat="42.20124" lon="14.5739067"><ele>18.0</ele><time>2026-05-01T10:12:03.899Z</time></trkpt><trkpt lat="42.2012467" lon="14.5738117"><ele>18.000000000000004</ele><time>2026-05-01T10:12:05.898Z</time></trkpt><trkpt lat="42.20126" lon="14.5737283"><ele>18.0</ele><time>2026-05-01T10:12:07.899Z</time></trkpt><trkpt lat="42.2012583" lon="14.573635"><ele>18.0</ele><time>2026-05-01T10:12:09.899Z</time></trkpt><trkpt lat="42.2012617" lon="14.5735317"><ele>18.0</ele><time>2026-05-01T10:12:11.899Z</time></trkpt><trkpt lat="42.2012717" lon="14.573435"><ele>18.0</ele><time>2026-05-01T10:12:13.899Z</time></trkpt><trkpt lat="42.2012883" lon="14.57334"><ele>18.000000000000004</ele><time>2026-05-01T10:12:15.899Z</time></trkpt><trkpt lat="42.2013067" lon="14.5732567"><ele>18.0</ele><time>2026-05-01T10:12:17.899Z</time></trkpt><trkpt lat="42.2013183" lon="14.5731667"><ele>18.333333333333332</ele><time>2026-05-01T10:12:19.899Z</time></trkpt><trkpt lat="42.2013267" lon="14.57307"><ele>18.666666666666668</ele><time>2026-05-01T10:12:21.898Z</time></trkpt><trkpt lat="42.2013317" lon="14.5729683"><ele>19.0</ele><time>2026-05-01T10:12:23.899Z</time></trkpt><trkpt lat="42.20134" lon="14.57287"><ele>19.333333333333336</ele><time>2026-05-01T10:12:25.898Z</time></trkpt><trkpt lat="42.2013467" lon="14.5727717"><ele>19.666666666666668</ele><time>2026-05-01T10:12:27.899Z</time></trkpt><trkpt lat="42.2013533" lon="14.5726733"><ele>20.0</ele><time>2026-05-01T10:12:29.898Z</time></trkpt><trkpt lat="42.201365" lon="14.572555"><ele>20.0</ele><time>2026-05-01T10:12:32.899Z</time></trkpt><trkpt lat="42.2014417" lon="14.5725317"><ele>20.0</ele><time>2026-05-01T10:12:36.899Z</time></trkpt><trkpt lat="42.2015117" lon="14.5725633"><ele>20.0</ele><time>2026-05-01T10:12:38.898Z</time></trkpt><trkpt lat="42.2015833" lon="14.5726017"><ele>20.0</ele><time>2026-05-01T10:12:40.898Z</time></trkpt><trkpt lat="42.201655" lon="14.572635"><ele>20.0</ele><time>2026-05-01T10:12:42.899Z</time></trkpt><trkpt lat="42.2017267" lon="14.5726667"><ele>20.0</ele><time>2026-05-01T10:12:44.898Z</time></trkpt><trkpt lat="42.2017983" lon="14.5726967"><ele>20.0</ele><time>2026-05-01T10:12:46.899Z</time></trkpt><trkpt lat="42.2018667" lon="14.57272"><ele>20.0</ele><time>2026-05-01T10:12:48.899Z</time></trkpt><trkpt lat="42.20194" lon="14.572725"><ele>20.0</ele><time>2026-05-01T10:12:50.898Z</time></trkpt><trkpt lat="42.2020033" lon="14.5727117"><ele>20.0</ele><time>2026-05-01T10:12:52.899Z</time></trkpt><trkpt lat="42.2020867" lon="14.57269"><ele>20.0</ele><time>2026-05-01T10:12:55.899Z</time></trkpt><trkpt lat="42.20211" lon="14.5725883"><ele>20.0</ele><time>2026-05-01T10:12:58.899Z</time></trkpt><trkpt lat="42.2021083" lon="14.57248"><ele>20.0</ele><time>2026-05-01T10:13:01.899Z</time></trkpt><trkpt lat="42.20211" lon="14.5723917"><ele>20.0</ele><time>2026-05-01T10:13:03.898Z</time></trkpt><trkpt lat="42.202115" lon="14.5722983"><ele>20.0</ele><time>2026-05-01T10:13:05.899Z</time></trkpt><trkpt lat="42.2021217" lon="14.5722083"><ele>20.0</ele><time>2026-05-01T10:13:08.899Z</time></trkpt><trkpt lat="42.2021367" lon="14.572125"><ele>20.0</ele><time>2026-05-01T10:13:10.899Z</time></trkpt><trkpt lat="42.2021617" lon="14.571995"><ele>20.0</ele><time>2026-05-01T10:13:12.899Z</time></trkpt><trkpt lat="42.20219" lon="14.5718567"><ele>20.0</ele><time>2026-05-01T10:13:14.899Z</time></trkpt><trkpt lat="42.2022017" lon="14.5717283"><ele>20.0</ele><time>2026-05-01T10:13:16.899Z</time></trkpt><trkpt lat="42.2022117" lon="14.5716167"><ele>20.0</ele><time>2026-05-01T10:13:18.898Z</time></trkpt><trkpt lat="42.2022167" lon="14.571525"><ele>20.0</ele><time>2026-05-01T10:13:20.899Z</time></trkpt><trkpt lat="42.2022267" lon="14.571435"><ele>20.0</ele><time>2026-05-01T10:13:22.899Z</time></trkpt><trkpt lat="42.2022417" lon="14.57134"><ele>20.0</ele><time>2026-05-01T10:13:24.898Z</time></trkpt><trkpt lat="42.2022567" lon="14.5712483"><ele>20.142857142857142</ele><time>2026-05-01T10:13:26.898Z</time></trkpt><trkpt lat="42.2022633" lon="14.5711583"><ele>20.285714285714285</ele><time>2026-05-01T10:13:28.898Z</time></trkpt><trkpt lat="42.202275" lon="14.571065"><ele>20.42857142857143</ele><time>2026-05-01T10:13:30.899Z</time></trkpt><trkpt lat="42.2022817" lon="14.5709583"><ele>20.57142857142857</ele><time>2026-05-01T10:13:32.899Z</time></trkpt><trkpt lat="42.20229" lon="14.5708517"><ele>20.714285714285715</ele><time>2026-05-01T10:13:34.899Z</time></trkpt><trkpt lat="42.2022933" lon="14.5707583"><ele>20.857142857142858</ele><time>2026-05-01T10:13:36.899Z</time></trkpt><trkpt lat="42.2022983" lon="14.5706633"><ele>21.0</ele><time>2026-05-01T10:13:38.899Z</time></trkpt><trkpt lat="42.2022967" lon="14.570575"><ele>21.0</ele><time>2026-05-01T10:13:40.899Z</time></trkpt><trkpt lat="42.2023" lon="14.5704817"><ele>21.0</ele><time>2026-05-01T10:13:42.899Z</time></trkpt><trkpt lat="42.2023183" lon="14.5703883"><ele>21.0</ele><time>2026-05-01T10:13:44.899Z</time></trkpt><trkpt lat="42.2023317" lon="14.5702933"><ele>21.0</ele><time>2026-05-01T10:13:46.898Z</time></trkpt><trkpt lat="42.2023417" lon="14.5701933"><ele>21.0</ele><time>2026-05-01T10:13:48.899Z</time></trkpt><trkpt lat="42.2023533" lon="14.570095"><ele>21.0</ele><time>2026-05-01T10:13:50.899Z</time></trkpt><trkpt lat="42.2023667" lon="14.5700067"><ele>21.0</ele><time>2026-05-01T10:13:52.899Z</time></trkpt><trkpt lat="42.20238" lon="14.569915"><ele>21.0</ele><time>2026-05-01T10:13:54.898Z</time></trkpt><trkpt lat="42.2023933" lon="14.5698133"><ele>21.0</ele><time>2026-05-01T10:13:56.899Z</time></trkpt><trkpt lat="42.2024033" lon="14.56971"><ele>21.0</ele><time>2026-05-01T10:13:58.899Z</time></trkpt><trkpt lat="42.2024133" lon="14.56961"><ele>21.0</ele><time>2026-05-01T10:14:00.899Z</time></trkpt><trkpt lat="42.2024183" lon="14.5695067"><ele>21.0</ele><time>2026-05-01T10:14:02.898Z</time></trkpt><trkpt lat="42.2024317" lon="14.5694033"><ele>21.0</ele><time>2026-05-01T10:14:04.899Z</time></trkpt><trkpt lat="42.2024433" lon="14.569295"><ele>21.166666666666668</ele><time>2026-05-01T10:14:06.898Z</time></trkpt><trkpt lat="42.20245" lon="14.56919"><ele>21.333333333333332</ele><time>2026-05-01T10:14:08.899Z</time></trkpt><trkpt lat="42.2024633" lon="14.5690917"><ele>21.5</ele><time>2026-05-01T10:14:10.899Z</time></trkpt><trkpt lat="42.202475" lon="14.5689883"><ele>21.666666666666664</ele><time>2026-05-01T10:14:12.898Z</time></trkpt><trkpt lat="42.2024817" lon="14.5688917"><ele>21.833333333333332</ele><time>2026-05-01T10:14:14.899Z</time></trkpt><trkpt lat="42.2024833" lon="14.568765"><ele>22.0</ele><time>2026-05-01T10:14:17.898Z</time></trkpt><trkpt lat="42.2024933" lon="14.568675"><ele>22.0</ele><time>2026-05-01T10:14:19.898Z</time></trkpt><trkpt lat="42.202505" lon="14.5685883"><ele>22.0</ele><time>2026-05-01T10:14:21.898Z</time></trkpt><trkpt lat="42.20249" lon="14.568485"><ele>22.0</ele><time>2026-05-01T10:14:24.899Z</time></trkpt><trkpt lat="42.2024117" lon="14.5684633"><ele>22.0</ele><time>2026-05-01T10:14:28.899Z</time></trkpt><trkpt lat="42.2023717" lon="14.56838"><ele>22.0</ele><time>2026-05-01T10:14:32.899Z</time></trkpt><trkpt lat="42.202335" lon="14.56829"><ele>22.0</ele><time>2026-05-01T10:14:37.899Z</time></trkpt><trkpt lat="42.2023717" lon="14.5682033"><ele>22.0</ele><time>2026-05-01T10:14:40.899Z</time></trkpt><trkpt lat="42.2024233" lon="14.5680983"><ele>22.0</ele><time>2026-05-01T10:14:43.898Z</time></trkpt><trkpt lat="42.20246" lon="14.5680183"><ele>22.0</ele><time>2026-05-01T10:14:45.899Z</time></trkpt><trkpt lat="42.2025" lon="14.56794"><ele>22.0</ele><time>2026-05-01T10:14:47.898Z</time></trkpt><trkpt lat="42.20254" lon="14.56786"><ele>22.0</ele><time>2026-05-01T10:14:49.898Z</time></trkpt><trkpt lat="42.202575" lon="14.5677883"><ele>22.0</ele><time>2026-05-01T10:14:51.899Z</time></trkpt><trkpt lat="42.202615" lon="14.567705"><ele>22.0</ele><time>2026-05-01T10:14:53.899Z</time></trkpt><trkpt lat="42.202655" lon="14.5676267"><ele>22.0</ele><time>2026-05-01T10:14:55.898Z</time></trkpt><trkpt lat="42.2026967" lon="14.56754"><ele>22.142857142857142</ele><time>2026-05-01T10:14:57.899Z</time></trkpt><trkpt lat="42.2027367" lon="14.5674467"><ele>22.285714285714285</ele><time>2026-05-01T10:14:59.898Z</time></trkpt><trkpt lat="42.2027783" lon="14.5673667"><ele>22.42857142857143</ele><time>2026-05-01T10:15:01.898Z</time></trkpt><trkpt lat="42.2028217" lon="14.5672817"><ele>22.57142857142857</ele><time>2026-05-01T10:15:03.898Z</time></trkpt><trkpt lat="42.202865" lon="14.5671967"><ele>22.71428571428571</ele><time>2026-05-01T10:15:05.898Z</time></trkpt><trkpt lat="42.2029033" lon="14.5671133"><ele>22.857142857142858</ele><time>2026-05-01T10:15:07.899Z</time></trkpt><trkpt lat="42.202935" lon="14.5670283"><ele>23.0</ele><time>2026-05-01T10:15:09.899Z</time></trkpt><trkpt lat="42.202965" lon="14.56695"><ele>23.0</ele><time>2026-05-01T10:15:11.898Z</time></trkpt><trkpt lat="42.203" lon="14.5668583"><ele>23.0</ele><time>2026-05-01T10:15:13.899Z</time></trkpt><trkpt lat="42.2030417" lon="14.5667733"><ele>23.0</ele><time>2026-05-01T10:15:15.898Z</time></trkpt><trkpt lat="42.203095" lon="14.5666917"><ele>23.0</ele><time>2026-05-01T10:15:17.898Z</time></trkpt><trkpt lat="42.20314" lon="14.5666117"><ele>23.0</ele><time>2026-05-01T10:15:19.899Z</time></trkpt><trkpt lat="42.2031767" lon="14.5665267"><ele>23.0</ele><time>2026-05-01T10:15:21.899Z</time></trkpt><trkpt lat="42.2032133" lon="14.5664417"><ele>23.0</ele><time>2026-05-01T10:15:23.899Z</time></trkpt><trkpt lat="42.2032283" lon="14.5663467"><ele>23.0</ele><time>2026-05-01T10:15:26.898Z</time></trkpt><trkpt lat="42.20329" lon="14.56638"><ele>23.0</ele><time>2026-05-01T10:15:54.899Z</time></trkpt><trkpt lat="42.2033417" lon="14.5664367"><ele>23.0</ele><time>2026-05-01T10:15:56.898Z</time></trkpt><trkpt lat="42.20339" lon="14.566505"><ele>23.0</ele><time>2026-05-01T10:15:58.899Z</time></trkpt><trkpt lat="42.2034533" lon="14.5665767"><ele>23.0</ele><time>2026-05-01T10:16:00.899Z</time></trkpt><trkpt lat="42.20353" lon="14.566655"><ele>23.0</ele><time>2026-05-01T10:16:02.899Z</time></trkpt><trkpt lat="42.2035967" lon="14.5667233"><ele>23.0</ele><time>2026-05-01T10:16:04.898Z</time></trkpt><trkpt lat="42.2036483" lon="14.5667733"><ele>23.0</ele><time>2026-05-01T10:16:06.899Z</time></trkpt><trkpt lat="42.2037133" lon="14.5668517"><ele>23.0</ele><time>2026-05-01T10:16:09.898Z</time></trkpt><trkpt lat="42.203785" lon="14.5669233"><ele>23.0</ele><time>2026-05-01T10:16:12.899Z</time></trkpt><trkpt lat="42.2038483" lon="14.5669883"><ele>23.0</ele><time>2026-05-01T10:16:15.898Z</time></trkpt><trkpt lat="42.2039267" lon="14.5670383"><ele>22.857142857142858</ele><time>2026-05-01T10:16:18.898Z</time></trkpt><trkpt lat="42.2039333" lon="14.5671417"><ele>22.71428571428571</ele><time>2026-05-01T10:16:23.898Z</time></trkpt><trkpt lat="42.2038783" lon="14.5672017"><ele>22.57142857142857</ele><time>2026-05-01T10:16:26.899Z</time></trkpt><trkpt lat="42.20383" lon="14.56726"><ele>22.42857142857143</ele><time>2026-05-01T10:16:28.898Z</time></trkpt><trkpt lat="42.2037967" lon="14.5673383"><ele>22.285714285714285</ele><time>2026-05-01T10:16:30.898Z</time></trkpt><trkpt lat="42.2037667" lon="14.5674283"><ele>22.142857142857142</ele><time>2026-05-01T10:16:32.899Z</time></trkpt><trkpt lat="42.2037483" lon="14.5675283"><ele>22.0</ele><time>2026-05-01T10:16:34.898Z</time></trkpt><trkpt lat="42.2037467" lon="14.5676283"><ele>22.0</ele><time>2026-05-01T10:16:36.899Z</time></trkpt><trkpt lat="42.2037517" lon="14.5677367"><ele>22.0</ele><time>2026-05-01T10:16:38.898Z</time></trkpt><trkpt lat="42.2037617" lon="14.567845"><ele>22.0</ele><time>2026-05-01T10:16:40.898Z</time></trkpt><trkpt lat="42.20378" lon="14.5679483"><ele>22.0</ele><time>2026-05-01T10:16:42.899Z</time></trkpt><trkpt lat="42.2037467" lon="14.568045"><ele>22.0</ele><time>2026-05-01T10:16:45.898Z</time></trkpt><trkpt lat="42.2036983" lon="14.5681083"><ele>22.0</ele><time>2026-05-01T10:16:47.899Z</time></trkpt><trkpt lat="42.20364" lon="14.5681733"><ele>21.833333333333332</ele><time>2026-05-01T10:16:49.899Z</time></trkpt><trkpt lat="42.2035933" lon="14.56825"><ele>21.666666666666664</ele><time>2026-05-01T10:16:51.898Z</time></trkpt><trkpt lat="42.2035617" lon="14.56834"><ele>21.5</ele><time>2026-05-01T10:16:53.898Z</time></trkpt><trkpt lat="42.20353" lon="14.5684367"><ele>21.333333333333332</ele><time>2026-05-01T10:16:55.899Z</time></trkpt><trkpt lat="42.203505" lon="14.5685167"><ele>21.166666666666668</ele><time>2026-05-01T10:16:57.899Z</time></trkpt><trkpt lat="42.2034717" lon="14.5686133"><ele>21.0</ele><time>2026-05-01T10:17:00.899Z</time></trkpt><trkpt lat="42.203415" lon="14.568695"><ele>21.0</ele><time>2026-05-01T10:17:03.899Z</time></trkpt><trkpt lat="42.2033567" lon="14.5687333"><ele>21.0</ele><time>2026-05-01T10:17:05.898Z</time></trkpt><trkpt lat="42.2032983" lon="14.5687817"><ele>21.0</ele><time>2026-05-01T10:17:07.898Z</time></trkpt><trkpt lat="42.20324" lon="14.5688317"><ele>21.0</ele><time>2026-05-01T10:17:09.899Z</time></trkpt><trkpt lat="42.2031767" lon="14.568865"><ele>21.0</ele><time>2026-05-01T10:17:11.899Z</time></trkpt><trkpt lat="42.2031017" lon="14.56888"><ele>21.0</ele><time>2026-05-01T10:17:13.899Z</time></trkpt><trkpt lat="42.2030167" lon="14.5688717"><ele>21.0</ele><time>2026-05-01T10:17:15.899Z</time></trkpt><trkpt lat="42.2029317" lon="14.5688517"><ele>21.166666666666668</ele><time>2026-05-01T10:17:17.899Z</time></trkpt><trkpt lat="42.2028533" lon="14.568835"><ele>21.333333333333332</ele><time>2026-05-01T10:17:19.899Z</time></trkpt><trkpt lat="42.2027833" lon="14.5688167"><ele>21.5</ele><time>2026-05-01T10:17:21.898Z</time></trkpt><trkpt lat="42.2027017" lon="14.5687983"><ele>21.666666666666664</ele><time>2026-05-01T10:17:24.899Z</time></trkpt><trkpt lat="42.2026233" lon="14.56879"><ele>21.833333333333332</ele><time>2026-05-01T10:17:27.898Z</time></trkpt><trkpt lat="42.2025517" lon="14.568765"><ele>22.0</ele><time>2026-05-01T10:17:30.899Z</time></trkpt><trkpt lat="42.2026133" lon="14.5687983"><ele>22.0</ele><time>2026-05-01T10:18:08.898Z</time></trkpt><trkpt lat="42.2026833" lon="14.5688233"><ele>22.0</ele><time>2026-05-01T10:18:10.899Z</time></trkpt><trkpt lat="42.20276" lon="14.5688517"><ele>22.0</ele><time>2026-05-01T10:18:12.899Z</time></trkpt><trkpt lat="42.20284" lon="14.5688783"><ele>22.0</ele><time>2026-05-01T10:18:14.899Z</time></trkpt><trkpt lat="42.202925" lon="14.568895"><ele>22.0</ele><time>2026-05-01T10:18:16.899Z</time></trkpt><trkpt lat="42.2030083" lon="14.5689167"><ele>22.0</ele><time>2026-05-01T10:18:18.898Z</time></trkpt><trkpt lat="42.2030917" lon="14.5689333"><ele>21.833333333333332</ele><time>2026-05-01T10:18:20.898Z</time></trkpt><trkpt lat="42.2031733" lon="14.5689317"><ele>21.666666666666664</ele><time>2026-05-01T10:18:22.899Z</time></trkpt><trkpt lat="42.20325" lon="14.5688967"><ele>21.5</ele><time>2026-05-01T10:18:24.899Z</time></trkpt><trkpt lat="42.203325" lon="14.568835"><ele>21.333333333333332</ele><time>2026-05-01T10:18:26.899Z</time></trkpt><trkpt lat="42.2034033" lon="14.5687783"><ele>21.166666666666668</ele><time>2026-05-01T10:18:28.899Z</time></trkpt><trkpt lat="42.2034717" lon="14.568725"><ele>21.0</ele><time>2026-05-01T10:18:30.899Z</time></trkpt><trkpt lat="42.20352" lon="14.5686333"><ele>21.0</ele><time>2026-05-01T10:18:32.898Z</time></trkpt><trkpt lat="42.203545" lon="14.5685483"><ele>21.0</ele><time>2026-05-01T10:18:34.898Z</time></trkpt><trkpt lat="42.2035683" lon="14.56846"><ele>21.0</ele><time>2026-05-01T10:18:36.899Z</time></trkpt><trkpt lat="42.203595" lon="14.5683717"><ele>21.0</ele><time>2026-05-01T10:18:38.899Z</time></trkpt><trkpt lat="42.203625" lon="14.568285"><ele>21.0</ele><time>2026-05-01T10:18:40.899Z</time></trkpt><trkpt lat="42.2036717" lon="14.5682183"><ele>21.0</ele><time>2026-05-01T10:18:42.898Z</time></trkpt><trkpt lat="42.2037333" lon="14.5681633"><ele>21.0</ele><time>2026-05-01T10:18:44.898Z</time></trkpt><trkpt lat="42.2037867" lon="14.5680817"><ele>21.0</ele><time>2026-05-01T10:18:46.899Z</time></trkpt><trkpt lat="42.2038183" lon="14.5679617"><ele>21.0</ele><time>2026-05-01T10:18:49.899Z</time></trkpt><trkpt lat="42.2038" lon="14.567865"><ele>21.0</ele><time>2026-05-01T10:18:51.899Z</time></trkpt><trkpt lat="42.2037833" lon="14.5677667"><ele>21.0</ele><time>2026-05-01T10:18:53.898Z</time></trkpt><trkpt lat="42.20378" lon="14.5676633"><ele>21.0</ele><time>2026-05-01T10:18:55.899Z</time></trkpt><trkpt lat="42.2037917" lon="14.5675583"><ele>21.0</ele><time>2026-05-01T10:18:57.899Z</time></trkpt><trkpt lat="42.2038133" lon="14.56746"><ele>21.166666666666668</ele><time>2026-05-01T10:18:59.899Z</time></trkpt><trkpt lat="42.20384" lon="14.5673667"><ele>21.333333333333332</ele><time>2026-05-01T10:19:01.898Z</time></trkpt><trkpt lat="42.2038733" lon="14.5672883"><ele>21.5</ele><time>2026-05-01T10:19:03.898Z</time></trkpt><trkpt lat="42.2039033" lon="14.5672117"><ele>21.666666666666664</ele><time>2026-05-01T10:19:05.898Z</time></trkpt><trkpt lat="42.203935" lon="14.5671083"><ele>21.833333333333332</ele><time>2026-05-01T10:19:08.898Z</time></trkpt><trkpt lat="42.2038933" lon="14.5670167"><ele>22.0</ele><time>2026-05-01T10:19:11.899Z</time></trkpt><trkpt lat="42.2038133" lon="14.566955"><ele>22.142857142857142</ele><time>2026-05-01T10:19:14.898Z</time></trkpt><trkpt lat="42.2037617" lon="14.5668917"><ele>22.285714285714285</ele><time>2026-05-01T10:19:16.899Z</time></trkpt><trkpt lat="42.2037083" lon="14.56683"><ele>22.42857142857143</ele><time>2026-05-01T10:19:18.899Z</time></trkpt><trkpt lat="42.2036533" lon="14.5667717"><ele>22.57142857142857</ele><time>2026-05-01T10:19:20.898Z</time></trkpt><trkpt lat="42.2036083" lon="14.5666967"><ele>22.71428571428571</ele><time>2026-05-01T10:19:22.898Z</time></trkpt><trkpt lat="42.2035433" lon="14.5666317"><ele>22.857142857142858</ele><time>2026-05-01T10:19:24.899Z</time></trkpt><trkpt lat="42.203485" lon="14.566575"><ele>23.0</ele><time>2026-05-01T10:19:26.899Z</time></trkpt><trkpt lat="42.2034317" lon="14.5665083"><ele>23.0</ele><time>2026-05-01T10:19:28.899Z</time></trkpt><trkpt lat="42.2033733" lon="14.566445"><ele>23.0</ele><time>2026-05-01T10:19:30.899Z</time></trkpt><trkpt lat="42.2033167" lon="14.5663867"><ele>23.0</ele><time>2026-05-01T10:19:32.899Z</time></trkpt><trkpt lat="42.2032617" lon="14.5663267"><ele>23.0</ele><time>2026-05-01T10:19:34.899Z</time></trkpt><trkpt lat="42.2031967" lon="14.5662667"><ele>23.0</ele><time>2026-05-01T10:19:36.899Z</time></trkpt><trkpt lat="42.2031483" lon="14.5661783"><ele>23.0</ele><time>2026-05-01T10:19:38.898Z</time></trkpt><trkpt lat="42.203145" lon="14.566075"><ele>23.166666666666668</ele><time>2026-05-01T10:19:40.899Z</time></trkpt><trkpt lat="42.20316" lon="14.5659717"><ele>23.333333333333336</ele><time>2026-05-01T10:19:42.899Z</time></trkpt><trkpt lat="42.2031717" lon="14.56588"><ele>23.5</ele><time>2026-05-01T10:19:44.898Z</time></trkpt><trkpt lat="42.2031767" lon="14.56578"><ele>23.666666666666668</ele><time>2026-05-01T10:19:46.899Z</time></trkpt><trkpt lat="42.2031717" lon="14.5656533"><ele>23.833333333333332</ele><time>2026-05-01T10:19:48.899Z</time></trkpt><trkpt lat="42.203175" lon="14.5655283"><ele>24.0</ele><time>2026-05-01T10:19:50.899Z</time></trkpt><trkpt lat="42.2031783" lon="14.5654033"><ele>24.0</ele><time>2026-05-01T10:19:52.899Z</time></trkpt><trkpt lat="42.2031867" lon="14.565285"><ele>24.0</ele><time>2026-05-01T10:19:54.899Z</time></trkpt><trkpt lat="42.2031917" lon="14.5651667"><ele>24.0</ele><time>2026-05-01T10:19:56.899Z</time></trkpt><trkpt lat="42.203195" lon="14.56505"><ele>24.0</ele><time>2026-05-01T10:19:58.899Z</time></trkpt><trkpt lat="42.2031983" lon="14.5649367"><ele>24.0</ele><time>2026-05-01T10:20:00.899Z</time></trkpt><trkpt lat="42.2032" lon="14.564825"><ele>24.0</ele><time>2026-05-01T10:20:02.899Z</time></trkpt><trkpt lat="42.2031983" lon="14.564715"><ele>24.0</ele><time>2026-05-01T10:20:04.899Z</time></trkpt><trkpt lat="42.2031983" lon="14.5646033"><ele>24.0</ele><time>2026-05-01T10:20:06.898Z</time></trkpt><trkpt lat="42.2031967" lon="14.5644933"><ele>24.0</ele><time>2026-05-01T10:20:08.899Z</time></trkpt><trkpt lat="42.20319" lon="14.5643817"><ele>24.0</ele><time>2026-05-01T10:20:10.899Z</time></trkpt><trkpt lat="42.2031667" lon="14.5642667"><ele>24.0</ele><time>2026-05-01T10:20:12.899Z</time></trkpt><trkpt lat="42.2031417" lon="14.5641533"><ele>24.0</ele><time>2026-05-01T10:20:14.899Z</time></trkpt><trkpt lat="42.2031067" lon="14.5640467"><ele>24.0</ele><time>2026-05-01T10:20:16.899Z</time></trkpt><trkpt lat="42.2030483" lon="14.5639417"><ele>24.0</ele><time>2026-05-01T10:20:18.899Z</time></trkpt><trkpt lat="42.2029883" lon="14.5638533"><ele>24.0</ele><time>2026-05-01T10:20:20.899Z</time></trkpt><trkpt lat="42.20293" lon="14.5637683"><ele>24.0</ele><time>2026-05-01T10:20:22.899Z</time></trkpt><trkpt lat="42.2028717" lon="14.5636767"><ele>24.0</ele><time>2026-05-01T10:20:24.899Z</time></trkpt><trkpt lat="42.2028383" lon="14.5635667"><ele>24.0</ele><time>2026-05-01T10:20:26.899Z</time></trkpt><trkpt lat="42.2028567" lon="14.563455"><ele>24.0</ele><time>2026-05-01T10:20:28.899Z</time></trkpt><trkpt lat="42.2028967" lon="14.56335"><ele>24.0</ele><time>2026-05-01T10:20:30.899Z</time></trkpt><trkpt lat="42.2029433" lon="14.5632433"><ele>24.0</ele><time>2026-05-01T10:20:32.899Z</time></trkpt><trkpt lat="42.202995" lon="14.563135"><ele>24.0</ele><time>2026-05-01T10:20:34.899Z</time></trkpt><trkpt lat="42.2030483" lon="14.5630333"><ele>24.0</ele><time>2026-05-01T10:20:36.899Z</time></trkpt><trkpt lat="42.2031017" lon="14.56294"><ele>24.0</ele><time>2026-05-01T10:20:38.899Z</time></trkpt><trkpt lat="42.2031483" lon="14.5628433"><ele>24.0</ele><time>2026-05-01T10:20:40.899Z</time></trkpt><trkpt lat="42.2031967" lon="14.5627617"><ele>24.0</ele><time>2026-05-01T10:20:42.899Z</time></trkpt><trkpt lat="42.2032383" lon="14.5626783"><ele>24.0</ele><time>2026-05-01T10:20:44.898Z</time></trkpt><trkpt lat="42.203295" lon="14.5626"><ele>24.0</ele><time>2026-05-01T10:20:47.898Z</time></trkpt><trkpt lat="42.2033717" lon="14.5626533"><ele>24.0</ele><time>2026-05-01T10:20:50.899Z</time></trkpt><trkpt lat="42.2034267" lon="14.5627233"><ele>23.999999999999996</ele><time>2026-05-01T10:20:53.898Z</time></trkpt><trkpt lat="42.2034833" lon="14.56278"><ele>24.0</ele><time>2026-05-01T10:20:57.898Z</time></trkpt><trkpt lat="42.2035367" lon="14.5628433"><ele>24.0</ele><time>2026-05-01T10:21:02.899Z</time></trkpt><trkpt lat="42.2035" lon="14.5627567"><ele>24.0</ele><time>2026-05-01T10:21:11.899Z</time></trkpt><trkpt lat="42.2034317" lon="14.56268"><ele>24.0</ele><time>2026-05-01T10:21:14.899Z</time></trkpt><trkpt lat="42.203375" lon="14.562615"><ele>23.999999999999996</ele><time>2026-05-01T10:21:16.899Z</time></trkpt><trkpt lat="42.2033267" lon="14.5625467"><ele>24.0</ele><time>2026-05-01T10:21:18.899Z</time></trkpt><trkpt lat="42.2032867" lon="14.5624383"><ele>23.999999999999996</ele><time>2026-05-01T10:21:21.899Z</time></trkpt><trkpt lat="42.2032517" lon="14.5623417"><ele>24.0</ele><time>2026-05-01T10:21:23.899Z</time></trkpt><trkpt lat="42.2032133" lon="14.5622533"><ele>24.0</ele><time>2026-05-01T10:21:25.899Z</time></trkpt><trkpt lat="42.2031767" lon="14.5621683"><ele>24.0</ele><time>2026-05-01T10:21:27.898Z</time></trkpt><trkpt lat="42.203145" lon="14.562075"><ele>24.0</ele><time>2026-05-01T10:21:30.899Z</time></trkpt><trkpt lat="42.2032083" lon="14.5621217"><ele>23.999999999999996</ele><time>2026-05-01T10:21:36.898Z</time></trkpt><trkpt lat="42.2032417" lon="14.5621967"><ele>24.0</ele><time>2026-05-01T10:21:38.899Z</time></trkpt><trkpt lat="42.2032767" lon="14.56227"><ele>24.0</ele><time>2026-05-01T10:21:40.899Z</time></trkpt><trkpt lat="42.203315" lon="14.56235"><ele>24.0</ele><time>2026-05-01T10:21:42.898Z</time></trkpt><trkpt lat="42.2033533" lon="14.5624317"><ele>24.0</ele><time>2026-05-01T10:21:44.899Z</time></trkpt><trkpt lat="42.20341" lon="14.5625283"><ele>24.0</ele><time>2026-05-01T10:21:47.899Z</time></trkpt><trkpt lat="42.2034583" lon="14.5626033"><ele>24.0</ele><time>2026-05-01T10:21:51.899Z</time></trkpt><trkpt lat="42.20354" lon="14.5625667"><ele>24.0</ele><time>2026-05-01T10:21:55.899Z</time></trkpt><trkpt lat="42.2035917" lon="14.562515"><ele>24.0</ele><time>2026-05-01T10:21:57.899Z</time></trkpt><trkpt lat="42.2036783" lon="14.5624883"><ele>24.0</ele><time>2026-05-01T10:22:00.899Z</time></trkpt><trkpt lat="42.2037483" lon="14.562535"><ele>24.0</ele><time>2026-05-01T10:22:03.898Z</time></trkpt><trkpt lat="42.2037967" lon="14.562595"><ele>24.0</ele><time>2026-05-01T10:22:05.899Z</time></trkpt><trkpt lat="42.2038517" lon="14.5626483"><ele>24.0</ele><time>2026-05-01T10:22:07.898Z</time></trkpt><trkpt lat="42.2039117" lon="14.56272"><ele>24.0</ele><time>2026-05-01T10:22:10.898Z</time></trkpt><trkpt lat="42.2039833" lon="14.56274"><ele>23.71428571428571</ele><time>2026-05-01T10:22:14.899Z</time></trkpt><trkpt lat="42.20406" lon="14.5627517"><ele>23.428571428571427</ele><time>2026-05-01T10:22:18.898Z</time></trkpt><trkpt lat="42.2041283" lon="14.5628317"><ele>23.142857142857142</ele><time>2026-05-01T10:22:21.898Z</time></trkpt><trkpt lat="42.2041767" lon="14.5628933"><ele>22.857142857142854</ele><time>2026-05-01T10:22:23.899Z</time></trkpt><trkpt lat="42.2042233" lon="14.5629517"><ele>22.57142857142857</ele><time>2026-05-01T10:22:25.899Z</time></trkpt><trkpt lat="42.2042717" lon="14.5630133"><ele>22.285714285714285</ele><time>2026-05-01T10:22:27.899Z</time></trkpt><trkpt lat="42.20432" lon="14.5630733"><ele>22.0</ele><time>2026-05-01T10:22:29.899Z</time></trkpt><trkpt lat="42.2043967" lon="14.56315"><ele>22.0</ele><time>2026-05-01T10:22:32.898Z</time></trkpt><trkpt lat="42.2044617" lon="14.5631967"><ele>22.0</ele><time>2026-05-01T10:22:34.899Z</time></trkpt><trkpt lat="42.2045267" lon="14.563245"><ele>22.0</ele><time>2026-05-01T10:22:36.899Z</time></trkpt><trkpt lat="42.2045883" lon="14.5632867"><ele>22.0</ele><time>2026-05-01T10:22:38.899Z</time></trkpt><trkpt lat="42.2046517" lon="14.5633283"><ele>22.0</ele><time>2026-05-01T10:22:40.898Z</time></trkpt><trkpt lat="42.2047217" lon="14.5633583"><ele>22.0</ele><time>2026-05-01T10:22:42.899Z</time></trkpt><trkpt lat="42.2047933" lon="14.5633867"><ele>22.0</ele><time>2026-05-01T10:22:44.898Z</time></trkpt><trkpt lat="42.2048867" lon="14.56343"><ele>22.0</ele><time>2026-05-01T10:22:47.898Z</time></trkpt><trkpt lat="42.2049417" lon="14.5634717"><ele>22.0</ele><time>2026-05-01T10:22:49.899Z</time></trkpt><trkpt lat="42.205005" lon="14.5635217"><ele>22.0</ele><time>2026-05-01T10:22:51.899Z</time></trkpt><trkpt lat="42.2050583" lon="14.56357"><ele>22.0</ele><time>2026-05-01T10:22:53.898Z</time></trkpt><trkpt lat="42.2051367" lon="14.56362"><ele>22.0</ele><time>2026-05-01T10:22:56.899Z</time></trkpt><trkpt lat="42.205205" lon="14.5636867"><ele>22.0</ele><time>2026-05-01T10:22:59.899Z</time></trkpt><trkpt lat="42.205255" lon="14.5637683"><ele>22.0</ele><time>2026-05-01T10:23:02.899Z</time></trkpt><trkpt lat="42.2053" lon="14.56387"><ele>22.0</ele><time>2026-05-01T10:23:05.899Z</time></trkpt><trkpt lat="42.205335" lon="14.56396"><ele>22.0</ele><time>2026-05-01T10:23:07.899Z</time></trkpt><trkpt lat="42.2053617" lon="14.5640533"><ele>22.0</ele><time>2026-05-01T10:23:09.899Z</time></trkpt><trkpt lat="42.2053717" lon="14.5641517"><ele>22.0</ele><time>2026-05-01T10:23:11.899Z</time></trkpt><trkpt lat="42.205365" lon="14.5642433"><ele>22.0</ele><time>2026-05-01T10:23:13.899Z</time></trkpt><trkpt lat="42.205345" lon="14.5643283"><ele>22.0</ele><time>2026-05-01T10:23:15.899Z</time></trkpt><trkpt lat="42.20529" lon="14.5644167"><ele>22.0</ele><time>2026-05-01T10:23:18.899Z</time></trkpt><trkpt lat="42.2052317" lon="14.5644817"><ele>22.0</ele><time>2026-05-01T10:23:21.898Z</time></trkpt><trkpt lat="42.2051733" lon="14.5645517"><ele>22.0</ele><time>2026-05-01T10:23:24.899Z</time></trkpt><trkpt lat="42.2051167" lon="14.56461"><ele>22.0</ele><time>2026-05-01T10:23:27.899Z</time></trkpt><trkpt lat="42.20508" lon="14.5647133"><ele>22.0</ele><time>2026-05-01T10:23:31.899Z</time></trkpt><trkpt lat="42.2051083" lon="14.5647967"><ele>22.0</ele><time>2026-05-01T10:23:33.899Z</time></trkpt><trkpt lat="42.20515" lon="14.5648717"><ele>22.0</ele><time>2026-05-01T10:23:35.898Z</time></trkpt><trkpt lat="42.2051867" lon="14.5649717"><ele>22.285714285714285</ele><time>2026-05-01T10:23:37.899Z</time></trkpt><trkpt lat="42.2052267" lon="14.5650567"><ele>22.57142857142857</ele><time>2026-05-01T10:23:39.899Z</time></trkpt><trkpt lat="42.205265" lon="14.565125"><ele>22.857142857142854</ele><time>2026-05-01T10:23:41.899Z</time></trkpt><trkpt lat="42.205305" lon="14.5651983"><ele>23.142857142857142</ele><time>2026-05-01T10:23:43.899Z</time></trkpt><trkpt lat="42.2053517" lon="14.565285"><ele>23.428571428571427</ele><time>2026-05-01T10:23:45.899Z</time></trkpt><trkpt lat="42.2054117" lon="14.5653133"><ele>23.71428571428571</ele><time>2026-05-01T10:23:47.899Z</time></trkpt><trkpt lat="42.205475" lon="14.5652583"><ele>24.0</ele><time>2026-05-01T10:23:49.899Z</time></trkpt><trkpt lat="42.2055233" lon="14.5651583"><ele>24.0</ele><time>2026-05-01T10:23:51.898Z</time></trkpt><trkpt lat="42.2055767" lon="14.5650717"><ele>24.0</ele><time>2026-05-01T10:23:53.899Z</time></trkpt><trkpt lat="42.2056467" lon="14.5649867"><ele>24.0</ele><time>2026-05-01T10:23:55.899Z</time></trkpt><trkpt lat="42.2057117" lon="14.5649217"><ele>24.0</ele><time>2026-05-01T10:23:57.898Z</time></trkpt><trkpt lat="42.2057367" lon="14.5648217"><ele>24.0</ele><time>2026-05-01T10:23:59.899Z</time></trkpt><trkpt lat="42.2057617" lon="14.5646967"><ele>24.0</ele><time>2026-05-01T10:24:01.899Z</time></trkpt><trkpt lat="42.205775" lon="14.5646133"><ele>24.0</ele><time>2026-05-01T10:24:02.899Z</time></trkpt><trkpt lat="42.2058017" lon="14.5645"><ele>24.0</ele><time>2026-05-01T10:24:04.899Z</time></trkpt><trkpt lat="42.20583" lon="14.5643533"><ele>24.0</ele><time>2026-05-01T10:24:06.898Z</time></trkpt><trkpt lat="42.2058233" lon="14.5642267"><ele>24.0</ele><time>2026-05-01T10:24:08.899Z</time></trkpt><trkpt lat="42.2058233" lon="14.5640767"><ele>24.0</ele><time>2026-05-01T10:24:10.899Z</time></trkpt><trkpt lat="42.2058133" lon="14.5639383"><ele>24.0</ele><time>2026-05-01T10:24:12.899Z</time></trkpt><trkpt lat="42.2058033" lon="14.5638133"><ele>24.0</ele><time>2026-05-01T10:24:14.899Z</time></trkpt><trkpt lat="42.2057933" lon="14.563725"><ele>24.0</ele><time>2026-05-01T10:24:16.899Z</time></trkpt><trkpt lat="42.20576" lon="14.563605"><ele>24.0</ele><time>2026-05-01T10:24:19.899Z</time></trkpt><trkpt lat="42.205725" lon="14.5635183"><ele>24.0</ele><time>2026-05-01T10:24:21.899Z</time></trkpt><trkpt lat="42.205685" lon="14.563415"><ele>24.0</ele><time>2026-05-01T10:24:24.898Z</time></trkpt><trkpt lat="42.205645" lon="14.5633483"><ele>23.5</ele><time>2026-05-01T10:24:26.899Z</time></trkpt><trkpt lat="42.2055983" lon="14.5632567"><ele>23.0</ele><time>2026-05-01T10:24:28.898Z</time></trkpt><trkpt lat="42.205535" lon="14.5631733"><ele>22.5</ele><time>2026-05-01T10:24:30.899Z</time></trkpt><trkpt lat="42.2054683" lon="14.5631"><ele>22.0</ele><time>2026-05-01T10:24:32.899Z</time></trkpt><trkpt lat="42.205405" lon="14.5630317"><ele>21.5</ele><time>2026-05-01T10:24:34.899Z</time></trkpt><trkpt lat="42.2053317" lon="14.5629667"><ele>21.0</ele><time>2026-05-01T10:24:36.898Z</time></trkpt><trkpt lat="42.205235" lon="14.5629133"><ele>21.0</ele><time>2026-05-01T10:24:38.899Z</time></trkpt><trkpt lat="42.2051383" lon="14.5628833"><ele>21.0</ele><time>2026-05-01T10:24:40.899Z</time></trkpt><trkpt lat="42.2050517" lon="14.5628533"><ele>21.0</ele><time>2026-05-01T10:24:42.898Z</time></trkpt><trkpt lat="42.2049833" lon="14.5628183"><ele>21.0</ele><time>2026-05-01T10:24:44.899Z</time></trkpt><trkpt lat="42.2049867" lon="14.562725"><ele>21.0</ele><time>2026-05-01T10:24:47.899Z</time></trkpt><trkpt lat="42.20506" lon="14.5626683"><ele>21.0</ele><time>2026-05-01T10:24:50.898Z</time></trkpt><trkpt lat="42.20512" lon="14.56261"><ele>21.333333333333332</ele><time>2026-05-01T10:24:53.899Z</time></trkpt><trkpt lat="42.20519" lon="14.5625283"><ele>21.666666666666668</ele><time>2026-05-01T10:24:56.899Z</time></trkpt><trkpt lat="42.20524" lon="14.56246"><ele>22.0</ele><time>2026-05-01T10:24:58.899Z</time></trkpt><trkpt lat="42.205285" lon="14.562395"><ele>22.333333333333336</ele><time>2026-05-01T10:25:00.899Z</time></trkpt><trkpt lat="42.2053367" lon="14.5623233"><ele>22.666666666666668</ele><time>2026-05-01T10:25:03.899Z</time></trkpt><trkpt lat="42.2053817" lon="14.562225"><ele>23.0</ele><time>2026-05-01T10:25:07.899Z</time></trkpt><trkpt lat="42.2054067" lon="14.56212"><ele>23.0</ele><time>2026-05-01T10:25:10.899Z</time></trkpt><trkpt lat="42.20542" lon="14.5620333"><ele>23.0</ele><time>2026-05-01T10:25:12.898Z</time></trkpt><trkpt lat="42.205435" lon="14.561905"><ele>23.0</ele><time>2026-05-01T10:25:15.898Z</time></trkpt><trkpt lat="42.2054467" lon="14.5618183"><ele>23.0</ele><time>2026-05-01T10:25:17.899Z</time></trkpt><trkpt lat="42.2054633" lon="14.5617283"><ele>23.0</ele><time>2026-05-01T10:25:19.899Z</time></trkpt><trkpt lat="42.20547" lon="14.5616417"><ele>23.0</ele><time>2026-05-01T10:25:21.899Z</time></trkpt><trkpt lat="42.2054717" lon="14.5615533"><ele>23.0</ele><time>2026-05-01T10:25:23.899Z</time></trkpt><trkpt lat="42.2054683" lon="14.561465"><ele>23.42857142857143</ele><time>2026-05-01T10:25:25.898Z</time></trkpt><trkpt lat="42.2054667" lon="14.5613483"><ele>23.857142857142854</ele><time>2026-05-01T10:25:28.899Z</time></trkpt><trkpt lat="42.2054667" lon="14.56126"><ele>24.285714285714285</ele><time>2026-05-01T10:25:31.899Z</time></trkpt><trkpt lat="42.2054617" lon="14.5613483"><ele>24.714285714285715</ele><time>2026-05-01T10:25:57.899Z</time></trkpt><trkpt lat="42.205535" lon="14.5614117"><ele>25.142857142857146</ele><time>2026-05-01T10:26:00.898Z</time></trkpt><trkpt lat="42.2056017" lon="14.56145"><ele>25.57142857142857</ele><time>2026-05-01T10:26:02.898Z</time></trkpt><trkpt lat="42.20566" lon="14.5614917"><ele>26.0</ele><time>2026-05-01T10:26:04.899Z</time></trkpt><trkpt lat="42.2057233" lon="14.56153"><ele>26.166666666666664</ele><time>2026-05-01T10:26:06.898Z</time></trkpt><trkpt lat="42.20579" lon="14.5615617"><ele>26.333333333333332</ele><time>2026-05-01T10:26:08.899Z</time></trkpt><trkpt lat="42.205875" lon="14.5616067"><ele>26.5</ele><time>2026-05-01T10:26:11.899Z</time></trkpt><trkpt lat="42.20596" lon="14.56165"><ele>26.666666666666664</ele><time>2026-05-01T10:26:14.899Z</time></trkpt><trkpt lat="42.2060383" lon="14.5616967"><ele>26.833333333333332</ele><time>2026-05-01T10:26:17.899Z</time></trkpt><trkpt lat="42.206115" lon="14.5617383"><ele>27.0</ele><time>2026-05-01T10:26:20.899Z</time></trkpt><trkpt lat="42.20619" lon="14.5617683"><ele>27.0</ele><time>2026-05-01T10:26:23.899Z</time></trkpt><trkpt lat="42.206255" lon="14.561785"><ele>27.0</ele><time>2026-05-01T10:26:26.899Z</time></trkpt><trkpt lat="42.2063217" lon="14.5618467"><ele>27.0</ele><time>2026-05-01T10:26:30.899Z</time></trkpt><trkpt lat="42.2064017" lon="14.561885"><ele>27.0</ele><time>2026-05-01T10:26:34.899Z</time></trkpt><trkpt lat="42.2064683" lon="14.56179"><ele>27.0</ele><time>2026-05-01T10:27:00.899Z</time></trkpt><trkpt lat="42.2064633" lon="14.5616733"><ele>27.0</ele><time>2026-05-01T10:27:03.898Z</time></trkpt><trkpt lat="42.2064667" lon="14.5615617"><ele>27.0</ele><time>2026-05-01T10:27:06.899Z</time></trkpt><trkpt lat="42.2064717" lon="14.5614467"><ele>27.0</ele><time>2026-05-01T10:27:09.899Z</time></trkpt><trkpt lat="42.2064833" lon="14.5613483"><ele>27.0</ele><time>2026-05-01T10:27:12.898Z</time></trkpt><trkpt lat="42.2064933" lon="14.561255"><ele>27.0</ele><time>2026-05-01T10:27:15.899Z</time></trkpt><trkpt lat="42.2065167" lon="14.5611533"><ele>27.0</ele><time>2026-05-01T10:27:19.899Z</time></trkpt><trkpt lat="42.20648" lon="14.5612383"><ele>27.0</ele><time>2026-05-01T10:27:31.898Z</time></trkpt><trkpt lat="42.2064533" lon="14.5613633"><ele>27.0</ele><time>2026-05-01T10:27:34.899Z</time></trkpt><trkpt lat="42.206445" lon="14.5614533"><ele>27.0</ele><time>2026-05-01T10:27:36.899Z</time></trkpt><trkpt lat="42.2064417" lon="14.5615667"><ele>27.0</ele><time>2026-05-01T10:27:39.899Z</time></trkpt><trkpt lat="42.2064533" lon="14.561665"><ele>27.0</ele><time>2026-05-01T10:27:41.899Z</time></trkpt><trkpt lat="42.206465" lon="14.5617583"><ele>27.0</ele><time>2026-05-01T10:27:43.898Z</time></trkpt><trkpt lat="42.2064667" lon="14.5618633"><ele>27.0</ele><time>2026-05-01T10:27:46.899Z</time></trkpt><trkpt lat="42.2064667" lon="14.5619717"><ele>27.0</ele><time>2026-05-01T10:27:49.899Z</time></trkpt><trkpt lat="42.2064667" lon="14.56206"><ele>27.0</ele><time>2026-05-01T10:27:52.899Z</time></trkpt><trkpt lat="42.2064917" lon="14.5619683"><ele>27.0</ele><time>2026-05-01T10:28:22.898Z</time></trkpt><trkpt lat="42.206475" lon="14.5618717"><ele>27.0</ele><time>2026-05-01T10:28:25.898Z</time></trkpt><trkpt lat="42.2063917" lon="14.5618483"><ele>27.0</ele><time>2026-05-01T10:28:28.899Z</time></trkpt><trkpt lat="42.2063267" lon="14.5618217"><ele>27.0</ele><time>2026-05-01T10:28:31.899Z</time></trkpt><trkpt lat="42.206265" lon="14.5617667"><ele>27.0</ele><time>2026-05-01T10:28:34.899Z</time></trkpt><trkpt lat="42.2062017" lon="14.5617267"><ele>27.0</ele><time>2026-05-01T10:28:37.898Z</time></trkpt><trkpt lat="42.2061367" lon="14.561685"><ele>27.0</ele><time>2026-05-01T10:28:40.899Z</time></trkpt><trkpt lat="42.2060483" lon="14.5616517"><ele>27.0</ele><time>2026-05-01T10:28:43.898Z</time></trkpt><trkpt lat="42.20598" lon="14.561625"><ele>27.0</ele><time>2026-05-01T10:28:46.899Z</time></trkpt><trkpt lat="42.2059067" lon="14.5615883"><ele>27.0</ele><time>2026-05-01T10:28:51.899Z</time></trkpt><trkpt lat="42.2058183" lon="14.5615583"><ele>27.0</ele><time>2026-05-01T10:28:54.898Z</time></trkpt><trkpt lat="42.2057517" lon="14.56153"><ele>27.0</ele><time>2026-05-01T10:28:56.899Z</time></trkpt><trkpt lat="42.2056933" lon="14.5614917"><ele>27.0</ele><time>2026-05-01T10:28:58.899Z</time></trkpt><trkpt lat="42.2056283" lon="14.5614567"><ele>27.0</ele><time>2026-05-01T10:29:00.899Z</time></trkpt><trkpt lat="42.2055617" lon="14.56143"><ele>27.0</ele><time>2026-05-01T10:29:02.899Z</time></trkpt><trkpt lat="42.2054883" lon="14.5613867"><ele>27.0</ele><time>2026-05-01T10:29:05.898Z</time></trkpt><trkpt lat="42.2054767" lon="14.5612833"><ele>27.0</ele><time>2026-05-01T10:29:08.899Z</time></trkpt><trkpt lat="42.2054767" lon="14.561175"><ele>27.0</ele><time>2026-05-01T10:29:10.899Z</time></trkpt><trkpt lat="42.2054817" lon="14.5610733"><ele>27.0</ele><time>2026-05-01T10:29:12.899Z</time></trkpt><trkpt lat="42.2054783" lon="14.5609633"><ele>27.0</ele><time>2026-05-01T10:29:14.899Z</time></trkpt><trkpt lat="42.2054833" lon="14.560855"><ele>27.0</ele><time>2026-05-01T10:29:16.899Z</time></trkpt><trkpt lat="42.2054917" lon="14.5607617"><ele>27.0</ele><time>2026-05-01T10:29:18.899Z</time></trkpt><trkpt lat="42.2055117" lon="14.5606667"><ele>27.0</ele><time>2026-05-01T10:29:20.899Z</time></trkpt><trkpt lat="42.2055517" lon="14.5605967"><ele>27.0</ele><time>2026-05-01T10:29:22.898Z</time></trkpt><trkpt lat="42.205605" lon="14.5605233"><ele>27.0</ele><time>2026-05-01T10:29:26.899Z</time></trkpt><trkpt lat="42.20568" lon="14.56047"><ele>27.0</ele><time>2026-05-01T10:29:30.898Z</time></trkpt><trkpt lat="42.2057417" lon="14.56038"><ele>27.000000000000004</ele><time>2026-05-01T10:29:33.899Z</time></trkpt><trkpt lat="42.2057783" lon="14.560265"><ele>27.000000000000004</ele><time>2026-05-01T10:29:35.898Z</time></trkpt><trkpt lat="42.2057917" lon="14.56014"><ele>27.0</ele><time>2026-05-01T10:29:37.899Z</time></trkpt><trkpt lat="42.20581" lon="14.5600133"><ele>27.0</ele><time>2026-05-01T10:29:39.899Z</time></trkpt><trkpt lat="42.20582" lon="14.559885"><ele>27.0</ele><time>2026-05-01T10:29:41.898Z</time></trkpt><trkpt lat="42.2058367" lon="14.55978"><ele>27.0</ele><time>2026-05-01T10:29:43.898Z</time></trkpt><trkpt lat="42.2058617" lon="14.5596867"><ele>27.0</ele><time>2026-05-01T10:29:46.899Z</time></trkpt><trkpt lat="42.2059417" lon="14.55971"><ele>27.0</ele><time>2026-05-01T10:29:51.898Z</time></trkpt><trkpt lat="42.206005" lon="14.559725"><ele>27.0</ele><time>2026-05-01T10:29:53.899Z</time></trkpt><trkpt lat="42.2060717" lon="14.5597367"><ele>27.0</ele><time>2026-05-01T10:29:55.898Z</time></trkpt><trkpt lat="42.206145" lon="14.5597433"><ele>27.0</ele><time>2026-05-01T10:29:57.898Z</time></trkpt><trkpt lat="42.2062417" lon="14.5597517"><ele>27.0</ele><time>2026-05-01T10:30:00.898Z</time></trkpt><trkpt lat="42.2063283" lon="14.55977"><ele>27.0</ele><time>2026-05-01T10:30:03.899Z</time></trkpt><trkpt lat="42.2064" lon="14.5597833"><ele>27.0</ele><time>2026-05-01T10:30:06.898Z</time></trkpt><trkpt lat="42.2064683" lon="14.559765"><ele>27.0</ele><time>2026-05-01T10:30:10.899Z</time></trkpt><trkpt lat="42.2064633" lon="14.5596467"><ele>27.0</ele><time>2026-05-01T10:30:13.899Z</time></trkpt><trkpt lat="42.2064483" lon="14.5595317"><ele>27.0</ele><time>2026-05-01T10:30:16.898Z</time></trkpt><trkpt lat="42.2064367" lon="14.55941"><ele>26.833333333333332</ele><time>2026-05-01T10:30:19.898Z</time></trkpt><trkpt lat="42.2064283" lon="14.5593167"><ele>26.666666666666664</ele><time>2026-05-01T10:30:21.898Z</time></trkpt><trkpt lat="42.2064417" lon="14.5591867"><ele>26.5</ele><time>2026-05-01T10:30:24.899Z</time></trkpt><trkpt lat="42.206465" lon="14.5590867"><ele>26.333333333333332</ele><time>2026-05-01T10:30:26.898Z</time></trkpt><trkpt lat="42.2064917" lon="14.5590017"><ele>26.166666666666664</ele><time>2026-05-01T10:30:28.899Z</time></trkpt><trkpt lat="42.2065217" lon="14.55892"><ele>26.0</ele><time>2026-05-01T10:30:30.898Z</time></trkpt><trkpt lat="42.2065383" lon="14.5588233"><ele>26.285714285714285</ele><time>2026-05-01T10:30:32.899Z</time></trkpt><trkpt lat="42.20657" lon="14.5587367"><ele>26.571428571428573</ele><time>2026-05-01T10:30:34.899Z</time></trkpt><trkpt lat="42.206595" lon="14.5586467"><ele>26.857142857142858</ele><time>2026-05-01T10:30:36.898Z</time></trkpt><trkpt lat="42.2066083" lon="14.55856"><ele>27.142857142857142</ele><time>2026-05-01T10:30:38.899Z</time></trkpt><trkpt lat="42.2066283" lon="14.5584717"><ele>27.42857142857143</ele><time>2026-05-01T10:30:40.899Z</time></trkpt><trkpt lat="42.2066567" lon="14.5583817"><ele>27.714285714285715</ele><time>2026-05-01T10:30:42.899Z</time></trkpt><trkpt lat="42.2066817" lon="14.5582967"><ele>28.0</ele><time>2026-05-01T10:30:44.899Z</time></trkpt><trkpt lat="42.2067167" lon="14.5582183"><ele>28.0</ele><time>2026-05-01T10:30:46.899Z</time></trkpt><trkpt lat="42.206755" lon="14.5581333"><ele>28.0</ele><time>2026-05-01T10:30:48.899Z</time></trkpt><trkpt lat="42.2067917" lon="14.5580433"><ele>28.0</ele><time>2026-05-01T10:30:50.899Z</time></trkpt><trkpt lat="42.2068283" lon="14.5579567"><ele>28.0</ele><time>2026-05-01T10:30:52.898Z</time></trkpt><trkpt lat="42.2068583" lon="14.5578767"><ele>28.0</ele><time>2026-05-01T10:30:54.898Z</time></trkpt><trkpt lat="42.20688" lon="14.5577817"><ele>28.0</ele><time>2026-05-01T10:30:57.899Z</time></trkpt><trkpt lat="42.2068033" lon="14.55778"><ele>28.0</ele><time>2026-05-01T10:31:01.899Z</time></trkpt><trkpt lat="42.2067383" lon="14.5578067"><ele>28.0</ele><time>2026-05-01T10:31:03.899Z</time></trkpt><trkpt lat="42.20666" lon="14.5578367"><ele>27.999999999999996</ele><time>2026-05-01T10:31:05.899Z</time></trkpt><trkpt lat="42.2065733" lon="14.5578617"><ele>27.999999999999996</ele><time>2026-05-01T10:31:07.898Z</time></trkpt><trkpt lat="42.2064817" lon="14.55787"><ele>28.0</ele><time>2026-05-01T10:31:09.899Z</time></trkpt><trkpt lat="42.2063783" lon="14.5578617"><ele>28.0</ele><time>2026-05-01T10:31:11.899Z</time></trkpt><trkpt lat="42.2062867" lon="14.557855"><ele>27.833333333333336</ele><time>2026-05-01T10:31:13.898Z</time></trkpt><trkpt lat="42.2062" lon="14.557845"><ele>27.666666666666668</ele><time>2026-05-01T10:31:15.899Z</time></trkpt><trkpt lat="42.2061117" lon="14.5578367"><ele>27.5</ele><time>2026-05-01T10:31:17.899Z</time></trkpt><trkpt lat="42.2060233" lon="14.5578317"><ele>27.333333333333336</ele><time>2026-05-01T10:31:19.899Z</time></trkpt><trkpt lat="42.2059533" lon="14.5578217"><ele>27.166666666666668</ele><time>2026-05-01T10:31:21.899Z</time></trkpt><trkpt lat="42.20587" lon="14.5578067"><ele>27.0</ele><time>2026-05-01T10:31:23.899Z</time></trkpt><trkpt lat="42.2057783" lon="14.5577833"><ele>27.0</ele><time>2026-05-01T10:31:25.899Z</time></trkpt><trkpt lat="42.20569" lon="14.5577433"><ele>27.000000000000004</ele><time>2026-05-01T10:31:27.899Z</time></trkpt><trkpt lat="42.2055933" lon="14.5576983"><ele>27.000000000000004</ele><time>2026-05-01T10:31:29.899Z</time></trkpt><trkpt lat="42.205505" lon="14.55765"><ele>27.0</ele><time>2026-05-01T10:31:31.899Z</time></trkpt><trkpt lat="42.20543" lon="14.5575717"><ele>27.0</ele><time>2026-05-01T10:31:33.899Z</time></trkpt><trkpt lat="42.205385" lon="14.5574817"><ele>27.0</ele><time>2026-05-01T10:31:35.898Z</time></trkpt><trkpt lat="42.2053517" lon="14.5573917"><ele>27.0</ele><time>2026-05-01T10:31:37.899Z</time></trkpt><trkpt lat="42.2053267" lon="14.557295"><ele>27.0</ele><time>2026-05-01T10:31:39.898Z</time></trkpt><trkpt lat="42.205295" lon="14.5571917"><ele>27.0</ele><time>2026-05-01T10:31:41.899Z</time></trkpt><trkpt lat="42.2052733" lon="14.5570967"><ele>27.0</ele><time>2026-05-01T10:31:43.899Z</time></trkpt><trkpt lat="42.2052583" lon="14.5569983"><ele>27.0</ele><time>2026-05-01T10:31:45.899Z</time></trkpt><trkpt lat="42.2052467" lon="14.55688"><ele>27.0</ele><time>2026-05-01T10:31:47.899Z</time></trkpt><trkpt lat="42.20523" lon="14.5567567"><ele>27.0</ele><time>2026-05-01T10:31:49.899Z</time></trkpt><trkpt lat="42.2052033" lon="14.5566617"><ele>27.0</ele><time>2026-05-01T10:31:51.899Z</time></trkpt><trkpt lat="42.2051583" lon="14.5565667"><ele>27.0</ele><time>2026-05-01T10:31:53.898Z</time></trkpt><trkpt lat="42.2051167" lon="14.55647"><ele>27.0</ele><time>2026-05-01T10:31:56.899Z</time></trkpt><trkpt lat="42.2051167" lon="14.55637"><ele>27.0</ele><time>2026-05-01T10:32:03.898Z</time></trkpt><trkpt lat="42.2051467" lon="14.5562917"><ele>27.333333333333332</ele><time>2026-05-01T10:32:06.898Z</time></trkpt><trkpt lat="42.205195" lon="14.5561917"><ele>27.666666666666664</ele><time>2026-05-01T10:32:09.899Z</time></trkpt><trkpt lat="42.2052267" lon="14.55611"><ele>28.0</ele><time>2026-05-01T10:32:11.899Z</time></trkpt><trkpt lat="42.2052617" lon="14.5560233"><ele>28.333333333333332</ele><time>2026-05-01T10:32:13.898Z</time></trkpt><trkpt lat="42.2053" lon="14.5559133"><ele>28.666666666666664</ele><time>2026-05-01T10:32:15.899Z</time></trkpt><trkpt lat="42.205325" lon="14.5558183"><ele>29.0</ele><time>2026-05-01T10:32:17.899Z</time></trkpt><trkpt lat="42.2053517" lon="14.5557383"><ele>28.999999999999996</ele><time>2026-05-01T10:32:19.898Z</time></trkpt><trkpt lat="42.205395" lon="14.55563"><ele>29.0</ele><time>2026-05-01T10:32:22.899Z</time></trkpt><trkpt lat="42.205425" lon="14.55553"><ele>29.0</ele><time>2026-05-01T10:32:25.899Z</time></trkpt><trkpt lat="42.205455" lon="14.555455"><ele>29.0</ele><time>2026-05-01T10:32:27.898Z</time></trkpt><trkpt lat="42.2054867" lon="14.555335"><ele>28.999999999999996</ele><time>2026-05-01T10:32:30.899Z</time></trkpt><trkpt lat="42.20552" lon="14.5552583"><ele>29.0</ele><time>2026-05-01T10:32:32.899Z</time></trkpt><trkpt lat="42.2055517" lon="14.55518"><ele>28.999999999999996</ele><time>2026-05-01T10:32:34.899Z</time></trkpt><trkpt lat="42.2056117" lon="14.5550767"><ele>29.0</ele><time>2026-05-01T10:32:37.899Z</time></trkpt><trkpt lat="42.2056617" lon="14.5550183"><ele>29.0</ele><time>2026-05-01T10:32:39.898Z</time></trkpt><trkpt lat="42.205715" lon="14.554955"><ele>29.0</ele><time>2026-05-01T10:32:41.899Z</time></trkpt><trkpt lat="42.2057617" lon="14.554875"><ele>28.999999999999996</ele><time>2026-05-01T10:32:43.899Z</time></trkpt><trkpt lat="42.2058083" lon="14.5547867"><ele>29.0</ele><time>2026-05-01T10:32:45.899Z</time></trkpt><trkpt lat="42.2058583" lon="14.5547033"><ele>28.999999999999996</ele><time>2026-05-01T10:32:47.899Z</time></trkpt><trkpt lat="42.205915" lon="14.5546317"><ele>29.0</ele><time>2026-05-01T10:32:49.899Z</time></trkpt><trkpt lat="42.20597" lon="14.5545567"><ele>29.0</ele><time>2026-05-01T10:32:51.899Z</time></trkpt><trkpt lat="42.20603" lon="14.5544967"><ele>29.0</ele><time>2026-05-01T10:32:53.899Z</time></trkpt><trkpt lat="42.2060833" lon="14.5544267"><ele>28.999999999999996</ele><time>2026-05-01T10:32:55.899Z</time></trkpt><trkpt lat="42.2061283" lon="14.554345"><ele>29.0</ele><time>2026-05-01T10:32:57.899Z</time></trkpt><trkpt lat="42.2061733" lon="14.5542617"><ele>29.142857142857146</ele><time>2026-05-01T10:32:59.898Z</time></trkpt><trkpt lat="42.2062183" lon="14.5541867"><ele>29.285714285714285</ele><time>2026-05-01T10:33:01.898Z</time></trkpt><trkpt lat="42.2062683" lon="14.55411"><ele>29.42857142857143</ele><time>2026-05-01T10:33:03.899Z</time></trkpt><trkpt lat="42.2063267" lon="14.5540517"><ele>29.571428571428573</ele><time>2026-05-01T10:33:05.899Z</time></trkpt><trkpt lat="42.20639" lon="14.554"><ele>29.714285714285715</ele><time>2026-05-01T10:33:07.899Z</time></trkpt><trkpt lat="42.2064483" lon="14.55394"><ele>29.857142857142858</ele><time>2026-05-01T10:33:09.899Z</time></trkpt><trkpt lat="42.2065" lon="14.55387"><ele>30.0</ele><time>2026-05-01T10:33:11.899Z</time></trkpt><trkpt lat="42.20655" lon="14.553785"><ele>30.166666666666668</ele><time>2026-05-01T10:33:13.899Z</time></trkpt><trkpt lat="42.2066" lon="14.5537017"><ele>30.333333333333336</ele><time>2026-05-01T10:33:15.898Z</time></trkpt><trkpt lat="42.206655" lon="14.5536383"><ele>30.5</ele><time>2026-05-01T10:33:17.899Z</time></trkpt><trkpt lat="42.2067117" lon="14.5535583"><ele>30.666666666666668</ele><time>2026-05-01T10:33:19.898Z</time></trkpt><trkpt lat="42.206775" lon="14.5534783"><ele>30.833333333333336</ele><time>2026-05-01T10:33:21.899Z</time></trkpt><trkpt lat="42.2068333" lon="14.5534033"><ele>31.0</ele><time>2026-05-01T10:33:23.899Z</time></trkpt><trkpt lat="42.2068933" lon="14.553325"><ele>31.000000000000004</ele><time>2026-05-01T10:33:25.899Z</time></trkpt><trkpt lat="42.2069533" lon="14.5532467"><ele>31.0</ele><time>2026-05-01T10:33:27.899Z</time></trkpt><trkpt lat="42.2070167" lon="14.5531867"><ele>31.0</ele><time>2026-05-01T10:33:29.898Z</time></trkpt><trkpt lat="42.207075" lon="14.5531183"><ele>31.0</ele><time>2026-05-01T10:33:31.899Z</time></trkpt><trkpt lat="42.2071283" lon="14.5530433"><ele>31.000000000000004</ele><time>2026-05-01T10:33:33.898Z</time></trkpt><trkpt lat="42.20718" lon="14.5529633"><ele>31.0</ele><time>2026-05-01T10:33:35.899Z</time></trkpt><trkpt lat="42.2072433" lon="14.5528867"><ele>31.000000000000004</ele><time>2026-05-01T10:33:37.899Z</time></trkpt><trkpt lat="42.20729" lon="14.5528233"><ele>31.0</ele><time>2026-05-01T10:33:39.898Z</time></trkpt><trkpt lat="42.2073433" lon="14.55274"><ele>31.0</ele><time>2026-05-01T10:33:43.899Z</time></trkpt><trkpt lat="42.207425" lon="14.5526767"><ele>31.0</ele><time>2026-05-01T10:33:46.899Z</time></trkpt><trkpt lat="42.2074833" lon="14.55262"><ele>31.000000000000004</ele><time>2026-05-01T10:33:48.899Z</time></trkpt><trkpt lat="42.2075467" lon="14.5525433"><ele>31.0</ele><time>2026-05-01T10:33:50.898Z</time></trkpt><trkpt lat="42.2076083" lon="14.5524617"><ele>31.000000000000004</ele><time>2026-05-01T10:33:52.899Z</time></trkpt><trkpt lat="42.2076633" lon="14.5523783"><ele>31.0</ele><time>2026-05-01T10:33:54.898Z</time></trkpt><trkpt lat="42.2077233" lon="14.5522983"><ele>31.0</ele><time>2026-05-01T10:33:56.898Z</time></trkpt><trkpt lat="42.207785" lon="14.552215"><ele>31.0</ele><time>2026-05-01T10:33:58.898Z</time></trkpt><trkpt lat="42.2078467" lon="14.55214"><ele>31.000000000000004</ele><time>2026-05-01T10:34:00.899Z</time></trkpt><trkpt lat="42.2079083" lon="14.5520567"><ele>31.0</ele><time>2026-05-01T10:34:02.899Z</time></trkpt><trkpt lat="42.2079583" lon="14.5519833"><ele>31.000000000000004</ele><time>2026-05-01T10:34:04.899Z</time></trkpt><trkpt lat="42.20801" lon="14.5518983"><ele>31.0</ele><time>2026-05-01T10:34:06.899Z</time></trkpt><trkpt lat="42.2080617" lon="14.5518067"><ele>31.0</ele><time>2026-05-01T10:34:08.899Z</time></trkpt><trkpt lat="42.20811" lon="14.5517217"><ele>31.0</ele><time>2026-05-01T10:34:10.898Z</time></trkpt><trkpt lat="42.2081633" lon="14.5516383"><ele>31.000000000000004</ele><time>2026-05-01T10:34:12.899Z</time></trkpt><trkpt lat="42.2082217" lon="14.5515483"><ele>31.0</ele><time>2026-05-01T10:34:14.899Z</time></trkpt><trkpt lat="42.208275" lon="14.551465"><ele>31.000000000000004</ele><time>2026-05-01T10:34:16.899Z</time></trkpt><trkpt lat="42.20833" lon="14.55138"><ele>31.0</ele><time>2026-05-01T10:34:18.899Z</time></trkpt><trkpt lat="42.2083867" lon="14.551295"><ele>31.0</ele><time>2026-05-01T10:34:20.899Z</time></trkpt><trkpt lat="42.208445" lon="14.55121"><ele>31.0</ele><time>2026-05-01T10:34:22.898Z</time></trkpt><trkpt lat="42.2084983" lon="14.55113"><ele>31.000000000000004</ele><time>2026-05-01T10:34:24.899Z</time></trkpt><trkpt lat="42.2085567" lon="14.55105"><ele>31.0</ele><time>2026-05-01T10:34:26.899Z</time></trkpt><trkpt lat="42.2086183" lon="14.550965"><ele>31.000000000000004</ele><time>2026-05-01T10:34:28.898Z</time></trkpt><trkpt lat="42.20868" lon="14.5508783"><ele>31.0</ele><time>2026-05-01T10:34:30.899Z</time></trkpt><trkpt lat="42.2087383" lon="14.5507917"><ele>31.0</ele><time>2026-05-01T10:34:32.899Z</time></trkpt><trkpt lat="42.2087867" lon="14.5507167"><ele>31.0</ele><time>2026-05-01T10:34:34.898Z</time></trkpt><trkpt lat="42.20884" lon="14.5506333"><ele>31.000000000000004</ele><time>2026-05-01T10:34:36.898Z</time></trkpt><trkpt lat="42.2088917" lon="14.5505433"><ele>31.0</ele><time>2026-05-01T10:34:38.899Z</time></trkpt><trkpt lat="42.2089533" lon="14.5504633"><ele>31.500000000000004</ele><time>2026-05-01T10:34:40.898Z</time></trkpt><trkpt lat="42.209005" lon="14.5503833"><ele>32.0</ele><time>2026-05-01T10:34:42.898Z</time></trkpt><trkpt lat="42.2090583" lon="14.5503"><ele>32.5</ele><time>2026-05-01T10:34:44.899Z</time></trkpt><trkpt lat="42.2091117" lon="14.5502167"><ele>33.0</ele><time>2026-05-01T10:34:46.899Z</time></trkpt><trkpt lat="42.2091667" lon="14.550135"><ele>33.5</ele><time>2026-05-01T10:34:48.899Z</time></trkpt><trkpt lat="42.209225" lon="14.5500667"><ele>34.0</ele><time>2026-05-01T10:34:50.899Z</time></trkpt><trkpt lat="42.2092817" lon="14.55"><ele>34.0</ele><time>2026-05-01T10:34:52.898Z</time></trkpt><trkpt lat="42.2093433" lon="14.5499333"><ele>34.0</ele><time>2026-05-01T10:34:54.899Z</time></trkpt><trkpt lat="42.2094117" lon="14.5498933"><ele>34.0</ele><time>2026-05-01T10:34:56.899Z</time></trkpt><trkpt lat="42.209485" lon="14.5498967"><ele>34.0</ele><time>2026-05-01T10:34:58.898Z</time></trkpt><trkpt lat="42.209565" lon="14.5498983"><ele>34.0</ele><time>2026-05-01T10:35:00.898Z</time></trkpt><trkpt lat="42.2096467" lon="14.5499083"><ele>34.0</ele><time>2026-05-01T10:35:02.899Z</time></trkpt><trkpt lat="42.2097283" lon="14.5499183"><ele>33.99999999999999</ele><time>2026-05-01T10:35:04.9Z</time></trkpt><trkpt lat="42.2098067" lon="14.5499383"><ele>34.0</ele><time>2026-05-01T10:35:06.899Z</time></trkpt><trkpt lat="42.2098767" lon="14.54996"><ele>34.0</ele><time>2026-05-01T10:35:08.9Z</time></trkpt><trkpt lat="42.20995" lon="14.5499667"><ele>34.0</ele><time>2026-05-01T10:35:11.9Z</time></trkpt><trkpt lat="42.2100267" lon="14.549985"><ele>34.0</ele><time>2026-05-01T10:35:15.899Z</time></trkpt><trkpt lat="42.2100967" lon="14.5500033"><ele>33.99999999999999</ele><time>2026-05-01T10:35:17.9Z</time></trkpt><trkpt lat="42.210165" lon="14.5500233"><ele>34.0</ele><time>2026-05-01T10:35:19.899Z</time></trkpt><trkpt lat="42.2102383" lon="14.5500483"><ele>34.99999999999999</ele><time>2026-05-01T10:35:21.9Z</time></trkpt><trkpt lat="42.2103117" lon="14.5500733"><ele>36.0</ele><time>2026-05-01T10:35:23.9Z</time></trkpt><trkpt lat="42.2103783" lon="14.5500967"><ele>37.0</ele><time>2026-05-01T10:35:25.899Z</time></trkpt><trkpt lat="42.2104417" lon="14.55011"><ele>38.0</ele><time>2026-05-01T10:35:27.9Z</time></trkpt><trkpt lat="42.2105083" lon="14.55013"><ele>39.0</ele><time>2026-05-01T10:35:29.9Z</time></trkpt><trkpt lat="42.2105783" lon="14.5501533"><ele>39.99999999999999</ele><time>2026-05-01T10:35:31.9Z</time></trkpt><trkpt lat="42.2106483" lon="14.5501783"><ele>41.0</ele><time>2026-05-01T10:35:33.9Z</time></trkpt><trkpt lat="42.2107233" lon="14.550195"><ele>41.71428571428571</ele><time>2026-05-01T10:35:35.899Z</time></trkpt><trkpt lat="42.210795" lon="14.55022"><ele>42.42857142857143</ele><time>2026-05-01T10:35:37.9Z</time></trkpt><trkpt lat="42.2108633" lon="14.5502333"><ele>43.14285714285714</ele><time>2026-05-01T10:35:39.9Z</time></trkpt><trkpt lat="42.2109383" lon="14.5502333"><ele>43.857142857142854</ele><time>2026-05-01T10:35:41.9Z</time></trkpt><trkpt lat="42.2110083" lon="14.550235"><ele>44.57142857142857</ele><time>2026-05-01T10:35:43.9Z</time></trkpt><trkpt lat="42.2110733" lon="14.5502467"><ele>45.285714285714285</ele><time>2026-05-01T10:35:45.899Z</time></trkpt><trkpt lat="42.2111533" lon="14.5502667"><ele>46.0</ele><time>2026-05-01T10:35:48.9Z</time></trkpt><trkpt lat="42.21124" lon="14.5502867"><ele>46.0</ele><time>2026-05-01T10:35:51.9Z</time></trkpt><trkpt lat="42.2113267" lon="14.5502983"><ele>46.0</ele><time>2026-05-01T10:35:54.899Z</time></trkpt><trkpt lat="42.211415" lon="14.5502983"><ele>46.0</ele><time>2026-05-01T10:35:57.9Z</time></trkpt><trkpt lat="42.2114983" lon="14.5502967"><ele>46.0</ele><time>2026-05-01T10:36:00.9Z</time></trkpt><trkpt lat="42.211585" lon="14.5503"><ele>46.0</ele><time>2026-05-01T10:36:03.9Z</time></trkpt><trkpt lat="42.21166" lon="14.550315"><ele>46.0</ele><time>2026-05-01T10:36:06.899Z</time></trkpt><trkpt lat="42.211735" lon="14.55032"><ele>47.285714285714285</ele><time>2026-05-01T10:36:09.9Z</time></trkpt><trkpt lat="42.2118083" lon="14.550305"><ele>48.57142857142857</ele><time>2026-05-01T10:36:13.9Z</time></trkpt><trkpt lat="42.2118933" lon="14.5503183"><ele>49.857142857142854</ele><time>2026-05-01T10:36:17.9Z</time></trkpt><trkpt lat="42.211955" lon="14.5503383"><ele>51.14285714285714</ele><time>2026-05-01T10:36:20.9Z</time></trkpt><trkpt lat="42.2120167" lon="14.5503567"><ele>52.42857142857143</ele><time>2026-05-01T10:36:23.9Z</time></trkpt><trkpt lat="42.2120767" lon="14.5503933"><ele>53.71428571428571</ele><time>2026-05-01T10:36:26.9Z</time></trkpt><trkpt lat="42.2121217" lon="14.5504633"><ele>55.0</ele><time>2026-05-01T10:36:30.9Z</time></trkpt><trkpt lat="42.2121567" lon="14.55056"><ele>55.71428571428571</ele><time>2026-05-01T10:36:34.9Z</time></trkpt><trkpt lat="42.2121933" lon="14.5506433"><ele>56.42857142857143</ele><time>2026-05-01T10:36:38.9Z</time></trkpt><trkpt lat="42.21222" lon="14.550725"><ele>57.14285714285714</ele><time>2026-05-01T10:36:41.899Z</time></trkpt><trkpt lat="42.2122333" lon="14.5508283"><ele>57.857142857142854</ele><time>2026-05-01T10:36:45.9Z</time></trkpt><trkpt lat="42.2122383" lon="14.5509133"><ele>58.57142857142857</ele><time>2026-05-01T10:36:48.9Z</time></trkpt><trkpt lat="42.212245" lon="14.551005"><ele>59.285714285714285</ele><time>2026-05-01T10:36:51.9Z</time></trkpt><trkpt lat="42.212265" lon="14.5510917"><ele>60.0</ele><time>2026-05-01T10:36:54.9Z</time></trkpt><trkpt lat="42.2122733" lon="14.5511767"><ele>60.28571428571429</ele><time>2026-05-01T10:36:57.899Z</time></trkpt><trkpt lat="42.2123033" lon="14.5512733"><ele>60.57142857142857</ele><time>2026-05-01T10:37:01.899Z</time></trkpt><trkpt lat="42.212325" lon="14.5513817"><ele>60.85714285714286</ele><time>2026-05-01T10:37:05.9Z</time></trkpt><trkpt lat="42.2123483" lon="14.5514617"><ele>61.142857142857146</ele><time>2026-05-01T10:37:08.9Z</time></trkpt><trkpt lat="42.2123817" lon="14.5515483"><ele>61.42857142857143</ele><time>2026-05-01T10:37:11.899Z</time></trkpt><trkpt lat="42.2124183" lon="14.5516383"><ele>61.714285714285715</ele><time>2026-05-01T10:37:14.9Z</time></trkpt><trkpt lat="42.21244" lon="14.5517333"><ele>62.0</ele><time>2026-05-01T10:37:18.9Z</time></trkpt><trkpt lat="42.212465" lon="14.5518183"><ele>64.8</ele><time>2026-05-01T10:37:21.9Z</time></trkpt><trkpt lat="42.2124983" lon="14.551915"><ele>67.6</ele><time>2026-05-01T10:37:24.899Z</time></trkpt><trkpt lat="42.212505" lon="14.55201"><ele>70.39999999999999</ele><time>2026-05-01T10:37:28.899Z</time></trkpt><trkpt lat="42.2124033" lon="14.55208"><ele>73.2</ele><time>2026-05-01T10:38:34.402Z</time></trkpt><trkpt lat="42.212515" lon="14.5521367"><ele>76.0</ele><time>2026-05-01T10:38:35.402Z</time></trkpt><trkpt lat="42.21256" lon="14.5522117"><ele>76.5</ele><time>2026-05-01T10:38:36.401Z</time></trkpt><trkpt lat="42.2125267" lon="14.5523067"><ele>77.0</ele><time>2026-05-01T10:39:14.902Z</time></trkpt><trkpt lat="42.2124967" lon="14.552415"><ele>77.5</ele><time>2026-05-01T10:39:18.902Z</time></trkpt><trkpt lat="42.21247" lon="14.552495"><ele>78.0</ele><time>2026-05-01T10:39:21.902Z</time></trkpt><trkpt lat="42.2124467" lon="14.5525767"><ele>78.5</ele><time>2026-05-01T10:39:24.901Z</time></trkpt><trkpt lat="42.2124" lon="14.55266"><ele>79.0</ele><time>2026-05-01T10:39:28.901Z</time></trkpt><trkpt lat="42.2123633" lon="14.5527567"><ele>79.00000000000001</ele><time>2026-05-01T10:39:32.902Z</time></trkpt><trkpt lat="42.2123317" lon="14.5528633"><ele>79.0</ele><time>2026-05-01T10:39:36.902Z</time></trkpt><trkpt lat="42.212305" lon="14.5529633"><ele>79.0</ele><time>2026-05-01T10:39:39.902Z</time></trkpt><trkpt lat="42.2122733" lon="14.5530433"><ele>79.0</ele><time>2026-05-01T10:39:42.902Z</time></trkpt><trkpt lat="42.21225" lon="14.553125"><ele>79.0</ele><time>2026-05-01T10:39:45.902Z</time></trkpt><trkpt lat="42.2122217" lon="14.5532233"><ele>79.00000000000001</ele><time>2026-05-01T10:39:49.902Z</time></trkpt><trkpt lat="42.212205" lon="14.5533217"><ele>79.0</ele><time>2026-05-01T10:39:53.902Z</time></trkpt><trkpt lat="42.2122567" lon="14.5533817"><ele>79.85714285714286</ele><time>2026-05-01T10:39:56.902Z</time></trkpt><trkpt lat="42.2123267" lon="14.55341"><ele>80.71428571428572</ele><time>2026-05-01T10:39:59.902Z</time></trkpt><trkpt lat="42.2123917" lon="14.5534517"><ele>81.57142857142858</ele><time>2026-05-01T10:40:02.902Z</time></trkpt><trkpt lat="42.2124533" lon="14.5534833"><ele>82.42857142857143</ele><time>2026-05-01T10:40:05.902Z</time></trkpt><trkpt lat="42.2125217" lon="14.5535233"><ele>83.28571428571428</ele><time>2026-05-01T10:40:09.901Z</time></trkpt><trkpt lat="42.2125867" lon="14.5535483"><ele>84.14285714285715</ele><time>2026-05-01T10:40:13.901Z</time></trkpt><trkpt lat="42.2126617" lon="14.5535717"><ele>85.0</ele><time>2026-05-01T10:40:18.902Z</time></trkpt><trkpt lat="42.2127283" lon="14.553605"><ele>85.0</ele><time>2026-05-01T10:40:22.901Z</time></trkpt><trkpt lat="42.2128" lon="14.5536517"><ele>85.0</ele><time>2026-05-01T10:40:27.902Z</time></trkpt><trkpt lat="42.21287" lon="14.5536783"><ele>85.0</ele><time>2026-05-01T10:40:31.902Z</time></trkpt><trkpt lat="42.2129417" lon="14.553705"><ele>85.0</ele><time>2026-05-01T10:40:35.902Z</time></trkpt><trkpt lat="42.213" lon="14.55374"><ele>85.0</ele><time>2026-05-01T10:40:38.901Z</time></trkpt><trkpt lat="42.2130617" lon="14.5537783"><ele>85.0</ele><time>2026-05-01T10:40:41.902Z</time></trkpt><trkpt lat="42.213135" lon="14.5538283"><ele>85.0</ele><time>2026-05-01T10:40:44.901Z</time></trkpt><trkpt lat="42.2132067" lon="14.5538817"><ele>86.66666666666666</ele><time>2026-05-01T10:40:56.902Z</time></trkpt><trkpt lat="42.213275" lon="14.553935"><ele>88.33333333333333</ele><time>2026-05-01T10:40:59.901Z</time></trkpt><trkpt lat="42.21335" lon="14.5539833"><ele>90.0</ele><time>2026-05-01T10:41:03.902Z</time></trkpt><trkpt lat="42.213425" lon="14.5540367"><ele>91.66666666666667</ele><time>2026-05-01T10:41:06.902Z</time></trkpt><trkpt lat="42.2134817" lon="14.5540817"><ele>93.33333333333334</ele><time>2026-05-01T10:41:08.902Z</time></trkpt><trkpt lat="42.213545" lon="14.5541333"><ele>95.0</ele><time>2026-05-01T10:41:10.902Z</time></trkpt><trkpt lat="42.2136133" lon="14.5541867"><ele>95.0</ele><time>2026-05-01T10:41:12.902Z</time></trkpt><trkpt lat="42.2136917" lon="14.55425"><ele>95.0</ele><time>2026-05-01T10:41:14.901Z</time></trkpt><trkpt lat="42.2137783" lon="14.554315"><ele>95.0</ele><time>2026-05-01T10:41:16.901Z</time></trkpt><trkpt lat="42.213865" lon="14.5543733"><ele>95.0</ele><time>2026-05-01T10:41:18.902Z</time></trkpt><trkpt lat="42.2139517" lon="14.5544367"><ele>95.0</ele><time>2026-05-01T10:41:20.902Z</time></trkpt><trkpt lat="42.214035" lon="14.5545033"><ele>93.8</ele><time>2026-05-01T10:41:22.902Z</time></trkpt><trkpt lat="42.2141183" lon="14.554575"><ele>92.6</ele><time>2026-05-01T10:41:24.901Z</time></trkpt><trkpt lat="42.214205" lon="14.5546467"><ele>91.4</ele><time>2026-05-01T10:41:26.902Z</time></trkpt><trkpt lat="42.2142983" lon="14.5547217"><ele>90.2</ele><time>2026-05-01T10:41:28.902Z</time></trkpt><trkpt lat="42.2143933" lon="14.554795"><ele>89.0</ele><time>2026-05-01T10:41:30.901Z</time></trkpt><trkpt lat="42.21448" lon="14.5548617"><ele>88.99999999999999</ele><time>2026-05-01T10:41:32.901Z</time></trkpt><trkpt lat="42.2145567" lon="14.5549183"><ele>89.0</ele><time>2026-05-01T10:41:34.901Z</time></trkpt><trkpt lat="42.2146183" lon="14.554965"><ele>89.0</ele><time>2026-05-01T10:41:36.902Z</time></trkpt><trkpt lat="42.2146867" lon="14.5550317"><ele>89.0</ele><time>2026-05-01T10:41:39.902Z</time></trkpt><trkpt lat="42.2147333" lon="14.55509"><ele>89.0</ele><time>2026-05-01T10:41:41.902Z</time></trkpt><trkpt lat="42.2147833" lon="14.555145"><ele>88.99999999999999</ele><time>2026-05-01T10:41:43.902Z</time></trkpt><trkpt lat="42.2148333" lon="14.5552017"><ele>89.0</ele><time>2026-05-01T10:41:45.902Z</time></trkpt><trkpt lat="42.214885" lon="14.5552533"><ele>89.66666666666667</ele><time>2026-05-01T10:41:47.902Z</time></trkpt><trkpt lat="42.21496" lon="14.5553217"><ele>90.33333333333334</ele><time>2026-05-01T10:41:50.902Z</time></trkpt><trkpt lat="42.215035" lon="14.5553733"><ele>91.0</ele><time>2026-05-01T10:41:53.902Z</time></trkpt><trkpt lat="42.215105" lon="14.55543"><ele>91.66666666666667</ele><time>2026-05-01T10:41:56.902Z</time></trkpt><trkpt lat="42.2151667" lon="14.5554883"><ele>92.33333333333333</ele><time>2026-05-01T10:41:59.902Z</time></trkpt><trkpt lat="42.2152317" lon="14.5555433"><ele>93.0</ele><time>2026-05-01T10:42:02.902Z</time></trkpt><trkpt lat="42.2153033" lon="14.55561"><ele>93.33333333333333</ele><time>2026-05-01T10:42:05.901Z</time></trkpt><trkpt lat="42.2153767" lon="14.5556667"><ele>93.66666666666667</ele><time>2026-05-01T10:42:08.902Z</time></trkpt><trkpt lat="42.2154533" lon="14.5557233"><ele>94.0</ele><time>2026-05-01T10:42:11.901Z</time></trkpt><trkpt lat="42.2155167" lon="14.5557867"><ele>94.33333333333334</ele><time>2026-05-01T10:42:14.902Z</time></trkpt><trkpt lat="42.2155867" lon="14.5558433"><ele>94.66666666666667</ele><time>2026-05-01T10:42:17.902Z</time></trkpt><trkpt lat="42.215655" lon="14.5559"><ele>95.0</ele><time>2026-05-01T10:42:20.901Z</time></trkpt><trkpt lat="42.21573" lon="14.5559567"><ele>95.42857142857143</ele><time>2026-05-01T10:42:23.902Z</time></trkpt><trkpt lat="42.2157817" lon="14.5560067"><ele>95.85714285714286</ele><time>2026-05-01T10:42:25.901Z</time></trkpt><trkpt lat="42.215835" lon="14.556055"><ele>96.28571428571428</ele><time>2026-05-01T10:42:27.901Z</time></trkpt><trkpt lat="42.2158933" lon="14.556095"><ele>96.71428571428572</ele><time>2026-05-01T10:42:29.902Z</time></trkpt><trkpt lat="42.2159717" lon="14.556155"><ele>97.14285714285714</ele><time>2026-05-01T10:42:32.902Z</time></trkpt><trkpt lat="42.21604" lon="14.5562267"><ele>97.57142857142857</ele><time>2026-05-01T10:42:35.901Z</time></trkpt><trkpt lat="42.2160933" lon="14.556285"><ele>98.0</ele><time>2026-05-01T10:42:37.902Z</time></trkpt><trkpt lat="42.21615" lon="14.55634"><ele>97.99999999999999</ele><time>2026-05-01T10:42:39.902Z</time></trkpt><trkpt lat="42.2162133" lon="14.5563967"><ele>98.0</ele><time>2026-05-01T10:42:41.902Z</time></trkpt><trkpt lat="42.2162783" lon="14.55645"><ele>98.0</ele><time>2026-05-01T10:42:43.902Z</time></trkpt><trkpt lat="42.2163383" lon="14.556515"><ele>98.0</ele><time>2026-05-01T10:42:45.902Z</time></trkpt><trkpt lat="42.2164" lon="14.5565817"><ele>97.99999999999999</ele><time>2026-05-01T10:42:47.902Z</time></trkpt><trkpt lat="42.2164683" lon="14.55664"><ele>98.0</ele><time>2026-05-01T10:42:49.901Z</time></trkpt><trkpt lat="42.2165433" lon="14.5567033"><ele>98.0</ele><time>2026-05-01T10:42:51.901Z</time></trkpt><trkpt lat="42.216625" lon="14.556775"><ele>98.0</ele><time>2026-05-01T10:42:53.902Z</time></trkpt><trkpt lat="42.2167083" lon="14.5568467"><ele>98.0</ele><time>2026-05-01T10:42:55.902Z</time></trkpt><trkpt lat="42.2167917" lon="14.55692"><ele>98.0</ele><time>2026-05-01T10:42:57.902Z</time></trkpt><trkpt lat="42.2168767" lon="14.5569883"><ele>98.0</ele><time>2026-05-01T10:42:59.902Z</time></trkpt><trkpt lat="42.216955" lon="14.5570517"><ele>97.83333333333333</ele><time>2026-05-01T10:43:01.902Z</time></trkpt><trkpt lat="42.2170317" lon="14.557115"><ele>97.66666666666666</ele><time>2026-05-01T10:43:03.901Z</time></trkpt><trkpt lat="42.217105" lon="14.55718"><ele>97.5</ele><time>2026-05-01T10:43:05.902Z</time></trkpt><trkpt lat="42.2171767" lon="14.5572433"><ele>97.33333333333334</ele><time>2026-05-01T10:43:07.902Z</time></trkpt><trkpt lat="42.2172467" lon="14.5572983"><ele>97.16666666666667</ele><time>2026-05-01T10:43:09.902Z</time></trkpt><trkpt lat="42.217325" lon="14.557355"><ele>97.0</ele><time>2026-05-01T10:43:11.902Z</time></trkpt><trkpt lat="42.21741" lon="14.5574367"><ele>96.83333333333334</ele><time>2026-05-01T10:43:13.902Z</time></trkpt><trkpt lat="42.2175017" lon="14.5575233"><ele>96.66666666666667</ele><time>2026-05-01T10:43:15.902Z</time></trkpt><trkpt lat="42.2175567" lon="14.557565"><ele>96.5</ele><time>2026-05-01T10:43:16.902Z</time></trkpt><trkpt lat="42.21763" lon="14.5576117"><ele>96.33333333333334</ele><time>2026-05-01T10:43:17.902Z</time></trkpt><trkpt lat="42.2177033" lon="14.55767"><ele>96.16666666666667</ele><time>2026-05-01T10:43:18.901Z</time></trkpt><trkpt lat="42.2177883" lon="14.5577333"><ele>96.0</ele><time>2026-05-01T10:43:19.902Z</time></trkpt><trkpt lat="42.217875" lon="14.5577983"><ele>95.66666666666667</ele><time>2026-05-01T10:43:20.901Z</time></trkpt><trkpt lat="42.2179533" lon="14.557875"><ele>95.33333333333333</ele><time>2026-05-01T10:43:21.901Z</time></trkpt><trkpt lat="42.2180233" lon="14.55795"><ele>95.0</ele><time>2026-05-01T10:43:22.902Z</time></trkpt><trkpt lat="42.2180783" lon="14.5580117"><ele>94.66666666666666</ele><time>2026-05-01T10:43:23.902Z</time></trkpt><trkpt lat="42.2181533" lon="14.5580817"><ele>94.33333333333333</ele><time>2026-05-01T10:43:25.902Z</time></trkpt><trkpt lat="42.218205" lon="14.5581317"><ele>94.0</ele><time>2026-05-01T10:43:27.902Z</time></trkpt><trkpt lat="42.2182783" lon="14.5582"><ele>94.0</ele><time>2026-05-01T10:43:30.901Z</time></trkpt><trkpt lat="42.218345" lon="14.558255"><ele>94.0</ele><time>2026-05-01T10:43:32.902Z</time></trkpt><trkpt lat="42.2184083" lon="14.5583067"><ele>94.0</ele><time>2026-05-01T10:43:34.902Z</time></trkpt><trkpt lat="42.2184783" lon="14.5583667"><ele>94.0</ele><time>2026-05-01T10:43:36.902Z</time></trkpt><trkpt lat="42.2185533" lon="14.55843"><ele>94.0</ele><time>2026-05-01T10:43:39.902Z</time></trkpt><trkpt lat="42.2186383" lon="14.5584917"><ele>94.0</ele><time>2026-05-01T10:43:42.901Z</time></trkpt><trkpt lat="42.2186917" lon="14.5585383"><ele>94.0</ele><time>2026-05-01T10:43:44.901Z</time></trkpt><trkpt lat="42.2187433" lon="14.55859"><ele>94.0</ele><time>2026-05-01T10:43:46.901Z</time></trkpt><trkpt lat="42.2188233" lon="14.5586617"><ele>94.0</ele><time>2026-05-01T10:43:49.902Z</time></trkpt><trkpt lat="42.2188783" lon="14.5587083"><ele>94.0</ele><time>2026-05-01T10:43:51.902Z</time></trkpt><trkpt lat="42.2189283" lon="14.5587617"><ele>94.0</ele><time>2026-05-01T10:43:53.902Z</time></trkpt><trkpt lat="42.2190067" lon="14.558825"><ele>94.0</ele><time>2026-05-01T10:43:56.902Z</time></trkpt><trkpt lat="42.219085" lon="14.5588933"><ele>94.42857142857143</ele><time>2026-05-01T10:43:59.902Z</time></trkpt><trkpt lat="42.2191433" lon="14.5589467"><ele>94.85714285714286</ele><time>2026-05-01T10:44:01.902Z</time></trkpt><trkpt lat="42.219205" lon="14.5589883"><ele>95.28571428571428</ele><time>2026-05-01T10:44:03.902Z</time></trkpt><trkpt lat="42.219265" lon="14.5590367"><ele>95.71428571428572</ele><time>2026-05-01T10:44:05.902Z</time></trkpt><trkpt lat="42.219325" lon="14.559085"><ele>96.14285714285715</ele><time>2026-05-01T10:44:07.902Z</time></trkpt><trkpt lat="42.2193917" lon="14.55914"><ele>96.57142857142857</ele><time>2026-05-01T10:44:09.902Z</time></trkpt><trkpt lat="42.2194517" lon="14.5591867"><ele>97.0</ele><time>2026-05-01T10:44:11.902Z</time></trkpt><trkpt lat="42.21952" lon="14.55924"><ele>97.00000000000001</ele><time>2026-05-01T10:44:13.902Z</time></trkpt><trkpt lat="42.2195833" lon="14.5592933"><ele>97.0</ele><time>2026-05-01T10:44:15.902Z</time></trkpt><trkpt lat="42.21963" lon="14.55936"><ele>97.0</ele><time>2026-05-01T10:44:17.901Z</time></trkpt><trkpt lat="42.2196433" lon="14.5594433"><ele>97.0</ele><time>2026-05-01T10:44:19.902Z</time></trkpt><trkpt lat="42.2195883" lon="14.5595533"><ele>97.00000000000001</ele><time>2026-05-01T10:44:22.902Z</time></trkpt><trkpt lat="42.219525" lon="14.5596217"><ele>97.0</ele><time>2026-05-01T10:44:24.902Z</time></trkpt><trkpt lat="42.2194683" lon="14.5596867"><ele>96.66666666666667</ele><time>2026-05-01T10:44:26.902Z</time></trkpt><trkpt lat="42.2194233" lon="14.5597617"><ele>96.33333333333334</ele><time>2026-05-01T10:44:28.902Z</time></trkpt><trkpt lat="42.2193833" lon="14.559835"><ele>96.0</ele><time>2026-05-01T10:44:30.902Z</time></trkpt><trkpt lat="42.2193317" lon="14.5599083"><ele>95.66666666666667</ele><time>2026-05-01T10:44:32.902Z</time></trkpt><trkpt lat="42.2192867" lon="14.5600017"><ele>95.33333333333334</ele><time>2026-05-01T10:44:34.901Z</time></trkpt><trkpt lat="42.2192533" lon="14.5601067"><ele>95.0</ele><time>2026-05-01T10:44:36.901Z</time></trkpt><trkpt lat="42.2192183" lon="14.5602333"><ele>95.0</ele><time>2026-05-01T10:44:38.902Z</time></trkpt><trkpt lat="42.219185" lon="14.5603533"><ele>95.0</ele><time>2026-05-01T10:44:40.902Z</time></trkpt><trkpt lat="42.2191567" lon="14.5604733"><ele>95.0</ele><time>2026-05-01T10:44:42.902Z</time></trkpt><trkpt lat="42.2191217" lon="14.5606033"><ele>95.0</ele><time>2026-05-01T10:44:44.901Z</time></trkpt><trkpt lat="42.2190833" lon="14.5607333"><ele>95.0</ele><time>2026-05-01T10:44:46.902Z</time></trkpt><trkpt lat="42.2190617" lon="14.5608517"><ele>93.83333333333334</ele><time>2026-05-01T10:44:48.901Z</time></trkpt><trkpt lat="42.21905" lon="14.5609583"><ele>92.66666666666667</ele><time>2026-05-01T10:44:50.901Z</time></trkpt><trkpt lat="42.2190433" lon="14.56108"><ele>91.5</ele><time>2026-05-01T10:44:52.901Z</time></trkpt><trkpt lat="42.219025" lon="14.5611733"><ele>90.33333333333333</ele><time>2026-05-01T10:44:54.902Z</time></trkpt><trkpt lat="42.2189983" lon="14.5612883"><ele>89.16666666666666</ele><time>2026-05-01T10:44:57.902Z</time></trkpt><trkpt lat="42.2189833" lon="14.561385"><ele>88.0</ele><time>2026-05-01T10:44:59.902Z</time></trkpt><trkpt lat="42.218975" lon="14.5614817"><ele>88.0</ele><time>2026-05-01T10:45:01.901Z</time></trkpt><trkpt lat="42.2189617" lon="14.561565"><ele>88.0</ele><time>2026-05-01T10:45:03.901Z</time></trkpt><trkpt lat="42.2189583" lon="14.5616767"><ele>88.0</ele><time>2026-05-01T10:45:05.902Z</time></trkpt><trkpt lat="42.2189533" lon="14.5617967"><ele>88.0</ele><time>2026-05-01T10:45:07.902Z</time></trkpt><trkpt lat="42.2189467" lon="14.561905"><ele>88.0</ele><time>2026-05-01T10:45:09.902Z</time></trkpt><trkpt lat="42.2189567" lon="14.562005"><ele>88.0</ele><time>2026-05-01T10:45:11.901Z</time></trkpt><trkpt lat="42.2190033" lon="14.5620667"><ele>87.0</ele><time>2026-05-01T10:45:13.901Z</time></trkpt><trkpt lat="42.2190683" lon="14.5620717"><ele>86.0</ele><time>2026-05-01T10:45:15.902Z</time></trkpt><trkpt lat="42.219125" lon="14.56203"><ele>85.0</ele><time>2026-05-01T10:45:18.902Z</time></trkpt><trkpt lat="42.219155" lon="14.5619533"><ele>84.0</ele><time>2026-05-01T10:45:21.902Z</time></trkpt><trkpt lat="42.2191917" lon="14.5618617"><ele>83.0</ele><time>2026-05-01T10:45:23.902Z</time></trkpt><trkpt lat="42.219255" lon="14.5617833"><ele>82.0</ele><time>2026-05-01T10:45:25.902Z</time></trkpt><trkpt lat="42.21933" lon="14.56172"><ele>81.0</ele><time>2026-05-01T10:45:27.902Z</time></trkpt><trkpt lat="42.2194033" lon="14.5616933"><ele>81.0</ele><time>2026-05-01T10:45:29.902Z</time></trkpt><trkpt lat="42.2194767" lon="14.5616333"><ele>81.0</ele><time>2026-05-01T10:45:31.901Z</time></trkpt><trkpt lat="42.2195567" lon="14.5615717"><ele>81.0</ele><time>2026-05-01T10:45:33.902Z</time></trkpt><trkpt lat="42.219625" lon="14.5615217"><ele>81.0</ele><time>2026-05-01T10:45:35.902Z</time></trkpt><trkpt lat="42.2196983" lon="14.5614633"><ele>81.0</ele><time>2026-05-01T10:45:38.902Z</time></trkpt><trkpt lat="42.2197783" lon="14.56142"><ele>81.0</ele><time>2026-05-01T10:45:41.902Z</time></trkpt><trkpt lat="42.21984" lon="14.56138"><ele>80.0</ele><time>2026-05-01T10:45:45.901Z</time></trkpt><trkpt lat="42.2199017" lon="14.5612317"><ele>79.0</ele><time>2026-05-01T10:45:55.902Z</time></trkpt><trkpt lat="42.2199517" lon="14.56107"><ele>78.0</ele><time>2026-05-01T10:46:07.902Z</time></trkpt><trkpt lat="42.2200117" lon="14.5609367"><ele>77.0</ele><time>2026-05-01T10:46:23.902Z</time></trkpt><trkpt lat="42.2199183" lon="14.5610283"><ele>77.0</ele><time>2026-05-01T10:47:30.158Z</time></trkpt><trkpt lat="42.2200283" lon="14.5610467"><ele>77.0</ele><time>2026-05-01T10:47:36.899Z</time></trkpt><trkpt lat="42.2201017" lon="14.5610083"><ele>77.0</ele><time>2026-05-01T10:47:46.899Z</time></trkpt><trkpt lat="42.2201667" lon="14.56094"><ele>77.0</ele><time>2026-05-01T10:47:49.899Z</time></trkpt><trkpt lat="42.220245" lon="14.5609"><ele>77.0</ele><time>2026-05-01T10:47:52.898Z</time></trkpt><trkpt lat="42.2203217" lon="14.5608733"><ele>77.0</ele><time>2026-05-01T10:47:54.899Z</time></trkpt><trkpt lat="42.2204" lon="14.5608333"><ele>77.0</ele><time>2026-05-01T10:47:56.899Z</time></trkpt><trkpt lat="42.2204717" lon="14.560775"><ele>77.0</ele><time>2026-05-01T10:47:58.899Z</time></trkpt><trkpt lat="42.2205283" lon="14.5607283"><ele>77.0</ele><time>2026-05-01T10:48:00.898Z</time></trkpt><trkpt lat="42.220595" lon="14.5606833"><ele>77.0</ele><time>2026-05-01T10:48:02.898Z</time></trkpt><trkpt lat="42.220645" lon="14.56063"><ele>77.0</ele><time>2026-05-01T10:48:04.899Z</time></trkpt><trkpt lat="42.220705" lon="14.5605583"><ele>77.0</ele><time>2026-05-01T10:48:07.899Z</time></trkpt><trkpt lat="42.2207567" lon="14.5604733"><ele>76.16666666666667</ele><time>2026-05-01T10:48:09.899Z</time></trkpt><trkpt lat="42.2208083" lon="14.5604"><ele>75.33333333333334</ele><time>2026-05-01T10:48:11.899Z</time></trkpt><trkpt lat="42.2208617" lon="14.56031"><ele>74.5</ele><time>2026-05-01T10:48:13.899Z</time></trkpt><trkpt lat="42.22092" lon="14.56022"><ele>73.66666666666667</ele><time>2026-05-01T10:48:15.899Z</time></trkpt><trkpt lat="42.2209683" lon="14.5601617"><ele>72.83333333333333</ele><time>2026-05-01T10:48:16.899Z</time></trkpt><trkpt lat="42.221045" lon="14.5600933"><ele>72.0</ele><time>2026-05-01T10:48:18.899Z</time></trkpt><trkpt lat="42.2211267" lon="14.56001"><ele>72.0</ele><time>2026-05-01T10:48:20.899Z</time></trkpt><trkpt lat="42.2211917" lon="14.5599333"><ele>72.0</ele><time>2026-05-01T10:48:22.899Z</time></trkpt><trkpt lat="42.22124" lon="14.5598567"><ele>72.0</ele><time>2026-05-01T10:48:24.899Z</time></trkpt><trkpt lat="42.221285" lon="14.5597683"><ele>72.0</ele><time>2026-05-01T10:48:26.899Z</time></trkpt><trkpt lat="42.2213367" lon="14.5596783"><ele>72.0</ele><time>2026-05-01T10:48:28.898Z</time></trkpt><trkpt lat="42.2213817" lon="14.559605"><ele>72.0</ele><time>2026-05-01T10:48:31.899Z</time></trkpt><trkpt lat="42.2214183" lon="14.55953"><ele>71.33333333333333</ele><time>2026-05-01T10:48:34.899Z</time></trkpt><trkpt lat="42.2214683" lon="14.5594283"><ele>70.66666666666667</ele><time>2026-05-01T10:48:37.899Z</time></trkpt><trkpt lat="42.2215083" lon="14.5593283"><ele>70.0</ele><time>2026-05-01T10:48:39.899Z</time></trkpt><trkpt lat="42.2215367" lon="14.5592383"><ele>69.33333333333334</ele><time>2026-05-01T10:48:41.898Z</time></trkpt><trkpt lat="42.221565" lon="14.5591333"><ele>68.66666666666667</ele><time>2026-05-01T10:48:43.898Z</time></trkpt><trkpt lat="42.2216033" lon="14.5590133"><ele>68.0</ele><time>2026-05-01T10:48:45.898Z</time></trkpt><trkpt lat="42.221645" lon="14.5589017"><ele>67.99999999999999</ele><time>2026-05-01T10:48:47.899Z</time></trkpt><trkpt lat="42.2216667" lon="14.5588083"><ele>68.0</ele><time>2026-05-01T10:48:49.899Z</time></trkpt><trkpt lat="42.2216883" lon="14.5586983"><ele>68.0</ele><time>2026-05-01T10:48:51.899Z</time></trkpt><trkpt lat="42.2216983" lon="14.5586"><ele>68.0</ele><time>2026-05-01T10:48:53.899Z</time></trkpt><trkpt lat="42.2217067" lon="14.5585117"><ele>68.0</ele><time>2026-05-01T10:48:55.898Z</time></trkpt><trkpt lat="42.22172" lon="14.5584"><ele>67.99999999999999</ele><time>2026-05-01T10:48:58.899Z</time></trkpt><trkpt lat="42.22174" lon="14.5583133"><ele>68.0</ele><time>2026-05-01T10:49:01.899Z</time></trkpt><trkpt lat="42.2217617" lon="14.5582117"><ele>68.16666666666667</ele><time>2026-05-01T10:49:04.899Z</time></trkpt><trkpt lat="42.221775" lon="14.5581117"><ele>68.33333333333334</ele><time>2026-05-01T10:49:07.899Z</time></trkpt><trkpt lat="42.2217983" lon="14.558015"><ele>68.5</ele><time>2026-05-01T10:49:09.899Z</time></trkpt><trkpt lat="42.2218117" lon="14.5579267"><ele>68.66666666666667</ele><time>2026-05-01T10:49:11.899Z</time></trkpt><trkpt lat="42.221815" lon="14.55784"><ele>68.83333333333333</ele><time>2026-05-01T10:49:13.898Z</time></trkpt><trkpt lat="42.2218217" lon="14.557715"><ele>69.0</ele><time>2026-05-01T10:49:15.899Z</time></trkpt><trkpt lat="42.2218333" lon="14.5575917"><ele>69.5</ele><time>2026-05-01T10:49:17.898Z</time></trkpt><trkpt lat="42.221845" lon="14.5574833"><ele>70.0</ele><time>2026-05-01T10:49:19.899Z</time></trkpt><trkpt lat="42.2218667" lon="14.5573817"><ele>70.5</ele><time>2026-05-01T10:49:21.899Z</time></trkpt><trkpt lat="42.221895" lon="14.5572717"><ele>71.0</ele><time>2026-05-01T10:49:23.899Z</time></trkpt><trkpt lat="42.22193" lon="14.557175"><ele>71.5</ele><time>2026-05-01T10:49:25.899Z</time></trkpt><trkpt lat="42.2219583" lon="14.5570883"><ele>72.0</ele><time>2026-05-01T10:49:27.899Z</time></trkpt><trkpt lat="42.221995" lon="14.5569733"><ele>72.16666666666667</ele><time>2026-05-01T10:49:29.899Z</time></trkpt><trkpt lat="42.2220317" lon="14.5568767"><ele>72.33333333333333</ele><time>2026-05-01T10:49:31.899Z</time></trkpt><trkpt lat="42.222085" lon="14.55678"><ele>72.5</ele><time>2026-05-01T10:49:34.899Z</time></trkpt><trkpt lat="42.22215" lon="14.5567067"><ele>72.66666666666666</ele><time>2026-05-01T10:49:37.899Z</time></trkpt><trkpt lat="42.22223" lon="14.5566433"><ele>72.83333333333333</ele><time>2026-05-01T10:49:40.898Z</time></trkpt><trkpt lat="42.2222883" lon="14.5566017"><ele>73.0</ele><time>2026-05-01T10:49:43.898Z</time></trkpt><trkpt lat="42.2223467" lon="14.5565483"><ele>73.0</ele><time>2026-05-01T10:49:46.899Z</time></trkpt><trkpt lat="42.222415" lon="14.55647"><ele>73.0</ele><time>2026-05-01T10:49:49.898Z</time></trkpt><trkpt lat="42.2224633" lon="14.5563983"><ele>73.0</ele><time>2026-05-01T10:49:51.898Z</time></trkpt><trkpt lat="42.2224967" lon="14.5562933"><ele>73.0</ele><time>2026-05-01T10:49:53.898Z</time></trkpt><trkpt lat="42.2225283" lon="14.55616"><ele>73.0</ele><time>2026-05-01T10:49:55.898Z</time></trkpt><trkpt lat="42.2225517" lon="14.5560383"><ele>73.0</ele><time>2026-05-01T10:49:57.898Z</time></trkpt><trkpt lat="42.2225717" lon="14.5559167"><ele>75.2</ele><time>2026-05-01T10:49:59.899Z</time></trkpt><trkpt lat="42.2226017" lon="14.55582"><ele>77.4</ele><time>2026-05-01T10:50:01.899Z</time></trkpt><trkpt lat="42.22264" lon="14.55568"><ele>79.60000000000001</ele><time>2026-05-01T10:50:03.899Z</time></trkpt><trkpt lat="42.22267" lon="14.5555583"><ele>81.8</ele><time>2026-05-01T10:50:05.898Z</time></trkpt><trkpt lat="42.2226967" lon="14.55545"><ele>84.0</ele><time>2026-05-01T10:50:07.899Z</time></trkpt><trkpt lat="42.222715" lon="14.5553383"><ele>85.0</ele><time>2026-05-01T10:50:09.898Z</time></trkpt><trkpt lat="42.2227367" lon="14.5552433"><ele>86.0</ele><time>2026-05-01T10:50:11.899Z</time></trkpt><trkpt lat="42.2227617" lon="14.5551283"><ele>87.0</ele><time>2026-05-01T10:50:13.899Z</time></trkpt><trkpt lat="42.22279" lon="14.5549867"><ele>88.0</ele><time>2026-05-01T10:50:15.898Z</time></trkpt><trkpt lat="42.2228067" lon="14.5548533"><ele>89.0</ele><time>2026-05-01T10:50:17.899Z</time></trkpt><trkpt lat="42.2228167" lon="14.55471"><ele>89.0</ele><time>2026-05-01T10:50:19.899Z</time></trkpt><trkpt lat="42.222815" lon="14.5545867"><ele>89.0</ele><time>2026-05-01T10:50:21.898Z</time></trkpt><trkpt lat="42.2228167" lon="14.5544367"><ele>89.0</ele><time>2026-05-01T10:50:23.899Z</time></trkpt><trkpt lat="42.222815" lon="14.55429"><ele>89.0</ele><time>2026-05-01T10:50:25.898Z</time></trkpt><trkpt lat="42.222825" lon="14.5541667"><ele>89.0</ele><time>2026-05-01T10:50:27.898Z</time></trkpt><trkpt lat="42.2228483" lon="14.5540283"><ele>90.0</ele><time>2026-05-01T10:50:29.899Z</time></trkpt><trkpt lat="42.22287" lon="14.55387"><ele>91.0</ele><time>2026-05-01T10:50:31.899Z</time></trkpt><trkpt lat="42.222895" lon="14.553725"><ele>92.0</ele><time>2026-05-01T10:50:33.898Z</time></trkpt><trkpt lat="42.2229183" lon="14.55358"><ele>93.0</ele><time>2026-05-01T10:50:35.899Z</time></trkpt><trkpt lat="42.2229417" lon="14.553445"><ele>94.0</ele><time>2026-05-01T10:50:37.898Z</time></trkpt><trkpt lat="42.222955" lon="14.553325"><ele>94.83333333333333</ele><time>2026-05-01T10:50:39.898Z</time></trkpt><trkpt lat="42.22297" lon="14.55322"><ele>95.66666666666666</ele><time>2026-05-01T10:50:41.899Z</time></trkpt><trkpt lat="42.2229967" lon="14.5531167"><ele>96.5</ele><time>2026-05-01T10:50:43.898Z</time></trkpt><trkpt lat="42.2230333" lon="14.5530067"><ele>97.33333333333333</ele><time>2026-05-01T10:50:45.899Z</time></trkpt><trkpt lat="42.2230733" lon="14.552895"><ele>98.16666666666667</ele><time>2026-05-01T10:50:47.899Z</time></trkpt><trkpt lat="42.2231233" lon="14.552785"><ele>99.0</ele><time>2026-05-01T10:50:49.898Z</time></trkpt><trkpt lat="42.2231717" lon="14.552675"><ele>96.4</ele><time>2026-05-01T10:50:51.898Z</time></trkpt><trkpt lat="42.22321" lon="14.5525683"><ele>93.80000000000001</ele><time>2026-05-01T10:50:53.899Z</time></trkpt><trkpt lat="42.2232617" lon="14.5524433"><ele>91.19999999999999</ele><time>2026-05-01T10:50:55.898Z</time></trkpt><trkpt lat="42.2233133" lon="14.5523283"><ele>88.6</ele><time>2026-05-01T10:50:57.899Z</time></trkpt><trkpt lat="42.22338" lon="14.5522283"><ele>86.0</ele><time>2026-05-01T10:50:59.899Z</time></trkpt><trkpt lat="42.2234467" lon="14.5521333"><ele>87.33333333333334</ele><time>2026-05-01T10:51:01.898Z</time></trkpt><trkpt lat="42.22351" lon="14.5520083"><ele>88.66666666666667</ele><time>2026-05-01T10:51:03.898Z</time></trkpt><trkpt lat="42.2235717" lon="14.5519067"><ele>90.0</ele><time>2026-05-01T10:51:05.899Z</time></trkpt><trkpt lat="42.22362" lon="14.5518417"><ele>91.33333333333333</ele><time>2026-05-01T10:51:07.899Z</time></trkpt><trkpt lat="42.223665" lon="14.5517667"><ele>92.66666666666666</ele><time>2026-05-01T10:51:09.899Z</time></trkpt><trkpt lat="42.2237183" lon="14.5516717"><ele>94.0</ele><time>2026-05-01T10:51:11.899Z</time></trkpt><trkpt lat="42.2237783" lon="14.5515333"><ele>94.0</ele><time>2026-05-01T10:51:13.898Z</time></trkpt><trkpt lat="42.22383" lon="14.551425"><ele>94.0</ele><time>2026-05-01T10:51:15.899Z</time></trkpt><trkpt lat="42.2238783" lon="14.551325"><ele>94.0</ele><time>2026-05-01T10:51:17.899Z</time></trkpt><trkpt lat="42.2239133" lon="14.5511967"><ele>94.0</ele><time>2026-05-01T10:51:19.899Z</time></trkpt><trkpt lat="42.22393" lon="14.5510583"><ele>94.0</ele><time>2026-05-01T10:51:21.899Z</time></trkpt><trkpt lat="42.2239317" lon="14.5509417"><ele>95.33333333333333</ele><time>2026-05-01T10:51:23.899Z</time></trkpt><trkpt lat="42.2239433" lon="14.55082"><ele>96.66666666666666</ele><time>2026-05-01T10:51:25.899Z</time></trkpt><trkpt lat="42.2239883" lon="14.5507133"><ele>98.0</ele><time>2026-05-01T10:51:28.899Z</time></trkpt><trkpt lat="42.22406" lon="14.5506567"><ele>99.33333333333333</ele><time>2026-05-01T10:51:31.899Z</time></trkpt><trkpt lat="42.224145" lon="14.5506167"><ele>100.66666666666667</ele><time>2026-05-01T10:51:34.899Z</time></trkpt><trkpt lat="42.2242033" lon="14.5505633"><ele>102.0</ele><time>2026-05-01T10:51:36.899Z</time></trkpt><trkpt lat="42.2242533" lon="14.5504867"><ele>100.0</ele><time>2026-05-01T10:51:38.899Z</time></trkpt><trkpt lat="42.2243" lon="14.5503767"><ele>98.0</ele><time>2026-05-01T10:51:40.899Z</time></trkpt><trkpt lat="42.2243367" lon="14.5502867"><ele>96.0</ele><time>2026-05-01T10:51:42.899Z</time></trkpt><trkpt lat="42.2243867" lon="14.5501983"><ele>94.0</ele><time>2026-05-01T10:51:44.899Z</time></trkpt><trkpt lat="42.224445" lon="14.5500967"><ele>92.0</ele><time>2026-05-01T10:51:46.898Z</time></trkpt><trkpt lat="42.2245017" lon="14.5499883"><ele>90.0</ele><time>2026-05-01T10:51:48.899Z</time></trkpt><trkpt lat="42.2245667" lon="14.5498617"><ele>90.0</ele><time>2026-05-01T10:51:50.899Z</time></trkpt><trkpt lat="42.2246333" lon="14.5497483"><ele>90.0</ele><time>2026-05-01T10:51:52.898Z</time></trkpt><trkpt lat="42.2246917" lon="14.5496267"><ele>90.0</ele><time>2026-05-01T10:51:54.899Z</time></trkpt><trkpt lat="42.2247583" lon="14.5495017"><ele>90.0</ele><time>2026-05-01T10:51:56.899Z</time></trkpt><trkpt lat="42.224825" lon="14.5493717"><ele>90.0</ele><time>2026-05-01T10:51:58.899Z</time></trkpt><trkpt lat="42.2248933" lon="14.5492633"><ele>90.2</ele><time>2026-05-01T10:52:00.898Z</time></trkpt><trkpt lat="42.2249567" lon="14.5491483"><ele>90.4</ele><time>2026-05-01T10:52:02.899Z</time></trkpt><trkpt lat="42.2250083" lon="14.5490217"><ele>90.6</ele><time>2026-05-01T10:52:04.899Z</time></trkpt><trkpt lat="42.2250517" lon="14.5488917"><ele>90.8</ele><time>2026-05-01T10:52:06.898Z</time></trkpt><trkpt lat="42.2251083" lon="14.5487367"><ele>91.0</ele><time>2026-05-01T10:52:08.899Z</time></trkpt><trkpt lat="42.225165" lon="14.5485733"><ele>91.0</ele><time>2026-05-01T10:52:10.898Z</time></trkpt><trkpt lat="42.2252167" lon="14.5484183"><ele>91.0</ele><time>2026-05-01T10:52:12.898Z</time></trkpt><trkpt lat="42.2252417" lon="14.54834"><ele>91.0</ele><time>2026-05-01T10:52:13.899Z</time></trkpt><trkpt lat="42.2252983" lon="14.5482267"><ele>91.0</ele><time>2026-05-01T10:52:15.899Z</time></trkpt><trkpt lat="42.2253533" lon="14.54812"><ele>91.0</ele><time>2026-05-01T10:52:17.898Z</time></trkpt><trkpt lat="42.225415" lon="14.5480083"><ele>91.0</ele><time>2026-05-01T10:52:19.899Z</time></trkpt><trkpt lat="42.2254717" lon="14.5478933"><ele>91.0</ele><time>2026-05-01T10:52:21.898Z</time></trkpt><trkpt lat="42.2255117" lon="14.5477733"><ele>91.0</ele><time>2026-05-01T10:52:23.899Z</time></trkpt><trkpt lat="42.225555" lon="14.5476633"><ele>91.0</ele><time>2026-05-01T10:52:25.899Z</time></trkpt><trkpt lat="42.2255833" lon="14.5475583"><ele>91.0</ele><time>2026-05-01T10:52:27.899Z</time></trkpt><trkpt lat="42.2256183" lon="14.5474417"><ele>90.66666666666666</ele><time>2026-05-01T10:52:30.899Z</time></trkpt><trkpt lat="42.2256683" lon="14.5473517"><ele>90.33333333333333</ele><time>2026-05-01T10:52:33.898Z</time></trkpt><trkpt lat="42.22571" lon="14.5472783"><ele>90.0</ele><time>2026-05-01T10:52:35.898Z</time></trkpt><trkpt lat="42.2257533" lon="14.5472017"><ele>89.66666666666667</ele><time>2026-05-01T10:52:37.899Z</time></trkpt><trkpt lat="42.225795" lon="14.5471167"><ele>89.33333333333334</ele><time>2026-05-01T10:52:39.898Z</time></trkpt><trkpt lat="42.225855" lon="14.5470183"><ele>89.0</ele><time>2026-05-01T10:52:41.899Z</time></trkpt><trkpt lat="42.2259117" lon="14.5469533"><ele>89.0</ele><time>2026-05-01T10:52:43.899Z</time></trkpt><trkpt lat="42.2259767" lon="14.5469267"><ele>89.0</ele><time>2026-05-01T10:52:45.899Z</time></trkpt><trkpt lat="42.2260533" lon="14.546885"><ele>89.0</ele><time>2026-05-01T10:52:47.898Z</time></trkpt><trkpt lat="42.22613" lon="14.5468417"><ele>89.0</ele><time>2026-05-01T10:52:49.899Z</time></trkpt><trkpt lat="42.2262" lon="14.546745"><ele>89.0</ele><time>2026-05-01T10:52:51.898Z</time></trkpt><trkpt lat="42.22627" lon="14.54662"><ele>89.0</ele><time>2026-05-01T10:52:53.899Z</time></trkpt><trkpt lat="42.2263467" lon="14.54649"><ele>89.0</ele><time>2026-05-01T10:52:55.899Z</time></trkpt><trkpt lat="42.226405" lon="14.5463917"><ele>89.0</ele><time>2026-05-01T10:52:57.898Z</time></trkpt><trkpt lat="42.2264433" lon="14.5463083"><ele>89.0</ele><time>2026-05-01T10:52:59.899Z</time></trkpt><trkpt lat="42.2265183" lon="14.5461767"><ele>89.0</ele><time>2026-05-01T10:53:01.899Z</time></trkpt><trkpt lat="42.2265767" lon="14.546035"><ele>87.5</ele><time>2026-05-01T10:53:03.898Z</time></trkpt><trkpt lat="42.2266083" lon="14.5459567"><ele>86.0</ele><time>2026-05-01T10:53:04.899Z</time></trkpt><trkpt lat="42.2266483" lon="14.5458883"><ele>84.5</ele><time>2026-05-01T10:53:05.899Z</time></trkpt><trkpt lat="42.22671" lon="14.545785"><ele>83.0</ele><time>2026-05-01T10:53:07.899Z</time></trkpt><trkpt lat="42.2267617" lon="14.5456933"><ele>81.5</ele><time>2026-05-01T10:53:09.898Z</time></trkpt><trkpt lat="42.2268117" lon="14.5456083"><ele>80.0</ele><time>2026-05-01T10:53:11.899Z</time></trkpt><trkpt lat="42.22687" lon="14.545535"><ele>80.0</ele><time>2026-05-01T10:53:14.899Z</time></trkpt><trkpt lat="42.226915" lon="14.5454333"><ele>80.0</ele><time>2026-05-01T10:53:18.899Z</time></trkpt><trkpt lat="42.2269517" lon="14.5453117"><ele>80.0</ele><time>2026-05-01T10:53:21.898Z</time></trkpt><trkpt lat="42.22698" lon="14.5452317"><ele>80.0</ele><time>2026-05-01T10:53:22.898Z</time></trkpt><trkpt lat="42.2270217" lon="14.5451367"><ele>80.0</ele><time>2026-05-01T10:53:24.899Z</time></trkpt><trkpt lat="42.227065" lon="14.5450533"><ele>80.0</ele><time>2026-05-01T10:53:26.899Z</time></trkpt><trkpt lat="42.2271133" lon="14.5449783"><ele>79.5</ele><time>2026-05-01T10:53:28.899Z</time></trkpt><trkpt lat="42.2271817" lon="14.5448917"><ele>79.0</ele><time>2026-05-01T10:53:30.899Z</time></trkpt><trkpt lat="42.2272217" lon="14.5448233"><ele>78.5</ele><time>2026-05-01T10:53:31.899Z</time></trkpt><trkpt lat="42.2272867" lon="14.544725"><ele>78.0</ele><time>2026-05-01T10:53:33.898Z</time></trkpt><trkpt lat="42.2273583" lon="14.5446533"><ele>77.5</ele><time>2026-05-01T10:53:35.899Z</time></trkpt><trkpt lat="42.2274167" lon="14.5445833"><ele>77.0</ele><time>2026-05-01T10:53:37.899Z</time></trkpt><trkpt lat="42.227475" lon="14.544505"><ele>78.16666666666667</ele><time>2026-05-01T10:53:39.898Z</time></trkpt><trkpt lat="42.22754" lon="14.5444283"><ele>79.33333333333334</ele><time>2026-05-01T10:53:41.899Z</time></trkpt><trkpt lat="42.2275983" lon="14.544375"><ele>80.5</ele><time>2026-05-01T10:53:43.898Z</time></trkpt><trkpt lat="42.2276617" lon="14.5443283"><ele>81.66666666666667</ele><time>2026-05-01T10:53:46.898Z</time></trkpt><trkpt lat="42.2277333" lon="14.5442783"><ele>82.83333333333333</ele><time>2026-05-01T10:53:49.899Z</time></trkpt><trkpt lat="42.2278033" lon="14.5442467"><ele>84.0</ele><time>2026-05-01T10:53:54.899Z</time></trkpt><trkpt lat="42.2278767" lon="14.544235"><ele>84.0</ele><time>2026-05-01T10:53:58.899Z</time></trkpt><trkpt lat="42.2279417" lon="14.5442233"><ele>84.0</ele><time>2026-05-01T10:54:03.898Z</time></trkpt><trkpt lat="42.2279767" lon="14.544305"><ele>84.0</ele><time>2026-05-01T10:54:08.899Z</time></trkpt><trkpt lat="42.2280083" lon="14.5443967"><ele>84.0</ele><time>2026-05-01T10:54:13.898Z</time></trkpt><trkpt lat="42.2280383" lon="14.54448"><ele>84.0</ele><time>2026-05-01T10:54:17.899Z</time></trkpt><trkpt lat="42.2280667" lon="14.5445767"><ele>84.0</ele><time>2026-05-01T10:54:20.898Z</time></trkpt><trkpt lat="42.2281017" lon="14.5446833"><ele>84.0</ele><time>2026-05-01T10:54:23.899Z</time></trkpt><trkpt lat="42.228135" lon="14.54476"><ele>81.71428571428571</ele><time>2026-05-01T10:54:25.899Z</time></trkpt><trkpt lat="42.228175" lon="14.54483"><ele>79.42857142857143</ele><time>2026-05-01T10:54:27.899Z</time></trkpt><trkpt lat="42.2282217" lon="14.5449"><ele>77.14285714285714</ele><time>2026-05-01T10:54:30.899Z</time></trkpt><trkpt lat="42.2282567" lon="14.5449767"><ele>74.85714285714286</ele><time>2026-05-01T10:54:33.899Z</time></trkpt><trkpt lat="42.2283117" lon="14.54508"><ele>72.57142857142857</ele><time>2026-05-01T10:54:35.898Z</time></trkpt><trkpt lat="42.2283583" lon="14.5451517"><ele>70.28571428571428</ele><time>2026-05-01T10:54:37.899Z</time></trkpt><trkpt lat="42.22842" lon="14.54522"><ele>68.0</ele><time>2026-05-01T10:54:40.898Z</time></trkpt><trkpt lat="42.22848" lon="14.54525"><ele>67.99999999999999</ele><time>2026-05-01T10:54:42.899Z</time></trkpt><trkpt lat="42.2285533" lon="14.5452783"><ele>68.0</ele><time>2026-05-01T10:54:44.898Z</time></trkpt><trkpt lat="42.228625" lon="14.545295"><ele>68.0</ele><time>2026-05-01T10:54:46.899Z</time></trkpt><trkpt lat="42.2286883" lon="14.5453033"><ele>68.0</ele><time>2026-05-01T10:54:48.899Z</time></trkpt><trkpt lat="42.2287567" lon="14.54532"><ele>68.0</ele><time>2026-05-01T10:54:51.899Z</time></trkpt><trkpt lat="42.2288167" lon="14.5453867"><ele>67.99999999999999</ele><time>2026-05-01T10:54:55.899Z</time></trkpt><trkpt lat="42.2288717" lon="14.5454317"><ele>68.0</ele><time>2026-05-01T10:54:58.898Z</time></trkpt><trkpt lat="42.228915" lon="14.545505"><ele>64.83333333333334</ele><time>2026-05-01T10:55:01.899Z</time></trkpt><trkpt lat="42.228995" lon="14.5455617"><ele>61.66666666666667</ele><time>2026-05-01T10:55:05.898Z</time></trkpt><trkpt lat="42.2290783" lon="14.5456033"><ele>58.5</ele><time>2026-05-01T10:55:08.898Z</time></trkpt><trkpt lat="42.2291383" lon="14.545645"><ele>55.33333333333333</ele><time>2026-05-01T10:55:10.898Z</time></trkpt><trkpt lat="42.2292117" lon="14.54571"><ele>52.166666666666664</ele><time>2026-05-01T10:55:13.899Z</time></trkpt><trkpt lat="42.2292417" lon="14.5457883"><ele>49.0</ele><time>2026-05-01T10:55:16.898Z</time></trkpt><trkpt lat="42.2292617" lon="14.5458817"><ele>49.0</ele><time>2026-05-01T10:55:20.899Z</time></trkpt><trkpt lat="42.2292467" lon="14.545975"><ele>49.0</ele><time>2026-05-01T10:55:24.899Z</time></trkpt><trkpt lat="42.2292233" lon="14.54606"><ele>49.0</ele><time>2026-05-01T10:55:27.898Z</time></trkpt><trkpt lat="42.2292" lon="14.5461417"><ele>49.0</ele><time>2026-05-01T10:55:31.898Z</time></trkpt><trkpt lat="42.22915" lon="14.546235"><ele>49.0</ele><time>2026-05-01T10:55:35.899Z</time></trkpt><trkpt lat="42.2291" lon="14.5463133"><ele>49.0</ele><time>2026-05-01T10:55:37.899Z</time></trkpt><trkpt lat="42.229055" lon="14.5463817"><ele>49.0</ele><time>2026-05-01T10:55:39.899Z</time></trkpt><trkpt lat="42.228995" lon="14.5464683"><ele>49.49999999999999</ele><time>2026-05-01T10:55:42.898Z</time></trkpt><trkpt lat="42.22895" lon="14.546545"><ele>50.0</ele><time>2026-05-01T10:55:45.899Z</time></trkpt><trkpt lat="42.22891" lon="14.5466117"><ele>50.5</ele><time>2026-05-01T10:55:47.898Z</time></trkpt><trkpt lat="42.22887" lon="14.5467033"><ele>51.0</ele><time>2026-05-01T10:55:49.898Z</time></trkpt><trkpt lat="42.22884" lon="14.54678"><ele>51.49999999999999</ele><time>2026-05-01T10:55:51.899Z</time></trkpt><trkpt lat="42.228815" lon="14.5469033"><ele>52.0</ele><time>2026-05-01T10:55:53.898Z</time></trkpt><trkpt lat="42.2287883" lon="14.5470183"><ele>51.166666666666664</ele><time>2026-05-01T10:55:55.898Z</time></trkpt><trkpt lat="42.2287467" lon="14.5470883"><ele>50.33333333333333</ele><time>2026-05-01T10:55:57.899Z</time></trkpt><trkpt lat="42.2286933" lon="14.5472"><ele>49.5</ele><time>2026-05-01T10:56:00.898Z</time></trkpt><trkpt lat="42.2286617" lon="14.5472817"><ele>48.666666666666664</ele><time>2026-05-01T10:56:02.899Z</time></trkpt><trkpt lat="42.228625" lon="14.547395"><ele>47.83333333333333</ele><time>2026-05-01T10:56:05.899Z</time></trkpt><trkpt lat="42.2285933" lon="14.547485"><ele>47.0</ele><time>2026-05-01T10:56:08.899Z</time></trkpt><trkpt lat="42.2285533" lon="14.5475683"><ele>47.0</ele><time>2026-05-01T10:56:11.899Z</time></trkpt><trkpt lat="42.228525" lon="14.547645"><ele>47.0</ele><time>2026-05-01T10:56:16.899Z</time></trkpt><trkpt lat="42.2285217" lon="14.5478583"><ele>47.0</ele><time>2026-05-01T10:56:31.899Z</time></trkpt><trkpt lat="42.2285967" lon="14.547905"><ele>47.0</ele><time>2026-05-01T10:56:45.899Z</time></trkpt><trkpt lat="42.228645" lon="14.5478117"><ele>47.0</ele><time>2026-05-01T10:56:51.899Z</time></trkpt><trkpt lat="42.2286483" lon="14.5477"><ele>47.0</ele><time>2026-05-01T10:56:55.899Z</time></trkpt><trkpt lat="42.22863" lon="14.5476133"><ele>47.0</ele><time>2026-05-01T10:56:58.898Z</time></trkpt><trkpt lat="42.228605" lon="14.5475233"><ele>47.0</ele><time>2026-05-01T10:57:01.899Z</time></trkpt><trkpt lat="42.2285833" lon="14.54743"><ele>47.0</ele><time>2026-05-01T10:57:06.899Z</time></trkpt><trkpt lat="42.2285267" lon="14.54738"><ele>47.0</ele><time>2026-05-01T10:57:13.899Z</time></trkpt><trkpt lat="42.2284233" lon="14.5473217"><ele>47.0</ele><time>2026-05-01T10:57:29.899Z</time></trkpt><trkpt lat="42.2284167" lon="14.5474217"><ele>47.0</ele><time>2026-05-01T10:57:46.899Z</time></trkpt><trkpt lat="42.2284683" lon="14.5475017"><ele>47.0</ele><time>2026-05-01T10:57:50.899Z</time></trkpt><trkpt lat="42.2285183" lon="14.5475617"><ele>47.0</ele><time>2026-05-01T10:57:54.898Z</time></trkpt><trkpt lat="42.2285117" lon="14.5476483"><ele>47.0</ele><time>2026-05-01T10:58:02.898Z</time></trkpt><trkpt lat="42.2284733" lon="14.5477183"><ele>47.0</ele><time>2026-05-01T10:58:05.899Z</time></trkpt><trkpt lat="42.22844" lon="14.547795"><ele>47.0</ele><time>2026-05-01T10:58:08.899Z</time></trkpt><trkpt lat="42.2283983" lon="14.5478733"><ele>47.0</ele><time>2026-05-01T10:58:11.899Z</time></trkpt><trkpt lat="42.228355" lon="14.547965"><ele>46.166666666666664</ele><time>2026-05-01T10:58:13.898Z</time></trkpt><trkpt lat="42.228315" lon="14.54805"><ele>45.33333333333333</ele><time>2026-05-01T10:58:15.899Z</time></trkpt><trkpt lat="42.2282867" lon="14.5481467"><ele>44.5</ele><time>2026-05-01T10:58:17.898Z</time></trkpt><trkpt lat="42.2282617" lon="14.5482633"><ele>43.666666666666664</ele><time>2026-05-01T10:58:19.898Z</time></trkpt><trkpt lat="42.228225" lon="14.5483533"><ele>42.833333333333336</ele><time>2026-05-01T10:58:21.899Z</time></trkpt><trkpt lat="42.2281867" lon="14.5484533"><ele>42.0</ele><time>2026-05-01T10:58:24.899Z</time></trkpt><trkpt lat="42.2281467" lon="14.5485467"><ele>43.5</ele><time>2026-05-01T10:58:28.899Z</time></trkpt><trkpt lat="42.22811" lon="14.54866"><ele>45.0</ele><time>2026-05-01T10:58:31.899Z</time></trkpt><trkpt lat="42.2280733" lon="14.5487433"><ele>46.5</ele><time>2026-05-01T10:58:33.899Z</time></trkpt><trkpt lat="42.228045" lon="14.5488433"><ele>48.0</ele><time>2026-05-01T10:58:35.899Z</time></trkpt><trkpt lat="42.2280233" lon="14.54894"><ele>49.5</ele><time>2026-05-01T10:58:37.899Z</time></trkpt><trkpt lat="42.2279967" lon="14.5490417"><ele>51.0</ele><time>2026-05-01T10:58:39.899Z</time></trkpt><trkpt lat="42.2279633" lon="14.5491533"><ele>51.0</ele><time>2026-05-01T10:58:41.899Z</time></trkpt><trkpt lat="42.2279183" lon="14.5492833"><ele>51.0</ele><time>2026-05-01T10:58:43.898Z</time></trkpt><trkpt lat="42.2278817" lon="14.54936"><ele>51.0</ele><time>2026-05-01T10:58:45.898Z</time></trkpt><trkpt lat="42.2278267" lon="14.5494667"><ele>51.0</ele><time>2026-05-01T10:58:48.898Z</time></trkpt><trkpt lat="42.227785" lon="14.5495667"><ele>51.0</ele><time>2026-05-01T10:58:51.899Z</time></trkpt><trkpt lat="42.2277667" lon="14.549655"><ele>51.0</ele><time>2026-05-01T10:58:54.899Z</time></trkpt><trkpt lat="42.2277717" lon="14.5497533"><ele>50.666666666666664</ele><time>2026-05-01T10:58:56.898Z</time></trkpt><trkpt lat="42.227775" lon="14.549875"><ele>50.33333333333333</ele><time>2026-05-01T10:58:58.899Z</time></trkpt><trkpt lat="42.2278167" lon="14.5499883"><ele>50.0</ele><time>2026-05-01T10:59:01.899Z</time></trkpt><trkpt lat="42.2278383" lon="14.5501083"><ele>49.666666666666664</ele><time>2026-05-01T10:59:03.899Z</time></trkpt><trkpt lat="42.2278633" lon="14.550225"><ele>49.33333333333333</ele><time>2026-05-01T10:59:05.899Z</time></trkpt><trkpt lat="42.227885" lon="14.5503267"><ele>49.0</ele><time>2026-05-01T10:59:07.898Z</time></trkpt><trkpt lat="42.2278883" lon="14.5504133"><ele>48.42857142857143</ele><time>2026-05-01T10:59:09.899Z</time></trkpt><trkpt lat="42.227885" lon="14.5505067"><ele>47.85714285714286</ele><time>2026-05-01T10:59:12.898Z</time></trkpt><trkpt lat="42.2278717" lon="14.5506083"><ele>47.285714285714285</ele><time>2026-05-01T10:59:16.898Z</time></trkpt><trkpt lat="42.2278533" lon="14.550695"><ele>46.714285714285715</ele><time>2026-05-01T10:59:21.899Z</time></trkpt><trkpt lat="42.2278283" lon="14.550775"><ele>46.142857142857146</ele><time>2026-05-01T10:59:25.898Z</time></trkpt><trkpt lat="42.2277833" lon="14.5508517"><ele>45.57142857142857</ele><time>2026-05-01T10:59:28.898Z</time></trkpt><trkpt lat="42.22776" lon="14.5509317"><ele>45.0</ele><time>2026-05-01T10:59:30.898Z</time></trkpt><trkpt lat="42.2277133" lon="14.551005"><ele>45.0</ele><time>2026-05-01T10:59:33.899Z</time></trkpt><trkpt lat="42.227665" lon="14.5511017"><ele>45.0</ele><time>2026-05-01T10:59:36.899Z</time></trkpt><trkpt lat="42.2276083" lon="14.55117"><ele>45.0</ele><time>2026-05-01T10:59:39.899Z</time></trkpt><trkpt lat="42.22756" lon="14.551255"><ele>45.0</ele><time>2026-05-01T10:59:42.898Z</time></trkpt><trkpt lat="42.2274917" lon="14.5513217"><ele>45.0</ele><time>2026-05-01T10:59:45.899Z</time></trkpt><trkpt lat="42.2274433" lon="14.5513767"><ele>45.0</ele><time>2026-05-01T10:59:48.899Z</time></trkpt><trkpt lat="42.2273933" lon="14.5514333"><ele>43.5</ele><time>2026-05-01T10:59:51.899Z</time></trkpt><trkpt lat="42.2273383" lon="14.551495"><ele>42.0</ele><time>2026-05-01T10:59:54.899Z</time></trkpt><trkpt lat="42.2272767" lon="14.5515667"><ele>40.5</ele><time>2026-05-01T10:59:57.899Z</time></trkpt><trkpt lat="42.2272" lon="14.55164"><ele>39.0</ele><time>2026-05-01T11:00:00.899Z</time></trkpt><trkpt lat="42.2271333" lon="14.55172"><ele>37.5</ele><time>2026-05-01T11:00:03.898Z</time></trkpt><trkpt lat="42.2270733" lon="14.5518083"><ele>36.0</ele><time>2026-05-01T11:00:06.898Z</time></trkpt><trkpt lat="42.2270283" lon="14.55187"><ele>37.5</ele><time>2026-05-01T11:00:08.899Z</time></trkpt><trkpt lat="42.2269683" lon="14.551965"><ele>39.0</ele><time>2026-05-01T11:00:11.899Z</time></trkpt><trkpt lat="42.22692" lon="14.5520483"><ele>40.5</ele><time>2026-05-01T11:00:14.899Z</time></trkpt><trkpt lat="42.2268533" lon="14.5521167"><ele>42.0</ele><time>2026-05-01T11:00:17.899Z</time></trkpt><trkpt lat="42.2267867" lon="14.55218"><ele>43.5</ele><time>2026-05-01T11:00:20.899Z</time></trkpt><trkpt lat="42.2267283" lon="14.5522283"><ele>45.0</ele><time>2026-05-01T11:00:23.899Z</time></trkpt><trkpt lat="42.22667" lon="14.55227"><ele>45.0</ele><time>2026-05-01T11:00:25.899Z</time></trkpt><trkpt lat="42.2266033" lon="14.5523333"><ele>45.0</ele><time>2026-05-01T11:00:29.898Z</time></trkpt><trkpt lat="42.2265367" lon="14.5523983"><ele>45.0</ele><time>2026-05-01T11:00:32.899Z</time></trkpt><trkpt lat="42.2264767" lon="14.5524567"><ele>45.0</ele><time>2026-05-01T11:00:35.899Z</time></trkpt><trkpt lat="42.22642" lon="14.5525033"><ele>45.0</ele><time>2026-05-01T11:00:38.899Z</time></trkpt><trkpt lat="42.2263667" lon="14.5525567"><ele>45.0</ele><time>2026-05-01T11:00:42.899Z</time></trkpt><trkpt lat="42.226295" lon="14.5526183"><ele>46.166666666666664</ele><time>2026-05-01T11:00:45.898Z</time></trkpt><trkpt lat="42.2262517" lon="14.5527033"><ele>47.33333333333333</ele><time>2026-05-01T11:00:49.899Z</time></trkpt><trkpt lat="42.2261733" lon="14.55274"><ele>48.5</ele><time>2026-05-01T11:00:50.898Z</time></trkpt><trkpt lat="42.2261117" lon="14.552795"><ele>49.666666666666664</ele><time>2026-05-01T11:00:52.898Z</time></trkpt><trkpt lat="42.2260467" lon="14.55286"><ele>50.83333333333333</ele><time>2026-05-01T11:00:54.899Z</time></trkpt><trkpt lat="42.2259783" lon="14.5528983"><ele>52.0</ele><time>2026-05-01T11:00:55.899Z</time></trkpt><trkpt lat="42.225905" lon="14.552965"><ele>51.99999999999999</ele><time>2026-05-01T11:00:57.899Z</time></trkpt><trkpt lat="42.2258333" lon="14.5530267"><ele>52.0</ele><time>2026-05-01T11:00:59.899Z</time></trkpt><trkpt lat="42.225745" lon="14.5531067"><ele>52.0</ele><time>2026-05-01T11:01:01.899Z</time></trkpt><trkpt lat="42.2256817" lon="14.553165"><ele>52.0</ele><time>2026-05-01T11:01:03.899Z</time></trkpt><trkpt lat="42.2256167" lon="14.55322"><ele>51.99999999999999</ele><time>2026-05-01T11:01:05.899Z</time></trkpt><trkpt lat="42.2255567" lon="14.553285"><ele>52.0</ele><time>2026-05-01T11:01:07.899Z</time></trkpt><trkpt lat="42.2254983" lon="14.5533633"><ele>53.33333333333333</ele><time>2026-05-01T11:01:09.899Z</time></trkpt><trkpt lat="42.2254317" lon="14.5534467"><ele>54.666666666666664</ele><time>2026-05-01T11:01:11.898Z</time></trkpt><trkpt lat="42.22538" lon="14.5535083"><ele>56.0</ele><time>2026-05-01T11:01:13.899Z</time></trkpt><trkpt lat="42.2253333" lon="14.5535667"><ele>57.33333333333333</ele><time>2026-05-01T11:01:15.898Z</time></trkpt><trkpt lat="42.225275" lon="14.553645"><ele>58.666666666666664</ele><time>2026-05-01T11:01:18.898Z</time></trkpt><trkpt lat="42.225215" lon="14.553725"><ele>60.0</ele><time>2026-05-01T11:01:20.899Z</time></trkpt><trkpt lat="42.22513" lon="14.5538233"><ele>60.0</ele><time>2026-05-01T11:01:22.899Z</time></trkpt><trkpt lat="42.2250583" lon="14.5539"><ele>60.0</ele><time>2026-05-01T11:01:24.899Z</time></trkpt><trkpt lat="42.2249933" lon="14.5539783"><ele>60.0</ele><time>2026-05-01T11:01:26.898Z</time></trkpt><trkpt lat="42.22494" lon="14.5540717"><ele>60.0</ele><time>2026-05-01T11:01:28.899Z</time></trkpt><trkpt lat="42.2248817" lon="14.554135"><ele>60.0</ele><time>2026-05-01T11:01:30.899Z</time></trkpt><trkpt lat="42.2248417" lon="14.5542033"><ele>60.0</ele><time>2026-05-01T11:01:32.898Z</time></trkpt><trkpt lat="42.2247867" lon="14.5543017"><ele>60.333333333333336</ele><time>2026-05-01T11:01:35.898Z</time></trkpt><trkpt lat="42.2247383" lon="14.5543717"><ele>60.66666666666667</ele><time>2026-05-01T11:01:37.899Z</time></trkpt><trkpt lat="42.224695" lon="14.554445"><ele>61.0</ele><time>2026-05-01T11:01:39.899Z</time></trkpt><trkpt lat="42.2246333" lon="14.554535"><ele>61.333333333333336</ele><time>2026-05-01T11:01:41.899Z</time></trkpt><trkpt lat="42.2245583" lon="14.5546217"><ele>61.66666666666667</ele><time>2026-05-01T11:01:43.899Z</time></trkpt><trkpt lat="42.224495" lon="14.5547217"><ele>62.0</ele><time>2026-05-01T11:01:45.899Z</time></trkpt><trkpt lat="42.2244083" lon="14.5548367"><ele>62.00000000000001</ele><time>2026-05-01T11:01:47.899Z</time></trkpt><trkpt lat="42.2243317" lon="14.55493"><ele>62.0</ele><time>2026-05-01T11:01:49.898Z</time></trkpt><trkpt lat="42.2242617" lon="14.555"><ele>62.0</ele><time>2026-05-01T11:01:51.899Z</time></trkpt><trkpt lat="42.2242" lon="14.55505"><ele>62.0</ele><time>2026-05-01T11:01:53.899Z</time></trkpt><trkpt lat="42.224145" lon="14.5550917"><ele>62.00000000000001</ele><time>2026-05-01T11:01:55.899Z</time></trkpt><trkpt lat="42.2240817" lon="14.555145"><ele>62.0</ele><time>2026-05-01T11:01:57.899Z</time></trkpt><trkpt lat="42.2240083" lon="14.5551833"><ele>63.00000000000001</ele><time>2026-05-01T11:01:59.899Z</time></trkpt><trkpt lat="42.2239483" lon="14.5552367"><ele>64.0</ele><time>2026-05-01T11:02:01.899Z</time></trkpt><trkpt lat="42.223875" lon="14.5553083"><ele>65.0</ele><time>2026-05-01T11:02:03.899Z</time></trkpt><trkpt lat="42.2238033" lon="14.5553917"><ele>66.0</ele><time>2026-05-01T11:02:05.899Z</time></trkpt><trkpt lat="42.2237383" lon="14.555455"><ele>67.0</ele><time>2026-05-01T11:02:07.899Z</time></trkpt><trkpt lat="42.2236667" lon="14.5555267"><ele>68.0</ele><time>2026-05-01T11:02:10.898Z</time></trkpt><trkpt lat="42.2236083" lon="14.5555917"><ele>67.99999999999999</ele><time>2026-05-01T11:02:13.898Z</time></trkpt><trkpt lat="42.2235683" lon="14.5556833"><ele>68.0</ele><time>2026-05-01T11:02:17.898Z</time></trkpt><trkpt lat="42.223545" lon="14.5557683"><ele>68.0</ele><time>2026-05-01T11:02:20.898Z</time></trkpt><trkpt lat="42.2235317" lon="14.5558717"><ele>68.0</ele><time>2026-05-01T11:02:24.899Z</time></trkpt><trkpt lat="42.2235017" lon="14.5559717"><ele>68.0</ele><time>2026-05-01T11:02:27.898Z</time></trkpt><trkpt lat="42.2234783" lon="14.556065"><ele>67.99999999999999</ele><time>2026-05-01T11:02:31.899Z</time></trkpt><trkpt lat="42.2234483" lon="14.55615"><ele>68.0</ele><time>2026-05-01T11:02:35.899Z</time></trkpt><trkpt lat="42.2234083" lon="14.5562567"><ele>66.5</ele><time>2026-05-01T11:02:39.899Z</time></trkpt><trkpt lat="42.2233817" lon="14.55635"><ele>65.0</ele><time>2026-05-01T11:02:42.899Z</time></trkpt><trkpt lat="42.2233567" lon="14.556445"><ele>63.5</ele><time>2026-05-01T11:02:45.899Z</time></trkpt><trkpt lat="42.22336" lon="14.5565517"><ele>62.0</ele><time>2026-05-01T11:02:48.898Z</time></trkpt><trkpt lat="42.2233667" lon="14.5566733"><ele>60.50000000000001</ele><time>2026-05-01T11:02:51.899Z</time></trkpt><trkpt lat="42.2233633" lon="14.5567783"><ele>59.0</ele><time>2026-05-01T11:02:53.899Z</time></trkpt><trkpt lat="42.2233517" lon="14.5568767"><ele>59.00000000000001</ele><time>2026-05-01T11:02:55.898Z</time></trkpt><trkpt lat="42.22333" lon="14.5569767"><ele>59.0</ele><time>2026-05-01T11:02:58.899Z</time></trkpt><trkpt lat="42.22333" lon="14.5570717"><ele>59.0</ele><time>2026-05-01T11:03:00.899Z</time></trkpt><trkpt lat="42.22332" lon="14.5571867"><ele>59.0</ele><time>2026-05-01T11:03:04.898Z</time></trkpt><trkpt lat="42.223315" lon="14.5572867"><ele>59.00000000000001</ele><time>2026-05-01T11:03:07.899Z</time></trkpt><trkpt lat="42.223315" lon="14.5574333"><ele>59.0</ele><time>2026-05-01T11:03:10.899Z</time></trkpt><trkpt lat="42.22326" lon="14.5575217"><ele>59.857142857142854</ele><time>2026-05-01T11:03:14.898Z</time></trkpt><trkpt lat="42.2232283" lon="14.5576033"><ele>60.71428571428572</ele><time>2026-05-01T11:03:17.899Z</time></trkpt><trkpt lat="42.2231717" lon="14.5576433"><ele>61.57142857142858</ele><time>2026-05-01T11:03:22.898Z</time></trkpt><trkpt lat="42.2231083" lon="14.5576683"><ele>62.42857142857143</ele><time>2026-05-01T11:03:26.899Z</time></trkpt><trkpt lat="42.223045" lon="14.5577133"><ele>63.28571428571429</ele><time>2026-05-01T11:03:30.899Z</time></trkpt><trkpt lat="42.2229383" lon="14.5577533"><ele>64.14285714285715</ele><time>2026-05-01T11:03:33.899Z</time></trkpt><trkpt lat="42.222875" lon="14.5577817"><ele>65.0</ele><time>2026-05-01T11:03:36.899Z</time></trkpt><trkpt lat="42.2228133" lon="14.5578117"><ele>65.00000000000001</ele><time>2026-05-01T11:03:39.899Z</time></trkpt><trkpt lat="42.2227533" lon="14.5578567"><ele>65.0</ele><time>2026-05-01T11:03:42.899Z</time></trkpt><trkpt lat="42.2226933" lon="14.55791"><ele>65.0</ele><time>2026-05-01T11:03:45.899Z</time></trkpt><trkpt lat="42.22264" lon="14.55796"><ele>65.0</ele><time>2026-05-01T11:03:48.899Z</time></trkpt><trkpt lat="42.22259" lon="14.5580217"><ele>65.0</ele><time>2026-05-01T11:03:51.898Z</time></trkpt><trkpt lat="42.2225433" lon="14.558095"><ele>65.00000000000001</ele><time>2026-05-01T11:03:55.899Z</time></trkpt><trkpt lat="42.2224967" lon="14.5581833"><ele>65.0</ele><time>2026-05-01T11:04:00.899Z</time></trkpt><trkpt lat="42.2224583" lon="14.5582567"><ele>63.66666666666667</ele><time>2026-05-01T11:04:04.899Z</time></trkpt><trkpt lat="42.22244" lon="14.55835"><ele>62.333333333333336</ele><time>2026-05-01T11:04:09.899Z</time></trkpt><trkpt lat="42.2225067" lon="14.5584983"><ele>61.0</ele><time>2026-05-01T11:04:23.899Z</time></trkpt><trkpt lat="42.2225667" lon="14.5585483"><ele>59.66666666666667</ele><time>2026-05-01T11:04:28.898Z</time></trkpt><trkpt lat="42.2226333" lon="14.5585783"><ele>58.333333333333336</ele><time>2026-05-01T11:04:35.899Z</time></trkpt><trkpt lat="42.2226983" lon="14.5586033"><ele>57.0</ele><time>2026-05-01T11:04:41.898Z</time></trkpt><trkpt lat="42.222705" lon="14.5586967"><ele>55.857142857142854</ele><time>2026-05-01T11:05:00.899Z</time></trkpt><trkpt lat="42.2226667" lon="14.5587667"><ele>54.71428571428571</ele><time>2026-05-01T11:05:03.898Z</time></trkpt><trkpt lat="42.2226067" lon="14.5588517"><ele>53.57142857142857</ele><time>2026-05-01T11:05:06.898Z</time></trkpt><trkpt lat="42.2225517" lon="14.558915"><ele>52.42857142857143</ele><time>2026-05-01T11:05:09.899Z</time></trkpt><trkpt lat="42.2225017" lon="14.5589717"><ele>51.285714285714285</ele><time>2026-05-01T11:05:12.898Z</time></trkpt><trkpt lat="42.222425" lon="14.55903"><ele>50.14285714285714</ele><time>2026-05-01T11:05:15.899Z</time></trkpt><trkpt lat="42.2223683" lon="14.5590867"><ele>49.0</ele><time>2026-05-01T11:05:18.899Z</time></trkpt><trkpt lat="42.2223483" lon="14.5591717"><ele>48.99999999999999</ele><time>2026-05-01T11:05:23.898Z</time></trkpt><trkpt lat="42.2223167" lon="14.5592783"><ele>49.0</ele><time>2026-05-01T11:05:26.898Z</time></trkpt><trkpt lat="42.2223067" lon="14.5593667"><ele>49.0</ele><time>2026-05-01T11:05:28.899Z</time></trkpt><trkpt lat="42.2223017" lon="14.5594717"><ele>49.0</ele><time>2026-05-01T11:05:30.899Z</time></trkpt><trkpt lat="42.222315" lon="14.55958"><ele>48.99999999999999</ele><time>2026-05-01T11:05:32.899Z</time></trkpt><trkpt lat="42.222315" lon="14.5597"><ele>49.0</ele><time>2026-05-01T11:05:34.899Z</time></trkpt><trkpt lat="42.2223367" lon="14.5598083"><ele>48.285714285714285</ele><time>2026-05-01T11:05:37.899Z</time></trkpt><trkpt lat="42.2223333" lon="14.5598933"><ele>47.57142857142857</ele><time>2026-05-01T11:05:40.899Z</time></trkpt><trkpt lat="42.2222967" lon="14.5599733"><ele>46.85714285714286</ele><time>2026-05-01T11:05:43.899Z</time></trkpt><trkpt lat="42.2222583" lon="14.5600583"><ele>46.14285714285714</ele><time>2026-05-01T11:05:47.899Z</time></trkpt><trkpt lat="42.2222417" lon="14.560165"><ele>45.42857142857143</ele><time>2026-05-01T11:05:52.898Z</time></trkpt><trkpt lat="42.22227" lon="14.5602667"><ele>44.714285714285715</ele><time>2026-05-01T11:05:56.899Z</time></trkpt><trkpt lat="42.2223167" lon="14.56034"><ele>44.0</ele><time>2026-05-01T11:05:59.899Z</time></trkpt><trkpt lat="42.2223933" lon="14.5604017"><ele>43.666666666666664</ele><time>2026-05-01T11:06:02.899Z</time></trkpt><trkpt lat="42.22245" lon="14.560445"><ele>43.33333333333333</ele><time>2026-05-01T11:06:04.899Z</time></trkpt><trkpt lat="42.222535" lon="14.5604917"><ele>43.0</ele><time>2026-05-01T11:06:07.899Z</time></trkpt><trkpt lat="42.2226133" lon="14.56052"><ele>42.666666666666664</ele><time>2026-05-01T11:06:10.898Z</time></trkpt><trkpt lat="42.2226833" lon="14.5605633"><ele>42.333333333333336</ele><time>2026-05-01T11:06:13.899Z</time></trkpt><trkpt lat="42.22275" lon="14.5605933"><ele>42.0</ele><time>2026-05-01T11:06:16.899Z</time></trkpt><trkpt lat="42.2228183" lon="14.5605933"><ele>42.0</ele><time>2026-05-01T11:06:19.899Z</time></trkpt><trkpt lat="42.2228833" lon="14.5605867"><ele>42.0</ele><time>2026-05-01T11:06:22.898Z</time></trkpt><trkpt lat="42.22296" lon="14.560595"><ele>42.0</ele><time>2026-05-01T11:06:27.899Z</time></trkpt><trkpt lat="42.2230333" lon="14.5606017"><ele>42.0</ele><time>2026-05-01T11:06:31.899Z</time></trkpt><trkpt lat="42.2231133" lon="14.5605883"><ele>42.0</ele><time>2026-05-01T11:06:35.899Z</time></trkpt><trkpt lat="42.2231933" lon="14.5605617"><ele>42.0</ele><time>2026-05-01T11:06:39.899Z</time></trkpt><trkpt lat="42.2232683" lon="14.56052"><ele>40.333333333333336</ele><time>2026-05-01T11:06:44.899Z</time></trkpt><trkpt lat="42.2233517" lon="14.5605033"><ele>38.666666666666664</ele><time>2026-05-01T11:06:50.899Z</time></trkpt><trkpt lat="42.2234083" lon="14.5604617"><ele>37.0</ele><time>2026-05-01T11:06:56.899Z</time></trkpt><trkpt lat="42.223425" lon="14.560565"><ele>35.33333333333333</ele><time>2026-05-01T11:07:04.899Z</time></trkpt><trkpt lat="42.2234933" lon="14.5606433"><ele>33.666666666666664</ele><time>2026-05-01T11:07:07.898Z</time></trkpt><trkpt lat="42.2235717" lon="14.560695"><ele>32.0</ele><time>2026-05-01T11:07:10.899Z</time></trkpt><trkpt lat="42.223625" lon="14.56075"><ele>32.0</ele><time>2026-05-01T11:07:13.899Z</time></trkpt><trkpt lat="42.22365" lon="14.5608483"><ele>31.999999999999996</ele><time>2026-05-01T11:07:17.899Z</time></trkpt><trkpt lat="42.223705" lon="14.56093"><ele>32.0</ele><time>2026-05-01T11:07:21.898Z</time></trkpt><trkpt lat="42.2237417" lon="14.5610183"><ele>32.0</ele><time>2026-05-01T11:07:25.898Z</time></trkpt><trkpt lat="42.2237717" lon="14.5611017"><ele>31.999999999999996</ele><time>2026-05-01T11:07:29.899Z</time></trkpt><trkpt lat="42.223775" lon="14.5611867"><ele>32.0</ele><time>2026-05-01T11:07:34.899Z</time></trkpt><trkpt lat="42.2237267" lon="14.5612417"><ele>32.0</ele><time>2026-05-01T11:07:41.898Z</time></trkpt><trkpt lat="42.223655" lon="14.5612667"><ele>30.333333333333332</ele><time>2026-05-01T11:07:45.898Z</time></trkpt><trkpt lat="42.22356" lon="14.561285"><ele>28.666666666666664</ele><time>2026-05-01T11:07:51.899Z</time></trkpt><trkpt lat="42.2234817" lon="14.5613233"><ele>27.0</ele><time>2026-05-01T11:07:55.899Z</time></trkpt><trkpt lat="42.2234133" lon="14.5613833"><ele>25.333333333333332</ele><time>2026-05-01T11:07:59.899Z</time></trkpt><trkpt lat="42.2233517" lon="14.5614167"><ele>23.666666666666664</ele><time>2026-05-01T11:08:02.899Z</time></trkpt><trkpt lat="42.223265" lon="14.5614417"><ele>22.0</ele><time>2026-05-01T11:08:05.899Z</time></trkpt><trkpt lat="42.2231917" lon="14.5614433"><ele>23.857142857142858</ele><time>2026-05-01T11:08:07.899Z</time></trkpt><trkpt lat="42.2231233" lon="14.5614267"><ele>25.714285714285715</ele><time>2026-05-01T11:08:09.899Z</time></trkpt><trkpt lat="42.2230467" lon="14.5614117"><ele>27.57142857142857</ele><time>2026-05-01T11:08:12.899Z</time></trkpt><trkpt lat="42.2229617" lon="14.5614033"><ele>29.42857142857143</ele><time>2026-05-01T11:08:15.899Z</time></trkpt><trkpt lat="42.2228967" lon="14.5614183"><ele>31.285714285714285</ele><time>2026-05-01T11:08:17.898Z</time></trkpt><trkpt lat="42.2228283" lon="14.5614417"><ele>33.142857142857146</ele><time>2026-05-01T11:08:19.899Z</time></trkpt><trkpt lat="42.22276" lon="14.5614733"><ele>35.0</ele><time>2026-05-01T11:08:21.899Z</time></trkpt><trkpt lat="42.2226833" lon="14.561535"><ele>35.0</ele><time>2026-05-01T11:08:24.899Z</time></trkpt><trkpt lat="42.2226233" lon="14.56158"><ele>35.0</ele><time>2026-05-01T11:08:26.899Z</time></trkpt><trkpt lat="42.222575" lon="14.5616383"><ele>35.0</ele><time>2026-05-01T11:08:28.899Z</time></trkpt><trkpt lat="42.222525" lon="14.5617167"><ele>35.0</ele><time>2026-05-01T11:08:31.898Z</time></trkpt><trkpt lat="42.222455" lon="14.561805"><ele>35.0</ele><time>2026-05-01T11:08:34.898Z</time></trkpt><trkpt lat="42.22241" lon="14.561875"><ele>35.0</ele><time>2026-05-01T11:08:36.899Z</time></trkpt><trkpt lat="42.2223317" lon="14.5619433"><ele>36.166666666666664</ele><time>2026-05-01T11:08:39.898Z</time></trkpt><trkpt lat="42.2222633" lon="14.561975"><ele>37.33333333333333</ele><time>2026-05-01T11:08:41.898Z</time></trkpt><trkpt lat="42.2221917" lon="14.5620183"><ele>38.5</ele><time>2026-05-01T11:08:44.899Z</time></trkpt><trkpt lat="42.222125" lon="14.562065"><ele>39.666666666666664</ele><time>2026-05-01T11:08:47.898Z</time></trkpt><trkpt lat="42.222055" lon="14.5621017"><ele>40.833333333333336</ele><time>2026-05-01T11:08:50.898Z</time></trkpt><trkpt lat="42.2219883" lon="14.5621317"><ele>42.0</ele><time>2026-05-01T11:08:53.899Z</time></trkpt><trkpt lat="42.221905" lon="14.5621917"><ele>42.0</ele><time>2026-05-01T11:08:56.899Z</time></trkpt><trkpt lat="42.22181" lon="14.562255"><ele>42.0</ele><time>2026-05-01T11:08:58.898Z</time></trkpt><trkpt lat="42.221725" lon="14.562285"><ele>42.0</ele><time>2026-05-01T11:09:01.898Z</time></trkpt><trkpt lat="42.2216433" lon="14.5622917"><ele>42.0</ele><time>2026-05-01T11:09:03.899Z</time></trkpt><trkpt lat="42.2215783" lon="14.5622833"><ele>42.0</ele><time>2026-05-01T11:09:05.898Z</time></trkpt><trkpt lat="42.22149" lon="14.5622567"><ele>42.0</ele><time>2026-05-01T11:09:08.898Z</time></trkpt><trkpt lat="42.22142" lon="14.562245"><ele>43.714285714285715</ele><time>2026-05-01T11:09:11.899Z</time></trkpt><trkpt lat="42.221355" lon="14.562235"><ele>45.42857142857143</ele><time>2026-05-01T11:09:14.899Z</time></trkpt><trkpt lat="42.2212617" lon="14.562225"><ele>47.14285714285714</ele><time>2026-05-01T11:09:17.898Z</time></trkpt><trkpt lat="42.221195" lon="14.5622017"><ele>48.85714285714286</ele><time>2026-05-01T11:09:19.898Z</time></trkpt><trkpt lat="42.2211317" lon="14.5621617"><ele>50.57142857142857</ele><time>2026-05-01T11:09:22.898Z</time></trkpt><trkpt lat="42.2210667" lon="14.5621183"><ele>52.285714285714285</ele><time>2026-05-01T11:09:25.899Z</time></trkpt><trkpt lat="42.220995" lon="14.562075"><ele>54.0</ele><time>2026-05-01T11:09:28.899Z</time></trkpt><trkpt lat="42.2209117" lon="14.5621"><ele>54.0</ele><time>2026-05-01T11:09:32.899Z</time></trkpt><trkpt lat="42.22083" lon="14.5621467"><ele>54.00000000000001</ele><time>2026-05-01T11:09:35.899Z</time></trkpt><trkpt lat="42.220775" lon="14.5621883"><ele>54.00000000000001</ele><time>2026-05-01T11:09:37.899Z</time></trkpt><trkpt lat="42.2207017" lon="14.5622433"><ele>54.0</ele><time>2026-05-01T11:09:40.898Z</time></trkpt><trkpt lat="42.2205683" lon="14.5623133"><ele>54.0</ele><time>2026-05-01T11:09:43.898Z</time></trkpt><trkpt lat="42.2205033" lon="14.5623667"><ele>55.666666666666664</ele><time>2026-05-01T11:09:45.899Z</time></trkpt><trkpt lat="42.2204467" lon="14.562405"><ele>57.33333333333333</ele><time>2026-05-01T11:09:46.898Z</time></trkpt><trkpt lat="42.2203667" lon="14.562485"><ele>59.0</ele><time>2026-05-01T11:09:48.898Z</time></trkpt><trkpt lat="42.2202983" lon="14.5625783"><ele>60.666666666666664</ele><time>2026-05-01T11:09:50.899Z</time></trkpt><trkpt lat="42.22025" lon="14.5626567"><ele>62.33333333333333</ele><time>2026-05-01T11:09:52.899Z</time></trkpt><trkpt lat="42.2202" lon="14.5627583"><ele>64.0</ele><time>2026-05-01T11:09:55.899Z</time></trkpt><trkpt lat="42.22016" lon="14.5628617"><ele>63.57142857142857</ele><time>2026-05-01T11:09:58.899Z</time></trkpt><trkpt lat="42.22012" lon="14.56293"><ele>63.14285714285714</ele><time>2026-05-01T11:10:01.899Z</time></trkpt><trkpt lat="42.2200917" lon="14.563015"><ele>62.71428571428571</ele><time>2026-05-01T11:10:04.899Z</time></trkpt><trkpt lat="42.22007" lon="14.5631033"><ele>62.28571428571428</ele><time>2026-05-01T11:10:06.899Z</time></trkpt><trkpt lat="42.2200417" lon="14.5631933"><ele>61.857142857142854</ele><time>2026-05-01T11:10:08.899Z</time></trkpt><trkpt lat="42.22001" lon="14.5632767"><ele>61.428571428571416</ele><time>2026-05-01T11:10:10.899Z</time></trkpt><trkpt lat="42.2199683" lon="14.5633967"><ele>60.99999999999999</ele><time>2026-05-01T11:10:13.899Z</time></trkpt><trkpt lat="42.219925" lon="14.5635117"><ele>61.0</ele><time>2026-05-01T11:10:16.899Z</time></trkpt><trkpt lat="42.2198817" lon="14.5636317"><ele>60.99999999999999</ele><time>2026-05-01T11:10:19.898Z</time></trkpt><trkpt lat="42.219845" lon="14.5637133"><ele>60.99999999999999</ele><time>2026-05-01T11:10:21.899Z</time></trkpt><trkpt lat="42.219795" lon="14.56382"><ele>61.0</ele><time>2026-05-01T11:10:23.899Z</time></trkpt><trkpt lat="42.2197483" lon="14.563925"><ele>61.0</ele><time>2026-05-01T11:10:25.899Z</time></trkpt><trkpt lat="42.219695" lon="14.5640683"><ele>61.49999999999999</ele><time>2026-05-01T11:10:27.899Z</time></trkpt><trkpt lat="42.2196667" lon="14.5641567"><ele>62.0</ele><time>2026-05-01T11:10:28.898Z</time></trkpt><trkpt lat="42.21964" lon="14.56424"><ele>62.5</ele><time>2026-05-01T11:10:29.899Z</time></trkpt><trkpt lat="42.219595" lon="14.56439"><ele>63.0</ele><time>2026-05-01T11:10:31.899Z</time></trkpt><trkpt lat="42.2195367" lon="14.5644933"><ele>63.49999999999999</ele><time>2026-05-01T11:10:33.899Z</time></trkpt><trkpt lat="42.219515" lon="14.56458"><ele>64.0</ele><time>2026-05-01T11:10:34.899Z</time></trkpt><trkpt lat="42.2194683" lon="14.56471"><ele>63.99999999999999</ele><time>2026-05-01T11:10:36.898Z</time></trkpt><trkpt lat="42.2194317" lon="14.5648183"><ele>64.0</ele><time>2026-05-01T11:10:38.898Z</time></trkpt><trkpt lat="42.219395" lon="14.5649133"><ele>64.0</ele><time>2026-05-01T11:10:40.899Z</time></trkpt><trkpt lat="42.2193633" lon="14.56501"><ele>64.0</ele><time>2026-05-01T11:10:42.899Z</time></trkpt><trkpt lat="42.219335" lon="14.5651083"><ele>63.99999999999999</ele><time>2026-05-01T11:10:44.898Z</time></trkpt><trkpt lat="42.2193" lon="14.5652"><ele>64.0</ele><time>2026-05-01T11:10:46.898Z</time></trkpt><trkpt lat="42.2192733" lon="14.56528"><ele>63.166666666666664</ele><time>2026-05-01T11:10:48.899Z</time></trkpt><trkpt lat="42.2192233" lon="14.56538"><ele>62.33333333333333</ele><time>2026-05-01T11:10:51.899Z</time></trkpt><trkpt lat="42.2191717" lon="14.5654717"><ele>61.5</ele><time>2026-05-01T11:10:54.899Z</time></trkpt><trkpt lat="42.2191267" lon="14.565545"><ele>60.66666666666667</ele><time>2026-05-01T11:10:57.898Z</time></trkpt><trkpt lat="42.2190717" lon="14.56562"><ele>59.833333333333336</ele><time>2026-05-01T11:11:00.899Z</time></trkpt><trkpt lat="42.21902" lon="14.5656883"><ele>59.0</ele><time>2026-05-01T11:11:03.899Z</time></trkpt><trkpt lat="42.2189717" lon="14.565745"><ele>61.0</ele><time>2026-05-01T11:11:05.898Z</time></trkpt><trkpt lat="42.21892" lon="14.565825"><ele>63.00000000000001</ele><time>2026-05-01T11:11:07.898Z</time></trkpt><trkpt lat="42.2188667" lon="14.5659267"><ele>65.0</ele><time>2026-05-01T11:11:09.898Z</time></trkpt><trkpt lat="42.218815" lon="14.5660367"><ele>67.0</ele><time>2026-05-01T11:11:11.898Z</time></trkpt><trkpt lat="42.2187533" lon="14.5661667"><ele>69.0</ele><time>2026-05-01T11:11:13.898Z</time></trkpt><trkpt lat="42.218695" lon="14.5662917"><ele>69.0</ele><time>2026-05-01T11:11:15.899Z</time></trkpt><trkpt lat="42.2186317" lon="14.5663933"><ele>69.0</ele><time>2026-05-01T11:11:17.899Z</time></trkpt><trkpt lat="42.2185533" lon="14.5664883"><ele>69.0</ele><time>2026-05-01T11:11:19.899Z</time></trkpt><trkpt lat="42.21849" lon="14.5665567"><ele>69.0</ele><time>2026-05-01T11:11:20.899Z</time></trkpt><trkpt lat="42.2184333" lon="14.5666117"><ele>69.0</ele><time>2026-05-01T11:11:21.899Z</time></trkpt><trkpt lat="42.2183483" lon="14.5666967"><ele>69.0</ele><time>2026-05-01T11:11:22.898Z</time></trkpt><trkpt lat="42.2182983" lon="14.5667567"><ele>69.0</ele><time>2026-05-01T11:11:23.899Z</time></trkpt><trkpt lat="42.2182233" lon="14.5669133"><ele>69.0</ele><time>2026-05-01T11:11:25.899Z</time></trkpt><trkpt lat="42.218185" lon="14.56704"><ele>69.0</ele><time>2026-05-01T11:11:27.898Z</time></trkpt><trkpt lat="42.2181567" lon="14.5671417"><ele>69.0</ele><time>2026-05-01T11:11:29.899Z</time></trkpt><trkpt lat="42.21813" lon="14.567275"><ele>70.4</ele><time>2026-05-01T11:11:31.898Z</time></trkpt><trkpt lat="42.2181367" lon="14.5674233"><ele>71.80000000000001</ele><time>2026-05-01T11:11:33.899Z</time></trkpt><trkpt lat="42.2181217" lon="14.56757"><ele>73.19999999999999</ele><time>2026-05-01T11:11:35.898Z</time></trkpt><trkpt lat="42.2181117" lon="14.5677033"><ele>74.6</ele><time>2026-05-01T11:11:37.899Z</time></trkpt><trkpt lat="42.2180917" lon="14.56781"><ele>76.0</ele><time>2026-05-01T11:11:39.899Z</time></trkpt><trkpt lat="42.218065" lon="14.5679"><ele>76.0</ele><time>2026-05-01T11:11:41.899Z</time></trkpt><trkpt lat="42.218035" lon="14.568005"><ele>76.0</ele><time>2026-05-01T11:11:43.898Z</time></trkpt><trkpt lat="42.217985" lon="14.568145"><ele>76.0</ele><time>2026-05-01T11:11:45.899Z</time></trkpt><trkpt lat="42.217955" lon="14.5682867"><ele>76.0</ele><time>2026-05-01T11:11:47.899Z</time></trkpt><trkpt lat="42.217915" lon="14.5684133"><ele>76.0</ele><time>2026-05-01T11:11:49.899Z</time></trkpt><trkpt lat="42.21786" lon="14.5685433"><ele>76.0</ele><time>2026-05-01T11:11:51.898Z</time></trkpt><trkpt lat="42.2178017" lon="14.5686433"><ele>76.0</ele><time>2026-05-01T11:11:53.898Z</time></trkpt><trkpt lat="42.2177717" lon="14.568725"><ele>76.0</ele><time>2026-05-01T11:11:55.899Z</time></trkpt><trkpt lat="42.2177433" lon="14.5688317"><ele>76.0</ele><time>2026-05-01T11:11:58.899Z</time></trkpt><trkpt lat="42.217705" lon="14.5689483"><ele>76.0</ele><time>2026-05-01T11:12:01.899Z</time></trkpt><trkpt lat="42.2176633" lon="14.5690617"><ele>76.0</ele><time>2026-05-01T11:12:04.898Z</time></trkpt><trkpt lat="42.2176033" lon="14.569125"><ele>75.6</ele><time>2026-05-01T11:12:06.899Z</time></trkpt><trkpt lat="42.2175283" lon="14.569205"><ele>75.19999999999999</ele><time>2026-05-01T11:12:08.899Z</time></trkpt><trkpt lat="42.21746" lon="14.5692917"><ele>74.80000000000001</ele><time>2026-05-01T11:12:10.899Z</time></trkpt><trkpt lat="42.2173967" lon="14.569365"><ele>74.4</ele><time>2026-05-01T11:12:12.899Z</time></trkpt><trkpt lat="42.217335" lon="14.569455"><ele>74.0</ele><time>2026-05-01T11:12:14.899Z</time></trkpt><trkpt lat="42.217275" lon="14.5695867"><ele>74.0</ele><time>2026-05-01T11:12:16.899Z</time></trkpt><trkpt lat="42.2172017" lon="14.5697083"><ele>74.0</ele><time>2026-05-01T11:12:18.899Z</time></trkpt><trkpt lat="42.21711" lon="14.569835"><ele>74.0</ele><time>2026-05-01T11:12:20.899Z</time></trkpt><trkpt lat="42.2170183" lon="14.569955"><ele>74.0</ele><time>2026-05-01T11:12:22.899Z</time></trkpt><trkpt lat="42.2169467" lon="14.5700617"><ele>74.0</ele><time>2026-05-01T11:12:24.898Z</time></trkpt><trkpt lat="42.216895" lon="14.5701517"><ele>74.0</ele><time>2026-05-01T11:12:26.898Z</time></trkpt><trkpt lat="42.21684" lon="14.57026"><ele>74.0</ele><time>2026-05-01T11:12:28.899Z</time></trkpt><trkpt lat="42.2167967" lon="14.5704167"><ele>74.0</ele><time>2026-05-01T11:12:30.899Z</time></trkpt><trkpt lat="42.2167817" lon="14.57053"><ele>74.0</ele><time>2026-05-01T11:12:32.898Z</time></trkpt><trkpt lat="42.2167733" lon="14.5706567"><ele>72.33333333333334</ele><time>2026-05-01T11:12:35.898Z</time></trkpt><trkpt lat="42.2167667" lon="14.5707517"><ele>70.66666666666667</ele><time>2026-05-01T11:12:37.899Z</time></trkpt><trkpt lat="42.2167583" lon="14.5708533"><ele>69.0</ele><time>2026-05-01T11:12:39.898Z</time></trkpt><trkpt lat="42.21673" lon="14.5709633"><ele>67.33333333333333</ele><time>2026-05-01T11:12:41.899Z</time></trkpt><trkpt lat="42.2167017" lon="14.57104"><ele>65.66666666666666</ele><time>2026-05-01T11:12:43.899Z</time></trkpt><trkpt lat="42.2166633" lon="14.571155"><ele>64.0</ele><time>2026-05-01T11:12:45.898Z</time></trkpt><trkpt lat="42.216655" lon="14.5712717"><ele>63.33333333333333</ele><time>2026-05-01T11:12:47.899Z</time></trkpt><trkpt lat="42.2166333" lon="14.571395"><ele>62.666666666666664</ele><time>2026-05-01T11:12:49.898Z</time></trkpt><trkpt lat="42.2166383" lon="14.5715117"><ele>62.0</ele><time>2026-05-01T11:12:51.899Z</time></trkpt><trkpt lat="42.2166433" lon="14.571625"><ele>61.33333333333333</ele><time>2026-05-01T11:12:53.899Z</time></trkpt><trkpt lat="42.2166383" lon="14.5717733"><ele>60.666666666666664</ele><time>2026-05-01T11:12:55.898Z</time></trkpt><trkpt lat="42.2166183" lon="14.571865"><ele>60.0</ele><time>2026-05-01T11:12:56.899Z</time></trkpt><trkpt lat="42.2166" lon="14.5719517"><ele>58.833333333333336</ele><time>2026-05-01T11:12:57.899Z</time></trkpt><trkpt lat="42.2165833" lon="14.57204"><ele>57.66666666666667</ele><time>2026-05-01T11:12:58.899Z</time></trkpt><trkpt lat="42.2165733" lon="14.5721683"><ele>56.5</ele><time>2026-05-01T11:13:00.898Z</time></trkpt><trkpt lat="42.21656" lon="14.5722767"><ele>55.333333333333336</ele><time>2026-05-01T11:13:02.899Z</time></trkpt><trkpt lat="42.2165367" lon="14.5723667"><ele>54.16666666666667</ele><time>2026-05-01T11:13:04.899Z</time></trkpt><trkpt lat="42.216535" lon="14.5724533"><ele>53.0</ele><time>2026-05-01T11:13:06.899Z</time></trkpt><trkpt lat="42.2165117" lon="14.5725483"><ele>56.333333333333336</ele><time>2026-05-01T11:13:08.899Z</time></trkpt><trkpt lat="42.2164783" lon="14.5726333"><ele>59.66666666666667</ele><time>2026-05-01T11:13:10.899Z</time></trkpt><trkpt lat="42.2164317" lon="14.5727183"><ele>63.0</ele><time>2026-05-01T11:13:12.899Z</time></trkpt><trkpt lat="42.2163683" lon="14.5728"><ele>66.33333333333333</ele><time>2026-05-01T11:13:15.899Z</time></trkpt><trkpt lat="42.21631" lon="14.572875"><ele>69.66666666666666</ele><time>2026-05-01T11:13:18.898Z</time></trkpt><trkpt lat="42.21625" lon="14.5729517"><ele>73.0</ele><time>2026-05-01T11:13:21.898Z</time></trkpt><trkpt lat="42.2161883" lon="14.573015"><ele>73.0</ele><time>2026-05-01T11:13:23.899Z</time></trkpt><trkpt lat="42.216145" lon="14.5731117"><ele>73.0</ele><time>2026-05-01T11:13:25.899Z</time></trkpt><trkpt lat="42.2161167" lon="14.5732117"><ele>73.0</ele><time>2026-05-01T11:13:27.899Z</time></trkpt><trkpt lat="42.2160783" lon="14.57336"><ele>73.0</ele><time>2026-05-01T11:13:29.899Z</time></trkpt><trkpt lat="42.2160433" lon="14.573435"><ele>73.0</ele><time>2026-05-01T11:13:30.898Z</time></trkpt><trkpt lat="42.216" lon="14.5735083"><ele>73.0</ele><time>2026-05-01T11:13:31.898Z</time></trkpt><trkpt lat="42.2159683" lon="14.5735867"><ele>70.83333333333333</ele><time>2026-05-01T11:13:32.899Z</time></trkpt><trkpt lat="42.21592" lon="14.5737183"><ele>68.66666666666666</ele><time>2026-05-01T11:13:34.899Z</time></trkpt><trkpt lat="42.2159017" lon="14.57382"><ele>66.5</ele><time>2026-05-01T11:13:36.898Z</time></trkpt><trkpt lat="42.2158933" lon="14.573925"><ele>64.33333333333333</ele><time>2026-05-01T11:13:39.899Z</time></trkpt><trkpt lat="42.2158733" lon="14.5740483"><ele>62.166666666666664</ele><time>2026-05-01T11:13:42.898Z</time></trkpt><trkpt lat="42.2158583" lon="14.5741417"><ele>60.0</ele><time>2026-05-01T11:13:44.899Z</time></trkpt><trkpt lat="42.21583" lon="14.5742533"><ele>60.0</ele><time>2026-05-01T11:13:46.898Z</time></trkpt><trkpt lat="42.2157983" lon="14.5743867"><ele>60.0</ele><time>2026-05-01T11:13:48.898Z</time></trkpt><trkpt lat="42.2157667" lon="14.5745217"><ele>60.0</ele><time>2026-05-01T11:13:50.899Z</time></trkpt><trkpt lat="42.2157333" lon="14.5746483"><ele>60.0</ele><time>2026-05-01T11:13:52.898Z</time></trkpt><trkpt lat="42.2156867" lon="14.5747567"><ele>60.0</ele><time>2026-05-01T11:13:54.898Z</time></trkpt><trkpt lat="42.21564" lon="14.5748583"><ele>59.8</ele><time>2026-05-01T11:13:56.898Z</time></trkpt><trkpt lat="42.21557" lon="14.5749867"><ele>59.6</ele><time>2026-05-01T11:13:58.899Z</time></trkpt><trkpt lat="42.2155017" lon="14.57511"><ele>59.400000000000006</ele><time>2026-05-01T11:14:00.899Z</time></trkpt><trkpt lat="42.21543" lon="14.5752283"><ele>59.2</ele><time>2026-05-01T11:14:02.899Z</time></trkpt><trkpt lat="42.2153567" lon="14.5753117"><ele>59.0</ele><time>2026-05-01T11:14:04.899Z</time></trkpt><trkpt lat="42.2152817" lon="14.5753767"><ele>59.00000000000001</ele><time>2026-05-01T11:14:06.899Z</time></trkpt><trkpt lat="42.2152267" lon="14.5754517"><ele>59.0</ele><time>2026-05-01T11:14:08.899Z</time></trkpt><trkpt lat="42.21519" lon="14.5755383"><ele>59.0</ele><time>2026-05-01T11:14:10.899Z</time></trkpt><trkpt lat="42.2151533" lon="14.57565"><ele>59.0</ele><time>2026-05-01T11:14:12.899Z</time></trkpt><trkpt lat="42.2150933" lon="14.57576"><ele>59.00000000000001</ele><time>2026-05-01T11:14:14.898Z</time></trkpt><trkpt lat="42.215055" lon="14.5758667"><ele>59.0</ele><time>2026-05-01T11:14:16.899Z</time></trkpt><trkpt lat="42.2150317" lon="14.5759867"><ele>59.0</ele><time>2026-05-01T11:14:18.899Z</time></trkpt><trkpt lat="42.2149983" lon="14.5761217"><ele>59.00000000000001</ele><time>2026-05-01T11:14:20.899Z</time></trkpt><trkpt lat="42.2149533" lon="14.5762567"><ele>59.00000000000001</ele><time>2026-05-01T11:14:22.899Z</time></trkpt><trkpt lat="42.214925" lon="14.5763717"><ele>59.0</ele><time>2026-05-01T11:14:24.898Z</time></trkpt><trkpt lat="42.2149067" lon="14.5764783"><ele>59.0</ele><time>2026-05-01T11:14:27.898Z</time></trkpt><trkpt lat="42.214875" lon="14.57658"><ele>60.6</ele><time>2026-05-01T11:14:30.899Z</time></trkpt><trkpt lat="42.2148567" lon="14.5766867"><ele>62.2</ele><time>2026-05-01T11:14:32.898Z</time></trkpt><trkpt lat="42.2148467" lon="14.5768017"><ele>63.800000000000004</ele><time>2026-05-01T11:14:34.899Z</time></trkpt><trkpt lat="42.2148217" lon="14.576925"><ele>65.4</ele><time>2026-05-01T11:14:36.899Z</time></trkpt><trkpt lat="42.214785" lon="14.577045"><ele>67.0</ele><time>2026-05-01T11:14:38.899Z</time></trkpt><trkpt lat="42.2147483" lon="14.577195"><ele>67.0</ele><time>2026-05-01T11:14:40.898Z</time></trkpt><trkpt lat="42.21474" lon="14.5772883"><ele>67.0</ele><time>2026-05-01T11:14:41.899Z</time></trkpt><trkpt lat="42.2147283" lon="14.5773833"><ele>67.0</ele><time>2026-05-01T11:14:42.899Z</time></trkpt><trkpt lat="42.2147167" lon="14.5774883"><ele>67.0</ele><time>2026-05-01T11:14:43.899Z</time></trkpt><trkpt lat="42.2147" lon="14.5775917"><ele>67.0</ele><time>2026-05-01T11:14:44.899Z</time></trkpt><trkpt lat="42.214675" lon="14.5776933"><ele>67.0</ele><time>2026-05-01T11:14:45.899Z</time></trkpt><trkpt lat="42.2146367" lon="14.577795"><ele>65.5</ele><time>2026-05-01T11:14:46.899Z</time></trkpt><trkpt lat="42.2146017" lon="14.5778817"><ele>64.0</ele><time>2026-05-01T11:14:47.898Z</time></trkpt><trkpt lat="42.2145667" lon="14.577965"><ele>62.5</ele><time>2026-05-01T11:14:48.899Z</time></trkpt><trkpt lat="42.2145133" lon="14.5781067"><ele>61.0</ele><time>2026-05-01T11:14:50.898Z</time></trkpt><trkpt lat="42.2144567" lon="14.5782083"><ele>59.49999999999999</ele><time>2026-05-01T11:14:52.899Z</time></trkpt><trkpt lat="42.2144" lon="14.5782967"><ele>58.0</ele><time>2026-05-01T11:14:54.899Z</time></trkpt><trkpt lat="42.2143683" lon="14.5783883"><ele>58.0</ele><time>2026-05-01T11:14:56.899Z</time></trkpt><trkpt lat="42.214335" lon="14.5785083"><ele>58.0</ele><time>2026-05-01T11:14:58.898Z</time></trkpt><trkpt lat="42.214295" lon="14.5786367"><ele>58.0</ele><time>2026-05-01T11:15:00.898Z</time></trkpt><trkpt lat="42.2142483" lon="14.5787583"><ele>58.0</ele><time>2026-05-01T11:15:02.899Z</time></trkpt><trkpt lat="42.2141933" lon="14.57888"><ele>58.0</ele><time>2026-05-01T11:15:04.899Z</time></trkpt><trkpt lat="42.21413" lon="14.5790033"><ele>57.666666666666664</ele><time>2026-05-01T11:15:06.898Z</time></trkpt><trkpt lat="42.2140917" lon="14.5791133"><ele>57.33333333333333</ele><time>2026-05-01T11:15:08.899Z</time></trkpt><trkpt lat="42.2140667" lon="14.5792133"><ele>57.0</ele><time>2026-05-01T11:15:10.899Z</time></trkpt><trkpt lat="42.2140467" lon="14.5793133"><ele>56.66666666666667</ele><time>2026-05-01T11:15:12.898Z</time></trkpt><trkpt lat="42.2140217" lon="14.5794183"><ele>56.333333333333336</ele><time>2026-05-01T11:15:14.898Z</time></trkpt><trkpt lat="42.2140033" lon="14.5795183"><ele>56.0</ele><time>2026-05-01T11:15:16.899Z</time></trkpt><trkpt lat="42.2139767" lon="14.5796233"><ele>56.0</ele><time>2026-05-01T11:15:18.898Z</time></trkpt><trkpt lat="42.21396" lon="14.5797583"><ele>55.99999999999999</ele><time>2026-05-01T11:15:20.899Z</time></trkpt><trkpt lat="42.2139333" lon="14.5799133"><ele>55.99999999999999</ele><time>2026-05-01T11:15:22.899Z</time></trkpt><trkpt lat="42.213875" lon="14.5800617"><ele>56.0</ele><time>2026-05-01T11:15:24.898Z</time></trkpt><trkpt lat="42.2138433" lon="14.58015"><ele>56.0</ele><time>2026-05-01T11:15:25.899Z</time></trkpt><trkpt lat="42.21382" lon="14.58024"><ele>56.00000000000001</ele><time>2026-05-01T11:15:26.898Z</time></trkpt><trkpt lat="42.21379" lon="14.5803283"><ele>56.0</ele><time>2026-05-01T11:15:27.899Z</time></trkpt><trkpt lat="42.2137633" lon="14.58042"><ele>56.0</ele><time>2026-05-01T11:15:28.898Z</time></trkpt><trkpt lat="42.2137483" lon="14.5805117"><ele>56.0</ele><time>2026-05-01T11:15:29.899Z</time></trkpt><trkpt lat="42.2137283" lon="14.58066"><ele>56.00000000000001</ele><time>2026-05-01T11:15:31.898Z</time></trkpt><trkpt lat="42.21372" lon="14.5807933"><ele>56.0</ele><time>2026-05-01T11:15:33.899Z</time></trkpt><trkpt lat="42.21369" lon="14.5809517"><ele>54.833333333333336</ele><time>2026-05-01T11:15:35.899Z</time></trkpt><trkpt lat="42.2136867" lon="14.581045"><ele>53.66666666666667</ele><time>2026-05-01T11:15:36.898Z</time></trkpt><trkpt lat="42.2136833" lon="14.581145"><ele>52.5</ele><time>2026-05-01T11:15:37.899Z</time></trkpt><trkpt lat="42.2136783" lon="14.5812367"><ele>51.33333333333333</ele><time>2026-05-01T11:15:38.899Z</time></trkpt><trkpt lat="42.21369" lon="14.58139"><ele>50.166666666666664</ele><time>2026-05-01T11:15:40.899Z</time></trkpt><trkpt lat="42.21374" lon="14.5815333"><ele>49.0</ele><time>2026-05-01T11:15:42.899Z</time></trkpt><trkpt lat="42.2137867" lon="14.5815917"><ele>46.800000000000004</ele><time>2026-05-01T11:15:43.899Z</time></trkpt><trkpt lat="42.2138667" lon="14.5816983"><ele>44.6</ele><time>2026-05-01T11:15:45.899Z</time></trkpt><trkpt lat="42.2139767" lon="14.5818117"><ele>42.4</ele><time>2026-05-01T11:15:47.899Z</time></trkpt><trkpt lat="42.2140333" lon="14.5818683"><ele>40.2</ele><time>2026-05-01T11:15:48.899Z</time></trkpt><trkpt lat="42.21408" lon="14.5819483"><ele>38.0</ele><time>2026-05-01T11:15:49.899Z</time></trkpt><trkpt lat="42.2141483" lon="14.5820467"><ele>34.83333333333333</ele><time>2026-05-01T11:15:51.899Z</time></trkpt><trkpt lat="42.21419" lon="14.582165"><ele>31.666666666666664</ele><time>2026-05-01T11:15:59.899Z</time></trkpt><trkpt lat="42.2141617" lon="14.58225"><ele>28.5</ele><time>2026-05-01T11:16:01.898Z</time></trkpt><trkpt lat="42.21412" lon="14.58234"><ele>25.333333333333332</ele><time>2026-05-01T11:16:03.899Z</time></trkpt><trkpt lat="42.2141" lon="14.58243"><ele>22.166666666666664</ele><time>2026-05-01T11:16:05.899Z</time></trkpt><trkpt lat="42.2141667" lon="14.5824617"><ele>19.0</ele><time>2026-05-01T11:16:08.898Z</time></trkpt><trkpt lat="42.2142283" lon="14.582395"><ele>19.0</ele><time>2026-05-01T11:16:10.899Z</time></trkpt><trkpt lat="42.2142983" lon="14.5823583"><ele>19.0</ele><time>2026-05-01T11:16:12.898Z</time></trkpt><trkpt lat="42.2143867" lon="14.582395"><ele>19.0</ele><time>2026-05-01T11:16:14.899Z</time></trkpt><trkpt lat="42.2144917" lon="14.58247"><ele>19.0</ele><time>2026-05-01T11:16:16.899Z</time></trkpt><trkpt lat="42.2145733" lon="14.582555"><ele>19.0</ele><time>2026-05-01T11:16:18.899Z</time></trkpt><trkpt lat="42.2146533" lon="14.5825967"><ele>19.0</ele><time>2026-05-01T11:16:20.899Z</time></trkpt><trkpt lat="42.214735" lon="14.5825933"><ele>19.0</ele><time>2026-05-01T11:16:22.899Z</time></trkpt><trkpt lat="42.21482" lon="14.5825383"><ele>19.0</ele><time>2026-05-01T11:16:25.898Z</time></trkpt><trkpt lat="42.2147683" lon="14.5826467"><ele>19.0</ele><time>2026-05-01T11:16:34.898Z</time></trkpt><trkpt lat="42.214715" lon="14.5827267"><ele>19.0</ele><time>2026-05-01T11:16:36.898Z</time></trkpt><trkpt lat="42.2146567" lon="14.5828333"><ele>19.0</ele><time>2026-05-01T11:16:38.899Z</time></trkpt><trkpt lat="42.2145967" lon="14.58294"><ele>18.2</ele><time>2026-05-01T11:16:40.899Z</time></trkpt><trkpt lat="42.21452" lon="14.5830483"><ele>17.4</ele><time>2026-05-01T11:16:42.899Z</time></trkpt><trkpt lat="42.2144417" lon="14.583165"><ele>16.6</ele><time>2026-05-01T11:16:44.898Z</time></trkpt><trkpt lat="42.2143683" lon="14.5832583"><ele>15.8</ele><time>2026-05-01T11:16:46.899Z</time></trkpt><trkpt lat="42.2142883" lon="14.5833767"><ele>15.0</ele><time>2026-05-01T11:16:48.899Z</time></trkpt><trkpt lat="42.21421" lon="14.5835067"><ele>15.0</ele><time>2026-05-01T11:16:50.898Z</time></trkpt><trkpt lat="42.2141333" lon="14.5836267"><ele>15.0</ele><time>2026-05-01T11:16:52.899Z</time></trkpt><trkpt lat="42.2140967" lon="14.5836967"><ele>15.0</ele><time>2026-05-01T11:16:53.898Z</time></trkpt><trkpt lat="42.2140567" lon="14.5837633"><ele>15.0</ele><time>2026-05-01T11:16:54.899Z</time></trkpt><trkpt lat="42.214005" lon="14.5838383"><ele>15.0</ele><time>2026-05-01T11:16:55.898Z</time></trkpt><trkpt lat="42.21396" lon="14.5839033"><ele>15.0</ele><time>2026-05-01T11:16:56.899Z</time></trkpt><trkpt lat="42.213915" lon="14.58397"><ele>16.166666666666668</ele><time>2026-05-01T11:16:57.898Z</time></trkpt><trkpt lat="42.213855" lon="14.5840533"><ele>17.333333333333332</ele><time>2026-05-01T11:16:58.898Z</time></trkpt><trkpt lat="42.2138033" lon="14.5841317"><ele>18.5</ele><time>2026-05-01T11:16:59.899Z</time></trkpt><trkpt lat="42.2137533" lon="14.5842117"><ele>19.666666666666664</ele><time>2026-05-01T11:17:00.898Z</time></trkpt><trkpt lat="42.2137083" lon="14.584285"><ele>20.833333333333332</ele><time>2026-05-01T11:17:01.899Z</time></trkpt><trkpt lat="42.213665" lon="14.584365"><ele>22.0</ele><time>2026-05-01T11:17:02.899Z</time></trkpt><trkpt lat="42.2136267" lon="14.5844433"><ele>20.571428571428573</ele><time>2026-05-01T11:17:03.899Z</time></trkpt><trkpt lat="42.213585" lon="14.5845217"><ele>19.142857142857142</ele><time>2026-05-01T11:17:04.898Z</time></trkpt><trkpt lat="42.2135483" lon="14.5846"><ele>17.714285714285715</ele><time>2026-05-01T11:17:05.898Z</time></trkpt><trkpt lat="42.213515" lon="14.5846767"><ele>16.285714285714285</ele><time>2026-05-01T11:17:06.899Z</time></trkpt><trkpt lat="42.2134767" lon="14.5847517"><ele>14.857142857142858</ele><time>2026-05-01T11:17:07.899Z</time></trkpt><trkpt lat="42.2134367" lon="14.584825"><ele>13.428571428571427</ele><time>2026-05-01T11:17:08.899Z</time></trkpt><trkpt lat="42.2133967" lon="14.5848983"><ele>12.0</ele><time>2026-05-01T11:17:09.899Z</time></trkpt><trkpt lat="42.2133617" lon="14.58498"><ele>11.999999999999998</ele><time>2026-05-01T11:17:10.899Z</time></trkpt><trkpt lat="42.2133267" lon="14.5850617"><ele>12.0</ele><time>2026-05-01T11:17:11.898Z</time></trkpt><trkpt lat="42.2132883" lon="14.5851383"><ele>12.0</ele><time>2026-05-01T11:17:12.898Z</time></trkpt><trkpt lat="42.2132483" lon="14.5852133"><ele>12.0</ele><time>2026-05-01T11:17:13.899Z</time></trkpt><trkpt lat="42.2132083" lon="14.5852867"><ele>12.0</ele><time>2026-05-01T11:17:14.898Z</time></trkpt><trkpt lat="42.213165" lon="14.5853683"><ele>11.999999999999998</ele><time>2026-05-01T11:17:15.899Z</time></trkpt><trkpt lat="42.2131183" lon="14.5854533"><ele>12.0</ele><time>2026-05-01T11:17:16.899Z</time></trkpt><trkpt lat="42.2130733" lon="14.5855283"><ele>12.57142857142857</ele><time>2026-05-01T11:17:17.899Z</time></trkpt><trkpt lat="42.2130267" lon="14.5856117"><ele>13.142857142857142</ele><time>2026-05-01T11:17:18.899Z</time></trkpt><trkpt lat="42.2129817" lon="14.5856917"><ele>13.714285714285714</ele><time>2026-05-01T11:17:19.899Z</time></trkpt><trkpt lat="42.212935" lon="14.5857717"><ele>14.285714285714285</ele><time>2026-05-01T11:17:20.899Z</time></trkpt><trkpt lat="42.212895" lon="14.5858517"><ele>14.857142857142856</ele><time>2026-05-01T11:17:21.899Z</time></trkpt><trkpt lat="42.212865" lon="14.58593"><ele>15.428571428571427</ele><time>2026-05-01T11:17:22.899Z</time></trkpt><trkpt lat="42.2128333" lon="14.586005"><ele>16.0</ele><time>2026-05-01T11:17:23.899Z</time></trkpt><trkpt lat="42.2127983" lon="14.5860817"><ele>16.0</ele><time>2026-05-01T11:17:24.899Z</time></trkpt><trkpt lat="42.21276" lon="14.5861667"><ele>15.999999999999998</ele><time>2026-05-01T11:17:25.899Z</time></trkpt><trkpt lat="42.2127283" lon="14.5862433"><ele>16.0</ele><time>2026-05-01T11:17:26.899Z</time></trkpt><trkpt lat="42.2126867" lon="14.58633"><ele>16.0</ele><time>2026-05-01T11:17:27.899Z</time></trkpt><trkpt lat="42.2126433" lon="14.5864133"><ele>15.999999999999998</ele><time>2026-05-01T11:17:28.899Z</time></trkpt><trkpt lat="42.2126067" lon="14.5865"><ele>16.0</ele><time>2026-05-01T11:17:29.899Z</time></trkpt><trkpt lat="42.2125633" lon="14.586585"><ele>16.0</ele><time>2026-05-01T11:17:30.898Z</time></trkpt><trkpt lat="42.21252" lon="14.5866633"><ele>16.57142857142857</ele><time>2026-05-01T11:17:31.899Z</time></trkpt><trkpt lat="42.2124817" lon="14.5867433"><ele>17.142857142857142</ele><time>2026-05-01T11:17:32.899Z</time></trkpt><trkpt lat="42.2124433" lon="14.5868233"><ele>17.714285714285715</ele><time>2026-05-01T11:17:33.899Z</time></trkpt><trkpt lat="42.212405" lon="14.5869033"><ele>18.285714285714285</ele><time>2026-05-01T11:17:34.899Z</time></trkpt><trkpt lat="42.21237" lon="14.586975"><ele>18.857142857142858</ele><time>2026-05-01T11:17:35.899Z</time></trkpt><trkpt lat="42.2123333" lon="14.5870483"><ele>19.428571428571427</ele><time>2026-05-01T11:17:36.899Z</time></trkpt><trkpt lat="42.2122933" lon="14.587125"><ele>20.0</ele><time>2026-05-01T11:17:37.899Z</time></trkpt><trkpt lat="42.21225" lon="14.5872017"><ele>20.0</ele><time>2026-05-01T11:17:38.898Z</time></trkpt><trkpt lat="42.21221" lon="14.5872733"><ele>20.0</ele><time>2026-05-01T11:17:39.899Z</time></trkpt><trkpt lat="42.2121717" lon="14.5873483"><ele>20.0</ele><time>2026-05-01T11:17:40.899Z</time></trkpt><trkpt lat="42.2121317" lon="14.5874233"><ele>20.0</ele><time>2026-05-01T11:17:41.898Z</time></trkpt><trkpt lat="42.2120933" lon="14.5874983"><ele>20.0</ele><time>2026-05-01T11:17:42.898Z</time></trkpt><trkpt lat="42.2120533" lon="14.587575"><ele>20.0</ele><time>2026-05-01T11:17:43.899Z</time></trkpt><trkpt lat="42.2120117" lon="14.5876517"><ele>20.0</ele><time>2026-05-01T11:17:44.899Z</time></trkpt><trkpt lat="42.2119717" lon="14.5877283"><ele>20.0</ele><time>2026-05-01T11:17:45.898Z</time></trkpt><trkpt lat="42.2119333" lon="14.587805"><ele>20.0</ele><time>2026-05-01T11:17:46.899Z</time></trkpt><trkpt lat="42.211895" lon="14.58788"><ele>20.0</ele><time>2026-05-01T11:17:47.899Z</time></trkpt><trkpt lat="42.2118567" lon="14.587955"><ele>20.0</ele><time>2026-05-01T11:17:48.898Z</time></trkpt><trkpt lat="42.211815" lon="14.588035"><ele>20.0</ele><time>2026-05-01T11:17:49.899Z</time></trkpt><trkpt lat="42.2117733" lon="14.58811"><ele>20.0</ele><time>2026-05-01T11:17:50.899Z</time></trkpt><trkpt lat="42.21173" lon="14.58819"><ele>20.0</ele><time>2026-05-01T11:17:51.899Z</time></trkpt><trkpt lat="42.211685" lon="14.5882633"><ele>20.57142857142857</ele><time>2026-05-01T11:17:52.898Z</time></trkpt><trkpt lat="42.2116433" lon="14.5883433"><ele>21.142857142857142</ele><time>2026-05-01T11:17:53.899Z</time></trkpt><trkpt lat="42.2116067" lon="14.5884233"><ele>21.714285714285715</ele><time>2026-05-01T11:17:54.898Z</time></trkpt><trkpt lat="42.2115683" lon="14.588505"><ele>22.285714285714285</ele><time>2026-05-01T11:17:55.899Z</time></trkpt><trkpt lat="42.211525" lon="14.588585"><ele>22.857142857142858</ele><time>2026-05-01T11:17:56.899Z</time></trkpt><trkpt lat="42.2114867" lon="14.5886667"><ele>23.428571428571427</ele><time>2026-05-01T11:17:57.898Z</time></trkpt><trkpt lat="42.2114483" lon="14.5887483"><ele>24.0</ele><time>2026-05-01T11:17:58.899Z</time></trkpt><trkpt lat="42.211405" lon="14.5888317"><ele>23.999999999999996</ele><time>2026-05-01T11:17:59.899Z</time></trkpt><trkpt lat="42.2113667" lon="14.5889167"><ele>24.0</ele><time>2026-05-01T11:18:00.899Z</time></trkpt><trkpt lat="42.2113283" lon="14.5890067"><ele>24.0</ele><time>2026-05-01T11:18:01.898Z</time></trkpt><trkpt lat="42.2112967" lon="14.5891"><ele>24.0</ele><time>2026-05-01T11:18:02.899Z</time></trkpt><trkpt lat="42.2112683" lon="14.5891917"><ele>24.0</ele><time>2026-05-01T11:18:03.899Z</time></trkpt><trkpt lat="42.2112333" lon="14.5892783"><ele>23.999999999999996</ele><time>2026-05-01T11:18:04.899Z</time></trkpt><trkpt lat="42.211195" lon="14.5893633"><ele>24.0</ele><time>2026-05-01T11:18:05.899Z</time></trkpt><trkpt lat="42.2111583" lon="14.5894483"><ele>22.57142857142857</ele><time>2026-05-01T11:18:06.898Z</time></trkpt><trkpt lat="42.21112" lon="14.5895383"><ele>21.142857142857142</ele><time>2026-05-01T11:18:07.898Z</time></trkpt><trkpt lat="42.211085" lon="14.58963"><ele>19.714285714285715</ele><time>2026-05-01T11:18:08.899Z</time></trkpt><trkpt lat="42.2110517" lon="14.5897183"><ele>18.285714285714285</ele><time>2026-05-01T11:18:09.898Z</time></trkpt><trkpt lat="42.2110233" lon="14.58981"><ele>16.857142857142858</ele><time>2026-05-01T11:18:10.899Z</time></trkpt><trkpt lat="42.2110017" lon="14.5899017"><ele>15.428571428571429</ele><time>2026-05-01T11:18:11.899Z</time></trkpt><trkpt lat="42.2109767" lon="14.5899983"><ele>14.0</ele><time>2026-05-01T11:18:12.899Z</time></trkpt><trkpt lat="42.21095" lon="14.59009"><ele>14.000000000000002</ele><time>2026-05-01T11:18:13.898Z</time></trkpt><trkpt lat="42.2109183" lon="14.5901817"><ele>14.0</ele><time>2026-05-01T11:18:14.898Z</time></trkpt><trkpt lat="42.21088" lon="14.590275"><ele>14.0</ele><time>2026-05-01T11:18:15.899Z</time></trkpt><trkpt lat="42.21084" lon="14.5903667"><ele>14.0</ele><time>2026-05-01T11:18:16.898Z</time></trkpt><trkpt lat="42.2108033" lon="14.59046"><ele>14.000000000000002</ele><time>2026-05-01T11:18:17.899Z</time></trkpt><trkpt lat="42.210765" lon="14.5905533"><ele>14.0</ele><time>2026-05-01T11:18:18.899Z</time></trkpt><trkpt lat="42.21073" lon="14.5906433"><ele>14.166666666666668</ele><time>2026-05-01T11:18:19.898Z</time></trkpt><trkpt lat="42.2107017" lon="14.590735"><ele>14.333333333333334</ele><time>2026-05-01T11:18:20.899Z</time></trkpt><trkpt lat="42.2106683" lon="14.59083"><ele>14.5</ele><time>2026-05-01T11:18:21.899Z</time></trkpt><trkpt lat="42.2106333" lon="14.590925"><ele>14.666666666666668</ele><time>2026-05-01T11:18:22.898Z</time></trkpt><trkpt lat="42.2105967" lon="14.59102"><ele>14.833333333333334</ele><time>2026-05-01T11:18:23.898Z</time></trkpt><trkpt lat="42.2105583" lon="14.59111"><ele>15.0</ele><time>2026-05-01T11:18:24.899Z</time></trkpt><trkpt lat="42.2105217" lon="14.5912"><ele>15.0</ele><time>2026-05-01T11:18:25.898Z</time></trkpt><trkpt lat="42.2104833" lon="14.5912883"><ele>15.0</ele><time>2026-05-01T11:18:26.899Z</time></trkpt><trkpt lat="42.210445" lon="14.5913783"><ele>15.0</ele><time>2026-05-01T11:18:27.899Z</time></trkpt><trkpt lat="42.2104067" lon="14.5914683"><ele>15.0</ele><time>2026-05-01T11:18:28.898Z</time></trkpt><trkpt lat="42.2103717" lon="14.5915617"><ele>15.0</ele><time>2026-05-01T11:18:29.899Z</time></trkpt><trkpt lat="42.2103367" lon="14.5916483"><ele>15.0</ele><time>2026-05-01T11:18:30.899Z</time></trkpt><trkpt lat="42.2102983" lon="14.591735"><ele>15.0</ele><time>2026-05-01T11:18:31.898Z</time></trkpt><trkpt lat="42.2102583" lon="14.59182"><ele>15.0</ele><time>2026-05-01T11:18:32.899Z</time></trkpt><trkpt lat="42.2102167" lon="14.591905"><ele>15.0</ele><time>2026-05-01T11:18:33.898Z</time></trkpt><trkpt lat="42.2101817" lon="14.5919883"><ele>15.0</ele><time>2026-05-01T11:18:34.899Z</time></trkpt><trkpt lat="42.2101467" lon="14.59207"><ele>15.0</ele><time>2026-05-01T11:18:35.899Z</time></trkpt><trkpt lat="42.2101033" lon="14.592155"><ele>15.0</ele><time>2026-05-01T11:18:36.899Z</time></trkpt><trkpt lat="42.2100583" lon="14.5922417"><ele>15.0</ele><time>2026-05-01T11:18:37.899Z</time></trkpt><trkpt lat="42.21001" lon="14.59233"><ele>13.666666666666666</ele><time>2026-05-01T11:18:38.899Z</time></trkpt><trkpt lat="42.2099683" lon="14.5924117"><ele>12.333333333333334</ele><time>2026-05-01T11:18:39.899Z</time></trkpt><trkpt lat="42.2099283" lon="14.5924967"><ele>11.0</ele><time>2026-05-01T11:18:40.899Z</time></trkpt><trkpt lat="42.2098867" lon="14.5925817"><ele>9.666666666666668</ele><time>2026-05-01T11:18:41.899Z</time></trkpt><trkpt lat="42.20984" lon="14.5926667"><ele>8.333333333333334</ele><time>2026-05-01T11:18:42.899Z</time></trkpt><trkpt lat="42.2097967" lon="14.5927467"><ele>7.0</ele><time>2026-05-01T11:18:43.898Z</time></trkpt><trkpt lat="42.2097467" lon="14.5928217"><ele>7.857142857142858</ele><time>2026-05-01T11:18:44.899Z</time></trkpt><trkpt lat="42.2096967" lon="14.5929033"><ele>8.714285714285715</ele><time>2026-05-01T11:18:45.899Z</time></trkpt><trkpt lat="42.2096517" lon="14.592975"><ele>9.571428571428571</ele><time>2026-05-01T11:18:46.899Z</time></trkpt><trkpt lat="42.2096067" lon="14.5930433"><ele>10.428571428571429</ele><time>2026-05-01T11:18:47.898Z</time></trkpt><trkpt lat="42.20956" lon="14.5931233"><ele>11.285714285714286</ele><time>2026-05-01T11:18:48.899Z</time></trkpt><trkpt lat="42.2095117" lon="14.5932033"><ele>12.142857142857142</ele><time>2026-05-01T11:18:49.898Z</time></trkpt><trkpt lat="42.2094667" lon="14.59328"><ele>13.0</ele><time>2026-05-01T11:18:50.899Z</time></trkpt><trkpt lat="42.2094217" lon="14.5933533"><ele>12.999999999999998</ele><time>2026-05-01T11:18:51.898Z</time></trkpt><trkpt lat="42.209375" lon="14.59343"><ele>13.0</ele><time>2026-05-01T11:18:52.898Z</time></trkpt><trkpt lat="42.2093233" lon="14.5935083"><ele>13.0</ele><time>2026-05-01T11:18:53.899Z</time></trkpt><trkpt lat="42.2092767" lon="14.59359"><ele>13.0</ele><time>2026-05-01T11:18:54.899Z</time></trkpt><trkpt lat="42.2092367" lon="14.5936717"><ele>12.999999999999998</ele><time>2026-05-01T11:18:55.899Z</time></trkpt><trkpt lat="42.2091917" lon="14.5937533"><ele>13.0</ele><time>2026-05-01T11:18:56.899Z</time></trkpt><trkpt lat="42.209145" lon="14.593835"><ele>13.833333333333332</ele><time>2026-05-01T11:18:57.899Z</time></trkpt><trkpt lat="42.2091017" lon="14.5939133"><ele>14.666666666666666</ele><time>2026-05-01T11:18:58.899Z</time></trkpt><trkpt lat="42.209055" lon="14.5939917"><ele>15.5</ele><time>2026-05-01T11:18:59.898Z</time></trkpt><trkpt lat="42.2090117" lon="14.5940733"><ele>16.333333333333332</ele><time>2026-05-01T11:19:00.899Z</time></trkpt><trkpt lat="42.2089683" lon="14.5941567"><ele>17.166666666666668</ele><time>2026-05-01T11:19:01.899Z</time></trkpt><trkpt lat="42.2089217" lon="14.5942383"><ele>18.0</ele><time>2026-05-01T11:19:02.899Z</time></trkpt><trkpt lat="42.2088733" lon="14.5943183"><ele>18.0</ele><time>2026-05-01T11:19:03.899Z</time></trkpt><trkpt lat="42.208825" lon="14.5943983"><ele>18.0</ele><time>2026-05-01T11:19:04.899Z</time></trkpt><trkpt lat="42.2087733" lon="14.5944767"><ele>18.0</ele><time>2026-05-01T11:19:05.898Z</time></trkpt><trkpt lat="42.208725" lon="14.59456"><ele>18.0</ele><time>2026-05-01T11:19:06.899Z</time></trkpt><trkpt lat="42.20868" lon="14.594645"><ele>18.0</ele><time>2026-05-01T11:19:07.899Z</time></trkpt><trkpt lat="42.208635" lon="14.5947233"><ele>18.0</ele><time>2026-05-01T11:19:08.899Z</time></trkpt><trkpt lat="42.20859" lon="14.59481"><ele>17.333333333333332</ele><time>2026-05-01T11:19:09.899Z</time></trkpt><trkpt lat="42.2085433" lon="14.5948933"><ele>16.666666666666668</ele><time>2026-05-01T11:19:10.899Z</time></trkpt><trkpt lat="42.2084967" lon="14.5949817"><ele>16.0</ele><time>2026-05-01T11:19:11.899Z</time></trkpt><trkpt lat="42.2084517" lon="14.5950683"><ele>15.333333333333334</ele><time>2026-05-01T11:19:12.899Z</time></trkpt><trkpt lat="42.2084033" lon="14.5951533"><ele>14.666666666666668</ele><time>2026-05-01T11:19:13.899Z</time></trkpt><trkpt lat="42.2083567" lon="14.59524"><ele>14.0</ele><time>2026-05-01T11:19:14.898Z</time></trkpt><trkpt lat="42.2083083" lon="14.595325"><ele>14.666666666666668</ele><time>2026-05-01T11:19:15.898Z</time></trkpt><trkpt lat="42.2082617" lon="14.5954083"><ele>15.333333333333334</ele><time>2026-05-01T11:19:16.898Z</time></trkpt><trkpt lat="42.2082183" lon="14.5954883"><ele>16.0</ele><time>2026-05-01T11:19:17.899Z</time></trkpt><trkpt lat="42.2081717" lon="14.5955667"><ele>16.666666666666668</ele><time>2026-05-01T11:19:18.898Z</time></trkpt><trkpt lat="42.2081283" lon="14.59565"><ele>17.333333333333332</ele><time>2026-05-01T11:19:19.898Z</time></trkpt><trkpt lat="42.2080867" lon="14.595735"><ele>18.0</ele><time>2026-05-01T11:19:20.899Z</time></trkpt><trkpt lat="42.208045" lon="14.59582"><ele>18.000000000000004</ele><time>2026-05-01T11:19:21.898Z</time></trkpt><trkpt lat="42.2080017" lon="14.5959083"><ele>18.0</ele><time>2026-05-01T11:19:22.899Z</time></trkpt><trkpt lat="42.20796" lon="14.59599"><ele>18.0</ele><time>2026-05-01T11:19:23.898Z</time></trkpt><trkpt lat="42.20792" lon="14.5960717"><ele>18.0</ele><time>2026-05-01T11:19:24.898Z</time></trkpt><trkpt lat="42.2078783" lon="14.5961567"><ele>18.0</ele><time>2026-05-01T11:19:25.899Z</time></trkpt><trkpt lat="42.2078383" lon="14.59624"><ele>18.000000000000004</ele><time>2026-05-01T11:19:26.899Z</time></trkpt><trkpt lat="42.2078" lon="14.5963217"><ele>18.0</ele><time>2026-05-01T11:19:27.899Z</time></trkpt><trkpt lat="42.2077617" lon="14.5964033"><ele>17.42857142857143</ele><time>2026-05-01T11:19:28.9Z</time></trkpt><trkpt lat="42.207725" lon="14.596495"><ele>16.857142857142858</ele><time>2026-05-01T11:19:29.9Z</time></trkpt><trkpt lat="42.20769" lon="14.5965817"><ele>16.285714285714285</ele><time>2026-05-01T11:19:30.9Z</time></trkpt><trkpt lat="42.2076583" lon="14.59667"><ele>15.714285714285715</ele><time>2026-05-01T11:19:31.9Z</time></trkpt><trkpt lat="42.20762" lon="14.5967533"><ele>15.142857142857142</ele><time>2026-05-01T11:19:32.9Z</time></trkpt><trkpt lat="42.20759" lon="14.5968367"><ele>14.571428571428571</ele><time>2026-05-01T11:19:33.899Z</time></trkpt><trkpt lat="42.20756" lon="14.59692"><ele>14.0</ele><time>2026-05-01T11:19:34.9Z</time></trkpt><trkpt lat="42.20753" lon="14.597"><ele>14.833333333333334</ele><time>2026-05-01T11:19:35.9Z</time></trkpt><trkpt lat="42.2074683" lon="14.597145"><ele>15.666666666666668</ele><time>2026-05-01T11:19:37.9Z</time></trkpt><trkpt lat="42.2074283" lon="14.5972317"><ele>16.5</ele><time>2026-05-01T11:19:39.9Z</time></trkpt><trkpt lat="42.20741" lon="14.5973167"><ele>17.333333333333332</ele><time>2026-05-01T11:20:47.9Z</time></trkpt><trkpt lat="42.207375" lon="14.597395"><ele>18.166666666666664</ele><time>2026-05-01T11:20:53.899Z</time></trkpt><trkpt lat="42.20733" lon="14.5974817"><ele>19.0</ele><time>2026-05-01T11:20:57.9Z</time></trkpt><trkpt lat="42.2072817" lon="14.5975517"><ele>19.0</ele><time>2026-05-01T11:20:59.9Z</time></trkpt><trkpt lat="42.2072267" lon="14.59764"><ele>19.0</ele><time>2026-05-01T11:21:01.9Z</time></trkpt><trkpt lat="42.207175" lon="14.5977583"><ele>19.0</ele><time>2026-05-01T11:21:03.899Z</time></trkpt><trkpt lat="42.20712" lon="14.5978983"><ele>19.0</ele><time>2026-05-01T11:21:05.899Z</time></trkpt><trkpt lat="42.2070867" lon="14.5979733"><ele>19.0</ele><time>2026-05-01T11:21:06.9Z</time></trkpt><trkpt lat="42.2070583" lon="14.5980567"><ele>19.0</ele><time>2026-05-01T11:21:07.9Z</time></trkpt><trkpt lat="42.2070283" lon="14.5981383"><ele>18.428571428571427</ele><time>2026-05-01T11:21:08.9Z</time></trkpt><trkpt lat="42.206995" lon="14.5982167"><ele>17.857142857142858</ele><time>2026-05-01T11:21:09.9Z</time></trkpt><trkpt lat="42.206965" lon="14.598295"><ele>17.285714285714285</ele><time>2026-05-01T11:21:10.9Z</time></trkpt><trkpt lat="42.2069333" lon="14.598375"><ele>16.714285714285715</ele><time>2026-05-01T11:21:11.9Z</time></trkpt><trkpt lat="42.206905" lon="14.5984617"><ele>16.142857142857142</ele><time>2026-05-01T11:21:12.899Z</time></trkpt><trkpt lat="42.2068767" lon="14.5985483"><ele>15.571428571428573</ele><time>2026-05-01T11:21:13.9Z</time></trkpt><trkpt lat="42.2068467" lon="14.5986283"><ele>15.0</ele><time>2026-05-01T11:21:14.9Z</time></trkpt><trkpt lat="42.2068117" lon="14.5987067"><ele>14.0</ele><time>2026-05-01T11:21:15.899Z</time></trkpt><trkpt lat="42.20678" lon="14.5987867"><ele>13.0</ele><time>2026-05-01T11:21:16.9Z</time></trkpt><trkpt lat="42.2067483" lon="14.5988667"><ele>12.0</ele><time>2026-05-01T11:21:17.899Z</time></trkpt><trkpt lat="42.206715" lon="14.598945"><ele>11.0</ele><time>2026-05-01T11:21:18.9Z</time></trkpt><trkpt lat="42.2066833" lon="14.5990233"><ele>10.0</ele><time>2026-05-01T11:21:19.9Z</time></trkpt><trkpt lat="42.20665" lon="14.5991"><ele>9.0</ele><time>2026-05-01T11:21:20.899Z</time></trkpt><trkpt lat="42.20662" lon="14.5991783"><ele>8.0</ele><time>2026-05-01T11:21:21.9Z</time></trkpt><trkpt lat="42.20659" lon="14.599255"><ele>7.999999999999999</ele><time>2026-05-01T11:21:22.9Z</time></trkpt><trkpt lat="42.2065567" lon="14.5993333"><ele>8.0</ele><time>2026-05-01T11:21:23.9Z</time></trkpt><trkpt lat="42.2065217" lon="14.5994067"><ele>8.0</ele><time>2026-05-01T11:21:24.9Z</time></trkpt><trkpt lat="42.2064867" lon="14.59948"><ele>8.0</ele><time>2026-05-01T11:21:25.9Z</time></trkpt><trkpt lat="42.2064533" lon="14.5995567"><ele>7.999999999999999</ele><time>2026-05-01T11:21:26.899Z</time></trkpt><trkpt lat="42.2063883" lon="14.599695"><ele>8.0</ele><time>2026-05-01T11:21:28.9Z</time></trkpt><trkpt lat="42.20632" lon="14.5998317"><ele>8.0</ele><time>2026-05-01T11:21:30.899Z</time></trkpt><trkpt lat="42.2062917" lon="14.59991"><ele>8.0</ele><time>2026-05-01T11:21:31.9Z</time></trkpt><trkpt lat="42.20623" lon="14.6000467"><ele>8.0</ele><time>2026-05-01T11:21:33.9Z</time></trkpt><trkpt lat="42.2061717" lon="14.600175"><ele>8.0</ele><time>2026-05-01T11:21:35.9Z</time></trkpt><trkpt lat="42.206115" lon="14.600295"><ele>8.0</ele><time>2026-05-01T11:21:37.9Z</time></trkpt><trkpt lat="42.2060583" lon="14.6004067"><ele>7.999999999999999</ele><time>2026-05-01T11:21:39.899Z</time></trkpt><trkpt lat="42.2060167" lon="14.6005283"><ele>8.0</ele><time>2026-05-01T11:21:41.9Z</time></trkpt><trkpt lat="42.2059767" lon="14.6006383"><ele>8.0</ele><time>2026-05-01T11:21:43.9Z</time></trkpt><trkpt lat="42.2059267" lon="14.6007367"><ele>8.0</ele><time>2026-05-01T11:21:45.9Z</time></trkpt><trkpt lat="42.2058783" lon="14.600825"><ele>7.999999999999999</ele><time>2026-05-01T11:21:47.899Z</time></trkpt><trkpt lat="42.2058333" lon="14.600905"><ele>8.0</ele><time>2026-05-01T11:21:49.9Z</time></trkpt><trkpt lat="42.2057967" lon="14.6009883"><ele>8.0</ele><time>2026-05-01T11:21:51.9Z</time></trkpt><trkpt lat="42.2057667" lon="14.6010733"><ele>7.999999999999999</ele><time>2026-05-01T11:21:53.899Z</time></trkpt><trkpt lat="42.20574" lon="14.60117"><ele>8.0</ele><time>2026-05-01T11:21:55.9Z</time></trkpt><trkpt lat="42.2057067" lon="14.6012467"><ele>8.0</ele><time>2026-05-01T11:21:57.9Z</time></trkpt><trkpt lat="42.2056583" lon="14.6013483"><ele>7.999999999999999</ele><time>2026-05-01T11:22:00.9Z</time></trkpt><trkpt lat="42.205615" lon="14.60142"><ele>8.0</ele><time>2026-05-01T11:22:02.9Z</time></trkpt><trkpt lat="42.2055833" lon="14.601495"><ele>8.0</ele><time>2026-05-01T11:22:04.9Z</time></trkpt><trkpt lat="42.2055333" lon="14.6016083"><ele>7.800000000000001</ele><time>2026-05-01T11:22:07.9Z</time></trkpt><trkpt lat="42.2054933" lon="14.6016983"><ele>7.6000000000000005</ele><time>2026-05-01T11:22:09.9Z</time></trkpt><trkpt lat="42.2054483" lon="14.6017933"><ele>7.3999999999999995</ele><time>2026-05-01T11:22:11.9Z</time></trkpt><trkpt lat="42.2054017" lon="14.601905"><ele>7.199999999999999</ele><time>2026-05-01T11:22:13.9Z</time></trkpt><trkpt lat="42.2053467" lon="14.6020267"><ele>7.0</ele><time>2026-05-01T11:22:15.9Z</time></trkpt><trkpt lat="42.2052883" lon="14.602155"><ele>7.0</ele><time>2026-05-01T11:22:17.899Z</time></trkpt><trkpt lat="42.2052267" lon="14.602285"><ele>6.999999999999999</ele><time>2026-05-01T11:22:19.9Z</time></trkpt><trkpt lat="42.20516" lon="14.60242"><ele>6.999999999999999</ele><time>2026-05-01T11:22:21.9Z</time></trkpt><trkpt lat="42.2051267" lon="14.6024933"><ele>7.0</ele><time>2026-05-01T11:22:22.899Z</time></trkpt><trkpt lat="42.2050917" lon="14.6025667"><ele>7.0</ele><time>2026-05-01T11:22:23.9Z</time></trkpt><trkpt lat="42.2050267" lon="14.6027133"><ele>7.0</ele><time>2026-05-01T11:22:25.899Z</time></trkpt><trkpt lat="42.204995" lon="14.6027917"><ele>7.0</ele><time>2026-05-01T11:22:26.9Z</time></trkpt><trkpt lat="42.204965" lon="14.6028683"><ele>7.0</ele><time>2026-05-01T11:22:27.9Z</time></trkpt><trkpt lat="42.2049333" lon="14.60295"><ele>7.0</ele><time>2026-05-01T11:22:28.9Z</time></trkpt><trkpt lat="42.2049033" lon="14.6030317"><ele>7.0</ele><time>2026-05-01T11:22:29.9Z</time></trkpt><trkpt lat="42.2048717" lon="14.6031117"><ele>7.0</ele><time>2026-05-01T11:22:30.9Z</time></trkpt><trkpt lat="42.20484" lon="14.6031933"><ele>7.0</ele><time>2026-05-01T11:22:31.9Z</time></trkpt><trkpt lat="42.2047783" lon="14.6033417"><ele>6.000000000000001</ele><time>2026-05-01T11:22:33.9Z</time></trkpt><trkpt lat="42.2047383" lon="14.6034117"><ele>5.0</ele><time>2026-05-01T11:22:34.9Z</time></trkpt><trkpt lat="42.2047017" lon="14.603485"><ele>4.0</ele><time>2026-05-01T11:22:35.9Z</time></trkpt><trkpt lat="42.204665" lon="14.6035633"><ele>3.0</ele><time>2026-05-01T11:22:36.9Z</time></trkpt><trkpt lat="42.20462" lon="14.6036283"><ele>2.0</ele><time>2026-05-01T11:22:37.9Z</time></trkpt><trkpt lat="42.2045433" lon="14.6037517"><ele>1.0</ele><time>2026-05-01T11:22:39.899Z</time></trkpt><trkpt lat="42.2044867" lon="14.6038883"><ele>0.8</ele><time>2026-05-01T11:22:41.899Z</time></trkpt><trkpt lat="42.2044317" lon="14.60403"><ele>0.6000000000000001</ele><time>2026-05-01T11:22:43.9Z</time></trkpt><trkpt lat="42.2044" lon="14.604105"><ele>0.4</ele><time>2026-05-01T11:22:44.899Z</time></trkpt><trkpt lat="42.2043667" lon="14.6041783"><ele>0.2</ele><time>2026-05-01T11:22:45.9Z</time></trkpt><trkpt lat="42.2043083" lon="14.604325"><ele>0.0</ele><time>2026-05-01T11:22:47.9Z</time></trkpt><trkpt lat="42.2042433" lon="14.6044783"><ele>0.16666666666666666</ele><time>2026-05-01T11:22:49.9Z</time></trkpt><trkpt lat="42.2042117" lon="14.6045583"><ele>0.3333333333333333</ele><time>2026-05-01T11:22:50.9Z</time></trkpt><trkpt lat="42.2041483" lon="14.6047083"><ele>0.5</ele><time>2026-05-01T11:22:52.9Z</time></trkpt><trkpt lat="42.2041133" lon="14.6047867"><ele>0.6666666666666666</ele><time>2026-05-01T11:22:53.899Z</time></trkpt><trkpt lat="42.2040783" lon="14.6048633"><ele>0.8333333333333333</ele><time>2026-05-01T11:22:54.899Z</time></trkpt><trkpt lat="42.2040483" lon="14.6049417"><ele>1.0</ele><time>2026-05-01T11:22:55.9Z</time></trkpt><trkpt lat="42.2040133" lon="14.6050233"><ele>1.0</ele><time>2026-05-01T11:22:56.9Z</time></trkpt><trkpt lat="42.20398" lon="14.6051033"><ele>0.9999999999999999</ele><time>2026-05-01T11:22:57.899Z</time></trkpt><trkpt lat="42.2039483" lon="14.6051783"><ele>1.0</ele><time>2026-05-01T11:22:58.9Z</time></trkpt><trkpt lat="42.203915" lon="14.605255"><ele>1.0</ele><time>2026-05-01T11:22:59.9Z</time></trkpt><trkpt lat="42.2038817" lon="14.6053333"><ele>0.9999999999999999</ele><time>2026-05-01T11:23:00.9Z</time></trkpt><trkpt lat="42.20385" lon="14.6054083"><ele>1.0</ele><time>2026-05-01T11:23:01.899Z</time></trkpt><trkpt lat="42.203815" lon="14.605485"><ele>1.0</ele><time>2026-05-01T11:23:02.9Z</time></trkpt><trkpt lat="42.2037767" lon="14.605565"><ele>0.8333333333333333</ele><time>2026-05-01T11:23:03.9Z</time></trkpt><trkpt lat="42.20371" lon="14.60571"><ele>0.6666666666666666</ele><time>2026-05-01T11:23:05.9Z</time></trkpt><trkpt lat="42.2036767" lon="14.6057883"><ele>0.5</ele><time>2026-05-01T11:23:06.9Z</time></trkpt><trkpt lat="42.2036433" lon="14.6058633"><ele>0.3333333333333333</ele><time>2026-05-01T11:23:07.9Z</time></trkpt><trkpt lat="42.2036083" lon="14.6059417"><ele>0.16666666666666666</ele><time>2026-05-01T11:23:08.9Z</time></trkpt><trkpt lat="42.203575" lon="14.6060183"><ele>0.0</ele><time>2026-05-01T11:23:09.899Z</time></trkpt><trkpt lat="42.203545" lon="14.6060967"><ele>0.14285714285714285</ele><time>2026-05-01T11:23:10.9Z</time></trkpt><trkpt lat="42.2035083" lon="14.606175"><ele>0.2857142857142857</ele><time>2026-05-01T11:23:11.9Z</time></trkpt><trkpt lat="42.2034733" lon="14.606255"><ele>0.42857142857142855</ele><time>2026-05-01T11:23:12.899Z</time></trkpt><trkpt lat="42.2034383" lon="14.606335"><ele>0.5714285714285714</ele><time>2026-05-01T11:23:13.899Z</time></trkpt><trkpt lat="42.2034083" lon="14.6064133"><ele>0.7142857142857142</ele><time>2026-05-01T11:23:14.9Z</time></trkpt><trkpt lat="42.2033767" lon="14.6064933"><ele>0.8571428571428571</ele><time>2026-05-01T11:23:15.9Z</time></trkpt><trkpt lat="42.203345" lon="14.6065733"><ele>1.0</ele><time>2026-05-01T11:23:16.9Z</time></trkpt><trkpt lat="42.2033133" lon="14.606655"><ele>1.0</ele><time>2026-05-01T11:23:17.9Z</time></trkpt><trkpt lat="42.20328" lon="14.606735"><ele>0.9999999999999999</ele><time>2026-05-01T11:23:18.9Z</time></trkpt><trkpt lat="42.2032467" lon="14.6068133"><ele>1.0</ele><time>2026-05-01T11:23:19.9Z</time></trkpt><trkpt lat="42.20321" lon="14.60689"><ele>1.0</ele><time>2026-05-01T11:23:20.9Z</time></trkpt><trkpt lat="42.20317" lon="14.6069717"><ele>0.9999999999999999</ele><time>2026-05-01T11:23:21.9Z</time></trkpt><trkpt lat="42.2031317" lon="14.60705"><ele>1.0</ele><time>2026-05-01T11:23:22.899Z</time></trkpt><trkpt lat="42.203095" lon="14.6071267"><ele>1.0</ele><time>2026-05-01T11:23:23.899Z</time></trkpt><trkpt lat="42.2030617" lon="14.6072067"><ele>1.2857142857142856</ele><time>2026-05-01T11:23:24.9Z</time></trkpt><trkpt lat="42.2030233" lon="14.6072867"><ele>1.5714285714285712</ele><time>2026-05-01T11:23:25.9Z</time></trkpt><trkpt lat="42.2029883" lon="14.6073683"><ele>1.857142857142857</ele><time>2026-05-01T11:23:26.899Z</time></trkpt><trkpt lat="42.2029517" lon="14.6074517"><ele>2.142857142857143</ele><time>2026-05-01T11:23:27.899Z</time></trkpt><trkpt lat="42.2029133" lon="14.607535"><ele>2.4285714285714284</ele><time>2026-05-01T11:23:28.899Z</time></trkpt><trkpt lat="42.2028733" lon="14.6076167"><ele>2.714285714285714</ele><time>2026-05-01T11:23:29.9Z</time></trkpt><trkpt lat="42.2028367" lon="14.607695"><ele>3.0</ele><time>2026-05-01T11:23:30.9Z</time></trkpt><trkpt lat="42.2028" lon="14.6077767"><ele>3.1428571428571423</ele><time>2026-05-01T11:23:31.9Z</time></trkpt><trkpt lat="42.2027667" lon="14.6078633"><ele>3.2857142857142856</ele><time>2026-05-01T11:23:32.899Z</time></trkpt><trkpt lat="42.20273" lon="14.607945"><ele>3.4285714285714284</ele><time>2026-05-01T11:23:33.9Z</time></trkpt><trkpt lat="42.20269" lon="14.6080267"><ele>3.571428571428571</ele><time>2026-05-01T11:23:34.9Z</time></trkpt><trkpt lat="42.2026583" lon="14.6081083"><ele>3.714285714285714</ele><time>2026-05-01T11:23:35.899Z</time></trkpt><trkpt lat="42.2026283" lon="14.60819"><ele>3.8571428571428568</ele><time>2026-05-01T11:23:36.9Z</time></trkpt><trkpt lat="42.2025967" lon="14.6082717"><ele>4.0</ele><time>2026-05-01T11:23:37.9Z</time></trkpt><trkpt lat="42.202565" lon="14.6083533"><ele>3.9999999999999996</ele><time>2026-05-01T11:23:38.9Z</time></trkpt><trkpt lat="42.2025317" lon="14.6084367"><ele>4.0</ele><time>2026-05-01T11:23:39.899Z</time></trkpt><trkpt lat="42.2025" lon="14.60852"><ele>4.0</ele><time>2026-05-01T11:23:40.899Z</time></trkpt><trkpt lat="42.2024667" lon="14.6085967"><ele>4.0</ele><time>2026-05-01T11:23:41.9Z</time></trkpt><trkpt lat="42.2024367" lon="14.6086717"><ele>3.9999999999999996</ele><time>2026-05-01T11:23:42.9Z</time></trkpt><trkpt lat="42.202375" lon="14.6088133"><ele>4.0</ele><time>2026-05-01T11:23:44.9Z</time></trkpt><trkpt lat="42.2023117" lon="14.6089567"><ele>3.8000000000000003</ele><time>2026-05-01T11:23:46.899Z</time></trkpt><trkpt lat="42.2022617" lon="14.6090933"><ele>3.6000000000000005</ele><time>2026-05-01T11:23:48.9Z</time></trkpt><trkpt lat="42.2022133" lon="14.609215"><ele>3.4</ele><time>2026-05-01T11:23:50.9Z</time></trkpt><trkpt lat="42.202165" lon="14.6093333"><ele>3.2</ele><time>2026-05-01T11:23:52.9Z</time></trkpt><trkpt lat="42.202115" lon="14.6094517"><ele>3.0</ele><time>2026-05-01T11:23:54.899Z</time></trkpt><trkpt lat="42.2020667" lon="14.609565"><ele>3.0</ele><time>2026-05-01T11:23:56.9Z</time></trkpt><trkpt lat="42.202015" lon="14.60969"><ele>3.0</ele><time>2026-05-01T11:23:58.9Z</time></trkpt><trkpt lat="42.201965" lon="14.609815"><ele>3.0</ele><time>2026-05-01T11:24:00.9Z</time></trkpt><trkpt lat="42.20194" lon="14.6099483"><ele>3.0</ele><time>2026-05-01T11:24:02.899Z</time></trkpt><trkpt lat="42.201935" lon="14.6101067"><ele>3.0</ele><time>2026-05-01T11:24:04.9Z</time></trkpt><trkpt lat="42.2019317" lon="14.6102"><ele>2.9999999999999996</ele><time>2026-05-01T11:24:05.9Z</time></trkpt><trkpt lat="42.2019333" lon="14.610295"><ele>3.0</ele><time>2026-05-01T11:24:06.9Z</time></trkpt><trkpt lat="42.2019333" lon="14.6104"><ele>3.0</ele><time>2026-05-01T11:24:07.899Z</time></trkpt><trkpt lat="42.20193" lon="14.6104933"><ele>3.0</ele><time>2026-05-01T11:24:08.899Z</time></trkpt><trkpt lat="42.2019067" lon="14.61059"><ele>3.0</ele><time>2026-05-01T11:24:09.9Z</time></trkpt><trkpt lat="42.2018683" lon="14.6106817"><ele>2.9999999999999996</ele><time>2026-05-01T11:24:10.9Z</time></trkpt><trkpt lat="42.20183" lon="14.6107667"><ele>3.0</ele><time>2026-05-01T11:24:11.9Z</time></trkpt><trkpt lat="42.201795" lon="14.610855"><ele>3.2857142857142856</ele><time>2026-05-01T11:24:12.899Z</time></trkpt><trkpt lat="42.2017583" lon="14.6109467"><ele>3.571428571428571</ele><time>2026-05-01T11:24:13.9Z</time></trkpt><trkpt lat="42.201725" lon="14.6110367"><ele>3.8571428571428568</ele><time>2026-05-01T11:24:14.9Z</time></trkpt><trkpt lat="42.2016933" lon="14.6111283"><ele>4.142857142857142</ele><time>2026-05-01T11:24:15.9Z</time></trkpt><trkpt lat="42.20166" lon="14.6112167"><ele>4.428571428571429</ele><time>2026-05-01T11:24:16.9Z</time></trkpt><trkpt lat="42.2016333" lon="14.611305"><ele>4.714285714285714</ele><time>2026-05-01T11:24:17.899Z</time></trkpt><trkpt lat="42.20161" lon="14.6113933"><ele>5.0</ele><time>2026-05-01T11:24:18.899Z</time></trkpt><trkpt lat="42.201585" lon="14.61148"><ele>5.0</ele><time>2026-05-01T11:24:19.899Z</time></trkpt><trkpt lat="42.2015617" lon="14.6115717"><ele>5.0</ele><time>2026-05-01T11:24:20.9Z</time></trkpt><trkpt lat="42.2015367" lon="14.6116617"><ele>5.0</ele><time>2026-05-01T11:24:21.9Z</time></trkpt><trkpt lat="42.2015133" lon="14.6117433"><ele>5.0</ele><time>2026-05-01T11:24:22.899Z</time></trkpt><trkpt lat="42.2014867" lon="14.6118283"><ele>5.0</ele><time>2026-05-01T11:24:23.9Z</time></trkpt><trkpt lat="42.20146" lon="14.6119167"><ele>5.0</ele><time>2026-05-01T11:24:24.9Z</time></trkpt><trkpt lat="42.201435" lon="14.6120017"><ele>5.0</ele><time>2026-05-01T11:24:25.899Z</time></trkpt><trkpt lat="42.2014133" lon="14.6120833"><ele>5.166666666666667</ele><time>2026-05-01T11:24:26.9Z</time></trkpt><trkpt lat="42.20139" lon="14.61217"><ele>5.333333333333334</ele><time>2026-05-01T11:24:27.899Z</time></trkpt><trkpt lat="42.2013667" lon="14.61225"><ele>5.5</ele><time>2026-05-01T11:24:28.899Z</time></trkpt><trkpt lat="42.2013433" lon="14.6123317"><ele>5.666666666666667</ele><time>2026-05-01T11:24:29.9Z</time></trkpt><trkpt lat="42.2013017" lon="14.6124917"><ele>5.833333333333333</ele><time>2026-05-01T11:24:31.899Z</time></trkpt><trkpt lat="42.20126" lon="14.6126467"><ele>6.0</ele><time>2026-05-01T11:24:33.9Z</time></trkpt><trkpt lat="42.2012167" lon="14.612795"><ele>6.199999999999999</ele><time>2026-05-01T11:24:35.899Z</time></trkpt><trkpt lat="42.2011767" lon="14.6129283"><ele>6.3999999999999995</ele><time>2026-05-01T11:24:37.9Z</time></trkpt><trkpt lat="42.20114" lon="14.6130583"><ele>6.6</ele><time>2026-05-01T11:24:39.9Z</time></trkpt><trkpt lat="42.201095" lon="14.613185"><ele>6.8</ele><time>2026-05-01T11:24:41.9Z</time></trkpt><trkpt lat="42.2010517" lon="14.6133017"><ele>7.0</ele><time>2026-05-01T11:24:43.9Z</time></trkpt><trkpt lat="42.2010117" lon="14.6134167"><ele>7.000000000000001</ele><time>2026-05-01T11:24:45.9Z</time></trkpt><trkpt lat="42.2009733" lon="14.6135267"><ele>7.0</ele><time>2026-05-01T11:24:47.9Z</time></trkpt><trkpt lat="42.2009317" lon="14.6136417"><ele>7.0</ele><time>2026-05-01T11:24:49.899Z</time></trkpt><trkpt lat="42.2008883" lon="14.6137483"><ele>7.0</ele><time>2026-05-01T11:24:51.9Z</time></trkpt><trkpt lat="42.2008467" lon="14.6138483"><ele>7.000000000000001</ele><time>2026-05-01T11:24:53.9Z</time></trkpt><trkpt lat="42.2008167" lon="14.61394"><ele>7.0</ele><time>2026-05-01T11:24:55.899Z</time></trkpt><trkpt lat="42.2007933" lon="14.61403"><ele>6.6</ele><time>2026-05-01T11:24:57.9Z</time></trkpt><trkpt lat="42.20076" lon="14.614135"><ele>6.199999999999999</ele><time>2026-05-01T11:24:59.899Z</time></trkpt><trkpt lat="42.200725" lon="14.614255"><ele>5.8</ele><time>2026-05-01T11:25:01.9Z</time></trkpt><trkpt lat="42.2006917" lon="14.614385"><ele>5.4</ele><time>2026-05-01T11:25:03.9Z</time></trkpt><trkpt lat="42.2006583" lon="14.614515"><ele>5.0</ele><time>2026-05-01T11:25:05.9Z</time></trkpt><trkpt lat="42.2006483" lon="14.6146667"><ele>4.8</ele><time>2026-05-01T11:25:07.9Z</time></trkpt><trkpt lat="42.2006483" lon="14.6148083"><ele>4.6</ele><time>2026-05-01T11:25:09.899Z</time></trkpt><trkpt lat="42.2006133" lon="14.6149583"><ele>4.4</ele><time>2026-05-01T11:25:11.899Z</time></trkpt><trkpt lat="42.200565" lon="14.6150883"><ele>4.2</ele><time>2026-05-01T11:25:13.899Z</time></trkpt><trkpt lat="42.200505" lon="14.6152033"><ele>4.0</ele><time>2026-05-01T11:25:15.899Z</time></trkpt><trkpt lat="42.200465" lon="14.6153333"><ele>4.0</ele><time>2026-05-01T11:25:17.899Z</time></trkpt><trkpt lat="42.2004267" lon="14.61545"><ele>4.0</ele><time>2026-05-01T11:25:19.9Z</time></trkpt><trkpt lat="42.2003783" lon="14.6155217"><ele>4.0</ele><time>2026-05-01T11:25:21.9Z</time></trkpt><trkpt lat="42.2003067" lon="14.6155983"><ele>4.0</ele><time>2026-05-01T11:25:23.9Z</time></trkpt><trkpt lat="42.2002517" lon="14.615715"><ele>4.0</ele><time>2026-05-01T11:25:25.9Z</time></trkpt><trkpt lat="42.20021" lon="14.6158383"><ele>4.0</ele><time>2026-05-01T11:25:27.9Z</time></trkpt><trkpt lat="42.2001683" lon="14.6159633"><ele>4.0</ele><time>2026-05-01T11:25:29.899Z</time></trkpt><trkpt lat="42.2001333" lon="14.61608"><ele>4.0</ele><time>2026-05-01T11:25:31.899Z</time></trkpt><trkpt lat="42.2001017" lon="14.6161817"><ele>4.0</ele><time>2026-05-01T11:25:33.9Z</time></trkpt><trkpt lat="42.2000617" lon="14.6162983"><ele>4.0</ele><time>2026-05-01T11:25:35.899Z</time></trkpt><trkpt lat="42.20002" lon="14.6164317"><ele>4.4</ele><time>2026-05-01T11:25:37.899Z</time></trkpt><trkpt lat="42.1999783" lon="14.61657"><ele>4.800000000000001</ele><time>2026-05-01T11:25:39.9Z</time></trkpt><trkpt lat="42.19993" lon="14.61671"><ele>5.199999999999999</ele><time>2026-05-01T11:25:41.9Z</time></trkpt><trkpt lat="42.1999017" lon="14.6167867"><ele>5.6</ele><time>2026-05-01T11:25:42.899Z</time></trkpt><trkpt lat="42.1998467" lon="14.6169367"><ele>6.0</ele><time>2026-05-01T11:25:44.9Z</time></trkpt><trkpt lat="42.1997967" lon="14.6170883"><ele>6.0</ele><time>2026-05-01T11:25:46.899Z</time></trkpt><trkpt lat="42.1997483" lon="14.61725"><ele>6.0</ele><time>2026-05-01T11:25:48.9Z</time></trkpt><trkpt lat="42.19972" lon="14.6173333"><ele>6.0</ele><time>2026-05-01T11:25:49.899Z</time></trkpt><trkpt lat="42.19969" lon="14.6174167"><ele>6.0</ele><time>2026-05-01T11:25:50.9Z</time></trkpt><trkpt lat="42.19966" lon="14.6174983"><ele>6.0</ele><time>2026-05-01T11:25:51.9Z</time></trkpt><trkpt lat="42.1996317" lon="14.617585"><ele>6.0</ele><time>2026-05-01T11:25:52.899Z</time></trkpt><trkpt lat="42.199605" lon="14.6176667"><ele>5.999999999999999</ele><time>2026-05-01T11:25:53.9Z</time></trkpt><trkpt lat="42.199575" lon="14.6177533"><ele>6.0</ele><time>2026-05-01T11:25:54.899Z</time></trkpt><trkpt lat="42.1995483" lon="14.6178417"><ele>6.0</ele><time>2026-05-01T11:25:55.899Z</time></trkpt><trkpt lat="42.19952" lon="14.6179233"><ele>6.0</ele><time>2026-05-01T11:25:56.9Z</time></trkpt><trkpt lat="42.1994883" lon="14.61801"><ele>6.0</ele><time>2026-05-01T11:25:57.899Z</time></trkpt><trkpt lat="42.1994617" lon="14.6180983"><ele>5.999999999999999</ele><time>2026-05-01T11:25:58.9Z</time></trkpt><trkpt lat="42.1994333" lon="14.6181833"><ele>6.0</ele><time>2026-05-01T11:25:59.899Z</time></trkpt><trkpt lat="42.19941" lon="14.61827"><ele>5.3999999999999995</ele><time>2026-05-01T11:26:00.9Z</time></trkpt><trkpt lat="42.1993833" lon="14.6183567"><ele>4.8</ele><time>2026-05-01T11:26:01.9Z</time></trkpt><trkpt lat="42.1993317" lon="14.6185033"><ele>4.199999999999999</ele><time>2026-05-01T11:26:03.9Z</time></trkpt><trkpt lat="42.1992833" lon="14.6186567"><ele>3.5999999999999996</ele><time>2026-05-01T11:26:05.9Z</time></trkpt><trkpt lat="42.1992317" lon="14.6188017"><ele>3.0</ele><time>2026-05-01T11:26:07.899Z</time></trkpt><trkpt lat="42.19918" lon="14.618935"><ele>2.8333333333333335</ele><time>2026-05-01T11:26:09.9Z</time></trkpt><trkpt lat="42.1991333" lon="14.6190833"><ele>2.6666666666666665</ele><time>2026-05-01T11:26:11.9Z</time></trkpt><trkpt lat="42.1990833" lon="14.6192367"><ele>2.5</ele><time>2026-05-01T11:26:13.9Z</time></trkpt><trkpt lat="42.19906" lon="14.6193167"><ele>2.333333333333333</ele><time>2026-05-01T11:26:14.9Z</time></trkpt><trkpt lat="42.1990333" lon="14.6193967"><ele>2.1666666666666665</ele><time>2026-05-01T11:26:15.9Z</time></trkpt><trkpt lat="42.1990067" lon="14.6194783"><ele>2.0</ele><time>2026-05-01T11:26:16.9Z</time></trkpt><trkpt lat="42.1989517" lon="14.6196367"><ele>3.1666666666666665</ele><time>2026-05-01T11:26:18.899Z</time></trkpt><trkpt lat="42.1989" lon="14.6197933"><ele>4.333333333333333</ele><time>2026-05-01T11:26:20.899Z</time></trkpt><trkpt lat="42.1988767" lon="14.6198817"><ele>5.5</ele><time>2026-05-01T11:26:21.899Z</time></trkpt><trkpt lat="42.1988483" lon="14.619965"><ele>6.666666666666667</ele><time>2026-05-01T11:26:22.899Z</time></trkpt><trkpt lat="42.1988217" lon="14.6200467"><ele>7.833333333333333</ele><time>2026-05-01T11:26:23.9Z</time></trkpt><trkpt lat="42.1988" lon="14.620135"><ele>9.0</ele><time>2026-05-01T11:26:24.9Z</time></trkpt><trkpt lat="42.1987767" lon="14.6202183"><ele>9.000000000000002</ele><time>2026-05-01T11:26:25.9Z</time></trkpt><trkpt lat="42.1987517" lon="14.62031"><ele>9.0</ele><time>2026-05-01T11:26:26.9Z</time></trkpt><trkpt lat="42.1987283" lon="14.6203933"><ele>9.0</ele><time>2026-05-01T11:26:27.899Z</time></trkpt><trkpt lat="42.1987017" lon="14.6204767"><ele>9.0</ele><time>2026-05-01T11:26:28.9Z</time></trkpt><trkpt lat="42.1986767" lon="14.6205633"><ele>9.0</ele><time>2026-05-01T11:26:29.899Z</time></trkpt><trkpt lat="42.1986533" lon="14.62065"><ele>9.000000000000002</ele><time>2026-05-01T11:26:30.899Z</time></trkpt><trkpt lat="42.1986317" lon="14.62074"><ele>9.0</ele><time>2026-05-01T11:26:31.9Z</time></trkpt><trkpt lat="42.1986067" lon="14.6208317"><ele>9.000000000000002</ele><time>2026-05-01T11:26:32.899Z</time></trkpt><trkpt lat="42.1985817" lon="14.620915"><ele>9.0</ele><time>2026-05-01T11:26:33.899Z</time></trkpt><trkpt lat="42.1985583" lon="14.621005"><ele>9.0</ele><time>2026-05-01T11:26:34.9Z</time></trkpt><trkpt lat="42.1985333" lon="14.6210883"><ele>9.0</ele><time>2026-05-01T11:26:35.9Z</time></trkpt><trkpt lat="42.1985083" lon="14.6211733"><ele>9.0</ele><time>2026-05-01T11:26:36.9Z</time></trkpt><trkpt lat="42.1984833" lon="14.6212567"><ele>9.000000000000002</ele><time>2026-05-01T11:26:37.899Z</time></trkpt><trkpt lat="42.19846" lon="14.6213467"><ele>9.0</ele><time>2026-05-01T11:26:38.899Z</time></trkpt><trkpt lat="42.1984383" lon="14.6214333"><ele>8.857142857142858</ele><time>2026-05-01T11:26:39.9Z</time></trkpt><trkpt lat="42.1984117" lon="14.6215183"><ele>8.714285714285715</ele><time>2026-05-01T11:26:40.9Z</time></trkpt><trkpt lat="42.1983833" lon="14.6216033"><ele>8.571428571428571</ele><time>2026-05-01T11:26:41.9Z</time></trkpt><trkpt lat="42.1983617" lon="14.62169"><ele>8.428571428571429</ele><time>2026-05-01T11:26:42.899Z</time></trkpt><trkpt lat="42.1983367" lon="14.62177"><ele>8.285714285714285</ele><time>2026-05-01T11:26:43.9Z</time></trkpt><trkpt lat="42.1983117" lon="14.6218617"><ele>8.142857142857142</ele><time>2026-05-01T11:26:44.9Z</time></trkpt><trkpt lat="42.1982867" lon="14.6219533"><ele>8.0</ele><time>2026-05-01T11:26:45.9Z</time></trkpt><trkpt lat="42.1982567" lon="14.6220383"><ele>7.428571428571428</ele><time>2026-05-01T11:26:46.9Z</time></trkpt><trkpt lat="42.1982317" lon="14.6221233"><ele>6.857142857142856</ele><time>2026-05-01T11:26:47.9Z</time></trkpt><trkpt lat="42.1982067" lon="14.6222067"><ele>6.285714285714286</ele><time>2026-05-01T11:26:48.9Z</time></trkpt><trkpt lat="42.1981817" lon="14.62229"><ele>5.7142857142857135</ele><time>2026-05-01T11:26:49.9Z</time></trkpt><trkpt lat="42.19816" lon="14.6223767"><ele>5.142857142857142</ele><time>2026-05-01T11:26:50.9Z</time></trkpt><trkpt lat="42.1981367" lon="14.622465"><ele>4.571428571428571</ele><time>2026-05-01T11:26:51.9Z</time></trkpt><trkpt lat="42.1981083" lon="14.6225517"><ele>4.0</ele><time>2026-05-01T11:26:52.9Z</time></trkpt><trkpt lat="42.19808" lon="14.6226367"><ele>5.0</ele><time>2026-05-01T11:26:53.899Z</time></trkpt><trkpt lat="42.1980533" lon="14.62272"><ele>6.0</ele><time>2026-05-01T11:26:54.9Z</time></trkpt><trkpt lat="42.1980267" lon="14.6228067"><ele>7.0</ele><time>2026-05-01T11:26:55.9Z</time></trkpt><trkpt lat="42.198" lon="14.6228883"><ele>8.0</ele><time>2026-05-01T11:26:56.899Z</time></trkpt><trkpt lat="42.1979667" lon="14.6229667"><ele>9.0</ele><time>2026-05-01T11:26:57.9Z</time></trkpt><trkpt lat="42.19794" lon="14.62305"><ele>10.0</ele><time>2026-05-01T11:26:58.9Z</time></trkpt><trkpt lat="42.1979167" lon="14.6231417"><ele>11.0</ele><time>2026-05-01T11:26:59.899Z</time></trkpt><trkpt lat="42.197895" lon="14.6232333"><ele>11.0</ele><time>2026-05-01T11:27:00.9Z</time></trkpt><trkpt lat="42.1978733" lon="14.6233267"><ele>11.0</ele><time>2026-05-01T11:27:01.9Z</time></trkpt><trkpt lat="42.1978517" lon="14.6234133"><ele>11.0</ele><time>2026-05-01T11:27:02.9Z</time></trkpt><trkpt lat="42.19783" lon="14.6235"><ele>11.0</ele><time>2026-05-01T11:27:03.9Z</time></trkpt><trkpt lat="42.1978067" lon="14.62359"><ele>11.0</ele><time>2026-05-01T11:27:04.899Z</time></trkpt><trkpt lat="42.1977817" lon="14.6236783"><ele>11.0</ele><time>2026-05-01T11:27:05.9Z</time></trkpt><trkpt lat="42.19776" lon="14.6237667"><ele>11.0</ele><time>2026-05-01T11:27:06.899Z</time></trkpt><trkpt lat="42.1977383" lon="14.6238533"><ele>10.714285714285715</ele><time>2026-05-01T11:27:07.899Z</time></trkpt><trkpt lat="42.1977117" lon="14.623935"><ele>10.428571428571429</ele><time>2026-05-01T11:27:08.9Z</time></trkpt><trkpt lat="42.1976833" lon="14.62402"><ele>10.142857142857142</ele><time>2026-05-01T11:27:09.9Z</time></trkpt><trkpt lat="42.19766" lon="14.6241083"><ele>9.857142857142858</ele><time>2026-05-01T11:27:10.9Z</time></trkpt><trkpt lat="42.197635" lon="14.6242"><ele>9.571428571428571</ele><time>2026-05-01T11:27:11.899Z</time></trkpt><trkpt lat="42.197605" lon="14.624285"><ele>9.285714285714286</ele><time>2026-05-01T11:27:12.899Z</time></trkpt><trkpt lat="42.197575" lon="14.62437"><ele>9.0</ele><time>2026-05-01T11:27:13.9Z</time></trkpt><trkpt lat="42.1975483" lon="14.624455"><ele>8.428571428571429</ele><time>2026-05-01T11:27:14.9Z</time></trkpt><trkpt lat="42.19752" lon="14.62454"><ele>7.857142857142858</ele><time>2026-05-01T11:27:15.9Z</time></trkpt><trkpt lat="42.1974917" lon="14.6246233"><ele>7.2857142857142865</ele><time>2026-05-01T11:27:16.9Z</time></trkpt><trkpt lat="42.1974633" lon="14.624705"><ele>6.714285714285715</ele><time>2026-05-01T11:27:17.9Z</time></trkpt><trkpt lat="42.197435" lon="14.6247917"><ele>6.142857142857143</ele><time>2026-05-01T11:27:18.899Z</time></trkpt><trkpt lat="42.1974083" lon="14.6248767"><ele>5.571428571428571</ele><time>2026-05-01T11:27:19.9Z</time></trkpt><trkpt lat="42.19738" lon="14.6249633"><ele>5.0</ele><time>2026-05-01T11:27:20.899Z</time></trkpt><trkpt lat="42.197345" lon="14.6250467"><ele>5.285714285714286</ele><time>2026-05-01T11:27:21.899Z</time></trkpt><trkpt lat="42.1973117" lon="14.6251333"><ele>5.571428571428571</ele><time>2026-05-01T11:27:22.899Z</time></trkpt><trkpt lat="42.1972833" lon="14.6252183"><ele>5.857142857142858</ele><time>2026-05-01T11:27:23.899Z</time></trkpt><trkpt lat="42.1972517" lon="14.6252983"><ele>6.142857142857142</ele><time>2026-05-01T11:27:24.9Z</time></trkpt><trkpt lat="42.19722" lon="14.6253783"><ele>6.428571428571429</ele><time>2026-05-01T11:27:25.9Z</time></trkpt><trkpt lat="42.19719" lon="14.62546"><ele>6.714285714285714</ele><time>2026-05-01T11:27:26.899Z</time></trkpt><trkpt lat="42.19716" lon="14.625545"><ele>7.0</ele><time>2026-05-01T11:27:27.9Z</time></trkpt><trkpt lat="42.1971267" lon="14.625625"><ele>7.0</ele><time>2026-05-01T11:27:28.899Z</time></trkpt><trkpt lat="42.197095" lon="14.6257083"><ele>7.0</ele><time>2026-05-01T11:27:29.899Z</time></trkpt><trkpt lat="42.1970683" lon="14.6257917"><ele>7.0</ele><time>2026-05-01T11:27:30.9Z</time></trkpt><trkpt lat="42.1970383" lon="14.62588"><ele>7.0</ele><time>2026-05-01T11:27:31.899Z</time></trkpt><trkpt lat="42.197005" lon="14.625965"><ele>7.0</ele><time>2026-05-01T11:27:32.899Z</time></trkpt><trkpt lat="42.1969733" lon="14.62605"><ele>7.0</ele><time>2026-05-01T11:27:33.899Z</time></trkpt><trkpt lat="42.1969433" lon="14.6261317"><ele>7.0</ele><time>2026-05-01T11:27:34.9Z</time></trkpt><trkpt lat="42.1969183" lon="14.6262183"><ele>6.0</ele><time>2026-05-01T11:27:35.899Z</time></trkpt><trkpt lat="42.196885" lon="14.6263017"><ele>5.0</ele><time>2026-05-01T11:27:36.9Z</time></trkpt><trkpt lat="42.196855" lon="14.6263867"><ele>4.0</ele><time>2026-05-01T11:27:37.899Z</time></trkpt><trkpt lat="42.1968267" lon="14.626475"><ele>3.0</ele><time>2026-05-01T11:27:38.9Z</time></trkpt><trkpt lat="42.196795" lon="14.6265667"><ele>2.0</ele><time>2026-05-01T11:27:39.9Z</time></trkpt><trkpt lat="42.196765" lon="14.62665"><ele>1.0</ele><time>2026-05-01T11:27:40.9Z</time></trkpt><trkpt lat="42.1967383" lon="14.626735"><ele>0.0</ele><time>2026-05-01T11:27:41.899Z</time></trkpt><trkpt lat="42.19671" lon="14.6268183"><ele>0.0</ele><time>2026-05-01T11:27:42.9Z</time></trkpt><trkpt lat="42.1966817" lon="14.626905"><ele>0.0</ele><time>2026-05-01T11:27:43.9Z</time></trkpt><trkpt lat="42.1966533" lon="14.62699"><ele>0.0</ele><time>2026-05-01T11:27:44.9Z</time></trkpt><trkpt lat="42.1966233" lon="14.6270717"><ele>0.0</ele><time>2026-05-01T11:27:45.899Z</time></trkpt><trkpt lat="42.1965867" lon="14.6271567"><ele>0.0</ele><time>2026-05-01T11:27:46.9Z</time></trkpt><trkpt lat="42.1965583" lon="14.6272433"><ele>0.0</ele><time>2026-05-01T11:27:47.899Z</time></trkpt><trkpt lat="42.19653" lon="14.627335"><ele>0.0</ele><time>2026-05-01T11:27:48.9Z</time></trkpt><trkpt lat="42.1965017" lon="14.62742"><ele>0.6666666666666666</ele><time>2026-05-01T11:27:49.9Z</time></trkpt><trkpt lat="42.1964767" lon="14.6275033"><ele>1.3333333333333333</ele><time>2026-05-01T11:27:50.899Z</time></trkpt><trkpt lat="42.196445" lon="14.6275883"><ele>2.0</ele><time>2026-05-01T11:27:51.899Z</time></trkpt><trkpt lat="42.1964133" lon="14.6276667"><ele>2.6666666666666665</ele><time>2026-05-01T11:27:52.9Z</time></trkpt><trkpt lat="42.196385" lon="14.6277483"><ele>3.333333333333333</ele><time>2026-05-01T11:27:53.899Z</time></trkpt><trkpt lat="42.1963567" lon="14.6278267"><ele>4.0</ele><time>2026-05-01T11:27:54.9Z</time></trkpt><trkpt lat="42.1963117" lon="14.6279717"><ele>4.0</ele><time>2026-05-01T11:27:56.9Z</time></trkpt><trkpt lat="42.196255" lon="14.6281217"><ele>4.0</ele><time>2026-05-01T11:27:58.899Z</time></trkpt><trkpt lat="42.1962083" lon="14.628255"><ele>4.0</ele><time>2026-05-01T11:28:00.9Z</time></trkpt><trkpt lat="42.1961667" lon="14.6283833"><ele>4.0</ele><time>2026-05-01T11:28:02.9Z</time></trkpt><trkpt lat="42.1961267" lon="14.6284933"><ele>4.0</ele><time>2026-05-01T11:28:04.9Z</time></trkpt><trkpt lat="42.1960867" lon="14.6286083"><ele>3.9999999999999996</ele><time>2026-05-01T11:28:06.9Z</time></trkpt><trkpt lat="42.196045" lon="14.6287167"><ele>4.0</ele><time>2026-05-01T11:28:08.9Z</time></trkpt><trkpt lat="42.1959833" lon="14.6287817"><ele>4.0</ele><time>2026-05-01T11:28:10.9Z</time></trkpt><trkpt lat="42.1959167" lon="14.6287733"><ele>4.0</ele><time>2026-05-01T11:28:12.899Z</time></trkpt><trkpt lat="42.1958783" lon="14.6286717"><ele>3.9999999999999996</ele><time>2026-05-01T11:28:14.899Z</time></trkpt><trkpt lat="42.195835" lon="14.6285367"><ele>4.0</ele><time>2026-05-01T11:28:16.899Z</time></trkpt><trkpt lat="42.19578" lon="14.628385"><ele>4.0</ele><time>2026-05-01T11:28:18.899Z</time></trkpt><trkpt lat="42.19574" lon="14.6283083"><ele>3.9999999999999996</ele><time>2026-05-01T11:28:19.9Z</time></trkpt><trkpt lat="42.1957" lon="14.6282317"><ele>4.0</ele><time>2026-05-01T11:28:20.899Z</time></trkpt><trkpt lat="42.1956617" lon="14.628155"><ele>4.0</ele><time>2026-05-01T11:28:21.899Z</time></trkpt><trkpt lat="42.1956233" lon="14.62808"><ele>3.9999999999999996</ele><time>2026-05-01T11:28:22.9Z</time></trkpt><trkpt lat="42.1955833" lon="14.6280117"><ele>4.0</ele><time>2026-05-01T11:28:23.899Z</time></trkpt><trkpt lat="42.1955433" lon="14.6279367"><ele>4.0</ele><time>2026-05-01T11:28:24.9Z</time></trkpt><trkpt lat="42.195475" lon="14.6278167"><ele>4.833333333333333</ele><time>2026-05-01T11:28:26.9Z</time></trkpt><trkpt lat="42.19541" lon="14.62769"><ele>5.666666666666666</ele><time>2026-05-01T11:28:28.9Z</time></trkpt><trkpt lat="42.1953583" lon="14.6276083"><ele>6.5</ele><time>2026-05-01T11:28:29.899Z</time></trkpt><trkpt lat="42.1953283" lon="14.6275217"><ele>7.333333333333333</ele><time>2026-05-01T11:28:30.899Z</time></trkpt><trkpt lat="42.1952883" lon="14.6274067"><ele>8.166666666666666</ele><time>2026-05-01T11:28:32.9Z</time></trkpt><trkpt lat="42.1952683" lon="14.6272967"><ele>9.0</ele><time>2026-05-01T11:28:34.899Z</time></trkpt><trkpt lat="42.1952533" lon="14.6271767"><ele>9.0</ele><time>2026-05-01T11:28:36.899Z</time></trkpt><trkpt lat="42.1952467" lon="14.6270583"><ele>9.0</ele><time>2026-05-01T11:28:38.9Z</time></trkpt><trkpt lat="42.1952483" lon="14.6269383"><ele>9.0</ele><time>2026-05-01T11:28:40.899Z</time></trkpt><trkpt lat="42.19527" lon="14.6268067"><ele>9.0</ele><time>2026-05-01T11:28:42.899Z</time></trkpt><trkpt lat="42.19531" lon="14.6266867"><ele>9.0</ele><time>2026-05-01T11:28:44.9Z</time></trkpt><trkpt lat="42.1953683" lon="14.626565"><ele>9.0</ele><time>2026-05-01T11:28:46.899Z</time></trkpt><trkpt lat="42.1954383" lon="14.6264367"><ele>9.0</ele><time>2026-05-01T11:28:48.9Z</time></trkpt><trkpt lat="42.19548" lon="14.6263717"><ele>9.0</ele><time>2026-05-01T11:28:49.9Z</time></trkpt><trkpt lat="42.195525" lon="14.62631"><ele>9.0</ele><time>2026-05-01T11:28:50.899Z</time></trkpt><trkpt lat="42.19561" lon="14.6261917"><ele>9.0</ele><time>2026-05-01T11:28:52.9Z</time></trkpt><trkpt lat="42.1956517" lon="14.6261267"><ele>9.0</ele><time>2026-05-01T11:28:53.899Z</time></trkpt><trkpt lat="42.1957067" lon="14.625965"><ele>8.833333333333334</ele><time>2026-05-01T11:28:55.899Z</time></trkpt><trkpt lat="42.19572" lon="14.6258717"><ele>8.666666666666666</ele><time>2026-05-01T11:28:56.9Z</time></trkpt><trkpt lat="42.195725" lon="14.62578"><ele>8.5</ele><time>2026-05-01T11:28:57.9Z</time></trkpt><trkpt lat="42.1957267" lon="14.6256833"><ele>8.333333333333332</ele><time>2026-05-01T11:28:58.9Z</time></trkpt><trkpt lat="42.1957233" lon="14.625585"><ele>8.166666666666666</ele><time>2026-05-01T11:28:59.9Z</time></trkpt><trkpt lat="42.195725" lon="14.6254933"><ele>8.0</ele><time>2026-05-01T11:29:00.9Z</time></trkpt><trkpt lat="42.19572" lon="14.6253317"><ele>8.166666666666666</ele><time>2026-05-01T11:29:02.899Z</time></trkpt><trkpt lat="42.1957233" lon="14.62518"><ele>8.333333333333332</ele><time>2026-05-01T11:29:04.9Z</time></trkpt><trkpt lat="42.19572" lon="14.62505"><ele>8.5</ele><time>2026-05-01T11:29:06.899Z</time></trkpt><trkpt lat="42.195715" lon="14.6249317"><ele>8.666666666666666</ele><time>2026-05-01T11:29:08.899Z</time></trkpt><trkpt lat="42.195715" lon="14.6248317"><ele>8.833333333333334</ele><time>2026-05-01T11:29:10.899Z</time></trkpt><trkpt lat="42.1957167" lon="14.6247433"><ele>9.0</ele><time>2026-05-01T11:29:12.899Z</time></trkpt><trkpt lat="42.1957133" lon="14.62465"><ele>9.0</ele><time>2026-05-01T11:29:14.899Z</time></trkpt><trkpt lat="42.195705" lon="14.624535"><ele>9.0</ele><time>2026-05-01T11:29:17.9Z</time></trkpt><trkpt lat="42.1956967" lon="14.6244267"><ele>9.0</ele><time>2026-05-01T11:29:20.9Z</time></trkpt><trkpt lat="42.1956833" lon="14.6243367"><ele>9.0</ele><time>2026-05-01T11:30:01.9Z</time></trkpt><trkpt lat="42.1956367" lon="14.6242233"><ele>9.0</ele><time>2026-05-01T11:30:04.899Z</time></trkpt><trkpt lat="42.1956133" lon="14.624135"><ele>9.0</ele><time>2026-05-01T11:30:06.9Z</time></trkpt><trkpt lat="42.1955917" lon="14.6240283"><ele>9.6</ele><time>2026-05-01T11:30:08.9Z</time></trkpt><trkpt lat="42.19554" lon="14.623895"><ele>10.2</ele><time>2026-05-01T11:30:10.9Z</time></trkpt><trkpt lat="42.1955067" lon="14.6237617"><ele>10.799999999999999</ele><time>2026-05-01T11:30:12.9Z</time></trkpt><trkpt lat="42.1954833" lon="14.6236217"><ele>11.4</ele><time>2026-05-01T11:30:14.9Z</time></trkpt><trkpt lat="42.1954667" lon="14.62348"><ele>12.0</ele><time>2026-05-01T11:30:16.9Z</time></trkpt><trkpt lat="42.1954417" lon="14.6233117"><ele>12.2</ele><time>2026-05-01T11:30:18.899Z</time></trkpt><trkpt lat="42.1954283" lon="14.6232283"><ele>12.399999999999999</ele><time>2026-05-01T11:30:19.9Z</time></trkpt><trkpt lat="42.19541" lon="14.62307"><ele>12.600000000000001</ele><time>2026-05-01T11:30:21.899Z</time></trkpt><trkpt lat="42.19539" lon="14.622915"><ele>12.8</ele><time>2026-05-01T11:30:23.899Z</time></trkpt><trkpt lat="42.1953417" lon="14.6227717"><ele>13.0</ele><time>2026-05-01T11:30:25.9Z</time></trkpt><trkpt lat="42.1952817" lon="14.6226467"><ele>12.4</ele><time>2026-05-01T11:30:27.9Z</time></trkpt><trkpt lat="42.19521" lon="14.62252"><ele>11.8</ele><time>2026-05-01T11:30:29.899Z</time></trkpt><trkpt lat="42.195145" lon="14.6223983"><ele>11.2</ele><time>2026-05-01T11:30:31.9Z</time></trkpt><trkpt lat="42.19508" lon="14.6222917"><ele>10.6</ele><time>2026-05-01T11:30:33.9Z</time></trkpt><trkpt lat="42.1950067" lon="14.6221867"><ele>10.0</ele><time>2026-05-01T11:30:35.9Z</time></trkpt><trkpt lat="42.1949467" lon="14.6220667"><ele>10.0</ele><time>2026-05-01T11:30:37.899Z</time></trkpt><trkpt lat="42.194885" lon="14.6219367"><ele>10.0</ele><time>2026-05-01T11:30:39.9Z</time></trkpt><trkpt lat="42.19481" lon="14.621815"><ele>10.0</ele><time>2026-05-01T11:30:41.9Z</time></trkpt><trkpt lat="42.19473" lon="14.621695"><ele>10.0</ele><time>2026-05-01T11:30:43.9Z</time></trkpt><trkpt lat="42.1946633" lon="14.6215733"><ele>10.6</ele><time>2026-05-01T11:30:45.9Z</time></trkpt><trkpt lat="42.1946017" lon="14.62145"><ele>11.2</ele><time>2026-05-01T11:30:47.9Z</time></trkpt><trkpt lat="42.194545" lon="14.62133"><ele>11.8</ele><time>2026-05-01T11:30:49.9Z</time></trkpt><trkpt lat="42.1944933" lon="14.621205"><ele>12.4</ele><time>2026-05-01T11:30:51.899Z</time></trkpt><trkpt lat="42.19445" lon="14.62107"><ele>13.0</ele><time>2026-05-01T11:30:53.9Z</time></trkpt><trkpt lat="42.1944033" lon="14.6209317"><ele>13.0</ele><time>2026-05-01T11:30:55.9Z</time></trkpt><trkpt lat="42.1943533" lon="14.6207967"><ele>13.0</ele><time>2026-05-01T11:30:57.899Z</time></trkpt><trkpt lat="42.1943083" lon="14.6206583"><ele>13.0</ele><time>2026-05-01T11:30:59.9Z</time></trkpt><trkpt lat="42.19427" lon="14.6205117"><ele>13.0</ele><time>2026-05-01T11:31:01.9Z</time></trkpt><trkpt lat="42.194225" lon="14.6203733"><ele>13.0</ele><time>2026-05-01T11:31:03.9Z</time></trkpt><trkpt lat="42.1941833" lon="14.6202233"><ele>13.0</ele><time>2026-05-01T11:31:05.9Z</time></trkpt><trkpt lat="42.1941333" lon="14.62008"><ele>13.0</ele><time>2026-05-01T11:31:07.9Z</time></trkpt><trkpt lat="42.1940883" lon="14.6199317"><ele>13.0</ele><time>2026-05-01T11:31:09.9Z</time></trkpt><trkpt lat="42.194055" lon="14.619785"><ele>13.0</ele><time>2026-05-01T11:31:11.9Z</time></trkpt><trkpt lat="42.1940083" lon="14.6196333"><ele>13.0</ele><time>2026-05-01T11:31:13.9Z</time></trkpt><trkpt lat="42.1939867" lon="14.6195517"><ele>13.0</ele><time>2026-05-01T11:31:14.9Z</time></trkpt><trkpt lat="42.1939417" lon="14.6194033"><ele>13.0</ele><time>2026-05-01T11:31:16.899Z</time></trkpt><trkpt lat="42.1939" lon="14.6192617"><ele>13.0</ele><time>2026-05-01T11:31:18.899Z</time></trkpt><trkpt lat="42.1938667" lon="14.6191183"><ele>16.5</ele><time>2026-05-01T11:31:20.899Z</time></trkpt><trkpt lat="42.1938283" lon="14.6189683"><ele>20.0</ele><time>2026-05-01T11:31:22.9Z</time></trkpt><trkpt lat="42.1937967" lon="14.6188133"><ele>23.5</ele><time>2026-05-01T11:31:24.9Z</time></trkpt><trkpt lat="42.193775" lon="14.61866"><ele>27.0</ele><time>2026-05-01T11:31:26.9Z</time></trkpt><trkpt lat="42.1937517" lon="14.6185117"><ele>27.0</ele><time>2026-05-01T11:31:28.9Z</time></trkpt><trkpt lat="42.1937333" lon="14.6183633"><ele>27.000000000000004</ele><time>2026-05-01T11:31:30.9Z</time></trkpt><trkpt lat="42.1937283" lon="14.61821"><ele>27.000000000000004</ele><time>2026-05-01T11:31:32.899Z</time></trkpt><trkpt lat="42.1937183" lon="14.6180617"><ele>27.0</ele><time>2026-05-01T11:31:34.9Z</time></trkpt><trkpt lat="42.1937033" lon="14.6179283"><ele>27.0</ele><time>2026-05-01T11:31:36.9Z</time></trkpt><trkpt lat="42.1936833" lon="14.6177883"><ele>25.200000000000003</ele><time>2026-05-01T11:31:38.899Z</time></trkpt><trkpt lat="42.1936733" lon="14.6177033"><ele>23.400000000000002</ele><time>2026-05-01T11:31:39.9Z</time></trkpt><trkpt lat="42.193665" lon="14.6175483"><ele>21.6</ele><time>2026-05-01T11:31:41.899Z</time></trkpt><trkpt lat="42.1936467" lon="14.6173883"><ele>19.8</ele><time>2026-05-01T11:31:43.9Z</time></trkpt><trkpt lat="42.193605" lon="14.617265"><ele>18.0</ele><time>2026-05-01T11:31:45.9Z</time></trkpt><trkpt lat="42.1935283" lon="14.61718"><ele>18.0</ele><time>2026-05-01T11:31:47.9Z</time></trkpt><trkpt lat="42.1934117" lon="14.6171617"><ele>18.0</ele><time>2026-05-01T11:31:49.9Z</time></trkpt><trkpt lat="42.1933" lon="14.617185"><ele>18.0</ele><time>2026-05-01T11:31:51.9Z</time></trkpt><trkpt lat="42.19319" lon="14.6172267"><ele>18.0</ele><time>2026-05-01T11:31:53.9Z</time></trkpt><trkpt lat="42.1930767" lon="14.6172767"><ele>19.0</ele><time>2026-05-01T11:31:55.899Z</time></trkpt><trkpt lat="42.1929683" lon="14.617325"><ele>20.0</ele><time>2026-05-01T11:31:57.9Z</time></trkpt><trkpt lat="42.1928567" lon="14.6173783"><ele>21.0</ele><time>2026-05-01T11:31:59.9Z</time></trkpt><trkpt lat="42.1927433" lon="14.6174217"><ele>22.0</ele><time>2026-05-01T11:32:01.9Z</time></trkpt><trkpt lat="42.1926367" lon="14.6174783"><ele>22.0</ele><time>2026-05-01T11:32:03.899Z</time></trkpt><trkpt lat="42.1925217" lon="14.6175117"><ele>22.0</ele><time>2026-05-01T11:32:05.9Z</time></trkpt><trkpt lat="42.19242" lon="14.617525"><ele>22.0</ele><time>2026-05-01T11:32:07.899Z</time></trkpt><trkpt lat="42.1923167" lon="14.6174967"><ele>22.0</ele><time>2026-05-01T11:32:09.9Z</time></trkpt><trkpt lat="42.1922283" lon="14.617425"><ele>22.0</ele><time>2026-05-01T11:32:11.9Z</time></trkpt><trkpt lat="42.19215" lon="14.6173317"><ele>21.5</ele><time>2026-05-01T11:32:13.899Z</time></trkpt><trkpt lat="42.19207" lon="14.6172167"><ele>21.0</ele><time>2026-05-01T11:32:15.9Z</time></trkpt><trkpt lat="42.19199" lon="14.6170983"><ele>20.5</ele><time>2026-05-01T11:32:17.899Z</time></trkpt><trkpt lat="42.191915" lon="14.6169917"><ele>20.0</ele><time>2026-05-01T11:32:19.9Z</time></trkpt><trkpt lat="42.191825" lon="14.6168933"><ele>20.0</ele><time>2026-05-01T11:32:21.9Z</time></trkpt><trkpt lat="42.19174" lon="14.616795"><ele>20.0</ele><time>2026-05-01T11:32:23.899Z</time></trkpt><trkpt lat="42.1916667" lon="14.616695"><ele>20.0</ele><time>2026-05-01T11:32:25.9Z</time></trkpt><trkpt lat="42.19159" lon="14.6165867"><ele>20.0</ele><time>2026-05-01T11:32:27.899Z</time></trkpt><trkpt lat="42.1915183" lon="14.616465"><ele>20.0</ele><time>2026-05-01T11:32:29.899Z</time></trkpt><trkpt lat="42.1914533" lon="14.6163367"><ele>20.6</ele><time>2026-05-01T11:32:31.9Z</time></trkpt><trkpt lat="42.1913833" lon="14.6162033"><ele>21.2</ele><time>2026-05-01T11:32:33.9Z</time></trkpt><trkpt lat="42.1913217" lon="14.61608"><ele>21.799999999999997</ele><time>2026-05-01T11:32:35.899Z</time></trkpt><trkpt lat="42.191265" lon="14.6159583"><ele>22.4</ele><time>2026-05-01T11:32:37.9Z</time></trkpt><trkpt lat="42.1911883" lon="14.6158817"><ele>23.0</ele><time>2026-05-01T11:32:39.9Z</time></trkpt><trkpt lat="42.1911183" lon="14.6158567"><ele>23.0</ele><time>2026-05-01T11:32:41.9Z</time></trkpt><trkpt lat="42.1910417" lon="14.615845"><ele>23.0</ele><time>2026-05-01T11:32:43.9Z</time></trkpt><trkpt lat="42.190955" lon="14.6158417"><ele>23.0</ele><time>2026-05-01T11:32:45.899Z</time></trkpt><trkpt lat="42.1908733" lon="14.6158383"><ele>23.0</ele><time>2026-05-01T11:32:47.9Z</time></trkpt><trkpt lat="42.19079" lon="14.6158233"><ele>23.0</ele><time>2026-05-01T11:32:49.9Z</time></trkpt><trkpt lat="42.1907133" lon="14.6158067"><ele>23.0</ele><time>2026-05-01T11:32:51.9Z</time></trkpt><trkpt lat="42.1906367" lon="14.6157917"><ele>24.4</ele><time>2026-05-01T11:32:53.9Z</time></trkpt><trkpt lat="42.190535" lon="14.615765"><ele>25.799999999999997</ele><time>2026-05-01T11:32:55.9Z</time></trkpt><trkpt lat="42.1904233" lon="14.6157483"><ele>27.2</ele><time>2026-05-01T11:32:57.9Z</time></trkpt><trkpt lat="42.190325" lon="14.6157333"><ele>28.6</ele><time>2026-05-01T11:32:59.9Z</time></trkpt><trkpt lat="42.190225" lon="14.6157333"><ele>30.0</ele><time>2026-05-01T11:33:01.9Z</time></trkpt><trkpt lat="42.1901283" lon="14.61574"><ele>30.0</ele><time>2026-05-01T11:33:03.9Z</time></trkpt><trkpt lat="42.1900233" lon="14.6157617"><ele>30.0</ele><time>2026-05-01T11:33:05.899Z</time></trkpt><trkpt lat="42.189925" lon="14.61579"><ele>30.0</ele><time>2026-05-01T11:33:07.9Z</time></trkpt><trkpt lat="42.1898317" lon="14.6158217"><ele>30.0</ele><time>2026-05-01T11:33:09.9Z</time></trkpt><trkpt lat="42.1897367" lon="14.615825"><ele>30.0</ele><time>2026-05-01T11:33:11.9Z</time></trkpt><trkpt lat="42.18965" lon="14.61581"><ele>31.0</ele><time>2026-05-01T11:33:13.899Z</time></trkpt><trkpt lat="42.1895567" lon="14.6157783"><ele>32.0</ele><time>2026-05-01T11:33:15.899Z</time></trkpt><trkpt lat="42.1894717" lon="14.61575"><ele>33.0</ele><time>2026-05-01T11:33:17.899Z</time></trkpt><trkpt lat="42.1893883" lon="14.6157"><ele>34.0</ele><time>2026-05-01T11:33:19.9Z</time></trkpt><trkpt lat="42.1893017" lon="14.615645"><ele>35.0</ele><time>2026-05-01T11:33:21.9Z</time></trkpt><trkpt lat="42.18919" lon="14.6155967"><ele>35.0</ele><time>2026-05-01T11:33:23.9Z</time></trkpt><trkpt lat="42.1890733" lon="14.6155467"><ele>35.0</ele><time>2026-05-01T11:33:25.899Z</time></trkpt><trkpt lat="42.1889683" lon="14.6154933"><ele>35.0</ele><time>2026-05-01T11:33:27.9Z</time></trkpt><trkpt lat="42.1888667" lon="14.615445"><ele>35.0</ele><time>2026-05-01T11:33:29.9Z</time></trkpt><trkpt lat="42.1887633" lon="14.6153817"><ele>35.0</ele><time>2026-05-01T11:33:31.9Z</time></trkpt><trkpt lat="42.1886567" lon="14.6153217"><ele>35.0</ele><time>2026-05-01T11:33:33.899Z</time></trkpt><trkpt lat="42.1885567" lon="14.61525"><ele>35.0</ele><time>2026-05-01T11:33:35.9Z</time></trkpt><trkpt lat="42.1884633" lon="14.6151617"><ele>35.0</ele><time>2026-05-01T11:33:37.9Z</time></trkpt><trkpt lat="42.1883683" lon="14.6150783"><ele>35.0</ele><time>2026-05-01T11:33:39.9Z</time></trkpt><trkpt lat="42.1882817" lon="14.61499"><ele>35.0</ele><time>2026-05-01T11:33:41.9Z</time></trkpt><trkpt lat="42.1881917" lon="14.6149"><ele>35.0</ele><time>2026-05-01T11:33:43.9Z</time></trkpt><trkpt lat="42.1881133" lon="14.6147983"><ele>35.0</ele><time>2026-05-01T11:33:45.9Z</time></trkpt><trkpt lat="42.188025" lon="14.6146967"><ele>35.0</ele><time>2026-05-01T11:33:47.9Z</time></trkpt><trkpt lat="42.1879283" lon="14.6146017"><ele>35.2</ele><time>2026-05-01T11:33:49.9Z</time></trkpt><trkpt lat="42.18783" lon="14.6145283"><ele>35.4</ele><time>2026-05-01T11:33:51.9Z</time></trkpt><trkpt lat="42.18773" lon="14.6144617"><ele>35.6</ele><time>2026-05-01T11:33:53.9Z</time></trkpt><trkpt lat="42.187625" lon="14.6144017"><ele>35.8</ele><time>2026-05-01T11:33:55.899Z</time></trkpt><trkpt lat="42.187525" lon="14.6143483"><ele>36.0</ele><time>2026-05-01T11:33:57.9Z</time></trkpt><trkpt lat="42.1874333" lon="14.61428"><ele>40.2</ele><time>2026-05-01T11:33:59.899Z</time></trkpt><trkpt lat="42.1873283" lon="14.6142133"><ele>44.400000000000006</ele><time>2026-05-01T11:34:01.899Z</time></trkpt><trkpt lat="42.1872333" lon="14.614145"><ele>48.6</ele><time>2026-05-01T11:34:03.9Z</time></trkpt><trkpt lat="42.18714" lon="14.6140667"><ele>52.800000000000004</ele><time>2026-05-01T11:34:05.9Z</time></trkpt><trkpt lat="42.1870583" lon="14.6139833"><ele>57.0</ele><time>2026-05-01T11:34:07.9Z</time></trkpt><trkpt lat="42.1869717" lon="14.613895"><ele>57.0</ele><time>2026-05-01T11:34:09.9Z</time></trkpt><trkpt lat="42.186885" lon="14.613795"><ele>57.0</ele><time>2026-05-01T11:34:11.9Z</time></trkpt><trkpt lat="42.1868" lon="14.6136983"><ele>57.0</ele><time>2026-05-01T11:34:13.9Z</time></trkpt><trkpt lat="42.1867067" lon="14.6136067"><ele>57.0</ele><time>2026-05-01T11:34:15.899Z</time></trkpt><trkpt lat="42.18661" lon="14.6135167"><ele>57.25</ele><time>2026-05-01T11:34:17.9Z</time></trkpt><trkpt lat="42.186525" lon="14.61342"><ele>57.5</ele><time>2026-05-01T11:34:19.9Z</time></trkpt><trkpt lat="42.1864333" lon="14.6133183"><ele>57.75</ele><time>2026-05-01T11:34:21.9Z</time></trkpt><trkpt lat="42.18634" lon="14.6132383"><ele>58.0</ele><time>2026-05-01T11:34:23.9Z</time></trkpt><trkpt lat="42.1862367" lon="14.6131683"><ele>58.0</ele><time>2026-05-01T11:34:25.9Z</time></trkpt><trkpt lat="42.1861367" lon="14.6130933"><ele>58.0</ele><time>2026-05-01T11:34:27.899Z</time></trkpt><trkpt lat="42.1860467" lon="14.61301"><ele>58.0</ele><time>2026-05-01T11:34:29.899Z</time></trkpt><trkpt lat="42.1859483" lon="14.6129317"><ele>58.0</ele><time>2026-05-01T11:34:31.9Z</time></trkpt><trkpt lat="42.185855" lon="14.6128483"><ele>56.8</ele><time>2026-05-01T11:34:33.899Z</time></trkpt><trkpt lat="42.1857633" lon="14.6127867"><ele>55.599999999999994</ele><time>2026-05-01T11:34:35.899Z</time></trkpt><trkpt lat="42.1856617" lon="14.612715"><ele>54.400000000000006</ele><time>2026-05-01T11:34:37.9Z</time></trkpt><trkpt lat="42.1855833" lon="14.6126367"><ele>53.2</ele><time>2026-05-01T11:34:39.899Z</time></trkpt><trkpt lat="42.1855" lon="14.6125583"><ele>52.0</ele><time>2026-05-01T11:34:41.899Z</time></trkpt><trkpt lat="42.1854133" lon="14.6124767"><ele>52.0</ele><time>2026-05-01T11:34:43.9Z</time></trkpt><trkpt lat="42.1853167" lon="14.612385"><ele>52.0</ele><time>2026-05-01T11:34:45.9Z</time></trkpt><trkpt lat="42.185225" lon="14.61232"><ele>52.0</ele><time>2026-05-01T11:34:47.9Z</time></trkpt><trkpt lat="42.1851333" lon="14.612245"><ele>52.0</ele><time>2026-05-01T11:34:49.9Z</time></trkpt><trkpt lat="42.1850317" lon="14.6121767"><ele>52.0</ele><time>2026-05-01T11:34:51.9Z</time></trkpt><trkpt lat="42.18494" lon="14.6121133"><ele>51.99999999999999</ele><time>2026-05-01T11:34:53.899Z</time></trkpt><trkpt lat="42.18486" lon="14.6120517"><ele>52.0</ele><time>2026-05-01T11:34:55.899Z</time></trkpt><trkpt lat="42.1847683" lon="14.6120017"><ele>52.0</ele><time>2026-05-01T11:34:57.9Z</time></trkpt><trkpt lat="42.1847067" lon="14.6119517"><ele>52.0</ele><time>2026-05-01T11:34:59.9Z</time></trkpt><trkpt lat="42.18465" lon="14.6118833"><ele>51.99999999999999</ele><time>2026-05-01T11:35:01.9Z</time></trkpt><trkpt lat="42.1846217" lon="14.6118033"><ele>52.0</ele><time>2026-05-01T11:35:03.899Z</time></trkpt><trkpt lat="42.1846383" lon="14.6117167"><ele>50.8</ele><time>2026-05-01T11:35:05.9Z</time></trkpt><trkpt lat="42.1846917" lon="14.61159"><ele>49.6</ele><time>2026-05-01T11:35:07.9Z</time></trkpt><trkpt lat="42.184735" lon="14.6114383"><ele>48.4</ele><time>2026-05-01T11:35:09.9Z</time></trkpt><trkpt lat="42.1847567" lon="14.61131"><ele>47.199999999999996</ele><time>2026-05-01T11:35:11.9Z</time></trkpt><trkpt lat="42.1847633" lon="14.611175"><ele>46.0</ele><time>2026-05-01T11:35:13.9Z</time></trkpt><trkpt lat="42.18473" lon="14.611045"><ele>45.5</ele><time>2026-05-01T11:35:15.899Z</time></trkpt><trkpt lat="42.1846767" lon="14.61096"><ele>45.0</ele><time>2026-05-01T11:35:17.9Z</time></trkpt><trkpt lat="42.184615" lon="14.610895"><ele>44.5</ele><time>2026-05-01T11:35:19.899Z</time></trkpt><trkpt lat="42.18457" lon="14.6108283"><ele>44.0</ele><time>2026-05-01T11:35:21.9Z</time></trkpt><trkpt lat="42.184525" lon="14.6107533"><ele>43.5</ele><time>2026-05-01T11:35:24.9Z</time></trkpt><trkpt lat="42.1844617" lon="14.6106883"><ele>43.0</ele><time>2026-05-01T11:35:28.9Z</time></trkpt><trkpt lat="42.184395" lon="14.6106433"><ele>43.0</ele><time>2026-05-01T11:35:31.9Z</time></trkpt><trkpt lat="42.1843267" lon="14.6106183"><ele>43.0</ele><time>2026-05-01T11:35:33.9Z</time></trkpt><trkpt lat="42.1842183" lon="14.610625"><ele>43.0</ele><time>2026-05-01T11:35:36.899Z</time></trkpt><trkpt lat="42.1841383" lon="14.61066"><ele>43.0</ele><time>2026-05-01T11:35:38.9Z</time></trkpt><trkpt lat="42.1840417" lon="14.6107083"><ele>43.0</ele><time>2026-05-01T11:35:41.9Z</time></trkpt><trkpt lat="42.1839483" lon="14.6107317"><ele>43.4</ele><time>2026-05-01T11:35:43.899Z</time></trkpt><trkpt lat="42.18386" lon="14.610745"><ele>43.8</ele><time>2026-05-01T11:35:45.9Z</time></trkpt><trkpt lat="42.1837733" lon="14.6107567"><ele>44.2</ele><time>2026-05-01T11:35:47.9Z</time></trkpt><trkpt lat="42.1836733" lon="14.6107683"><ele>44.6</ele><time>2026-05-01T11:35:49.9Z</time></trkpt><trkpt lat="42.183585" lon="14.610775"><ele>45.0</ele><time>2026-05-01T11:35:51.9Z</time></trkpt><trkpt lat="42.1834833" lon="14.6107867"><ele>45.0</ele><time>2026-05-01T11:35:53.9Z</time></trkpt><trkpt lat="42.1833667" lon="14.610775"><ele>45.0</ele><time>2026-05-01T11:35:55.9Z</time></trkpt><trkpt lat="42.1832617" lon="14.6107433"><ele>45.0</ele><time>2026-05-01T11:35:57.899Z</time></trkpt><trkpt lat="42.1831467" lon="14.61072"><ele>45.0</ele><time>2026-05-01T11:35:59.899Z</time></trkpt><trkpt lat="42.18304" lon="14.6107167"><ele>45.0</ele><time>2026-05-01T11:36:01.899Z</time></trkpt><trkpt lat="42.18294" lon="14.6107133"><ele>45.8</ele><time>2026-05-01T11:36:03.899Z</time></trkpt><trkpt lat="42.182845" lon="14.6107067"><ele>46.6</ele><time>2026-05-01T11:36:05.9Z</time></trkpt><trkpt lat="42.1827533" lon="14.6107017"><ele>47.400000000000006</ele><time>2026-05-01T11:36:07.9Z</time></trkpt><trkpt lat="42.182665" lon="14.6106933"><ele>48.2</ele><time>2026-05-01T11:36:09.899Z</time></trkpt><trkpt lat="42.18257" lon="14.61069"><ele>49.0</ele><time>2026-05-01T11:36:11.9Z</time></trkpt><trkpt lat="42.1824833" lon="14.610695"><ele>48.99999999999999</ele><time>2026-05-01T11:36:13.899Z</time></trkpt><trkpt lat="42.1823967" lon="14.61069"><ele>49.0</ele><time>2026-05-01T11:36:15.9Z</time></trkpt><trkpt lat="42.1823133" lon="14.610695"><ele>49.0</ele><time>2026-05-01T11:36:17.899Z</time></trkpt><trkpt lat="42.1822383" lon="14.6106883"><ele>49.0</ele><time>2026-05-01T11:36:19.899Z</time></trkpt><trkpt lat="42.182145" lon="14.61069"><ele>48.99999999999999</ele><time>2026-05-01T11:36:21.9Z</time></trkpt><trkpt lat="42.1820567" lon="14.6106883"><ele>49.0</ele><time>2026-05-01T11:36:23.899Z</time></trkpt><trkpt lat="42.1819717" lon="14.6106933"><ele>49.33333333333333</ele><time>2026-05-01T11:36:25.899Z</time></trkpt><trkpt lat="42.1818817" lon="14.610705"><ele>49.666666666666664</ele><time>2026-05-01T11:36:27.9Z</time></trkpt><trkpt lat="42.1817983" lon="14.610725"><ele>50.0</ele><time>2026-05-01T11:36:29.899Z</time></trkpt><trkpt lat="42.1817067" lon="14.61074"><ele>50.33333333333333</ele><time>2026-05-01T11:36:31.899Z</time></trkpt><trkpt lat="42.1816233" lon="14.610755"><ele>50.666666666666664</ele><time>2026-05-01T11:36:33.9Z</time></trkpt><trkpt lat="42.181545" lon="14.61078"><ele>51.0</ele><time>2026-05-01T11:36:35.9Z</time></trkpt><trkpt lat="42.1814633" lon="14.6108117"><ele>52.199999999999996</ele><time>2026-05-01T11:36:37.9Z</time></trkpt><trkpt lat="42.1813817" lon="14.6108433"><ele>53.4</ele><time>2026-05-01T11:36:39.899Z</time></trkpt><trkpt lat="42.1813" lon="14.6108783"><ele>54.6</ele><time>2026-05-01T11:36:41.9Z</time></trkpt><trkpt lat="42.1812" lon="14.6109083"><ele>55.8</ele><time>2026-05-01T11:36:43.9Z</time></trkpt><trkpt lat="42.1811" lon="14.61096"><ele>57.0</ele><time>2026-05-01T11:36:45.9Z</time></trkpt><trkpt lat="42.1810067" lon="14.6110233"><ele>57.0</ele><time>2026-05-01T11:36:47.9Z</time></trkpt><trkpt lat="42.1809067" lon="14.6110917"><ele>57.0</ele><time>2026-05-01T11:36:49.899Z</time></trkpt><trkpt lat="42.180825" lon="14.6111317"><ele>57.0</ele><time>2026-05-01T11:36:51.9Z</time></trkpt><trkpt lat="42.1807417" lon="14.611185"><ele>57.0</ele><time>2026-05-01T11:36:53.9Z</time></trkpt><trkpt lat="42.1806633" lon="14.6112367"><ele>57.0</ele><time>2026-05-01T11:36:55.899Z</time></trkpt><trkpt lat="42.1806" lon="14.61128"><ele>57.0</ele><time>2026-05-01T11:36:57.9Z</time></trkpt><trkpt lat="42.18049" lon="14.6113517"><ele>56.0</ele><time>2026-05-01T11:37:42.9Z</time></trkpt><trkpt lat="42.180425" lon="14.6114083"><ele>55.0</ele><time>2026-05-01T11:37:45.9Z</time></trkpt><trkpt lat="42.1803483" lon="14.611465"><ele>54.0</ele><time>2026-05-01T11:37:48.899Z</time></trkpt><trkpt lat="42.1802517" lon="14.6115167"><ele>53.0</ele><time>2026-05-01T11:37:50.9Z</time></trkpt><trkpt lat="42.180175" lon="14.6115583"><ele>52.0</ele><time>2026-05-01T11:37:52.899Z</time></trkpt><trkpt lat="42.1800833" lon="14.6115917"><ele>51.0</ele><time>2026-05-01T11:37:54.9Z</time></trkpt><trkpt lat="42.18" lon="14.6116"><ele>51.0</ele><time>2026-05-01T11:37:56.9Z</time></trkpt><trkpt lat="42.1799267" lon="14.6115917"><ele>51.0</ele><time>2026-05-01T11:37:58.9Z</time></trkpt><trkpt lat="42.179845" lon="14.6115783"><ele>51.0</ele><time>2026-05-01T11:38:00.899Z</time></trkpt><trkpt lat="42.179745" lon="14.6115667"><ele>51.0</ele><time>2026-05-01T11:38:02.9Z</time></trkpt><trkpt lat="42.1796417" lon="14.611565"><ele>51.0</ele><time>2026-05-01T11:38:04.899Z</time></trkpt><trkpt lat="42.179535" lon="14.6115733"><ele>51.599999999999994</ele><time>2026-05-01T11:38:06.899Z</time></trkpt><trkpt lat="42.179435" lon="14.6115833"><ele>52.2</ele><time>2026-05-01T11:38:08.9Z</time></trkpt><trkpt lat="42.179335" lon="14.6115983"><ele>52.800000000000004</ele><time>2026-05-01T11:38:10.9Z</time></trkpt><trkpt lat="42.1792333" lon="14.61162"><ele>53.400000000000006</ele><time>2026-05-01T11:38:12.9Z</time></trkpt><trkpt lat="42.179135" lon="14.6116217"><ele>54.0</ele><time>2026-05-01T11:38:14.9Z</time></trkpt><trkpt lat="42.1790417" lon="14.6116133"><ele>54.2</ele><time>2026-05-01T11:38:16.9Z</time></trkpt><trkpt lat="42.17895" lon="14.6116017"><ele>54.400000000000006</ele><time>2026-05-01T11:38:18.899Z</time></trkpt><trkpt lat="42.1788583" lon="14.61159"><ele>54.6</ele><time>2026-05-01T11:38:20.899Z</time></trkpt><trkpt lat="42.1787667" lon="14.6115833"><ele>54.8</ele><time>2026-05-01T11:38:22.9Z</time></trkpt><trkpt lat="42.1786667" lon="14.6115733"><ele>55.0</ele><time>2026-05-01T11:38:24.899Z</time></trkpt><trkpt lat="42.178575" lon="14.6115633"><ele>54.99999999999999</ele><time>2026-05-01T11:38:26.9Z</time></trkpt><trkpt lat="42.178485" lon="14.6115367"><ele>55.0</ele><time>2026-05-01T11:38:28.9Z</time></trkpt><trkpt lat="42.1783933" lon="14.6115"><ele>55.0</ele><time>2026-05-01T11:38:30.9Z</time></trkpt><trkpt lat="42.1783167" lon="14.6114567"><ele>55.0</ele><time>2026-05-01T11:38:32.9Z</time></trkpt><trkpt lat="42.1782317" lon="14.611415"><ele>54.99999999999999</ele><time>2026-05-01T11:38:34.899Z</time></trkpt><trkpt lat="42.178155" lon="14.6113567"><ele>55.0</ele><time>2026-05-01T11:38:36.9Z</time></trkpt><trkpt lat="42.1780767" lon="14.6113033"><ele>55.2</ele><time>2026-05-01T11:38:38.899Z</time></trkpt><trkpt lat="42.1779983" lon="14.61125"><ele>55.4</ele><time>2026-05-01T11:38:40.9Z</time></trkpt><trkpt lat="42.177915" lon="14.6112367"><ele>55.599999999999994</ele><time>2026-05-01T11:38:42.899Z</time></trkpt><trkpt lat="42.1778167" lon="14.6112483"><ele>55.8</ele><time>2026-05-01T11:38:44.899Z</time></trkpt><trkpt lat="42.1777183" lon="14.6112567"><ele>56.0</ele><time>2026-05-01T11:38:46.899Z</time></trkpt><trkpt lat="42.1776133" lon="14.611265"><ele>56.00000000000001</ele><time>2026-05-01T11:38:48.9Z</time></trkpt><trkpt lat="42.1775167" lon="14.6112717"><ele>56.0</ele><time>2026-05-01T11:38:50.9Z</time></trkpt><trkpt lat="42.177425" lon="14.6112933"><ele>56.0</ele><time>2026-05-01T11:38:52.9Z</time></trkpt><trkpt lat="42.1773533" lon="14.6113283"><ele>56.0</ele><time>2026-05-01T11:38:54.9Z</time></trkpt><trkpt lat="42.1772617" lon="14.6113517"><ele>56.00000000000001</ele><time>2026-05-01T11:38:57.9Z</time></trkpt><trkpt lat="42.1771983" lon="14.6113483"><ele>56.0</ele><time>2026-05-01T11:38:59.9Z</time></trkpt><trkpt lat="42.177125" lon="14.6113433"><ele>56.42857142857143</ele><time>2026-05-01T11:39:01.899Z</time></trkpt><trkpt lat="42.177055" lon="14.6113467"><ele>56.85714285714286</ele><time>2026-05-01T11:39:03.899Z</time></trkpt><trkpt lat="42.176965" lon="14.6113783"><ele>57.285714285714285</ele><time>2026-05-01T11:39:06.9Z</time></trkpt><trkpt lat="42.1768983" lon="14.6114033"><ele>57.714285714285715</ele><time>2026-05-01T11:39:08.9Z</time></trkpt><trkpt lat="42.1768267" lon="14.61142"><ele>58.142857142857146</ele><time>2026-05-01T11:39:10.899Z</time></trkpt><trkpt lat="42.1767567" lon="14.6114283"><ele>58.57142857142857</ele><time>2026-05-01T11:39:12.9Z</time></trkpt><trkpt lat="42.1766917" lon="14.611415"><ele>59.0</ele><time>2026-05-01T11:39:14.899Z</time></trkpt><trkpt lat="42.1766183" lon="14.61137"><ele>59.00000000000001</ele><time>2026-05-01T11:39:17.899Z</time></trkpt><trkpt lat="42.1765517" lon="14.6112967"><ele>59.0</ele><time>2026-05-01T11:39:20.9Z</time></trkpt><trkpt lat="42.1764917" lon="14.6112133"><ele>59.0</ele><time>2026-05-01T11:39:23.9Z</time></trkpt><trkpt lat="42.1764233" lon="14.6111467"><ele>59.0</ele><time>2026-05-01T11:39:26.9Z</time></trkpt><trkpt lat="42.1763533" lon="14.6110717"><ele>59.00000000000001</ele><time>2026-05-01T11:39:29.899Z</time></trkpt><trkpt lat="42.17629" lon="14.610995"><ele>59.0</ele><time>2026-05-01T11:39:32.9Z</time></trkpt><trkpt lat="42.176235" lon="14.6109183"><ele>60.16666666666667</ele><time>2026-05-01T11:39:35.9Z</time></trkpt><trkpt lat="42.1761683" lon="14.6108467"><ele>61.333333333333336</ele><time>2026-05-01T11:39:38.9Z</time></trkpt><trkpt lat="42.1761017" lon="14.610775"><ele>62.5</ele><time>2026-05-01T11:39:41.9Z</time></trkpt><trkpt lat="42.1760433" lon="14.6107017"><ele>63.66666666666667</ele><time>2026-05-01T11:39:44.9Z</time></trkpt><trkpt lat="42.17599" lon="14.610635"><ele>64.83333333333333</ele><time>2026-05-01T11:39:47.9Z</time></trkpt><trkpt lat="42.1759333" lon="14.6105667"><ele>66.0</ele><time>2026-05-01T11:39:50.899Z</time></trkpt><trkpt lat="42.17587" lon="14.6105"><ele>66.0</ele><time>2026-05-01T11:39:53.9Z</time></trkpt><trkpt lat="42.1758083" lon="14.6104433"><ele>66.0</ele><time>2026-05-01T11:39:56.9Z</time></trkpt><trkpt lat="42.1757417" lon="14.6104083"><ele>66.0</ele><time>2026-05-01T11:39:59.9Z</time></trkpt><trkpt lat="42.17567" lon="14.610385"><ele>66.0</ele><time>2026-05-01T11:40:02.899Z</time></trkpt><trkpt lat="42.175585" lon="14.6103683"><ele>66.0</ele><time>2026-05-01T11:40:05.899Z</time></trkpt><trkpt lat="42.175505" lon="14.6103467"><ele>66.0</ele><time>2026-05-01T11:40:08.899Z</time></trkpt><trkpt lat="42.1754383" lon="14.6103233"><ele>68.83333333333333</ele><time>2026-05-01T11:40:11.9Z</time></trkpt><trkpt lat="42.1753617" lon="14.6103033"><ele>71.66666666666667</ele><time>2026-05-01T11:40:14.9Z</time></trkpt><trkpt lat="42.175275" lon="14.610295"><ele>74.5</ele><time>2026-05-01T11:40:17.9Z</time></trkpt><trkpt lat="42.1751817" lon="14.610295"><ele>77.33333333333334</ele><time>2026-05-01T11:40:20.9Z</time></trkpt><trkpt lat="42.1750933" lon="14.6102767"><ele>80.16666666666667</ele><time>2026-05-01T11:40:23.9Z</time></trkpt><trkpt lat="42.1750167" lon="14.6102533"><ele>83.0</ele><time>2026-05-01T11:40:26.899Z</time></trkpt><trkpt lat="42.1749417" lon="14.6102267"><ele>83.0</ele><time>2026-05-01T11:40:29.899Z</time></trkpt><trkpt lat="42.1748633" lon="14.61021"><ele>83.0</ele><time>2026-05-01T11:40:32.9Z</time></trkpt><trkpt lat="42.1747683" lon="14.6102"><ele>83.0</ele><time>2026-05-01T11:40:35.9Z</time></trkpt><trkpt lat="42.1747033" lon="14.610185"><ele>83.0</ele><time>2026-05-01T11:40:37.899Z</time></trkpt><trkpt lat="42.174615" lon="14.61016"><ele>83.0</ele><time>2026-05-01T11:40:40.9Z</time></trkpt><trkpt lat="42.1745367" lon="14.610135"><ele>83.0</ele><time>2026-05-01T11:40:43.9Z</time></trkpt><trkpt lat="42.1744517" lon="14.6101117"><ele>84.66666666666667</ele><time>2026-05-01T11:40:46.9Z</time></trkpt><trkpt lat="42.1743717" lon="14.6100817"><ele>86.33333333333334</ele><time>2026-05-01T11:40:49.9Z</time></trkpt><trkpt lat="42.1742983" lon="14.6100533"><ele>88.0</ele><time>2026-05-01T11:40:52.899Z</time></trkpt><trkpt lat="42.1742217" lon="14.610025"><ele>89.66666666666667</ele><time>2026-05-01T11:40:55.9Z</time></trkpt><trkpt lat="42.1741417" lon="14.610015"><ele>91.33333333333333</ele><time>2026-05-01T11:40:58.9Z</time></trkpt><trkpt lat="42.174055" lon="14.6100133"><ele>93.0</ele><time>2026-05-01T11:41:01.9Z</time></trkpt><trkpt lat="42.17397" lon="14.610005"><ele>94.0</ele><time>2026-05-01T11:41:04.9Z</time></trkpt><trkpt lat="42.1738817" lon="14.6099817"><ele>95.0</ele><time>2026-05-01T11:41:07.9Z</time></trkpt><trkpt lat="42.1737983" lon="14.6099767"><ele>96.0</ele><time>2026-05-01T11:41:10.9Z</time></trkpt><trkpt lat="42.17372" lon="14.6099967"><ele>97.0</ele><time>2026-05-01T11:41:13.9Z</time></trkpt><trkpt lat="42.1736433" lon="14.6100233"><ele>98.0</ele><time>2026-05-01T11:41:16.9Z</time></trkpt><trkpt lat="42.1735733" lon="14.610035"><ele>99.0</ele><time>2026-05-01T11:41:18.899Z</time></trkpt><trkpt lat="42.1734817" lon="14.6100367"><ele>99.0</ele><time>2026-05-01T11:41:21.899Z</time></trkpt><trkpt lat="42.1734017" lon="14.6099817"><ele>99.0</ele><time>2026-05-01T11:41:24.899Z</time></trkpt><trkpt lat="42.1733417" lon="14.6099267"><ele>99.0</ele><time>2026-05-01T11:41:26.899Z</time></trkpt><trkpt lat="42.173275" lon="14.6098583"><ele>99.0</ele><time>2026-05-01T11:41:28.9Z</time></trkpt><trkpt lat="42.1731983" lon="14.609785"><ele>99.0</ele><time>2026-05-01T11:41:30.9Z</time></trkpt><trkpt lat="42.17312" lon="14.6097067"><ele>99.0</ele><time>2026-05-01T11:41:32.9Z</time></trkpt><trkpt lat="42.1730367" lon="14.6096383"><ele>99.2</ele><time>2026-05-01T11:41:34.9Z</time></trkpt><trkpt lat="42.172945" lon="14.6095883"><ele>99.4</ele><time>2026-05-01T11:41:36.9Z</time></trkpt><trkpt lat="42.1728583" lon="14.609545"><ele>99.6</ele><time>2026-05-01T11:41:38.9Z</time></trkpt><trkpt lat="42.1727667" lon="14.6094933"><ele>99.8</ele><time>2026-05-01T11:41:40.9Z</time></trkpt><trkpt lat="42.1726983" lon="14.6094317"><ele>100.0</ele><time>2026-05-01T11:41:42.899Z</time></trkpt><trkpt lat="42.172645" lon="14.6093533"><ele>101.6</ele><time>2026-05-01T11:41:44.9Z</time></trkpt><trkpt lat="42.1725817" lon="14.6092633"><ele>103.2</ele><time>2026-05-01T11:41:46.9Z</time></trkpt><trkpt lat="42.1725133" lon="14.60917"><ele>104.80000000000001</ele><time>2026-05-01T11:41:48.899Z</time></trkpt><trkpt lat="42.1724483" lon="14.6090833"><ele>106.4</ele><time>2026-05-01T11:41:50.899Z</time></trkpt><trkpt lat="42.1723817" lon="14.6089883"><ele>108.0</ele><time>2026-05-01T11:41:52.9Z</time></trkpt><trkpt lat="42.1723083" lon="14.6089017"><ele>108.0</ele><time>2026-05-01T11:41:54.9Z</time></trkpt><trkpt lat="42.1722367" lon="14.608805"><ele>108.00000000000001</ele><time>2026-05-01T11:41:56.9Z</time></trkpt><trkpt lat="42.1721683" lon="14.6087167"><ele>108.00000000000001</ele><time>2026-05-01T11:41:58.9Z</time></trkpt><trkpt lat="42.1721" lon="14.6086233"><ele>108.0</ele><time>2026-05-01T11:42:00.899Z</time></trkpt><trkpt lat="42.1720183" lon="14.6085467"><ele>108.0</ele><time>2026-05-01T11:42:02.9Z</time></trkpt><trkpt lat="42.171935" lon="14.6084767"><ele>108.80000000000001</ele><time>2026-05-01T11:42:04.899Z</time></trkpt><trkpt lat="42.1718667" lon="14.6084"><ele>109.60000000000001</ele><time>2026-05-01T11:42:06.9Z</time></trkpt><trkpt lat="42.1717967" lon="14.60832"><ele>110.39999999999999</ele><time>2026-05-01T11:42:08.899Z</time></trkpt><trkpt lat="42.1717233" lon="14.60823"><ele>111.19999999999999</ele><time>2026-05-01T11:42:10.899Z</time></trkpt><trkpt lat="42.171645" lon="14.60813"><ele>112.0</ele><time>2026-05-01T11:42:12.9Z</time></trkpt><trkpt lat="42.17158" lon="14.6080183"><ele>112.0</ele><time>2026-05-01T11:42:14.9Z</time></trkpt><trkpt lat="42.171515" lon="14.6079117"><ele>111.99999999999999</ele><time>2026-05-01T11:42:16.9Z</time></trkpt><trkpt lat="42.17144" lon="14.6078067"><ele>111.99999999999999</ele><time>2026-05-01T11:42:18.9Z</time></trkpt><trkpt lat="42.1713633" lon="14.60771"><ele>112.0</ele><time>2026-05-01T11:42:20.899Z</time></trkpt><trkpt lat="42.1712967" lon="14.6075967"><ele>112.0</ele><time>2026-05-01T11:42:22.9Z</time></trkpt><trkpt lat="42.171235" lon="14.607495"><ele>112.6</ele><time>2026-05-01T11:42:24.9Z</time></trkpt><trkpt lat="42.1711783" lon="14.607405"><ele>113.19999999999999</ele><time>2026-05-01T11:42:26.9Z</time></trkpt><trkpt lat="42.1711117" lon="14.6073"><ele>113.8</ele><time>2026-05-01T11:42:28.9Z</time></trkpt><trkpt lat="42.17104" lon="14.60719"><ele>114.4</ele><time>2026-05-01T11:42:30.9Z</time></trkpt><trkpt lat="42.1709533" lon="14.60708"><ele>115.0</ele><time>2026-05-01T11:42:32.899Z</time></trkpt><trkpt lat="42.170865" lon="14.60698"><ele>115.25</ele><time>2026-05-01T11:42:34.9Z</time></trkpt><trkpt lat="42.170775" lon="14.60688"><ele>115.5</ele><time>2026-05-01T11:42:36.9Z</time></trkpt><trkpt lat="42.1706883" lon="14.6067833"><ele>115.75</ele><time>2026-05-01T11:42:38.899Z</time></trkpt><trkpt lat="42.1706017" lon="14.6066767"><ele>116.0</ele><time>2026-05-01T11:42:40.9Z</time></trkpt><trkpt lat="42.170525" lon="14.60656"><ele>116.25</ele><time>2026-05-01T11:42:42.899Z</time></trkpt><trkpt lat="42.1704483" lon="14.60644"><ele>116.5</ele><time>2026-05-01T11:42:44.9Z</time></trkpt><trkpt lat="42.17037" lon="14.606335"><ele>116.75</ele><time>2026-05-01T11:42:46.899Z</time></trkpt><trkpt lat="42.1702783" lon="14.6062433"><ele>117.0</ele><time>2026-05-01T11:42:48.899Z</time></trkpt><trkpt lat="42.1702" lon="14.60614"><ele>117.0</ele><time>2026-05-01T11:42:50.9Z</time></trkpt><trkpt lat="42.17012" lon="14.6060467"><ele>116.99999999999999</ele><time>2026-05-01T11:42:52.899Z</time></trkpt><trkpt lat="42.1700367" lon="14.6059567"><ele>116.99999999999999</ele><time>2026-05-01T11:42:54.9Z</time></trkpt><trkpt lat="42.1699533" lon="14.605855"><ele>117.0</ele><time>2026-05-01T11:42:56.9Z</time></trkpt><trkpt lat="42.1698767" lon="14.605755"><ele>117.0</ele><time>2026-05-01T11:42:58.9Z</time></trkpt><trkpt lat="42.1697867" lon="14.605645"><ele>117.5</ele><time>2026-05-01T11:43:00.9Z</time></trkpt><trkpt lat="42.1696983" lon="14.6055383"><ele>118.0</ele><time>2026-05-01T11:43:02.9Z</time></trkpt><trkpt lat="42.1696217" lon="14.6054333"><ele>118.5</ele><time>2026-05-01T11:43:04.9Z</time></trkpt><trkpt lat="42.1695317" lon="14.60533"><ele>119.0</ele><time>2026-05-01T11:43:06.9Z</time></trkpt><trkpt lat="42.1694483" lon="14.6052233"><ele>119.0</ele><time>2026-05-01T11:43:08.9Z</time></trkpt><trkpt lat="42.1693683" lon="14.605135"><ele>119.0</ele><time>2026-05-01T11:43:10.9Z</time></trkpt><trkpt lat="42.169295" lon="14.6050317"><ele>119.0</ele><time>2026-05-01T11:43:12.9Z</time></trkpt><trkpt lat="42.1692167" lon="14.604925"><ele>119.0</ele><time>2026-05-01T11:43:14.9Z</time></trkpt><trkpt lat="42.1691667" lon="14.6048683"><ele>119.0</ele><time>2026-05-01T11:43:15.9Z</time></trkpt><trkpt lat="42.1690833" lon="14.6047633"><ele>119.5</ele><time>2026-05-01T11:43:17.899Z</time></trkpt><trkpt lat="42.1690083" lon="14.6046417"><ele>120.0</ele><time>2026-05-01T11:43:19.9Z</time></trkpt><trkpt lat="42.1689317" lon="14.6045233"><ele>120.5</ele><time>2026-05-01T11:43:21.899Z</time></trkpt><trkpt lat="42.1688533" lon="14.6044117"><ele>121.0</ele><time>2026-05-01T11:43:23.9Z</time></trkpt><trkpt lat="42.1687833" lon="14.6042983"><ele>121.25</ele><time>2026-05-01T11:43:25.9Z</time></trkpt><trkpt lat="42.1687033" lon="14.60419"><ele>121.5</ele><time>2026-05-01T11:43:27.9Z</time></trkpt><trkpt lat="42.1686233" lon="14.6040767"><ele>121.75</ele><time>2026-05-01T11:43:29.9Z</time></trkpt><trkpt lat="42.1685417" lon="14.6039683"><ele>122.0</ele><time>2026-05-01T11:43:31.899Z</time></trkpt><trkpt lat="42.1684583" lon="14.6038717"><ele>122.0</ele><time>2026-05-01T11:43:33.9Z</time></trkpt><trkpt lat="42.1683883" lon="14.6037583"><ele>122.0</ele><time>2026-05-01T11:43:35.9Z</time></trkpt><trkpt lat="42.1683283" lon="14.6036217"><ele>122.0</ele><time>2026-05-01T11:43:37.9Z</time></trkpt><trkpt lat="42.1682667" lon="14.60349"><ele>122.0</ele><time>2026-05-01T11:43:39.9Z</time></trkpt><trkpt lat="42.1681983" lon="14.6033667"><ele>122.75</ele><time>2026-05-01T11:43:41.9Z</time></trkpt><trkpt lat="42.168125" lon="14.603245"><ele>123.5</ele><time>2026-05-01T11:43:43.899Z</time></trkpt><trkpt lat="42.1680483" lon="14.6031267"><ele>124.25</ele><time>2026-05-01T11:43:45.9Z</time></trkpt><trkpt lat="42.1679633" lon="14.60302"><ele>125.0</ele><time>2026-05-01T11:43:47.9Z</time></trkpt><trkpt lat="42.1678783" lon="14.6029167"><ele>124.8</ele><time>2026-05-01T11:43:49.9Z</time></trkpt><trkpt lat="42.1677917" lon="14.6028233"><ele>124.6</ele><time>2026-05-01T11:43:51.9Z</time></trkpt><trkpt lat="42.167705" lon="14.6027267"><ele>124.4</ele><time>2026-05-01T11:43:53.9Z</time></trkpt><trkpt lat="42.1676317" lon="14.6026267"><ele>124.2</ele><time>2026-05-01T11:43:55.899Z</time></trkpt><trkpt lat="42.167565" lon="14.602525"><ele>124.0</ele><time>2026-05-01T11:43:57.9Z</time></trkpt><trkpt lat="42.16748" lon="14.6024233"><ele>124.0</ele><time>2026-05-01T11:43:59.9Z</time></trkpt><trkpt lat="42.1674267" lon="14.6023683"><ele>124.0</ele><time>2026-05-01T11:44:00.9Z</time></trkpt><trkpt lat="42.1673717" lon="14.602315"><ele>124.0</ele><time>2026-05-01T11:44:01.9Z</time></trkpt><trkpt lat="42.167285" lon="14.6022133"><ele>124.0</ele><time>2026-05-01T11:44:03.899Z</time></trkpt><trkpt lat="42.1672083" lon="14.6021017"><ele>124.0</ele><time>2026-05-01T11:44:05.9Z</time></trkpt><trkpt lat="42.1671233" lon="14.6020017"><ele>124.75</ele><time>2026-05-01T11:44:07.9Z</time></trkpt><trkpt lat="42.16704" lon="14.6018967"><ele>125.5</ele><time>2026-05-01T11:44:09.9Z</time></trkpt><trkpt lat="42.1669533" lon="14.60179"><ele>126.25</ele><time>2026-05-01T11:44:11.9Z</time></trkpt><trkpt lat="42.16687" lon="14.6016917"><ele>127.0</ele><time>2026-05-01T11:44:13.9Z</time></trkpt><trkpt lat="42.1667883" lon="14.6015933"><ele>127.0</ele><time>2026-05-01T11:44:15.9Z</time></trkpt><trkpt lat="42.166705" lon="14.6015"><ele>126.99999999999999</ele><time>2026-05-01T11:44:17.9Z</time></trkpt><trkpt lat="42.166625" lon="14.6013917"><ele>126.99999999999999</ele><time>2026-05-01T11:44:19.899Z</time></trkpt><trkpt lat="42.1665467" lon="14.6012867"><ele>127.0</ele><time>2026-05-01T11:44:21.9Z</time></trkpt><trkpt lat="42.1664617" lon="14.6011933"><ele>127.0</ele><time>2026-05-01T11:44:23.899Z</time></trkpt><trkpt lat="42.1663717" lon="14.6010967"><ele>127.75</ele><time>2026-05-01T11:44:25.9Z</time></trkpt><trkpt lat="42.16629" lon="14.6009933"><ele>128.5</ele><time>2026-05-01T11:44:27.9Z</time></trkpt><trkpt lat="42.1662" lon="14.6008933"><ele>129.25</ele><time>2026-05-01T11:44:29.9Z</time></trkpt><trkpt lat="42.1661133" lon="14.60079"><ele>130.0</ele><time>2026-05-01T11:44:31.899Z</time></trkpt><trkpt lat="42.1660283" lon="14.6006883"><ele>130.0</ele><time>2026-05-01T11:44:33.9Z</time></trkpt><trkpt lat="42.1659333" lon="14.6005867"><ele>130.0</ele><time>2026-05-01T11:44:35.9Z</time></trkpt><trkpt lat="42.1658517" lon="14.60048"><ele>130.0</ele><time>2026-05-01T11:44:37.899Z</time></trkpt><trkpt lat="42.165765" lon="14.6003833"><ele>130.0</ele><time>2026-05-01T11:44:39.9Z</time></trkpt><trkpt lat="42.16568" lon="14.6002883"><ele>130.4</ele><time>2026-05-01T11:44:41.9Z</time></trkpt><trkpt lat="42.1656017" lon="14.6001967"><ele>130.8</ele><time>2026-05-01T11:44:43.9Z</time></trkpt><trkpt lat="42.1655183" lon="14.6001033"><ele>131.2</ele><time>2026-05-01T11:44:45.9Z</time></trkpt><trkpt lat="42.165445" lon="14.6000133"><ele>131.6</ele><time>2026-05-01T11:44:47.9Z</time></trkpt><trkpt lat="42.165385" lon="14.59993"><ele>132.0</ele><time>2026-05-01T11:44:49.9Z</time></trkpt><trkpt lat="42.1653367" lon="14.5998033"><ele>132.0</ele><time>2026-05-01T11:44:51.9Z</time></trkpt><trkpt lat="42.1652933" lon="14.59967"><ele>132.0</ele><time>2026-05-01T11:44:53.9Z</time></trkpt><trkpt lat="42.1652767" lon="14.599585"><ele>132.0</ele><time>2026-05-01T11:44:54.9Z</time></trkpt><trkpt lat="42.165235" lon="14.59943"><ele>132.0</ele><time>2026-05-01T11:44:56.899Z</time></trkpt><trkpt lat="42.1651833" lon="14.5992767"><ele>132.0</ele><time>2026-05-01T11:44:58.9Z</time></trkpt><trkpt lat="42.1651083" lon="14.5991433"><ele>132.0</ele><time>2026-05-01T11:45:00.899Z</time></trkpt><trkpt lat="42.16503" lon="14.5990067"><ele>132.0</ele><time>2026-05-01T11:45:02.899Z</time></trkpt><trkpt lat="42.16499" lon="14.59894"><ele>132.0</ele><time>2026-05-01T11:45:03.9Z</time></trkpt><trkpt lat="42.1649133" lon="14.5988183"><ele>132.0</ele><time>2026-05-01T11:45:05.899Z</time></trkpt><trkpt lat="42.1648333" lon="14.5987067"><ele>132.0</ele><time>2026-05-01T11:45:07.9Z</time></trkpt><trkpt lat="42.16476" lon="14.5985883"><ele>132.4</ele><time>2026-05-01T11:45:09.9Z</time></trkpt><trkpt lat="42.1646833" lon="14.5984833"><ele>132.79999999999998</ele><time>2026-05-01T11:45:11.9Z</time></trkpt><trkpt lat="42.1646033" lon="14.5983833"><ele>133.2</ele><time>2026-05-01T11:45:13.9Z</time></trkpt><trkpt lat="42.164515" lon="14.5982933"><ele>133.6</ele><time>2026-05-01T11:45:15.9Z</time></trkpt><trkpt lat="42.1644367" lon="14.5982183"><ele>134.0</ele><time>2026-05-01T11:45:17.9Z</time></trkpt><trkpt lat="42.164345" lon="14.598145"><ele>134.0</ele><time>2026-05-01T11:45:19.899Z</time></trkpt><trkpt lat="42.16425" lon="14.5980683"><ele>134.0</ele><time>2026-05-01T11:45:21.9Z</time></trkpt><trkpt lat="42.1641467" lon="14.59799"><ele>134.0</ele><time>2026-05-01T11:45:23.9Z</time></trkpt><trkpt lat="42.1640483" lon="14.59793"><ele>134.0</ele><time>2026-05-01T11:45:25.9Z</time></trkpt><trkpt lat="42.1639417" lon="14.59788"><ele>134.6</ele><time>2026-05-01T11:45:27.899Z</time></trkpt><trkpt lat="42.1638333" lon="14.5978333"><ele>135.2</ele><time>2026-05-01T11:45:29.9Z</time></trkpt><trkpt lat="42.16373" lon="14.5977917"><ele>135.79999999999998</ele><time>2026-05-01T11:45:31.9Z</time></trkpt><trkpt lat="42.1636383" lon="14.5977"><ele>136.4</ele><time>2026-05-01T11:45:33.9Z</time></trkpt><trkpt lat="42.16357" lon="14.5975867"><ele>137.0</ele><time>2026-05-01T11:45:35.9Z</time></trkpt><trkpt lat="42.1635017" lon="14.5974883"><ele>137.0</ele><time>2026-05-01T11:45:37.9Z</time></trkpt><trkpt lat="42.163445" lon="14.597385"><ele>137.0</ele><time>2026-05-01T11:45:39.9Z</time></trkpt><trkpt lat="42.1633517" lon="14.5972783"><ele>137.0</ele><time>2026-05-01T11:45:41.9Z</time></trkpt><trkpt lat="42.1632783" lon="14.59716"><ele>137.0</ele><time>2026-05-01T11:45:43.9Z</time></trkpt><trkpt lat="42.1632133" lon="14.5970367"><ele>137.0</ele><time>2026-05-01T11:45:45.9Z</time></trkpt><trkpt lat="42.163145" lon="14.5969117"><ele>138.0</ele><time>2026-05-01T11:45:47.9Z</time></trkpt><trkpt lat="42.1630767" lon="14.5967817"><ele>139.0</ele><time>2026-05-01T11:45:49.9Z</time></trkpt><trkpt lat="42.163005" lon="14.596665"><ele>140.0</ele><time>2026-05-01T11:45:51.9Z</time></trkpt><trkpt lat="42.162925" lon="14.59655"><ele>141.0</ele><time>2026-05-01T11:45:53.899Z</time></trkpt><trkpt lat="42.1628533" lon="14.5964317"><ele>141.0</ele><time>2026-05-01T11:45:55.9Z</time></trkpt><trkpt lat="42.1627817" lon="14.5963167"><ele>141.0</ele><time>2026-05-01T11:45:57.9Z</time></trkpt><trkpt lat="42.16271" lon="14.5961983"><ele>141.0</ele><time>2026-05-01T11:45:59.9Z</time></trkpt><trkpt lat="42.1626367" lon="14.59608"><ele>141.0</ele><time>2026-05-01T11:46:01.9Z</time></trkpt><trkpt lat="42.1625683" lon="14.59596"><ele>141.0</ele><time>2026-05-01T11:46:03.9Z</time></trkpt><trkpt lat="42.16249" lon="14.5958417"><ele>141.0</ele><time>2026-05-01T11:46:05.9Z</time></trkpt><trkpt lat="42.1624217" lon="14.5957217"><ele>141.0</ele><time>2026-05-01T11:46:07.9Z</time></trkpt><trkpt lat="42.1623533" lon="14.5956083"><ele>141.0</ele><time>2026-05-01T11:46:09.9Z</time></trkpt><trkpt lat="42.16228" lon="14.5954917"><ele>141.2</ele><time>2026-05-01T11:46:11.899Z</time></trkpt><trkpt lat="42.16221" lon="14.595375"><ele>141.39999999999998</ele><time>2026-05-01T11:46:13.9Z</time></trkpt><trkpt lat="42.162135" lon="14.595265"><ele>141.6</ele><time>2026-05-01T11:46:15.9Z</time></trkpt><trkpt lat="42.1620583" lon="14.5951483"><ele>141.79999999999998</ele><time>2026-05-01T11:46:17.9Z</time></trkpt><trkpt lat="42.161985" lon="14.5950367"><ele>142.0</ele><time>2026-05-01T11:46:19.9Z</time></trkpt><trkpt lat="42.1619067" lon="14.5949317"><ele>142.0</ele><time>2026-05-01T11:46:21.9Z</time></trkpt><trkpt lat="42.1618317" lon="14.5948217"><ele>142.0</ele><time>2026-05-01T11:46:23.9Z</time></trkpt><trkpt lat="42.1617533" lon="14.5947183"><ele>142.0</ele><time>2026-05-01T11:46:25.899Z</time></trkpt><trkpt lat="42.1616883" lon="14.594605"><ele>142.0</ele><time>2026-05-01T11:46:27.899Z</time></trkpt><trkpt lat="42.1616033" lon="14.5945033"><ele>142.0</ele><time>2026-05-01T11:46:29.9Z</time></trkpt><trkpt lat="42.161515" lon="14.594405"><ele>143.25</ele><time>2026-05-01T11:46:31.9Z</time></trkpt><trkpt lat="42.1614333" lon="14.5943083"><ele>144.5</ele><time>2026-05-01T11:46:33.9Z</time></trkpt><trkpt lat="42.1613533" lon="14.5941917"><ele>145.75</ele><time>2026-05-01T11:46:35.9Z</time></trkpt><trkpt lat="42.161275" lon="14.5940733"><ele>147.0</ele><time>2026-05-01T11:46:37.899Z</time></trkpt><trkpt lat="42.161205" lon="14.5939617"><ele>147.0</ele><time>2026-05-01T11:46:39.899Z</time></trkpt><trkpt lat="42.1611317" lon="14.5938567"><ele>147.0</ele><time>2026-05-01T11:46:41.9Z</time></trkpt><trkpt lat="42.1610517" lon="14.593765"><ele>147.0</ele><time>2026-05-01T11:46:43.9Z</time></trkpt><trkpt lat="42.1609617" lon="14.5936667"><ele>147.0</ele><time>2026-05-01T11:46:45.9Z</time></trkpt><trkpt lat="42.1608833" lon="14.593555"><ele>147.0</ele><time>2026-05-01T11:46:47.9Z</time></trkpt><trkpt lat="42.1608083" lon="14.5934367"><ele>147.25</ele><time>2026-05-01T11:46:49.9Z</time></trkpt><trkpt lat="42.16074" lon="14.59333"><ele>147.5</ele><time>2026-05-01T11:46:51.9Z</time></trkpt><trkpt lat="42.1606633" lon="14.5932217"><ele>147.75</ele><time>2026-05-01T11:46:53.899Z</time></trkpt><trkpt lat="42.1605733" lon="14.593115"><ele>148.0</ele><time>2026-05-01T11:46:55.9Z</time></trkpt><trkpt lat="42.1604867" lon="14.59301"><ele>148.5</ele><time>2026-05-01T11:46:57.899Z</time></trkpt><trkpt lat="42.1604" lon="14.5929033"><ele>149.0</ele><time>2026-05-01T11:46:59.9Z</time></trkpt><trkpt lat="42.1603183" lon="14.592795"><ele>149.5</ele><time>2026-05-01T11:47:01.9Z</time></trkpt><trkpt lat="42.160225" lon="14.5926967"><ele>150.0</ele><time>2026-05-01T11:47:03.9Z</time></trkpt><trkpt lat="42.160125" lon="14.5926083"><ele>150.4</ele><time>2026-05-01T11:47:05.9Z</time></trkpt><trkpt lat="42.1600333" lon="14.59252"><ele>150.8</ele><time>2026-05-01T11:47:07.899Z</time></trkpt><trkpt lat="42.159955" lon="14.5924233"><ele>151.2</ele><time>2026-05-01T11:47:09.9Z</time></trkpt><trkpt lat="42.15987" lon="14.59233"><ele>151.6</ele><time>2026-05-01T11:47:11.9Z</time></trkpt><trkpt lat="42.159785" lon="14.59223"><ele>152.0</ele><time>2026-05-01T11:47:13.9Z</time></trkpt><trkpt lat="42.1597" lon="14.5921317"><ele>152.2</ele><time>2026-05-01T11:47:15.9Z</time></trkpt><trkpt lat="42.1596067" lon="14.5920367"><ele>152.39999999999998</ele><time>2026-05-01T11:47:17.9Z</time></trkpt><trkpt lat="42.1595533" lon="14.5919917"><ele>152.60000000000002</ele><time>2026-05-01T11:47:18.899Z</time></trkpt><trkpt lat="42.159455" lon="14.591905"><ele>152.8</ele><time>2026-05-01T11:47:20.9Z</time></trkpt><trkpt lat="42.15936" lon="14.591815"><ele>153.0</ele><time>2026-05-01T11:47:22.899Z</time></trkpt><trkpt lat="42.159265" lon="14.5917167"><ele>153.25</ele><time>2026-05-01T11:47:24.9Z</time></trkpt><trkpt lat="42.15918" lon="14.59162"><ele>153.5</ele><time>2026-05-01T11:47:26.899Z</time></trkpt><trkpt lat="42.15909" lon="14.5915233"><ele>153.75</ele><time>2026-05-01T11:47:28.899Z</time></trkpt><trkpt lat="42.159" lon="14.5914217"><ele>154.0</ele><time>2026-05-01T11:47:30.9Z</time></trkpt><trkpt lat="42.1589133" lon="14.59132"><ele>154.2</ele><time>2026-05-01T11:47:32.9Z</time></trkpt><trkpt lat="42.15883" lon="14.59122"><ele>154.4</ele><time>2026-05-01T11:47:34.9Z</time></trkpt><trkpt lat="42.15875" lon="14.5911233"><ele>154.6</ele><time>2026-05-01T11:47:36.9Z</time></trkpt><trkpt lat="42.15867" lon="14.5910233"><ele>154.8</ele><time>2026-05-01T11:47:38.9Z</time></trkpt><trkpt lat="42.1585917" lon="14.5909267"><ele>155.0</ele><time>2026-05-01T11:47:40.9Z</time></trkpt><trkpt lat="42.158505" lon="14.5908217"><ele>155.0</ele><time>2026-05-01T11:47:42.899Z</time></trkpt><trkpt lat="42.1584183" lon="14.5907117"><ele>155.0</ele><time>2026-05-01T11:47:44.9Z</time></trkpt><trkpt lat="42.1583233" lon="14.5906133"><ele>155.0</ele><time>2026-05-01T11:47:46.899Z</time></trkpt><trkpt lat="42.1582283" lon="14.59052"><ele>155.0</ele><time>2026-05-01T11:47:48.899Z</time></trkpt><trkpt lat="42.1581317" lon="14.5904283"><ele>155.0</ele><time>2026-05-01T11:47:50.9Z</time></trkpt><trkpt lat="42.158035" lon="14.5903467"><ele>155.0</ele><time>2026-05-01T11:47:52.9Z</time></trkpt><trkpt lat="42.1579433" lon="14.5902617"><ele>155.0</ele><time>2026-05-01T11:47:54.899Z</time></trkpt><trkpt lat="42.1578433" lon="14.5901817"><ele>155.0</ele><time>2026-05-01T11:47:56.9Z</time></trkpt><trkpt lat="42.1577483" lon="14.5900983"><ele>155.0</ele><time>2026-05-01T11:47:58.9Z</time></trkpt><trkpt lat="42.1576583" lon="14.5900217"><ele>155.0</ele><time>2026-05-01T11:48:00.899Z</time></trkpt><trkpt lat="42.157555" lon="14.589945"><ele>155.0</ele><time>2026-05-01T11:48:02.9Z</time></trkpt><trkpt lat="42.15745" lon="14.5898617"><ele>155.0</ele><time>2026-05-01T11:48:04.9Z</time></trkpt><trkpt lat="42.1573467" lon="14.5897767"><ele>155.0</ele><time>2026-05-01T11:48:06.899Z</time></trkpt><trkpt lat="42.1572517" lon="14.5896967"><ele>155.0</ele><time>2026-05-01T11:48:08.9Z</time></trkpt><trkpt lat="42.1571583" lon="14.589615"><ele>155.0</ele><time>2026-05-01T11:48:10.9Z</time></trkpt><trkpt lat="42.15706" lon="14.5895267"><ele>155.0</ele><time>2026-05-01T11:48:12.9Z</time></trkpt><trkpt lat="42.1569683" lon="14.5894267"><ele>156.0</ele><time>2026-05-01T11:48:14.9Z</time></trkpt><trkpt lat="42.156885" lon="14.5893133"><ele>157.0</ele><time>2026-05-01T11:48:16.9Z</time></trkpt><trkpt lat="42.1568083" lon="14.5891917"><ele>158.0</ele><time>2026-05-01T11:48:18.9Z</time></trkpt><trkpt lat="42.1567267" lon="14.5890733"><ele>159.0</ele><time>2026-05-01T11:48:20.9Z</time></trkpt><trkpt lat="42.1566467" lon="14.588955"><ele>159.0</ele><time>2026-05-01T11:48:22.899Z</time></trkpt><trkpt lat="42.156565" lon="14.58884"><ele>159.0</ele><time>2026-05-01T11:48:24.9Z</time></trkpt><trkpt lat="42.1565017" lon="14.588715"><ele>159.0</ele><time>2026-05-01T11:48:26.9Z</time></trkpt><trkpt lat="42.156425" lon="14.5885983"><ele>159.0</ele><time>2026-05-01T11:48:28.9Z</time></trkpt><trkpt lat="42.1563483" lon="14.588475"><ele>159.25</ele><time>2026-05-01T11:48:30.9Z</time></trkpt><trkpt lat="42.1562683" lon="14.5883617"><ele>159.5</ele><time>2026-05-01T11:48:32.899Z</time></trkpt><trkpt lat="42.1561933" lon="14.588235"><ele>159.75</ele><time>2026-05-01T11:48:34.9Z</time></trkpt><trkpt lat="42.1561217" lon="14.58811"><ele>160.0</ele><time>2026-05-01T11:48:36.9Z</time></trkpt><trkpt lat="42.1560417" lon="14.5879883"><ele>160.0</ele><time>2026-05-01T11:48:38.899Z</time></trkpt><trkpt lat="42.155965" lon="14.5878683"><ele>160.0</ele><time>2026-05-01T11:48:40.9Z</time></trkpt><trkpt lat="42.155895" lon="14.5877517"><ele>160.0</ele><time>2026-05-01T11:48:42.9Z</time></trkpt><trkpt lat="42.1558267" lon="14.58763"><ele>160.0</ele><time>2026-05-01T11:48:44.9Z</time></trkpt><trkpt lat="42.1557483" lon="14.5875167"><ele>160.5</ele><time>2026-05-01T11:48:46.9Z</time></trkpt><trkpt lat="42.1556667" lon="14.587405"><ele>161.0</ele><time>2026-05-01T11:48:48.9Z</time></trkpt><trkpt lat="42.155585" lon="14.5873"><ele>161.5</ele><time>2026-05-01T11:48:50.9Z</time></trkpt><trkpt lat="42.155505" lon="14.5871967"><ele>162.0</ele><time>2026-05-01T11:48:52.9Z</time></trkpt><trkpt lat="42.1554183" lon="14.58709"><ele>162.5</ele><time>2026-05-01T11:48:54.9Z</time></trkpt><trkpt lat="42.1553383" lon="14.586975"><ele>163.0</ele><time>2026-05-01T11:48:56.9Z</time></trkpt><trkpt lat="42.15526" lon="14.5868683"><ele>163.5</ele><time>2026-05-01T11:48:58.9Z</time></trkpt><trkpt lat="42.155185" lon="14.586755"><ele>164.0</ele><time>2026-05-01T11:49:00.9Z</time></trkpt><trkpt lat="42.15511" lon="14.5866417"><ele>164.0</ele><time>2026-05-01T11:49:02.9Z</time></trkpt><trkpt lat="42.1550483" lon="14.58651"><ele>164.0</ele><time>2026-05-01T11:49:04.9Z</time></trkpt><trkpt lat="42.1549833" lon="14.586375"><ele>164.0</ele><time>2026-05-01T11:49:06.9Z</time></trkpt><trkpt lat="42.1549233" lon="14.586245"><ele>164.0</ele><time>2026-05-01T11:49:08.9Z</time></trkpt><trkpt lat="42.1548667" lon="14.5861167"><ele>165.2</ele><time>2026-05-01T11:49:10.9Z</time></trkpt><trkpt lat="42.15481" lon="14.585985"><ele>166.39999999999998</ele><time>2026-05-01T11:49:12.899Z</time></trkpt><trkpt lat="42.1547567" lon="14.585865"><ele>167.6</ele><time>2026-05-01T11:49:14.9Z</time></trkpt><trkpt lat="42.1547183" lon="14.5857667"><ele>168.8</ele><time>2026-05-01T11:49:16.899Z</time></trkpt><trkpt lat="42.1546767" lon="14.585655"><ele>170.0</ele><time>2026-05-01T11:49:18.9Z</time></trkpt><trkpt lat="42.154625" lon="14.58554"><ele>170.0</ele><time>2026-05-01T11:49:20.899Z</time></trkpt><trkpt lat="42.1545733" lon="14.5854333"><ele>170.0</ele><time>2026-05-01T11:49:22.899Z</time></trkpt><trkpt lat="42.1544983" lon="14.5853183"><ele>170.0</ele><time>2026-05-01T11:49:24.899Z</time></trkpt><trkpt lat="42.1544" lon="14.585235"><ele>170.0</ele><time>2026-05-01T11:49:26.899Z</time></trkpt><trkpt lat="42.1543" lon="14.5851967"><ele>170.0</ele><time>2026-05-01T11:49:28.9Z</time></trkpt><trkpt lat="42.1541967" lon="14.5851783"><ele>170.4</ele><time>2026-05-01T11:49:30.9Z</time></trkpt><trkpt lat="42.1540933" lon="14.5851733"><ele>170.8</ele><time>2026-05-01T11:49:32.9Z</time></trkpt><trkpt lat="42.1539817" lon="14.585175"><ele>171.2</ele><time>2026-05-01T11:49:34.9Z</time></trkpt><trkpt lat="42.1538733" lon="14.5851817"><ele>171.6</ele><time>2026-05-01T11:49:36.9Z</time></trkpt><trkpt lat="42.1537683" lon="14.5851867"><ele>172.0</ele><time>2026-05-01T11:49:38.9Z</time></trkpt><trkpt lat="42.15366" lon="14.5852033"><ele>172.83333333333334</ele><time>2026-05-01T11:49:40.9Z</time></trkpt><trkpt lat="42.15357" lon="14.5852167"><ele>173.66666666666669</ele><time>2026-05-01T11:49:42.899Z</time></trkpt><trkpt lat="42.1534967" lon="14.58522"><ele>174.5</ele><time>2026-05-01T11:49:44.9Z</time></trkpt><trkpt lat="42.1534367" lon="14.5852533"><ele>175.33333333333334</ele><time>2026-05-01T11:49:46.9Z</time></trkpt><trkpt lat="42.1533633" lon="14.5852583"><ele>176.16666666666666</ele><time>2026-05-01T11:49:48.9Z</time></trkpt><trkpt lat="42.1532817" lon="14.5852733"><ele>177.0</ele><time>2026-05-01T11:49:50.899Z</time></trkpt><trkpt lat="42.1531783" lon="14.5852867"><ele>179.39999999999998</ele><time>2026-05-01T11:49:52.899Z</time></trkpt><trkpt lat="42.1530833" lon="14.585275"><ele>181.79999999999998</ele><time>2026-05-01T11:49:54.9Z</time></trkpt><trkpt lat="42.1529933" lon="14.58523"><ele>184.2</ele><time>2026-05-01T11:49:56.9Z</time></trkpt><trkpt lat="42.1529017" lon="14.5851917"><ele>186.6</ele><time>2026-05-01T11:49:58.9Z</time></trkpt><trkpt lat="42.1528267" lon="14.5851483"><ele>189.0</ele><time>2026-05-01T11:50:00.9Z</time></trkpt><trkpt lat="42.1527533" lon="14.5850917"><ele>189.0</ele><time>2026-05-01T11:50:03.9Z</time></trkpt><trkpt lat="42.1526717" lon="14.5850383"><ele>189.0</ele><time>2026-05-01T11:50:05.9Z</time></trkpt><trkpt lat="42.15259" lon="14.5849367"><ele>189.0</ele><time>2026-05-01T11:50:07.899Z</time></trkpt><trkpt lat="42.1525117" lon="14.5848833"><ele>189.0</ele><time>2026-05-01T11:50:09.9Z</time></trkpt><trkpt lat="42.1524283" lon="14.5848083"><ele>189.0</ele><time>2026-05-01T11:50:11.9Z</time></trkpt><trkpt lat="42.1523433" lon="14.58474"><ele>190.83333333333334</ele><time>2026-05-01T11:50:13.899Z</time></trkpt><trkpt lat="42.1522517" lon="14.5847333"><ele>192.66666666666669</ele><time>2026-05-01T11:50:15.9Z</time></trkpt><trkpt lat="42.1521583" lon="14.584745"><ele>194.5</ele><time>2026-05-01T11:50:17.899Z</time></trkpt><trkpt lat="42.152085" lon="14.5847517"><ele>196.33333333333334</ele><time>2026-05-01T11:50:19.9Z</time></trkpt><trkpt lat="42.152" lon="14.58476"><ele>198.16666666666669</ele><time>2026-05-01T11:50:22.899Z</time></trkpt><trkpt lat="42.1519283" lon="14.5847917"><ele>200.0</ele><time>2026-05-01T11:50:24.9Z</time></trkpt><trkpt lat="42.1518383" lon="14.5848183"><ele>200.00000000000003</ele><time>2026-05-01T11:50:26.9Z</time></trkpt><trkpt lat="42.151755" lon="14.5847917"><ele>200.0</ele><time>2026-05-01T11:50:28.899Z</time></trkpt><trkpt lat="42.1516467" lon="14.5848367"><ele>200.0</ele><time>2026-05-01T11:50:31.899Z</time></trkpt><trkpt lat="42.1515567" lon="14.58487"><ele>200.0</ele><time>2026-05-01T11:50:33.9Z</time></trkpt><trkpt lat="42.1514917" lon="14.584875"><ele>200.00000000000003</ele><time>2026-05-01T11:50:35.9Z</time></trkpt><trkpt lat="42.15143" lon="14.58484"><ele>200.0</ele><time>2026-05-01T11:50:37.9Z</time></trkpt><trkpt lat="42.15135" lon="14.58479"><ele>201.2</ele><time>2026-05-01T11:50:40.899Z</time></trkpt><trkpt lat="42.1512817" lon="14.5847017"><ele>202.4</ele><time>2026-05-01T11:50:43.9Z</time></trkpt><trkpt lat="42.151215" lon="14.5846983"><ele>203.60000000000002</ele><time>2026-05-01T11:50:44.899Z</time></trkpt><trkpt lat="42.1510883" lon="14.5846983"><ele>204.8</ele><time>2026-05-01T11:50:46.899Z</time></trkpt><trkpt lat="42.151005" lon="14.58468"><ele>206.0</ele><time>2026-05-01T11:50:48.899Z</time></trkpt><trkpt lat="42.150865" lon="14.5846933"><ele>206.00000000000003</ele><time>2026-05-01T11:50:50.899Z</time></trkpt><trkpt lat="42.1507783" lon="14.584685"><ele>206.0</ele><time>2026-05-01T11:50:52.9Z</time></trkpt><trkpt lat="42.1507133" lon="14.5847133"><ele>206.0</ele><time>2026-05-01T11:50:54.9Z</time></trkpt><trkpt lat="42.1506417" lon="14.58475"><ele>206.0</ele><time>2026-05-01T11:50:56.9Z</time></trkpt><trkpt lat="42.1505833" lon="14.584805"><ele>206.00000000000003</ele><time>2026-05-01T11:50:58.9Z</time></trkpt><trkpt lat="42.1505267" lon="14.5848683"><ele>206.0</ele><time>2026-05-01T11:51:00.899Z</time></trkpt><trkpt lat="42.15047" lon="14.584935"><ele>205.83333333333334</ele><time>2026-05-01T11:51:02.9Z</time></trkpt><trkpt lat="42.1504117" lon="14.5849833"><ele>205.66666666666669</ele><time>2026-05-01T11:51:04.9Z</time></trkpt><trkpt lat="42.1503367" lon="14.585015"><ele>205.5</ele><time>2026-05-01T11:51:06.9Z</time></trkpt><trkpt lat="42.1502517" lon="14.5850467"><ele>205.33333333333331</ele><time>2026-05-01T11:51:08.899Z</time></trkpt><trkpt lat="42.1501633" lon="14.5850933"><ele>205.16666666666666</ele><time>2026-05-01T11:51:10.9Z</time></trkpt><trkpt lat="42.1500967" lon="14.58511"><ele>205.0</ele><time>2026-05-01T11:51:12.9Z</time></trkpt><trkpt lat="42.1499667" lon="14.585075"><ele>205.0</ele><time>2026-05-01T11:51:15.9Z</time></trkpt><trkpt lat="42.1499017" lon="14.5852133"><ele>205.0</ele><time>2026-05-01T11:51:26.899Z</time></trkpt></trkseg></trk></gpx>